<?xml version='1.0' encoding='UTF-8'?><gpx version="1.1" creator="JPX - https://github.com/jenetics/jpx" xmlns="http://www.topografix.com/GPX/1/1"><trk><trkseg><trkpt lat="51.4178117" lon="-0.0873145"><ele>91.0</ele><time>2026-03-25T14:45:24.317Z</time></trkpt><trkpt lat="51.4177675" lon="-0.0872329"><ele>91.0</ele><time>2026-03-25T14:45:27.315Z</time></trkpt><trkpt lat="51.417705" lon="-0.0871469"><ele>91.0</ele><time>2026-03-25T14:45:29.315Z</time></trkpt><trkpt lat="51.417622" lon="-0.0870444"><ele>91.0</ele><time>2026-03-25T14:45:31.314Z</time></trkpt><trkpt lat="51.417537" lon="-0.0869488"><ele>91.0</ele><time>2026-03-25T14:45:33.315Z</time></trkpt><trkpt lat="51.4174522" lon="-0.0868742"><ele>91.0</ele><time>2026-03-25T14:45:35.314Z</time></trkpt><trkpt lat="51.4173707" lon="-0.0868465"><ele>91.0</ele><time>2026-03-25T14:45:37.314Z</time></trkpt><trkpt lat="51.4172879" lon="-0.0868709"><ele>91.0</ele><time>2026-03-25T14:45:39.315Z</time></trkpt><trkpt lat="51.4171936" lon="-0.0870634"><ele>91.0</ele><time>2026-03-25T14:45:41.314Z</time></trkpt><trkpt lat="51.4171568" lon="-0.0871466"><ele>91.0</ele><time>2026-03-25T14:45:42.316Z</time></trkpt><trkpt lat="51.4171148" lon="-0.0872389"><ele>90.83333333333333</ele><time>2026-03-25T14:45:43.315Z</time></trkpt><trkpt lat="51.4170339" lon="-0.0874146"><ele>90.66666666666666</ele><time>2026-03-25T14:45:45.316Z</time></trkpt><trkpt lat="51.4169953" lon="-0.0874994"><ele>90.5</ele><time>2026-03-25T14:45:46.316Z</time></trkpt><trkpt lat="51.4169593" lon="-0.0875973"><ele>90.33333333333333</ele><time>2026-03-25T14:45:47.314Z</time></trkpt><trkpt lat="51.4169201" lon="-0.0876978"><ele>90.16666666666667</ele><time>2026-03-25T14:45:48.316Z</time></trkpt><trkpt lat="51.4168757" lon="-0.087807"><ele>90.0</ele><time>2026-03-25T14:45:49.315Z</time></trkpt><trkpt lat="51.4168266" lon="-0.0879207"><ele>90.0</ele><time>2026-03-25T14:45:50.316Z</time></trkpt><trkpt lat="51.4167697" lon="-0.0880336"><ele>90.0</ele><time>2026-03-25T14:45:51.317Z</time></trkpt><trkpt lat="51.41671" lon="-0.0881423"><ele>90.0</ele><time>2026-03-25T14:45:52.317Z</time></trkpt><trkpt lat="51.4166528" lon="-0.0882471"><ele>90.0</ele><time>2026-03-25T14:45:53.317Z</time></trkpt><trkpt lat="51.4165958" lon="-0.088349"><ele>90.0</ele><time>2026-03-25T14:45:54.316Z</time></trkpt><trkpt lat="51.4165362" lon="-0.088458"><ele>90.0</ele><time>2026-03-25T14:45:55.315Z</time></trkpt><trkpt lat="51.4164725" lon="-0.0885796"><ele>90.16666666666667</ele><time>2026-03-25T14:45:56.319Z</time></trkpt><trkpt lat="51.4164157" lon="-0.0886969"><ele>90.33333333333333</ele><time>2026-03-25T14:45:57.315Z</time></trkpt><trkpt lat="51.4163557" lon="-0.088793"><ele>90.5</ele><time>2026-03-25T14:45:58.314Z</time></trkpt><trkpt lat="51.4162972" lon="-0.0888805"><ele>90.66666666666666</ele><time>2026-03-25T14:45:59.316Z</time></trkpt><trkpt lat="51.4162434" lon="-0.0889567"><ele>90.83333333333333</ele><time>2026-03-25T14:46:00.314Z</time></trkpt><trkpt lat="51.4161582" lon="-0.0890852"><ele>91.0</ele><time>2026-03-25T14:46:02.318Z</time></trkpt><trkpt lat="51.4160848" lon="-0.0891913"><ele>91.0</ele><time>2026-03-25T14:46:04.314Z</time></trkpt><trkpt lat="51.4160031" lon="-0.0893011"><ele>91.0</ele><time>2026-03-25T14:46:06.315Z</time></trkpt><trkpt lat="51.4159115" lon="-0.089434"><ele>91.0</ele><time>2026-03-25T14:46:08.315Z</time></trkpt><trkpt lat="51.4158629" lon="-0.0895057"><ele>91.0</ele><time>2026-03-25T14:46:09.315Z</time></trkpt><trkpt lat="51.4158159" lon="-0.0895763"><ele>91.0</ele><time>2026-03-25T14:46:10.314Z</time></trkpt><trkpt lat="51.4157366" lon="-0.089687"><ele>91.0</ele><time>2026-03-25T14:46:12.315Z</time></trkpt><trkpt lat="51.4156666" lon="-0.0897777"><ele>91.0</ele><time>2026-03-25T14:46:14.314Z</time></trkpt><trkpt lat="51.4155858" lon="-0.0898681"><ele>91.0</ele><time>2026-03-25T14:46:16.315Z</time></trkpt><trkpt lat="51.4155244" lon="-0.0899425"><ele>91.0</ele><time>2026-03-25T14:46:18.314Z</time></trkpt><trkpt lat="51.4154553" lon="-0.0900232"><ele>91.0</ele><time>2026-03-25T14:46:22.314Z</time></trkpt><trkpt lat="51.4153695" lon="-0.0901455"><ele>91.4</ele><time>2026-03-25T14:46:24.315Z</time></trkpt><trkpt lat="51.4152766" lon="-0.0902492"><ele>91.8</ele><time>2026-03-25T14:46:26.315Z</time></trkpt><trkpt lat="51.4152067" lon="-0.0903289"><ele>92.2</ele><time>2026-03-25T14:46:28.315Z</time></trkpt><trkpt lat="51.4151185" lon="-0.090434"><ele>92.60000000000001</ele><time>2026-03-25T14:46:30.315Z</time></trkpt><trkpt lat="51.4150641" lon="-0.0905006"><ele>93.0</ele><time>2026-03-25T14:46:31.318Z</time></trkpt><trkpt lat="51.4150059" lon="-0.0905692"><ele>93.0</ele><time>2026-03-25T14:46:32.315Z</time></trkpt><trkpt lat="51.4149451" lon="-0.0906452"><ele>93.0</ele><time>2026-03-25T14:46:33.314Z</time></trkpt><trkpt lat="51.414889" lon="-0.0907214"><ele>93.0</ele><time>2026-03-25T14:46:34.314Z</time></trkpt><trkpt lat="51.4147965" lon="-0.0908465"><ele>93.0</ele><time>2026-03-25T14:46:36.315Z</time></trkpt><trkpt lat="51.4147387" lon="-0.0909145"><ele>93.0</ele><time>2026-03-25T14:46:37.315Z</time></trkpt><trkpt lat="51.4146692" lon="-0.0910004"><ele>93.0</ele><time>2026-03-25T14:46:38.315Z</time></trkpt><trkpt lat="51.4145852" lon="-0.0911102"><ele>93.5</ele><time>2026-03-25T14:46:39.317Z</time></trkpt><trkpt lat="51.4145043" lon="-0.09122"><ele>94.0</ele><time>2026-03-25T14:46:40.314Z</time></trkpt><trkpt lat="51.4144325" lon="-0.0913147"><ele>94.5</ele><time>2026-03-25T14:46:41.315Z</time></trkpt><trkpt lat="51.4143644" lon="-0.0913964"><ele>95.0</ele><time>2026-03-25T14:46:42.315Z</time></trkpt><trkpt lat="51.4143032" lon="-0.0914706"><ele>95.5</ele><time>2026-03-25T14:46:43.315Z</time></trkpt><trkpt lat="51.4142464" lon="-0.0915341"><ele>96.0</ele><time>2026-03-25T14:46:44.314Z</time></trkpt><trkpt lat="51.4141492" lon="-0.0916404"><ele>96.33333333333333</ele><time>2026-03-25T14:46:46.314Z</time></trkpt><trkpt lat="51.4140844" lon="-0.0917254"><ele>96.66666666666666</ele><time>2026-03-25T14:46:48.317Z</time></trkpt><trkpt lat="51.4140091" lon="-0.0918167"><ele>97.0</ele><time>2026-03-25T14:46:51.321Z</time></trkpt><trkpt lat="51.4139525" lon="-0.0918716"><ele>97.33333333333333</ele><time>2026-03-25T14:46:53.318Z</time></trkpt><trkpt lat="51.4138931" lon="-0.0919173"><ele>97.66666666666666</ele><time>2026-03-25T14:47:04.315Z</time></trkpt><trkpt lat="51.4138266" lon="-0.0919701"><ele>98.0</ele><time>2026-03-25T14:47:09.315Z</time></trkpt><trkpt lat="51.4137505" lon="-0.0919158"><ele>98.0</ele><time>2026-03-25T14:47:15.315Z</time></trkpt><trkpt lat="51.4136757" lon="-0.091778"><ele>98.0</ele><time>2026-03-25T14:47:17.314Z</time></trkpt><trkpt lat="51.4136099" lon="-0.091627"><ele>98.0</ele><time>2026-03-25T14:47:19.314Z</time></trkpt><trkpt lat="51.4135495" lon="-0.0914684"><ele>98.0</ele><time>2026-03-25T14:47:21.314Z</time></trkpt><trkpt lat="51.4134987" lon="-0.0913352"><ele>98.0</ele><time>2026-03-25T14:47:23.314Z</time></trkpt><trkpt lat="51.4134431" lon="-0.0911922"><ele>98.33333333333333</ele><time>2026-03-25T14:47:25.315Z</time></trkpt><trkpt lat="51.4133993" lon="-0.0910592"><ele>98.66666666666666</ele><time>2026-03-25T14:47:27.315Z</time></trkpt><trkpt lat="51.4133561" lon="-0.0909315"><ele>99.0</ele><time>2026-03-25T14:47:29.313Z</time></trkpt><trkpt lat="51.4133117" lon="-0.0907993"><ele>99.33333333333334</ele><time>2026-03-25T14:47:31.315Z</time></trkpt><trkpt lat="51.413278" lon="-0.090706"><ele>99.66666666666667</ele><time>2026-03-25T14:47:33.316Z</time></trkpt><trkpt lat="51.4132457" lon="-0.0906115"><ele>100.0</ele><time>2026-03-25T14:47:35.314Z</time></trkpt><trkpt lat="51.4131955" lon="-0.0904761"><ele>100.4</ele><time>2026-03-25T14:47:37.315Z</time></trkpt><trkpt lat="51.4131445" lon="-0.0903317"><ele>100.8</ele><time>2026-03-25T14:47:39.315Z</time></trkpt><trkpt lat="51.4130997" lon="-0.0901936"><ele>101.19999999999999</ele><time>2026-03-25T14:47:41.314Z</time></trkpt><trkpt lat="51.4130627" lon="-0.0900734"><ele>101.6</ele><time>2026-03-25T14:47:43.316Z</time></trkpt><trkpt lat="51.4130188" lon="-0.0899384"><ele>102.0</ele><time>2026-03-25T14:47:45.315Z</time></trkpt><trkpt lat="51.4129622" lon="-0.0898096"><ele>102.6</ele><time>2026-03-25T14:47:47.314Z</time></trkpt><trkpt lat="51.4129099" lon="-0.089691"><ele>103.19999999999999</ele><time>2026-03-25T14:47:49.316Z</time></trkpt><trkpt lat="51.4128646" lon="-0.0895612"><ele>103.8</ele><time>2026-03-25T14:47:51.314Z</time></trkpt><trkpt lat="51.4128254" lon="-0.0894148"><ele>104.4</ele><time>2026-03-25T14:47:53.315Z</time></trkpt><trkpt lat="51.4127885" lon="-0.0892965"><ele>105.0</ele><time>2026-03-25T14:47:55.315Z</time></trkpt><trkpt lat="51.41274" lon="-0.0891823"><ele>105.8</ele><time>2026-03-25T14:47:57.314Z</time></trkpt><trkpt lat="51.4126943" lon="-0.0890509"><ele>106.6</ele><time>2026-03-25T14:47:59.314Z</time></trkpt><trkpt lat="51.4126516" lon="-0.0889367"><ele>107.4</ele><time>2026-03-25T14:48:01.314Z</time></trkpt><trkpt lat="51.4125988" lon="-0.0888012"><ele>108.2</ele><time>2026-03-25T14:48:03.315Z</time></trkpt><trkpt lat="51.4125468" lon="-0.0886775"><ele>109.0</ele><time>2026-03-25T14:48:05.319Z</time></trkpt><trkpt lat="51.4125016" lon="-0.0885687"><ele>109.00000000000001</ele><time>2026-03-25T14:48:07.314Z</time></trkpt><trkpt lat="51.4124245" lon="-0.0884595"><ele>109.0</ele><time>2026-03-25T14:48:09.315Z</time></trkpt><trkpt lat="51.4123505" lon="-0.0883888"><ele>109.0</ele><time>2026-03-25T14:48:11.314Z</time></trkpt><trkpt lat="51.4122774" lon="-0.0883321"><ele>109.0</ele><time>2026-03-25T14:48:13.317Z</time></trkpt><trkpt lat="51.4122158" lon="-0.0882737"><ele>109.00000000000001</ele><time>2026-03-25T14:48:15.315Z</time></trkpt><trkpt lat="51.4121564" lon="-0.0882197"><ele>109.0</ele><time>2026-03-25T14:48:17.315Z</time></trkpt><trkpt lat="51.4120719" lon="-0.0881659"><ele>110.2</ele><time>2026-03-25T14:48:20.315Z</time></trkpt><trkpt lat="51.4119926" lon="-0.0881258"><ele>111.4</ele><time>2026-03-25T14:48:22.313Z</time></trkpt><trkpt lat="51.4118866" lon="-0.0880599"><ele>112.6</ele><time>2026-03-25T14:48:24.314Z</time></trkpt><trkpt lat="51.4117821" lon="-0.0879783"><ele>113.8</ele><time>2026-03-25T14:48:26.321Z</time></trkpt><trkpt lat="51.4116855" lon="-0.0879063"><ele>115.0</ele><time>2026-03-25T14:48:28.315Z</time></trkpt><trkpt lat="51.4115983" lon="-0.0878454"><ele>115.00000000000001</ele><time>2026-03-25T14:48:30.314Z</time></trkpt><trkpt lat="51.4115041" lon="-0.0877849"><ele>115.0</ele><time>2026-03-25T14:48:32.314Z</time></trkpt><trkpt lat="51.4114079" lon="-0.0877197"><ele>115.0</ele><time>2026-03-25T14:48:34.314Z</time></trkpt><trkpt lat="51.4113441" lon="-0.0876794"><ele>115.0</ele><time>2026-03-25T14:48:36.317Z</time></trkpt><trkpt lat="51.4112831" lon="-0.0876423"><ele>115.00000000000001</ele><time>2026-03-25T14:48:38.314Z</time></trkpt><trkpt lat="51.4112242" lon="-0.0875993"><ele>115.0</ele><time>2026-03-25T14:48:41.314Z</time></trkpt><trkpt lat="51.4111587" lon="-0.0876993"><ele>115.4</ele><time>2026-03-25T14:48:45.316Z</time></trkpt><trkpt lat="51.4111019" lon="-0.0878188"><ele>115.8</ele><time>2026-03-25T14:48:47.318Z</time></trkpt><trkpt lat="51.4110428" lon="-0.087942"><ele>116.19999999999999</ele><time>2026-03-25T14:48:49.315Z</time></trkpt><trkpt lat="51.4109708" lon="-0.0880467"><ele>116.6</ele><time>2026-03-25T14:48:51.319Z</time></trkpt><trkpt lat="51.4108905" lon="-0.0881531"><ele>117.0</ele><time>2026-03-25T14:48:53.313Z</time></trkpt><trkpt lat="51.4108099" lon="-0.0882491"><ele>116.33333333333333</ele><time>2026-03-25T14:48:55.315Z</time></trkpt><trkpt lat="51.410715" lon="-0.0883399"><ele>115.66666666666666</ele><time>2026-03-25T14:48:57.319Z</time></trkpt><trkpt lat="51.4106562" lon="-0.0883994"><ele>115.0</ele><time>2026-03-25T14:48:58.32Z</time></trkpt><trkpt lat="51.4105953" lon="-0.0884694"><ele>114.33333333333333</ele><time>2026-03-25T14:48:59.313Z</time></trkpt><trkpt lat="51.4105336" lon="-0.0885353"><ele>113.66666666666666</ele><time>2026-03-25T14:49:00.314Z</time></trkpt><trkpt lat="51.4104689" lon="-0.0885984"><ele>113.0</ele><time>2026-03-25T14:49:01.314Z</time></trkpt><trkpt lat="51.4104005" lon="-0.0886585"><ele>112.49999999999999</ele><time>2026-03-25T14:49:02.315Z</time></trkpt><trkpt lat="51.4103226" lon="-0.0887141"><ele>112.0</ele><time>2026-03-25T14:49:03.318Z</time></trkpt><trkpt lat="51.4102502" lon="-0.0887672"><ele>111.5</ele><time>2026-03-25T14:49:04.317Z</time></trkpt><trkpt lat="51.4101773" lon="-0.0888153"><ele>111.0</ele><time>2026-03-25T14:49:05.317Z</time></trkpt><trkpt lat="51.4100979" lon="-0.0888632"><ele>110.49999999999999</ele><time>2026-03-25T14:49:06.317Z</time></trkpt><trkpt lat="51.4100159" lon="-0.0889097"><ele>110.0</ele><time>2026-03-25T14:49:07.316Z</time></trkpt><trkpt lat="51.4099296" lon="-0.0889502"><ele>110.0</ele><time>2026-03-25T14:49:08.316Z</time></trkpt><trkpt lat="51.409839" lon="-0.0889854"><ele>110.0</ele><time>2026-03-25T14:49:09.318Z</time></trkpt><trkpt lat="51.4097504" lon="-0.0890135"><ele>110.0</ele><time>2026-03-25T14:49:10.318Z</time></trkpt><trkpt lat="51.4096584" lon="-0.0890413"><ele>110.0</ele><time>2026-03-25T14:49:11.318Z</time></trkpt><trkpt lat="51.4095681" lon="-0.0890681"><ele>110.0</ele><time>2026-03-25T14:49:12.316Z</time></trkpt><trkpt lat="51.4094783" lon="-0.0890916"><ele>107.2</ele><time>2026-03-25T14:49:13.316Z</time></trkpt><trkpt lat="51.409387" lon="-0.0891089"><ele>104.4</ele><time>2026-03-25T14:49:14.316Z</time></trkpt><trkpt lat="51.4092967" lon="-0.0891295"><ele>101.6</ele><time>2026-03-25T14:49:15.321Z</time></trkpt><trkpt lat="51.4092006" lon="-0.0891515"><ele>98.8</ele><time>2026-03-25T14:49:16.317Z</time></trkpt><trkpt lat="51.4090989" lon="-0.0891687"><ele>96.0</ele><time>2026-03-25T14:49:17.317Z</time></trkpt><trkpt lat="51.408997" lon="-0.0891874"><ele>96.0</ele><time>2026-03-25T14:49:18.316Z</time></trkpt><trkpt lat="51.4088951" lon="-0.0892026"><ele>96.0</ele><time>2026-03-25T14:49:19.317Z</time></trkpt><trkpt lat="51.4087905" lon="-0.0892102"><ele>96.0</ele><time>2026-03-25T14:49:20.316Z</time></trkpt><trkpt lat="51.4086851" lon="-0.0892119"><ele>96.0</ele><time>2026-03-25T14:49:21.317Z</time></trkpt><trkpt lat="51.4085757" lon="-0.089208"><ele>96.0</ele><time>2026-03-25T14:49:22.317Z</time></trkpt><trkpt lat="51.4084656" lon="-0.0891994"><ele>95.4</ele><time>2026-03-25T14:49:23.313Z</time></trkpt><trkpt lat="51.4083629" lon="-0.089192"><ele>94.8</ele><time>2026-03-25T14:49:24.314Z</time></trkpt><trkpt lat="51.4082613" lon="-0.0891791"><ele>94.2</ele><time>2026-03-25T14:49:25.314Z</time></trkpt><trkpt lat="51.4081599" lon="-0.089165"><ele>93.60000000000001</ele><time>2026-03-25T14:49:26.314Z</time></trkpt><trkpt lat="51.4080643" lon="-0.0891525"><ele>93.0</ele><time>2026-03-25T14:49:27.315Z</time></trkpt><trkpt lat="51.4079683" lon="-0.0891433"><ele>92.5</ele><time>2026-03-25T14:49:28.314Z</time></trkpt><trkpt lat="51.4078767" lon="-0.0891317"><ele>92.0</ele><time>2026-03-25T14:49:29.318Z</time></trkpt><trkpt lat="51.4077933" lon="-0.0891233"><ele>91.5</ele><time>2026-03-25T14:49:30.314Z</time></trkpt><trkpt lat="51.4077117" lon="-0.0891267"><ele>91.0</ele><time>2026-03-25T14:49:31.316Z</time></trkpt><trkpt lat="51.407635" lon="-0.08914"><ele>90.5</ele><time>2026-03-25T14:49:32.314Z</time></trkpt><trkpt lat="51.4075517" lon="-0.089165"><ele>90.0</ele><time>2026-03-25T14:49:33.315Z</time></trkpt><trkpt lat="51.4074633" lon="-0.0892033"><ele>90.0</ele><time>2026-03-25T14:49:34.313Z</time></trkpt><trkpt lat="51.4073767" lon="-0.0892483"><ele>90.0</ele><time>2026-03-25T14:49:35.315Z</time></trkpt><trkpt lat="51.4072867" lon="-0.089305"><ele>90.0</ele><time>2026-03-25T14:49:36.314Z</time></trkpt><trkpt lat="51.4071967" lon="-0.0893567"><ele>90.0</ele><time>2026-03-25T14:49:37.313Z</time></trkpt><trkpt lat="51.4071067" lon="-0.0894"><ele>90.0</ele><time>2026-03-25T14:49:38.315Z</time></trkpt><trkpt lat="51.4070233" lon="-0.0894283"><ele>90.0</ele><time>2026-03-25T14:49:39.314Z</time></trkpt><trkpt lat="51.4069483" lon="-0.089455"><ele>90.0</ele><time>2026-03-25T14:49:40.315Z</time></trkpt><trkpt lat="51.4068867" lon="-0.08948"><ele>90.0</ele><time>2026-03-25T14:49:41.315Z</time></trkpt><trkpt lat="51.4068217" lon="-0.0895017"><ele>90.0</ele><time>2026-03-25T14:49:42.314Z</time></trkpt><trkpt lat="51.4067533" lon="-0.0895183"><ele>90.0</ele><time>2026-03-25T14:49:43.318Z</time></trkpt><trkpt lat="51.406675" lon="-0.0895267"><ele>90.0</ele><time>2026-03-25T14:49:44.313Z</time></trkpt><trkpt lat="51.4065933" lon="-0.08953"><ele>90.0</ele><time>2026-03-25T14:49:45.317Z</time></trkpt><trkpt lat="51.4065067" lon="-0.089505"><ele>90.0</ele><time>2026-03-25T14:49:46.316Z</time></trkpt><trkpt lat="51.40641" lon="-0.0894583"><ele>90.0</ele><time>2026-03-25T14:49:47.317Z</time></trkpt><trkpt lat="51.4063133" lon="-0.0893983"><ele>90.0</ele><time>2026-03-25T14:49:48.318Z</time></trkpt><trkpt lat="51.4062167" lon="-0.0893267"><ele>90.0</ele><time>2026-03-25T14:49:49.314Z</time></trkpt><trkpt lat="51.4061167" lon="-0.08925"><ele>90.0</ele><time>2026-03-25T14:49:50.315Z</time></trkpt><trkpt lat="51.4060067" lon="-0.0891683"><ele>93.5</ele><time>2026-03-25T14:49:51.315Z</time></trkpt><trkpt lat="51.4058983" lon="-0.0890917"><ele>97.0</ele><time>2026-03-25T14:49:52.315Z</time></trkpt><trkpt lat="51.4057917" lon="-0.0890117"><ele>100.5</ele><time>2026-03-25T14:49:53.315Z</time></trkpt><trkpt lat="51.4056817" lon="-0.088935"><ele>104.0</ele><time>2026-03-25T14:49:54.315Z</time></trkpt><trkpt lat="51.4055733" lon="-0.0888517"><ele>104.0</ele><time>2026-03-25T14:49:55.316Z</time></trkpt><trkpt lat="51.405455" lon="-0.088765"><ele>104.0</ele><time>2026-03-25T14:49:56.318Z</time></trkpt><trkpt lat="51.4053383" lon="-0.0886833"><ele>104.0</ele><time>2026-03-25T14:49:57.318Z</time></trkpt><trkpt lat="51.4052133" lon="-0.0886033"><ele>104.0</ele><time>2026-03-25T14:49:58.316Z</time></trkpt><trkpt lat="51.40509" lon="-0.088525"><ele>104.0</ele><time>2026-03-25T14:49:59.318Z</time></trkpt><trkpt lat="51.4049717" lon="-0.088445"><ele>104.0</ele><time>2026-03-25T14:50:00.316Z</time></trkpt><trkpt lat="51.4048583" lon="-0.08836"><ele>104.0</ele><time>2026-03-25T14:50:01.315Z</time></trkpt><trkpt lat="51.4047433" lon="-0.0882683"><ele>104.0</ele><time>2026-03-25T14:50:02.316Z</time></trkpt><trkpt lat="51.4046283" lon="-0.0881833"><ele>104.0</ele><time>2026-03-25T14:50:03.316Z</time></trkpt><trkpt lat="51.4045217" lon="-0.0880933"><ele>104.0</ele><time>2026-03-25T14:50:04.315Z</time></trkpt><trkpt lat="51.4044283" lon="-0.0880133"><ele>104.0</ele><time>2026-03-25T14:50:05.316Z</time></trkpt><trkpt lat="51.40434" lon="-0.08795"><ele>104.0</ele><time>2026-03-25T14:50:06.317Z</time></trkpt><trkpt lat="51.4042567" lon="-0.0878933"><ele>104.0</ele><time>2026-03-25T14:50:07.316Z</time></trkpt><trkpt lat="51.4041817" lon="-0.0878433"><ele>104.0</ele><time>2026-03-25T14:50:08.316Z</time></trkpt><trkpt lat="51.40411" lon="-0.0878"><ele>104.0</ele><time>2026-03-25T14:50:09.316Z</time></trkpt><trkpt lat="51.4040383" lon="-0.087755"><ele>104.0</ele><time>2026-03-25T14:50:10.315Z</time></trkpt><trkpt lat="51.4039667" lon="-0.08772"><ele>104.0</ele><time>2026-03-25T14:50:11.32Z</time></trkpt><trkpt lat="51.4039033" lon="-0.087685"><ele>104.0</ele><time>2026-03-25T14:50:12.318Z</time></trkpt><trkpt lat="51.40384" lon="-0.087655"><ele>104.0</ele><time>2026-03-25T14:50:13.317Z</time></trkpt><trkpt lat="51.40378" lon="-0.0876233"><ele>104.0</ele><time>2026-03-25T14:50:14.317Z</time></trkpt><trkpt lat="51.4036833" lon="-0.087575"><ele>103.66666666666666</ele><time>2026-03-25T14:50:16.316Z</time></trkpt><trkpt lat="51.4035883" lon="-0.08755"><ele>103.33333333333333</ele><time>2026-03-25T14:50:18.316Z</time></trkpt><trkpt lat="51.4034983" lon="-0.0875083"><ele>103.0</ele><time>2026-03-25T14:50:20.316Z</time></trkpt><trkpt lat="51.4034167" lon="-0.0874633"><ele>102.66666666666666</ele><time>2026-03-25T14:50:22.317Z</time></trkpt><trkpt lat="51.4033417" lon="-0.0874283"><ele>102.33333333333333</ele><time>2026-03-25T14:50:24.316Z</time></trkpt><trkpt lat="51.403275" lon="-0.0874067"><ele>102.0</ele><time>2026-03-25T14:50:26.321Z</time></trkpt><trkpt lat="51.4031733" lon="-0.0873733"><ele>101.42857142857143</ele><time>2026-03-25T14:50:28.315Z</time></trkpt><trkpt lat="51.403105" lon="-0.0873417"><ele>100.85714285714286</ele><time>2026-03-25T14:50:29.316Z</time></trkpt><trkpt lat="51.4030383" lon="-0.0873117"><ele>100.28571428571428</ele><time>2026-03-25T14:50:30.316Z</time></trkpt><trkpt lat="51.4029767" lon="-0.0872733"><ele>99.71428571428572</ele><time>2026-03-25T14:50:31.315Z</time></trkpt><trkpt lat="51.40292" lon="-0.0872267"><ele>99.14285714285714</ele><time>2026-03-25T14:50:32.316Z</time></trkpt><trkpt lat="51.4028567" lon="-0.0871817"><ele>98.57142857142857</ele><time>2026-03-25T14:50:33.319Z</time></trkpt><trkpt lat="51.4027983" lon="-0.0871333"><ele>98.0</ele><time>2026-03-25T14:50:34.316Z</time></trkpt><trkpt lat="51.4027367" lon="-0.087085"><ele>96.71428571428571</ele><time>2026-03-25T14:50:35.317Z</time></trkpt><trkpt lat="51.40268" lon="-0.08703"><ele>95.42857142857143</ele><time>2026-03-25T14:50:36.317Z</time></trkpt><trkpt lat="51.4026233" lon="-0.08697"><ele>94.14285714285714</ele><time>2026-03-25T14:50:37.316Z</time></trkpt><trkpt lat="51.402565" lon="-0.0869083"><ele>92.85714285714286</ele><time>2026-03-25T14:50:38.317Z</time></trkpt><trkpt lat="51.4025117" lon="-0.0868467"><ele>91.57142857142857</ele><time>2026-03-25T14:50:39.317Z</time></trkpt><trkpt lat="51.4024633" lon="-0.08678"><ele>90.28571428571428</ele><time>2026-03-25T14:50:40.317Z</time></trkpt><trkpt lat="51.4023833" lon="-0.0866517"><ele>89.0</ele><time>2026-03-25T14:50:42.316Z</time></trkpt><trkpt lat="51.40231" lon="-0.0865417"><ele>88.16666666666667</ele><time>2026-03-25T14:50:44.318Z</time></trkpt><trkpt lat="51.4022567" lon="-0.08645"><ele>87.33333333333334</ele><time>2026-03-25T14:50:46.317Z</time></trkpt><trkpt lat="51.4022133" lon="-0.0863533"><ele>86.5</ele><time>2026-03-25T14:50:48.316Z</time></trkpt><trkpt lat="51.4021767" lon="-0.08624"><ele>85.66666666666667</ele><time>2026-03-25T14:50:50.316Z</time></trkpt><trkpt lat="51.4021417" lon="-0.0861133"><ele>84.83333333333333</ele><time>2026-03-25T14:50:52.316Z</time></trkpt><trkpt lat="51.40211" lon="-0.086"><ele>84.0</ele><time>2026-03-25T14:50:54.317Z</time></trkpt><trkpt lat="51.402085" lon="-0.0858833"><ele>82.16666666666667</ele><time>2026-03-25T14:50:56.318Z</time></trkpt><trkpt lat="51.4020567" lon="-0.0857767"><ele>80.33333333333333</ele><time>2026-03-25T14:50:58.316Z</time></trkpt><trkpt lat="51.4020283" lon="-0.0856717"><ele>78.5</ele><time>2026-03-25T14:51:00.317Z</time></trkpt><trkpt lat="51.401995" lon="-0.0855467"><ele>76.66666666666666</ele><time>2026-03-25T14:51:02.318Z</time></trkpt><trkpt lat="51.4019717" lon="-0.0854517"><ele>74.83333333333333</ele><time>2026-03-25T14:51:03.318Z</time></trkpt><trkpt lat="51.4019417" lon="-0.0853333"><ele>73.0</ele><time>2026-03-25T14:51:04.317Z</time></trkpt><trkpt lat="51.40191" lon="-0.0851967"><ele>72.83333333333333</ele><time>2026-03-25T14:51:05.317Z</time></trkpt><trkpt lat="51.401875" lon="-0.085055"><ele>72.66666666666666</ele><time>2026-03-25T14:51:06.317Z</time></trkpt><trkpt lat="51.4018417" lon="-0.0849183"><ele>72.5</ele><time>2026-03-25T14:51:07.315Z</time></trkpt><trkpt lat="51.401805" lon="-0.0847883"><ele>72.33333333333333</ele><time>2026-03-25T14:51:08.315Z</time></trkpt><trkpt lat="51.4017717" lon="-0.08466"><ele>72.16666666666667</ele><time>2026-03-25T14:51:09.318Z</time></trkpt><trkpt lat="51.4017417" lon="-0.08454"><ele>72.0</ele><time>2026-03-25T14:51:10.317Z</time></trkpt><trkpt lat="51.4017183" lon="-0.0844283"><ele>72.0</ele><time>2026-03-25T14:51:11.316Z</time></trkpt><trkpt lat="51.4016967" lon="-0.0843317"><ele>72.0</ele><time>2026-03-25T14:51:12.316Z</time></trkpt><trkpt lat="51.4016483" lon="-0.0841917"><ele>72.0</ele><time>2026-03-25T14:51:14.316Z</time></trkpt><trkpt lat="51.4016133" lon="-0.0840933"><ele>72.0</ele><time>2026-03-25T14:51:17.313Z</time></trkpt><trkpt lat="51.4015317" lon="-0.0841117"><ele>72.0</ele><time>2026-03-25T14:51:22.315Z</time></trkpt><trkpt lat="51.4014467" lon="-0.0842017"><ele>72.0</ele><time>2026-03-25T14:51:24.315Z</time></trkpt><trkpt lat="51.401385" lon="-0.08426"><ele>70.8</ele><time>2026-03-25T14:51:25.316Z</time></trkpt><trkpt lat="51.4012983" lon="-0.0843433"><ele>69.6</ele><time>2026-03-25T14:51:26.314Z</time></trkpt><trkpt lat="51.4012117" lon="-0.0844167"><ele>68.39999999999999</ele><time>2026-03-25T14:51:27.318Z</time></trkpt><trkpt lat="51.4011233" lon="-0.084485"><ele>67.2</ele><time>2026-03-25T14:51:28.316Z</time></trkpt><trkpt lat="51.40104" lon="-0.08455"><ele>66.0</ele><time>2026-03-25T14:51:29.316Z</time></trkpt><trkpt lat="51.400955" lon="-0.0846267"><ele>66.0</ele><time>2026-03-25T14:51:30.315Z</time></trkpt><trkpt lat="51.40086" lon="-0.08472"><ele>66.0</ele><time>2026-03-25T14:51:31.316Z</time></trkpt><trkpt lat="51.4007683" lon="-0.08481"><ele>66.0</ele><time>2026-03-25T14:51:32.317Z</time></trkpt><trkpt lat="51.400685" lon="-0.0848917"><ele>66.0</ele><time>2026-03-25T14:51:33.316Z</time></trkpt><trkpt lat="51.4006" lon="-0.08497"><ele>66.0</ele><time>2026-03-25T14:51:34.316Z</time></trkpt><trkpt lat="51.4005133" lon="-0.08505"><ele>64.8</ele><time>2026-03-25T14:51:35.316Z</time></trkpt><trkpt lat="51.400425" lon="-0.085125"><ele>63.599999999999994</ele><time>2026-03-25T14:51:36.316Z</time></trkpt><trkpt lat="51.40034" lon="-0.085205"><ele>62.4</ele><time>2026-03-25T14:51:37.316Z</time></trkpt><trkpt lat="51.4002633" lon="-0.0852833"><ele>61.2</ele><time>2026-03-25T14:51:38.314Z</time></trkpt><trkpt lat="51.4001883" lon="-0.0853533"><ele>60.0</ele><time>2026-03-25T14:51:39.315Z</time></trkpt><trkpt lat="51.4001217" lon="-0.0854183"><ele>60.0</ele><time>2026-03-25T14:51:40.316Z</time></trkpt><trkpt lat="51.4000667" lon="-0.0854733"><ele>60.0</ele><time>2026-03-25T14:51:41.315Z</time></trkpt><trkpt lat="51.3999883" lon="-0.0855383"><ele>60.0</ele><time>2026-03-25T14:51:43.313Z</time></trkpt><trkpt lat="51.399925" lon="-0.085595"><ele>60.0</ele><time>2026-03-25T14:51:46.316Z</time></trkpt><trkpt lat="51.399845" lon="-0.0856317"><ele>60.0</ele><time>2026-03-25T14:52:07.314Z</time></trkpt><trkpt lat="51.399745" lon="-0.0855533"><ele>60.0</ele><time>2026-03-25T14:52:09.316Z</time></trkpt><trkpt lat="51.39968" lon="-0.0854933"><ele>59.4</ele><time>2026-03-25T14:52:10.314Z</time></trkpt><trkpt lat="51.3996083" lon="-0.0854133"><ele>58.8</ele><time>2026-03-25T14:52:11.312Z</time></trkpt><trkpt lat="51.399525" lon="-0.0853167"><ele>58.2</ele><time>2026-03-25T14:52:12.315Z</time></trkpt><trkpt lat="51.3994317" lon="-0.085205"><ele>57.6</ele><time>2026-03-25T14:52:13.317Z</time></trkpt><trkpt lat="51.3993417" lon="-0.0850917"><ele>57.0</ele><time>2026-03-25T14:52:14.314Z</time></trkpt><trkpt lat="51.3992483" lon="-0.0849767"><ele>57.75</ele><time>2026-03-25T14:52:15.314Z</time></trkpt><trkpt lat="51.3991483" lon="-0.0848533"><ele>58.5</ele><time>2026-03-25T14:52:16.313Z</time></trkpt><trkpt lat="51.399045" lon="-0.0847283"><ele>59.25</ele><time>2026-03-25T14:52:17.313Z</time></trkpt><trkpt lat="51.3989433" lon="-0.084605"><ele>60.0</ele><time>2026-03-25T14:52:18.314Z</time></trkpt><trkpt lat="51.3988533" lon="-0.0844867"><ele>60.2</ele><time>2026-03-25T14:52:19.314Z</time></trkpt><trkpt lat="51.3987617" lon="-0.0843733"><ele>60.4</ele><time>2026-03-25T14:52:20.314Z</time></trkpt><trkpt lat="51.3986733" lon="-0.0842717"><ele>60.599999999999994</ele><time>2026-03-25T14:52:21.314Z</time></trkpt><trkpt lat="51.3986" lon="-0.0841717"><ele>60.8</ele><time>2026-03-25T14:52:22.314Z</time></trkpt><trkpt lat="51.3985283" lon="-0.0840867"><ele>61.0</ele><time>2026-03-25T14:52:23.313Z</time></trkpt><trkpt lat="51.3984533" lon="-0.084025"><ele>61.49999999999999</ele><time>2026-03-25T14:52:24.314Z</time></trkpt><trkpt lat="51.39839" lon="-0.0839517"><ele>62.0</ele><time>2026-03-25T14:52:25.315Z</time></trkpt><trkpt lat="51.3983267" lon="-0.0838767"><ele>62.5</ele><time>2026-03-25T14:52:26.314Z</time></trkpt><trkpt lat="51.3982617" lon="-0.083795"><ele>63.0</ele><time>2026-03-25T14:52:27.314Z</time></trkpt><trkpt lat="51.3981883" lon="-0.0837067"><ele>63.49999999999999</ele><time>2026-03-25T14:52:28.313Z</time></trkpt><trkpt lat="51.3981183" lon="-0.083615"><ele>64.0</ele><time>2026-03-25T14:52:29.314Z</time></trkpt><trkpt lat="51.3980517" lon="-0.083525"><ele>63.83333333333333</ele><time>2026-03-25T14:52:30.317Z</time></trkpt><trkpt lat="51.397985" lon="-0.0834383"><ele>63.666666666666664</ele><time>2026-03-25T14:52:31.315Z</time></trkpt><trkpt lat="51.3979167" lon="-0.0833417"><ele>63.5</ele><time>2026-03-25T14:52:32.316Z</time></trkpt><trkpt lat="51.39785" lon="-0.08325"><ele>63.33333333333333</ele><time>2026-03-25T14:52:33.313Z</time></trkpt><trkpt lat="51.3977817" lon="-0.0831583"><ele>63.166666666666664</ele><time>2026-03-25T14:52:34.315Z</time></trkpt><trkpt lat="51.3977083" lon="-0.0830633"><ele>63.0</ele><time>2026-03-25T14:52:35.314Z</time></trkpt><trkpt lat="51.39762" lon="-0.08296"><ele>63.5</ele><time>2026-03-25T14:52:36.313Z</time></trkpt><trkpt lat="51.3975267" lon="-0.082845"><ele>64.0</ele><time>2026-03-25T14:52:37.313Z</time></trkpt><trkpt lat="51.39743" lon="-0.0827333"><ele>64.5</ele><time>2026-03-25T14:52:38.314Z</time></trkpt><trkpt lat="51.3973433" lon="-0.082625"><ele>65.0</ele><time>2026-03-25T14:52:39.315Z</time></trkpt><trkpt lat="51.3972617" lon="-0.0825217"><ele>64.83333333333334</ele><time>2026-03-25T14:52:40.313Z</time></trkpt><trkpt lat="51.3971917" lon="-0.0824267"><ele>64.66666666666667</ele><time>2026-03-25T14:52:41.312Z</time></trkpt><trkpt lat="51.3971233" lon="-0.0823417"><ele>64.5</ele><time>2026-03-25T14:52:42.315Z</time></trkpt><trkpt lat="51.3970617" lon="-0.0822683"><ele>64.33333333333333</ele><time>2026-03-25T14:52:43.314Z</time></trkpt><trkpt lat="51.3970033" lon="-0.0822017"><ele>64.16666666666666</ele><time>2026-03-25T14:52:44.315Z</time></trkpt><trkpt lat="51.3969067" lon="-0.0821033"><ele>64.0</ele><time>2026-03-25T14:52:46.313Z</time></trkpt><trkpt lat="51.39684" lon="-0.082065"><ele>63.400000000000006</ele><time>2026-03-25T14:52:48.314Z</time></trkpt><trkpt lat="51.3967767" lon="-0.0820117"><ele>62.800000000000004</ele><time>2026-03-25T14:52:51.313Z</time></trkpt><trkpt lat="51.3967083" lon="-0.0819017"><ele>62.199999999999996</ele><time>2026-03-25T14:53:28.316Z</time></trkpt><trkpt lat="51.3966167" lon="-0.0817567"><ele>61.599999999999994</ele><time>2026-03-25T14:53:30.317Z</time></trkpt><trkpt lat="51.3965533" lon="-0.0816883"><ele>61.0</ele><time>2026-03-25T14:53:31.319Z</time></trkpt><trkpt lat="51.3964783" lon="-0.0816217"><ele>61.0</ele><time>2026-03-25T14:53:32.315Z</time></trkpt><trkpt lat="51.396395" lon="-0.081555"><ele>60.99999999999999</ele><time>2026-03-25T14:53:33.322Z</time></trkpt><trkpt lat="51.3963" lon="-0.081485"><ele>60.99999999999999</ele><time>2026-03-25T14:53:34.312Z</time></trkpt><trkpt lat="51.3962017" lon="-0.0814117"><ele>61.0</ele><time>2026-03-25T14:53:35.314Z</time></trkpt><trkpt lat="51.3960983" lon="-0.08134"><ele>61.0</ele><time>2026-03-25T14:53:36.316Z</time></trkpt><trkpt lat="51.3959933" lon="-0.081265"><ele>60.5</ele><time>2026-03-25T14:53:37.313Z</time></trkpt><trkpt lat="51.395885" lon="-0.0811883"><ele>60.0</ele><time>2026-03-25T14:53:38.314Z</time></trkpt><trkpt lat="51.395775" lon="-0.0811083"><ele>59.5</ele><time>2026-03-25T14:53:39.313Z</time></trkpt><trkpt lat="51.3956633" lon="-0.0810283"><ele>59.0</ele><time>2026-03-25T14:53:40.313Z</time></trkpt><trkpt lat="51.3955517" lon="-0.0809467"><ele>58.5</ele><time>2026-03-25T14:53:41.312Z</time></trkpt><trkpt lat="51.3954383" lon="-0.0808567"><ele>58.0</ele><time>2026-03-25T14:53:42.316Z</time></trkpt><trkpt lat="51.3953233" lon="-0.0807733"><ele>57.5</ele><time>2026-03-25T14:53:43.315Z</time></trkpt><trkpt lat="51.395215" lon="-0.0806917"><ele>57.0</ele><time>2026-03-25T14:53:44.316Z</time></trkpt><trkpt lat="51.3951083" lon="-0.0806167"><ele>56.8</ele><time>2026-03-25T14:53:45.316Z</time></trkpt><trkpt lat="51.39501" lon="-0.080545"><ele>56.6</ele><time>2026-03-25T14:53:46.316Z</time></trkpt><trkpt lat="51.394915" lon="-0.08048"><ele>56.39999999999999</ele><time>2026-03-25T14:53:47.316Z</time></trkpt><trkpt lat="51.394825" lon="-0.0804167"><ele>56.199999999999996</ele><time>2026-03-25T14:53:48.316Z</time></trkpt><trkpt lat="51.3947383" lon="-0.0803533"><ele>56.0</ele><time>2026-03-25T14:53:49.316Z</time></trkpt><trkpt lat="51.3946517" lon="-0.08029"><ele>55.50000000000001</ele><time>2026-03-25T14:53:50.316Z</time></trkpt><trkpt lat="51.39457" lon="-0.0802267"><ele>55.0</ele><time>2026-03-25T14:53:51.316Z</time></trkpt><trkpt lat="51.39449" lon="-0.0801683"><ele>54.5</ele><time>2026-03-25T14:53:52.315Z</time></trkpt><trkpt lat="51.39441" lon="-0.0801117"><ele>54.0</ele><time>2026-03-25T14:53:53.315Z</time></trkpt><trkpt lat="51.394335" lon="-0.0800583"><ele>53.50000000000001</ele><time>2026-03-25T14:53:54.316Z</time></trkpt><trkpt lat="51.39426" lon="-0.0800083"><ele>53.0</ele><time>2026-03-25T14:53:55.315Z</time></trkpt><trkpt lat="51.3941967" lon="-0.0799533"><ele>52.66666666666667</ele><time>2026-03-25T14:53:56.319Z</time></trkpt><trkpt lat="51.39413" lon="-0.0798867"><ele>52.333333333333336</ele><time>2026-03-25T14:53:57.322Z</time></trkpt><trkpt lat="51.3940667" lon="-0.0798117"><ele>52.0</ele><time>2026-03-25T14:53:58.315Z</time></trkpt><trkpt lat="51.3940033" lon="-0.0797333"><ele>51.66666666666667</ele><time>2026-03-25T14:53:59.314Z</time></trkpt><trkpt lat="51.3939417" lon="-0.0796583"><ele>51.333333333333336</ele><time>2026-03-25T14:54:00.322Z</time></trkpt><trkpt lat="51.3938817" lon="-0.07958"><ele>51.0</ele><time>2026-03-25T14:54:01.315Z</time></trkpt><trkpt lat="51.39382" lon="-0.0795"><ele>50.833333333333336</ele><time>2026-03-25T14:54:02.317Z</time></trkpt><trkpt lat="51.39376" lon="-0.07941"><ele>50.66666666666667</ele><time>2026-03-25T14:54:03.317Z</time></trkpt><trkpt lat="51.3937033" lon="-0.0793117"><ele>50.5</ele><time>2026-03-25T14:54:04.316Z</time></trkpt><trkpt lat="51.3936533" lon="-0.0792033"><ele>50.333333333333336</ele><time>2026-03-25T14:54:05.315Z</time></trkpt><trkpt lat="51.3936083" lon="-0.07908"><ele>50.16666666666667</ele><time>2026-03-25T14:54:06.318Z</time></trkpt><trkpt lat="51.3935717" lon="-0.0789483"><ele>50.0</ele><time>2026-03-25T14:54:07.322Z</time></trkpt><trkpt lat="51.393545" lon="-0.0788183"><ele>49.85714285714286</ele><time>2026-03-25T14:54:08.317Z</time></trkpt><trkpt lat="51.3935233" lon="-0.0787"><ele>49.714285714285715</ele><time>2026-03-25T14:54:09.32Z</time></trkpt><trkpt lat="51.3935017" lon="-0.07859"><ele>49.57142857142857</ele><time>2026-03-25T14:54:10.32Z</time></trkpt><trkpt lat="51.393485" lon="-0.0784833"><ele>49.42857142857143</ele><time>2026-03-25T14:54:11.318Z</time></trkpt><trkpt lat="51.3934683" lon="-0.0783783"><ele>49.285714285714285</ele><time>2026-03-25T14:54:12.317Z</time></trkpt><trkpt lat="51.3934517" lon="-0.0782717"><ele>49.142857142857146</ele><time>2026-03-25T14:54:13.322Z</time></trkpt><trkpt lat="51.393435" lon="-0.0781633"><ele>49.0</ele><time>2026-03-25T14:54:14.318Z</time></trkpt><trkpt lat="51.39342" lon="-0.0780583"><ele>49.0</ele><time>2026-03-25T14:54:15.319Z</time></trkpt><trkpt lat="51.3934017" lon="-0.0779533"><ele>49.0</ele><time>2026-03-25T14:54:16.318Z</time></trkpt><trkpt lat="51.3933817" lon="-0.0778483"><ele>49.0</ele><time>2026-03-25T14:54:17.315Z</time></trkpt><trkpt lat="51.3933617" lon="-0.07774"><ele>49.0</ele><time>2026-03-25T14:54:18.319Z</time></trkpt><trkpt lat="51.393345" lon="-0.0776333"><ele>49.0</ele><time>2026-03-25T14:54:19.319Z</time></trkpt><trkpt lat="51.3933283" lon="-0.077525"><ele>49.0</ele><time>2026-03-25T14:54:20.319Z</time></trkpt><trkpt lat="51.39331" lon="-0.0774167"><ele>49.0</ele><time>2026-03-25T14:54:21.319Z</time></trkpt><trkpt lat="51.39329" lon="-0.0773017"><ele>49.166666666666664</ele><time>2026-03-25T14:54:22.319Z</time></trkpt><trkpt lat="51.39327" lon="-0.07718"><ele>49.33333333333333</ele><time>2026-03-25T14:54:23.316Z</time></trkpt><trkpt lat="51.3932483" lon="-0.0770583"><ele>49.5</ele><time>2026-03-25T14:54:24.319Z</time></trkpt><trkpt lat="51.393225" lon="-0.07693"><ele>49.66666666666667</ele><time>2026-03-25T14:54:25.318Z</time></trkpt><trkpt lat="51.3932033" lon="-0.0767967"><ele>49.833333333333336</ele><time>2026-03-25T14:54:26.318Z</time></trkpt><trkpt lat="51.3931817" lon="-0.07666"><ele>50.0</ele><time>2026-03-25T14:54:27.318Z</time></trkpt><trkpt lat="51.3931567" lon="-0.07652"><ele>50.00000000000001</ele><time>2026-03-25T14:54:28.318Z</time></trkpt><trkpt lat="51.3931317" lon="-0.07638"><ele>50.0</ele><time>2026-03-25T14:54:29.318Z</time></trkpt><trkpt lat="51.3931083" lon="-0.0762383"><ele>50.0</ele><time>2026-03-25T14:54:30.317Z</time></trkpt><trkpt lat="51.3930883" lon="-0.0760967"><ele>50.0</ele><time>2026-03-25T14:54:31.321Z</time></trkpt><trkpt lat="51.3930617" lon="-0.0759633"><ele>50.00000000000001</ele><time>2026-03-25T14:54:32.318Z</time></trkpt><trkpt lat="51.393035" lon="-0.0758333"><ele>50.0</ele><time>2026-03-25T14:54:33.317Z</time></trkpt><trkpt lat="51.3930067" lon="-0.0757117"><ele>50.0</ele><time>2026-03-25T14:54:34.318Z</time></trkpt><trkpt lat="51.3929867" lon="-0.0756083"><ele>50.0</ele><time>2026-03-25T14:54:35.318Z</time></trkpt><trkpt lat="51.392945" lon="-0.0754467"><ele>50.0</ele><time>2026-03-25T14:54:37.318Z</time></trkpt><trkpt lat="51.39291" lon="-0.0753467"><ele>50.0</ele><time>2026-03-25T14:54:39.319Z</time></trkpt><trkpt lat="51.3928183" lon="-0.0752933"><ele>50.0</ele><time>2026-03-25T14:54:42.317Z</time></trkpt><trkpt lat="51.39271" lon="-0.0753383"><ele>50.00000000000001</ele><time>2026-03-25T14:54:44.314Z</time></trkpt><trkpt lat="51.3926517" lon="-0.0753767"><ele>50.0</ele><time>2026-03-25T14:54:45.314Z</time></trkpt><trkpt lat="51.39259" lon="-0.07542"><ele>50.0</ele><time>2026-03-25T14:54:46.314Z</time></trkpt><trkpt lat="51.3925317" lon="-0.0754617"><ele>50.0</ele><time>2026-03-25T14:54:47.315Z</time></trkpt><trkpt lat="51.392425" lon="-0.0755417"><ele>50.00000000000001</ele><time>2026-03-25T14:54:49.314Z</time></trkpt><trkpt lat="51.39232" lon="-0.0756133"><ele>50.0</ele><time>2026-03-25T14:54:51.316Z</time></trkpt><trkpt lat="51.39226" lon="-0.0756567"><ele>50.0</ele><time>2026-03-25T14:54:52.315Z</time></trkpt><trkpt lat="51.392185" lon="-0.0757183"><ele>50.0</ele><time>2026-03-25T14:54:53.319Z</time></trkpt><trkpt lat="51.392105" lon="-0.075785"><ele>50.0</ele><time>2026-03-25T14:54:54.319Z</time></trkpt><trkpt lat="51.3920167" lon="-0.075855"><ele>50.0</ele><time>2026-03-25T14:54:55.317Z</time></trkpt><trkpt lat="51.3919283" lon="-0.0759267"><ele>50.0</ele><time>2026-03-25T14:54:56.316Z</time></trkpt><trkpt lat="51.391835" lon="-0.0759983"><ele>50.6</ele><time>2026-03-25T14:54:57.317Z</time></trkpt><trkpt lat="51.3917417" lon="-0.07607"><ele>51.2</ele><time>2026-03-25T14:54:58.319Z</time></trkpt><trkpt lat="51.39165" lon="-0.0761483"><ele>51.8</ele><time>2026-03-25T14:54:59.314Z</time></trkpt><trkpt lat="51.3915567" lon="-0.0762217"><ele>52.4</ele><time>2026-03-25T14:55:00.316Z</time></trkpt><trkpt lat="51.3914717" lon="-0.07629"><ele>53.0</ele><time>2026-03-25T14:55:01.32Z</time></trkpt><trkpt lat="51.391385" lon="-0.0763583"><ele>53.00000000000001</ele><time>2026-03-25T14:55:02.317Z</time></trkpt><trkpt lat="51.3912983" lon="-0.0764283"><ele>53.0</ele><time>2026-03-25T14:55:03.318Z</time></trkpt><trkpt lat="51.3912233" lon="-0.0764933"><ele>53.0</ele><time>2026-03-25T14:55:04.318Z</time></trkpt><trkpt lat="51.39115" lon="-0.076555"><ele>53.0</ele><time>2026-03-25T14:55:05.316Z</time></trkpt><trkpt lat="51.3910817" lon="-0.07661"><ele>53.00000000000001</ele><time>2026-03-25T14:55:06.315Z</time></trkpt><trkpt lat="51.39102" lon="-0.076665"><ele>53.0</ele><time>2026-03-25T14:55:07.315Z</time></trkpt><trkpt lat="51.3909617" lon="-0.0767183"><ele>52.5</ele><time>2026-03-25T14:55:08.317Z</time></trkpt><trkpt lat="51.39085" lon="-0.0768083"><ele>52.0</ele><time>2026-03-25T14:55:10.314Z</time></trkpt><trkpt lat="51.3907567" lon="-0.0769067"><ele>51.5</ele><time>2026-03-25T14:55:12.318Z</time></trkpt><trkpt lat="51.3906517" lon="-0.07701"><ele>51.0</ele><time>2026-03-25T14:55:14.315Z</time></trkpt><trkpt lat="51.39055" lon="-0.077115"><ele>51.0</ele><time>2026-03-25T14:55:16.319Z</time></trkpt><trkpt lat="51.39045" lon="-0.0772117"><ele>51.0</ele><time>2026-03-25T14:55:18.321Z</time></trkpt><trkpt lat="51.3903533" lon="-0.0773233"><ele>51.0</ele><time>2026-03-25T14:55:20.316Z</time></trkpt><trkpt lat="51.3902467" lon="-0.0774417"><ele>51.0</ele><time>2026-03-25T14:55:22.315Z</time></trkpt><trkpt lat="51.3901867" lon="-0.0775133"><ele>51.0</ele><time>2026-03-25T14:55:23.315Z</time></trkpt><trkpt lat="51.390125" lon="-0.0776"><ele>51.0</ele><time>2026-03-25T14:55:24.317Z</time></trkpt><trkpt lat="51.39006" lon="-0.077685"><ele>51.0</ele><time>2026-03-25T14:55:25.317Z</time></trkpt><trkpt lat="51.3899933" lon="-0.0777717"><ele>51.0</ele><time>2026-03-25T14:55:26.316Z</time></trkpt><trkpt lat="51.3899317" lon="-0.077855"><ele>51.0</ele><time>2026-03-25T14:55:27.317Z</time></trkpt><trkpt lat="51.3898717" lon="-0.077935"><ele>51.0</ele><time>2026-03-25T14:55:28.318Z</time></trkpt><trkpt lat="51.3898133" lon="-0.0780083"><ele>51.0</ele><time>2026-03-25T14:55:29.316Z</time></trkpt><trkpt lat="51.389765" lon="-0.078085"><ele>51.0</ele><time>2026-03-25T14:55:30.317Z</time></trkpt><trkpt lat="51.3897133" lon="-0.0781683"><ele>51.0</ele><time>2026-03-25T14:55:31.316Z</time></trkpt><trkpt lat="51.3896533" lon="-0.0782583"><ele>51.0</ele><time>2026-03-25T14:55:32.317Z</time></trkpt><trkpt lat="51.389585" lon="-0.0783583"><ele>51.0</ele><time>2026-03-25T14:55:33.328Z</time></trkpt><trkpt lat="51.38951" lon="-0.0784633"><ele>51.0</ele><time>2026-03-25T14:55:34.316Z</time></trkpt><trkpt lat="51.3894383" lon="-0.0785633"><ele>51.0</ele><time>2026-03-25T14:55:35.315Z</time></trkpt><trkpt lat="51.3893683" lon="-0.0786517"><ele>50.833333333333336</ele><time>2026-03-25T14:55:36.316Z</time></trkpt><trkpt lat="51.3893033" lon="-0.0787383"><ele>50.66666666666667</ele><time>2026-03-25T14:55:37.317Z</time></trkpt><trkpt lat="51.3892367" lon="-0.0788267"><ele>50.5</ele><time>2026-03-25T14:55:38.319Z</time></trkpt><trkpt lat="51.389175" lon="-0.0789183"><ele>50.333333333333336</ele><time>2026-03-25T14:55:39.317Z</time></trkpt><trkpt lat="51.389115" lon="-0.0790167"><ele>50.16666666666667</ele><time>2026-03-25T14:55:40.316Z</time></trkpt><trkpt lat="51.3890433" lon="-0.07912"><ele>50.0</ele><time>2026-03-25T14:55:41.318Z</time></trkpt><trkpt lat="51.38897" lon="-0.0792267"><ele>50.0</ele><time>2026-03-25T14:55:42.318Z</time></trkpt><trkpt lat="51.3888917" lon="-0.0793317"><ele>50.0</ele><time>2026-03-25T14:55:43.318Z</time></trkpt><trkpt lat="51.3888117" lon="-0.0794383"><ele>50.0</ele><time>2026-03-25T14:55:44.316Z</time></trkpt><trkpt lat="51.3887317" lon="-0.0795533"><ele>50.0</ele><time>2026-03-25T14:55:45.318Z</time></trkpt><trkpt lat="51.3886483" lon="-0.0796717"><ele>50.0</ele><time>2026-03-25T14:55:46.318Z</time></trkpt><trkpt lat="51.3885633" lon="-0.0797983"><ele>49.75</ele><time>2026-03-25T14:55:47.319Z</time></trkpt><trkpt lat="51.38848" lon="-0.079925"><ele>49.5</ele><time>2026-03-25T14:55:48.315Z</time></trkpt><trkpt lat="51.3883933" lon="-0.08005"><ele>49.25</ele><time>2026-03-25T14:55:49.317Z</time></trkpt><trkpt lat="51.388305" lon="-0.0801767"><ele>49.0</ele><time>2026-03-25T14:55:50.319Z</time></trkpt><trkpt lat="51.3882183" lon="-0.0803"><ele>48.99999999999999</ele><time>2026-03-25T14:55:51.319Z</time></trkpt><trkpt lat="51.3881383" lon="-0.0804183"><ele>49.0</ele><time>2026-03-25T14:55:52.32Z</time></trkpt><trkpt lat="51.3880683" lon="-0.0805167"><ele>49.0</ele><time>2026-03-25T14:55:53.317Z</time></trkpt><trkpt lat="51.3880067" lon="-0.0806033"><ele>49.0</ele><time>2026-03-25T14:55:54.314Z</time></trkpt><trkpt lat="51.3879583" lon="-0.0806833"><ele>48.99999999999999</ele><time>2026-03-25T14:55:55.317Z</time></trkpt><trkpt lat="51.3879117" lon="-0.080755"><ele>49.0</ele><time>2026-03-25T14:55:56.317Z</time></trkpt><trkpt lat="51.3878233" lon="-0.0809083"><ele>49.0</ele><time>2026-03-25T14:55:58.319Z</time></trkpt><trkpt lat="51.3877733" lon="-0.080995"><ele>49.0</ele><time>2026-03-25T14:55:59.314Z</time></trkpt><trkpt lat="51.3877233" lon="-0.0810817"><ele>49.0</ele><time>2026-03-25T14:56:00.322Z</time></trkpt><trkpt lat="51.387675" lon="-0.08116"><ele>49.0</ele><time>2026-03-25T14:56:01.315Z</time></trkpt><trkpt lat="51.3876267" lon="-0.08124"><ele>49.0</ele><time>2026-03-25T14:56:02.314Z</time></trkpt><trkpt lat="51.3875767" lon="-0.08132"><ele>49.0</ele><time>2026-03-25T14:56:03.319Z</time></trkpt><trkpt lat="51.3875267" lon="-0.0814017"><ele>49.0</ele><time>2026-03-25T14:56:04.315Z</time></trkpt><trkpt lat="51.38748" lon="-0.0814833"><ele>48.99999999999999</ele><time>2026-03-25T14:56:05.318Z</time></trkpt><trkpt lat="51.3874333" lon="-0.0815667"><ele>49.0</ele><time>2026-03-25T14:56:06.315Z</time></trkpt><trkpt lat="51.3873883" lon="-0.0816433"><ele>49.0</ele><time>2026-03-25T14:56:07.314Z</time></trkpt><trkpt lat="51.3873417" lon="-0.0817167"><ele>49.0</ele><time>2026-03-25T14:56:08.314Z</time></trkpt><trkpt lat="51.387295" lon="-0.08179"><ele>48.99999999999999</ele><time>2026-03-25T14:56:09.314Z</time></trkpt><trkpt lat="51.3872133" lon="-0.0819267"><ele>49.0</ele><time>2026-03-25T14:56:11.316Z</time></trkpt><trkpt lat="51.3871667" lon="-0.0820117"><ele>49.400000000000006</ele><time>2026-03-25T14:56:12.314Z</time></trkpt><trkpt lat="51.38711" lon="-0.0821133"><ele>49.8</ele><time>2026-03-25T14:56:13.315Z</time></trkpt><trkpt lat="51.38704" lon="-0.0822333"><ele>50.2</ele><time>2026-03-25T14:56:14.314Z</time></trkpt><trkpt lat="51.38696" lon="-0.0823767"><ele>50.599999999999994</ele><time>2026-03-25T14:56:15.318Z</time></trkpt><trkpt lat="51.3868733" lon="-0.08254"><ele>51.0</ele><time>2026-03-25T14:56:16.315Z</time></trkpt><trkpt lat="51.3867783" lon="-0.08271"><ele>51.0</ele><time>2026-03-25T14:56:17.316Z</time></trkpt><trkpt lat="51.38668" lon="-0.0828733"><ele>51.0</ele><time>2026-03-25T14:56:18.314Z</time></trkpt><trkpt lat="51.38659" lon="-0.0830283"><ele>51.0</ele><time>2026-03-25T14:56:19.315Z</time></trkpt><trkpt lat="51.38651" lon="-0.0831717"><ele>51.0</ele><time>2026-03-25T14:56:20.317Z</time></trkpt><trkpt lat="51.3864333" lon="-0.0833067"><ele>51.0</ele><time>2026-03-25T14:56:21.315Z</time></trkpt><trkpt lat="51.386355" lon="-0.083445"><ele>51.0</ele><time>2026-03-25T14:56:22.317Z</time></trkpt><trkpt lat="51.3862817" lon="-0.08359"><ele>51.0</ele><time>2026-03-25T14:56:23.316Z</time></trkpt><trkpt lat="51.3862" lon="-0.0837383"><ele>51.0</ele><time>2026-03-25T14:56:24.314Z</time></trkpt><trkpt lat="51.3861133" lon="-0.0838917"><ele>51.0</ele><time>2026-03-25T14:56:25.314Z</time></trkpt><trkpt lat="51.3860283" lon="-0.0840517"><ele>51.0</ele><time>2026-03-25T14:56:26.314Z</time></trkpt><trkpt lat="51.3859417" lon="-0.0842133"><ele>51.0</ele><time>2026-03-25T14:56:27.319Z</time></trkpt><trkpt lat="51.385855" lon="-0.084375"><ele>51.0</ele><time>2026-03-25T14:56:28.314Z</time></trkpt><trkpt lat="51.3857717" lon="-0.0845367"><ele>51.25</ele><time>2026-03-25T14:56:29.315Z</time></trkpt><trkpt lat="51.3856883" lon="-0.0846983"><ele>51.5</ele><time>2026-03-25T14:56:30.315Z</time></trkpt><trkpt lat="51.3855983" lon="-0.0848617"><ele>51.75</ele><time>2026-03-25T14:56:31.314Z</time></trkpt><trkpt lat="51.3855133" lon="-0.0850267"><ele>52.0</ele><time>2026-03-25T14:56:32.315Z</time></trkpt><trkpt lat="51.38543" lon="-0.0851833"><ele>52.0</ele><time>2026-03-25T14:56:33.315Z</time></trkpt><trkpt lat="51.3853517" lon="-0.0853283"><ele>52.0</ele><time>2026-03-25T14:56:34.315Z</time></trkpt><trkpt lat="51.3852783" lon="-0.0854667"><ele>52.0</ele><time>2026-03-25T14:56:35.314Z</time></trkpt><trkpt lat="51.3852033" lon="-0.0856"><ele>52.0</ele><time>2026-03-25T14:56:36.315Z</time></trkpt><trkpt lat="51.3851283" lon="-0.0857333"><ele>52.0</ele><time>2026-03-25T14:56:37.316Z</time></trkpt><trkpt lat="51.385055" lon="-0.085865"><ele>52.0</ele><time>2026-03-25T14:56:38.314Z</time></trkpt><trkpt lat="51.3849817" lon="-0.0860017"><ele>52.0</ele><time>2026-03-25T14:56:39.316Z</time></trkpt><trkpt lat="51.3849133" lon="-0.0861333"><ele>52.0</ele><time>2026-03-25T14:56:40.314Z</time></trkpt><trkpt lat="51.3848433" lon="-0.0862633"><ele>52.0</ele><time>2026-03-25T14:56:41.315Z</time></trkpt><trkpt lat="51.384775" lon="-0.086395"><ele>52.0</ele><time>2026-03-25T14:56:42.317Z</time></trkpt><trkpt lat="51.3846983" lon="-0.086525"><ele>52.0</ele><time>2026-03-25T14:56:43.32Z</time></trkpt><trkpt lat="51.384615" lon="-0.086655"><ele>52.0</ele><time>2026-03-25T14:56:44.315Z</time></trkpt><trkpt lat="51.3845283" lon="-0.0867817"><ele>52.0</ele><time>2026-03-25T14:56:45.317Z</time></trkpt><trkpt lat="51.3844417" lon="-0.0869033"><ele>52.2</ele><time>2026-03-25T14:56:46.318Z</time></trkpt><trkpt lat="51.384355" lon="-0.0870183"><ele>52.400000000000006</ele><time>2026-03-25T14:56:47.317Z</time></trkpt><trkpt lat="51.3842667" lon="-0.0871283"><ele>52.599999999999994</ele><time>2026-03-25T14:56:48.318Z</time></trkpt><trkpt lat="51.3841783" lon="-0.087235"><ele>52.8</ele><time>2026-03-25T14:56:49.316Z</time></trkpt><trkpt lat="51.3840917" lon="-0.0873333"><ele>53.0</ele><time>2026-03-25T14:56:50.322Z</time></trkpt><trkpt lat="51.3840117" lon="-0.08743"><ele>58.0</ele><time>2026-03-25T14:56:51.315Z</time></trkpt><trkpt lat="51.3821957" lon="-0.0882218"><ele>58.5</ele><time>2026-03-25T14:57:09.134Z</time></trkpt><trkpt lat="51.3821173" lon="-0.0881913"><ele>59.0</ele><time>2026-03-25T14:57:14.292Z</time></trkpt><trkpt lat="51.3817478" lon="-0.088276"><ele>58.0</ele><time>2026-03-25T14:57:19.769Z</time></trkpt><trkpt lat="51.3812346" lon="-0.0883635"><ele>58.0</ele><time>2026-03-25T14:57:31.147Z</time></trkpt><trkpt lat="51.3807396" lon="-0.0885388"><ele>60.0</ele><time>2026-03-25T14:57:49.649Z</time></trkpt><trkpt lat="51.3812475" lon="-0.0898439"><ele>56.0</ele><time>2026-03-25T14:58:07.043Z</time></trkpt><trkpt lat="51.3814068" lon="-0.0921342"><ele>56.0</ele><time>2026-03-25T14:58:18.125Z</time></trkpt><trkpt lat="51.3810086" lon="-0.0923589"><ele>56.0</ele><time>2026-03-25T14:58:35.494Z</time></trkpt><trkpt lat="51.3798162" lon="-0.092969"><ele>58.0</ele><time>2026-03-25T14:58:40.801Z</time></trkpt><trkpt lat="51.3781716" lon="-0.0935968"><ele>59.0</ele><time>2026-03-25T14:58:52.972Z</time></trkpt><trkpt lat="51.377383" lon="-0.095815"><ele>59.0</ele><time>2026-03-25T14:59:12.981Z</time></trkpt></trkseg><trkseg><trkpt lat="51.3719687" lon="-0.0965069"><ele>63.0</ele><time>2026-03-25T15:03:37.314Z</time></trkpt><trkpt lat="51.3718718" lon="-0.0964635"><ele>63.0</ele><time>2026-03-25T15:03:40.315Z</time></trkpt><trkpt lat="51.3717368" lon="-0.0963526"><ele>63.0</ele><time>2026-03-25T15:03:43.314Z</time></trkpt><trkpt lat="51.3716252" lon="-0.0962797"><ele>63.0</ele><time>2026-03-25T15:03:45.315Z</time></trkpt><trkpt lat="51.3715042" lon="-0.0962468"><ele>63.0</ele><time>2026-03-25T15:03:47.314Z</time></trkpt><trkpt lat="51.3714379" lon="-0.0962494"><ele>63.0</ele><time>2026-03-25T15:03:48.314Z</time></trkpt><trkpt lat="51.3713167" lon="-0.0962726"><ele>63.0</ele><time>2026-03-25T15:03:50.313Z</time></trkpt><trkpt lat="51.3712305" lon="-0.0962834"><ele>63.0</ele><time>2026-03-25T15:03:51.314Z</time></trkpt><trkpt lat="51.371126" lon="-0.0962868"><ele>63.0</ele><time>2026-03-25T15:03:52.314Z</time></trkpt><trkpt lat="51.3710233" lon="-0.0962955"><ele>64.4</ele><time>2026-03-25T15:03:53.315Z</time></trkpt><trkpt lat="51.3709311" lon="-0.0962944"><ele>65.8</ele><time>2026-03-25T15:03:54.315Z</time></trkpt><trkpt lat="51.3708509" lon="-0.0962991"><ele>67.2</ele><time>2026-03-25T15:03:55.314Z</time></trkpt><trkpt lat="51.3707136" lon="-0.0963535"><ele>68.6</ele><time>2026-03-25T15:03:57.315Z</time></trkpt><trkpt lat="51.370637" lon="-0.0965038"><ele>70.0</ele><time>2026-03-25T15:03:59.32Z</time></trkpt><trkpt lat="51.3706154" lon="-0.0966166"><ele>70.0</ele><time>2026-03-25T15:04:00.313Z</time></trkpt><trkpt lat="51.370611" lon="-0.0967506"><ele>70.0</ele><time>2026-03-25T15:04:01.315Z</time></trkpt><trkpt lat="51.3706292" lon="-0.0969015"><ele>70.0</ele><time>2026-03-25T15:04:02.315Z</time></trkpt><trkpt lat="51.3706574" lon="-0.097069"><ele>70.0</ele><time>2026-03-25T15:04:03.314Z</time></trkpt><trkpt lat="51.3706737" lon="-0.0972442"><ele>70.0</ele><time>2026-03-25T15:04:04.315Z</time></trkpt><trkpt lat="51.3706817" lon="-0.097422"><ele>68.25</ele><time>2026-03-25T15:04:05.315Z</time></trkpt><trkpt lat="51.3706941" lon="-0.0976174"><ele>66.5</ele><time>2026-03-25T15:04:06.314Z</time></trkpt><trkpt lat="51.3707043" lon="-0.0978122"><ele>64.75</ele><time>2026-03-25T15:04:07.316Z</time></trkpt><trkpt lat="51.370707" lon="-0.0980013"><ele>63.0</ele><time>2026-03-25T15:04:08.314Z</time></trkpt><trkpt lat="51.3707115" lon="-0.0981922"><ele>63.0</ele><time>2026-03-25T15:04:09.315Z</time></trkpt><trkpt lat="51.37071" lon="-0.0983894"><ele>63.0</ele><time>2026-03-25T15:04:10.315Z</time></trkpt><trkpt lat="51.3707118" lon="-0.0985842"><ele>63.0</ele><time>2026-03-25T15:04:11.315Z</time></trkpt><trkpt lat="51.3707179" lon="-0.0987761"><ele>63.0</ele><time>2026-03-25T15:04:12.316Z</time></trkpt><trkpt lat="51.3707156" lon="-0.0989707"><ele>62.5</ele><time>2026-03-25T15:04:13.314Z</time></trkpt><trkpt lat="51.3707099" lon="-0.0991659"><ele>62.0</ele><time>2026-03-25T15:04:14.314Z</time></trkpt><trkpt lat="51.370702" lon="-0.0993613"><ele>61.5</ele><time>2026-03-25T15:04:15.316Z</time></trkpt><trkpt lat="51.3706912" lon="-0.0995627"><ele>61.0</ele><time>2026-03-25T15:04:16.315Z</time></trkpt><trkpt lat="51.3706783" lon="-0.099765"><ele>60.0</ele><time>2026-03-25T15:04:17.313Z</time></trkpt><trkpt lat="51.3706658" lon="-0.0999635"><ele>59.0</ele><time>2026-03-25T15:04:18.314Z</time></trkpt><trkpt lat="51.3706403" lon="-0.1001658"><ele>58.0</ele><time>2026-03-25T15:04:19.317Z</time></trkpt><trkpt lat="51.3706098" lon="-0.10037"><ele>57.0</ele><time>2026-03-25T15:04:20.314Z</time></trkpt><trkpt lat="51.3705776" lon="-0.1005709"><ele>57.0</ele><time>2026-03-25T15:04:21.316Z</time></trkpt><trkpt lat="51.370546" lon="-0.1007709"><ele>57.0</ele><time>2026-03-25T15:04:22.315Z</time></trkpt><trkpt lat="51.3705167" lon="-0.1009723"><ele>57.0</ele><time>2026-03-25T15:04:23.314Z</time></trkpt><trkpt lat="51.3704769" lon="-0.1011759"><ele>57.0</ele><time>2026-03-25T15:04:24.315Z</time></trkpt><trkpt lat="51.370361" lon="-0.1015829"><ele>55.5</ele><time>2026-03-25T15:04:26.315Z</time></trkpt><trkpt lat="51.3702882" lon="-0.1017871"><ele>54.0</ele><time>2026-03-25T15:04:27.315Z</time></trkpt><trkpt lat="51.3702096" lon="-0.1019804"><ele>52.5</ele><time>2026-03-25T15:04:28.315Z</time></trkpt><trkpt lat="51.3701246" lon="-0.1021754"><ele>51.0</ele><time>2026-03-25T15:04:29.314Z</time></trkpt><trkpt lat="51.3700334" lon="-0.1023631"><ele>50.75</ele><time>2026-03-25T15:04:30.314Z</time></trkpt><trkpt lat="51.3699362" lon="-0.1025261"><ele>50.5</ele><time>2026-03-25T15:04:31.315Z</time></trkpt><trkpt lat="51.3698306" lon="-0.1026682"><ele>50.25</ele><time>2026-03-25T15:04:32.314Z</time></trkpt><trkpt lat="51.3697219" lon="-0.102796"><ele>50.0</ele><time>2026-03-25T15:04:33.318Z</time></trkpt><trkpt lat="51.3696142" lon="-0.1029161"><ele>49.5</ele><time>2026-03-25T15:04:34.315Z</time></trkpt><trkpt lat="51.3695069" lon="-0.1030307"><ele>49.0</ele><time>2026-03-25T15:04:35.316Z</time></trkpt><trkpt lat="51.3694005" lon="-0.1031386"><ele>48.5</ele><time>2026-03-25T15:04:36.314Z</time></trkpt><trkpt lat="51.3692981" lon="-0.1032398"><ele>48.0</ele><time>2026-03-25T15:04:37.315Z</time></trkpt><trkpt lat="51.3691929" lon="-0.1033407"><ele>48.0</ele><time>2026-03-25T15:04:38.313Z</time></trkpt><trkpt lat="51.3690848" lon="-0.1034464"><ele>48.0</ele><time>2026-03-25T15:04:39.315Z</time></trkpt><trkpt lat="51.3689722" lon="-0.1035594"><ele>48.0</ele><time>2026-03-25T15:04:40.315Z</time></trkpt><trkpt lat="51.3688567" lon="-0.1036873"><ele>48.0</ele><time>2026-03-25T15:04:41.315Z</time></trkpt><trkpt lat="51.3687372" lon="-0.1038295"><ele>47.666666666666664</ele><time>2026-03-25T15:04:42.314Z</time></trkpt><trkpt lat="51.3686172" lon="-0.1039881"><ele>47.33333333333333</ele><time>2026-03-25T15:04:43.314Z</time></trkpt><trkpt lat="51.3685052" lon="-0.1041528"><ele>47.0</ele><time>2026-03-25T15:04:44.315Z</time></trkpt><trkpt lat="51.3684028" lon="-0.1043178"><ele>47.0</ele><time>2026-03-25T15:04:45.315Z</time></trkpt><trkpt lat="51.3683143" lon="-0.1044814"><ele>47.0</ele><time>2026-03-25T15:04:46.317Z</time></trkpt><trkpt lat="51.3682359" lon="-0.1046523"><ele>47.0</ele><time>2026-03-25T15:04:47.323Z</time></trkpt><trkpt lat="51.368162" lon="-0.104828"><ele>47.0</ele><time>2026-03-25T15:04:48.314Z</time></trkpt><trkpt lat="51.3680269" lon="-0.1051934"><ele>49.25</ele><time>2026-03-25T15:04:50.316Z</time></trkpt><trkpt lat="51.3679726" lon="-0.1053839"><ele>51.5</ele><time>2026-03-25T15:04:51.318Z</time></trkpt><trkpt lat="51.3679292" lon="-0.1055776"><ele>53.75</ele><time>2026-03-25T15:04:52.315Z</time></trkpt><trkpt lat="51.3678912" lon="-0.1057749"><ele>56.0</ele><time>2026-03-25T15:04:53.315Z</time></trkpt><trkpt lat="51.3678584" lon="-0.1059739"><ele>56.0</ele><time>2026-03-25T15:04:54.316Z</time></trkpt><trkpt lat="51.3678338" lon="-0.1061725"><ele>56.0</ele><time>2026-03-25T15:04:55.315Z</time></trkpt><trkpt lat="51.3678168" lon="-0.1063746"><ele>56.0</ele><time>2026-03-25T15:04:56.316Z</time></trkpt><trkpt lat="51.3678063" lon="-0.1065809"><ele>56.0</ele><time>2026-03-25T15:04:57.316Z</time></trkpt><trkpt lat="51.3677973" lon="-0.1067838"><ele>56.25</ele><time>2026-03-25T15:04:58.316Z</time></trkpt><trkpt lat="51.3677961" lon="-0.1069822"><ele>56.5</ele><time>2026-03-25T15:04:59.32Z</time></trkpt><trkpt lat="51.367799" lon="-0.1071755"><ele>56.75</ele><time>2026-03-25T15:05:00.318Z</time></trkpt><trkpt lat="51.3678069" lon="-0.1073679"><ele>57.0</ele><time>2026-03-25T15:05:01.314Z</time></trkpt><trkpt lat="51.3678214" lon="-0.1075583"><ele>57.0</ele><time>2026-03-25T15:05:02.314Z</time></trkpt><trkpt lat="51.367844" lon="-0.1077426"><ele>57.0</ele><time>2026-03-25T15:05:03.316Z</time></trkpt><trkpt lat="51.3678746" lon="-0.1079175"><ele>57.0</ele><time>2026-03-25T15:05:04.318Z</time></trkpt><trkpt lat="51.3679075" lon="-0.1080838"><ele>57.0</ele><time>2026-03-25T15:05:05.315Z</time></trkpt><trkpt lat="51.3679401" lon="-0.108246"><ele>57.0</ele><time>2026-03-25T15:05:06.315Z</time></trkpt><trkpt lat="51.3679709" lon="-0.1084138"><ele>57.6</ele><time>2026-03-25T15:05:07.317Z</time></trkpt><trkpt lat="51.3680009" lon="-0.1085854"><ele>58.2</ele><time>2026-03-25T15:05:08.315Z</time></trkpt><trkpt lat="51.3680282" lon="-0.1087546"><ele>58.8</ele><time>2026-03-25T15:05:09.316Z</time></trkpt><trkpt lat="51.3680516" lon="-0.108921"><ele>59.4</ele><time>2026-03-25T15:05:10.316Z</time></trkpt><trkpt lat="51.3680765" lon="-0.1090922"><ele>60.0</ele><time>2026-03-25T15:05:11.315Z</time></trkpt><trkpt lat="51.3681047" lon="-0.109267"><ele>60.0</ele><time>2026-03-25T15:05:12.316Z</time></trkpt><trkpt lat="51.3681349" lon="-0.10944"><ele>60.0</ele><time>2026-03-25T15:05:13.315Z</time></trkpt><trkpt lat="51.3681651" lon="-0.1096131"><ele>60.0</ele><time>2026-03-25T15:05:14.315Z</time></trkpt><trkpt lat="51.3681963" lon="-0.1097935"><ele>60.0</ele><time>2026-03-25T15:05:15.318Z</time></trkpt><trkpt lat="51.3682267" lon="-0.1099778"><ele>60.5</ele><time>2026-03-25T15:05:16.316Z</time></trkpt><trkpt lat="51.3682564" lon="-0.1101649"><ele>61.0</ele><time>2026-03-25T15:05:17.317Z</time></trkpt><trkpt lat="51.3682877" lon="-0.1103509"><ele>61.5</ele><time>2026-03-25T15:05:18.316Z</time></trkpt><trkpt lat="51.3683143" lon="-0.1105371"><ele>62.0</ele><time>2026-03-25T15:05:19.319Z</time></trkpt><trkpt lat="51.3683352" lon="-0.1107245"><ele>62.25</ele><time>2026-03-25T15:05:20.316Z</time></trkpt><trkpt lat="51.3683558" lon="-0.1109172"><ele>62.5</ele><time>2026-03-25T15:05:21.315Z</time></trkpt><trkpt lat="51.36837" lon="-0.1111116"><ele>62.75</ele><time>2026-03-25T15:05:22.318Z</time></trkpt><trkpt lat="51.3683781" lon="-0.111307"><ele>63.0</ele><time>2026-03-25T15:05:23.315Z</time></trkpt><trkpt lat="51.3683802" lon="-0.1114982"><ele>62.2</ele><time>2026-03-25T15:05:24.316Z</time></trkpt><trkpt lat="51.368373" lon="-0.1116836"><ele>61.4</ele><time>2026-03-25T15:05:25.318Z</time></trkpt><trkpt lat="51.3683627" lon="-0.1118634"><ele>60.60000000000001</ele><time>2026-03-25T15:05:26.317Z</time></trkpt><trkpt lat="51.3683533" lon="-0.1120353"><ele>59.800000000000004</ele><time>2026-03-25T15:05:27.318Z</time></trkpt><trkpt lat="51.368343" lon="-0.1122069"><ele>59.0</ele><time>2026-03-25T15:05:28.314Z</time></trkpt><trkpt lat="51.3683317" lon="-0.1123842"><ele>58.0</ele><time>2026-03-25T15:05:29.321Z</time></trkpt><trkpt lat="51.3683199" lon="-0.1125678"><ele>57.0</ele><time>2026-03-25T15:05:30.315Z</time></trkpt><trkpt lat="51.3683076" lon="-0.1127554"><ele>56.0</ele><time>2026-03-25T15:05:31.315Z</time></trkpt><trkpt lat="51.3682923" lon="-0.1129361"><ele>55.0</ele><time>2026-03-25T15:05:32.318Z</time></trkpt><trkpt lat="51.3682782" lon="-0.1131165"><ele>54.0</ele><time>2026-03-25T15:05:33.317Z</time></trkpt><trkpt lat="51.3682596" lon="-0.1133037"><ele>53.0</ele><time>2026-03-25T15:05:34.314Z</time></trkpt><trkpt lat="51.3682449" lon="-0.1134942"><ele>52.0</ele><time>2026-03-25T15:05:35.317Z</time></trkpt><trkpt lat="51.3682275" lon="-0.113683"><ele>51.0</ele><time>2026-03-25T15:05:36.314Z</time></trkpt><trkpt lat="51.3682104" lon="-0.1138677"><ele>51.0</ele><time>2026-03-25T15:05:37.316Z</time></trkpt><trkpt lat="51.3681971" lon="-0.1140505"><ele>51.0</ele><time>2026-03-25T15:05:38.314Z</time></trkpt><trkpt lat="51.3681799" lon="-0.1142278"><ele>51.0</ele><time>2026-03-25T15:05:39.317Z</time></trkpt><trkpt lat="51.3681645" lon="-0.1144028"><ele>51.0</ele><time>2026-03-25T15:05:40.317Z</time></trkpt><trkpt lat="51.3681513" lon="-0.1145775"><ele>51.0</ele><time>2026-03-25T15:05:41.315Z</time></trkpt><trkpt lat="51.3681384" lon="-0.1147453"><ele>50.0</ele><time>2026-03-25T15:05:42.315Z</time></trkpt><trkpt lat="51.368125" lon="-0.114907"><ele>49.0</ele><time>2026-03-25T15:05:43.317Z</time></trkpt><trkpt lat="51.3681086" lon="-0.1150621"><ele>48.0</ele><time>2026-03-25T15:05:44.316Z</time></trkpt><trkpt lat="51.3680871" lon="-0.1152103"><ele>47.0</ele><time>2026-03-25T15:05:45.315Z</time></trkpt><trkpt lat="51.3680487" lon="-0.1153496"><ele>46.0</ele><time>2026-03-25T15:05:46.316Z</time></trkpt><trkpt lat="51.3679978" lon="-0.1154795"><ele>46.0</ele><time>2026-03-25T15:05:47.318Z</time></trkpt><trkpt lat="51.3679334" lon="-0.1155978"><ele>46.0</ele><time>2026-03-25T15:05:48.314Z</time></trkpt><trkpt lat="51.3678663" lon="-0.1157035"><ele>46.0</ele><time>2026-03-25T15:05:49.315Z</time></trkpt><trkpt lat="51.3677945" lon="-0.115793"><ele>46.0</ele><time>2026-03-25T15:05:50.315Z</time></trkpt><trkpt lat="51.3677206" lon="-0.1158675"><ele>46.0</ele><time>2026-03-25T15:05:51.316Z</time></trkpt><trkpt lat="51.3676412" lon="-0.1159254"><ele>46.0</ele><time>2026-03-25T15:05:52.316Z</time></trkpt><trkpt lat="51.3675526" lon="-0.115976"><ele>46.0</ele><time>2026-03-25T15:05:53.314Z</time></trkpt><trkpt lat="51.3674594" lon="-0.1160214"><ele>46.0</ele><time>2026-03-25T15:05:54.319Z</time></trkpt><trkpt lat="51.3673644" lon="-0.1160584"><ele>46.0</ele><time>2026-03-25T15:05:55.316Z</time></trkpt><trkpt lat="51.3672745" lon="-0.1160897"><ele>46.0</ele><time>2026-03-25T15:05:56.316Z</time></trkpt><trkpt lat="51.3671875" lon="-0.1161214"><ele>46.4</ele><time>2026-03-25T15:05:57.316Z</time></trkpt><trkpt lat="51.3671008" lon="-0.1161554"><ele>46.8</ele><time>2026-03-25T15:05:58.315Z</time></trkpt><trkpt lat="51.3670111" lon="-0.1161988"><ele>47.199999999999996</ele><time>2026-03-25T15:05:59.316Z</time></trkpt><trkpt lat="51.3669176" lon="-0.1162499"><ele>47.599999999999994</ele><time>2026-03-25T15:06:00.319Z</time></trkpt><trkpt lat="51.3668183" lon="-0.1163059"><ele>48.0</ele><time>2026-03-25T15:06:01.317Z</time></trkpt><trkpt lat="51.3667142" lon="-0.1163621"><ele>48.0</ele><time>2026-03-25T15:06:02.317Z</time></trkpt><trkpt lat="51.3666031" lon="-0.1164192"><ele>48.0</ele><time>2026-03-25T15:06:03.317Z</time></trkpt><trkpt lat="51.3664963" lon="-0.116476"><ele>48.0</ele><time>2026-03-25T15:06:04.316Z</time></trkpt><trkpt lat="51.3663978" lon="-0.1165308"><ele>48.0</ele><time>2026-03-25T15:06:05.315Z</time></trkpt><trkpt lat="51.3663041" lon="-0.1165882"><ele>48.0</ele><time>2026-03-25T15:06:06.315Z</time></trkpt><trkpt lat="51.3662122" lon="-0.1166511"><ele>48.2</ele><time>2026-03-25T15:06:07.316Z</time></trkpt><trkpt lat="51.3661204" lon="-0.1167179"><ele>48.4</ele><time>2026-03-25T15:06:08.316Z</time></trkpt><trkpt lat="51.3660262" lon="-0.1167908"><ele>48.6</ele><time>2026-03-25T15:06:09.319Z</time></trkpt><trkpt lat="51.3659381" lon="-0.1168621"><ele>48.800000000000004</ele><time>2026-03-25T15:06:10.314Z</time></trkpt><trkpt lat="51.3658561" lon="-0.1169303"><ele>49.0</ele><time>2026-03-25T15:06:11.315Z</time></trkpt><trkpt lat="51.3657838" lon="-0.1169942"><ele>48.99999999999999</ele><time>2026-03-25T15:06:12.313Z</time></trkpt><trkpt lat="51.365727" lon="-0.1170515"><ele>49.0</ele><time>2026-03-25T15:06:13.316Z</time></trkpt><trkpt lat="51.365654" lon="-0.1171311"><ele>49.0</ele><time>2026-03-25T15:06:15.313Z</time></trkpt><trkpt lat="51.3656013" lon="-0.1171961"><ele>49.0</ele><time>2026-03-25T15:06:17.315Z</time></trkpt><trkpt lat="51.3655469" lon="-0.1173091"><ele>48.99999999999999</ele><time>2026-03-25T15:06:20.316Z</time></trkpt><trkpt lat="51.365493" lon="-0.1173997"><ele>49.0</ele><time>2026-03-25T15:06:22.318Z</time></trkpt><trkpt lat="51.3654059" lon="-0.117512"><ele>49.166666666666664</ele><time>2026-03-25T15:06:24.316Z</time></trkpt><trkpt lat="51.3653464" lon="-0.1175814"><ele>49.33333333333333</ele><time>2026-03-25T15:06:25.314Z</time></trkpt><trkpt lat="51.3652837" lon="-0.1176516"><ele>49.5</ele><time>2026-03-25T15:06:26.315Z</time></trkpt><trkpt lat="51.3652279" lon="-0.1177139"><ele>49.66666666666667</ele><time>2026-03-25T15:06:27.313Z</time></trkpt><trkpt lat="51.3651529" lon="-0.117807"><ele>49.833333333333336</ele><time>2026-03-25T15:06:29.313Z</time></trkpt><trkpt lat="51.365094" lon="-0.1178541"><ele>50.0</ele><time>2026-03-25T15:06:32.314Z</time></trkpt><trkpt lat="51.3650116" lon="-0.1179676"><ele>50.00000000000001</ele><time>2026-03-25T15:06:48.318Z</time></trkpt><trkpt lat="51.3649593" lon="-0.1180294"><ele>50.0</ele><time>2026-03-25T15:06:49.317Z</time></trkpt><trkpt lat="51.3648955" lon="-0.1181058"><ele>50.0</ele><time>2026-03-25T15:06:50.317Z</time></trkpt><trkpt lat="51.3648203" lon="-0.1181896"><ele>50.0</ele><time>2026-03-25T15:06:51.319Z</time></trkpt><trkpt lat="51.364745" lon="-0.1182776"><ele>50.00000000000001</ele><time>2026-03-25T15:06:52.316Z</time></trkpt><trkpt lat="51.3646743" lon="-0.1183682"><ele>50.0</ele><time>2026-03-25T15:06:53.314Z</time></trkpt><trkpt lat="51.3646028" lon="-0.118458"><ele>50.0</ele><time>2026-03-25T15:06:54.317Z</time></trkpt><trkpt lat="51.3645339" lon="-0.1185491"><ele>50.0</ele><time>2026-03-25T15:06:55.318Z</time></trkpt><trkpt lat="51.3644628" lon="-0.1186407"><ele>50.0</ele><time>2026-03-25T15:06:56.314Z</time></trkpt><trkpt lat="51.3643896" lon="-0.1187368"><ele>50.0</ele><time>2026-03-25T15:06:57.314Z</time></trkpt><trkpt lat="51.3643146" lon="-0.1188354"><ele>50.0</ele><time>2026-03-25T15:06:58.317Z</time></trkpt><trkpt lat="51.3642363" lon="-0.1189339"><ele>50.0</ele><time>2026-03-25T15:06:59.315Z</time></trkpt><trkpt lat="51.3641535" lon="-0.1190348"><ele>50.0</ele><time>2026-03-25T15:07:00.317Z</time></trkpt><trkpt lat="51.3640724" lon="-0.1191365"><ele>50.0</ele><time>2026-03-25T15:07:01.314Z</time></trkpt><trkpt lat="51.3639934" lon="-0.1192385"><ele>50.0</ele><time>2026-03-25T15:07:02.313Z</time></trkpt><trkpt lat="51.3639106" lon="-0.1193396"><ele>50.0</ele><time>2026-03-25T15:07:03.315Z</time></trkpt><trkpt lat="51.3638187" lon="-0.1194512"><ele>50.25</ele><time>2026-03-25T15:07:04.314Z</time></trkpt><trkpt lat="51.3637188" lon="-0.1195796"><ele>50.5</ele><time>2026-03-25T15:07:05.313Z</time></trkpt><trkpt lat="51.3636136" lon="-0.1197129"><ele>50.75</ele><time>2026-03-25T15:07:06.315Z</time></trkpt><trkpt lat="51.3635121" lon="-0.1198451"><ele>51.0</ele><time>2026-03-25T15:07:07.314Z</time></trkpt><trkpt lat="51.3634133" lon="-0.1199726"><ele>51.0</ele><time>2026-03-25T15:07:08.316Z</time></trkpt><trkpt lat="51.3633168" lon="-0.1200987"><ele>51.0</ele><time>2026-03-25T15:07:09.317Z</time></trkpt><trkpt lat="51.363224" lon="-0.1202256"><ele>51.0</ele><time>2026-03-25T15:07:10.317Z</time></trkpt><trkpt lat="51.3631307" lon="-0.1203568"><ele>51.0</ele><time>2026-03-25T15:07:11.317Z</time></trkpt><trkpt lat="51.3630361" lon="-0.1204919"><ele>51.75</ele><time>2026-03-25T15:07:12.319Z</time></trkpt><trkpt lat="51.3629428" lon="-0.1206267"><ele>52.5</ele><time>2026-03-25T15:07:13.316Z</time></trkpt><trkpt lat="51.3628473" lon="-0.120762"><ele>53.25</ele><time>2026-03-25T15:07:14.317Z</time></trkpt><trkpt lat="51.3627535" lon="-0.1208963"><ele>54.0</ele><time>2026-03-25T15:07:15.319Z</time></trkpt><trkpt lat="51.3626642" lon="-0.1210309"><ele>54.0</ele><time>2026-03-25T15:07:16.314Z</time></trkpt><trkpt lat="51.36258" lon="-0.1211672"><ele>54.00000000000001</ele><time>2026-03-25T15:07:17.316Z</time></trkpt><trkpt lat="51.3625012" lon="-0.1212957"><ele>54.00000000000001</ele><time>2026-03-25T15:07:18.314Z</time></trkpt><trkpt lat="51.3624301" lon="-0.1214128"><ele>54.0</ele><time>2026-03-25T15:07:19.315Z</time></trkpt><trkpt lat="51.3623656" lon="-0.1215217"><ele>54.0</ele><time>2026-03-25T15:07:20.315Z</time></trkpt><trkpt lat="51.3623003" lon="-0.121621"><ele>54.0</ele><time>2026-03-25T15:07:21.314Z</time></trkpt><trkpt lat="51.3622341" lon="-0.1217227"><ele>54.0</ele><time>2026-03-25T15:07:22.313Z</time></trkpt><trkpt lat="51.3621745" lon="-0.1218288"><ele>54.0</ele><time>2026-03-25T15:07:23.314Z</time></trkpt><trkpt lat="51.3621219" lon="-0.1219411"><ele>54.0</ele><time>2026-03-25T15:07:24.317Z</time></trkpt><trkpt lat="51.3620711" lon="-0.1220515"><ele>54.0</ele><time>2026-03-25T15:07:25.314Z</time></trkpt><trkpt lat="51.3620231" lon="-0.1221519"><ele>54.0</ele><time>2026-03-25T15:07:26.314Z</time></trkpt><trkpt lat="51.3619784" lon="-0.1222454"><ele>54.42857142857143</ele><time>2026-03-25T15:07:27.316Z</time></trkpt><trkpt lat="51.3619368" lon="-0.1223325"><ele>54.857142857142854</ele><time>2026-03-25T15:07:28.315Z</time></trkpt><trkpt lat="51.3618932" lon="-0.1224228"><ele>55.285714285714285</ele><time>2026-03-25T15:07:29.315Z</time></trkpt><trkpt lat="51.3618485" lon="-0.1225174"><ele>55.71428571428571</ele><time>2026-03-25T15:07:30.315Z</time></trkpt><trkpt lat="51.361805" lon="-0.1226153"><ele>56.14285714285714</ele><time>2026-03-25T15:07:31.315Z</time></trkpt><trkpt lat="51.3617641" lon="-0.1227175"><ele>56.57142857142857</ele><time>2026-03-25T15:07:32.316Z</time></trkpt><trkpt lat="51.3617238" lon="-0.1228197"><ele>57.0</ele><time>2026-03-25T15:07:33.317Z</time></trkpt><trkpt lat="51.361677" lon="-0.1229245"><ele>57.0</ele><time>2026-03-25T15:07:34.316Z</time></trkpt><trkpt lat="51.3616273" lon="-0.1230403"><ele>57.0</ele><time>2026-03-25T15:07:35.315Z</time></trkpt><trkpt lat="51.3615773" lon="-0.123168"><ele>57.0</ele><time>2026-03-25T15:07:36.315Z</time></trkpt><trkpt lat="51.3615258" lon="-0.1233179"><ele>57.0</ele><time>2026-03-25T15:07:37.316Z</time></trkpt><trkpt lat="51.3614696" lon="-0.1234938"><ele>57.0</ele><time>2026-03-25T15:07:38.316Z</time></trkpt><trkpt lat="51.3614027" lon="-0.123693"><ele>57.0</ele><time>2026-03-25T15:07:39.315Z</time></trkpt><trkpt lat="51.3613359" lon="-0.1238958"><ele>57.0</ele><time>2026-03-25T15:07:40.315Z</time></trkpt><trkpt lat="51.3612718" lon="-0.1240902"><ele>57.0</ele><time>2026-03-25T15:07:41.316Z</time></trkpt><trkpt lat="51.3612163" lon="-0.1242733"><ele>57.0</ele><time>2026-03-25T15:07:42.317Z</time></trkpt><trkpt lat="51.3611659" lon="-0.1244437"><ele>56.75</ele><time>2026-03-25T15:07:43.315Z</time></trkpt><trkpt lat="51.3611193" lon="-0.1246123"><ele>56.5</ele><time>2026-03-25T15:07:44.316Z</time></trkpt><trkpt lat="51.3610747" lon="-0.1247847"><ele>56.25</ele><time>2026-03-25T15:07:45.315Z</time></trkpt><trkpt lat="51.3610304" lon="-0.1249538"><ele>56.0</ele><time>2026-03-25T15:07:46.315Z</time></trkpt><trkpt lat="51.3609884" lon="-0.1251234"><ele>56.0</ele><time>2026-03-25T15:07:47.316Z</time></trkpt><trkpt lat="51.360946" lon="-0.1252904"><ele>55.99999999999999</ele><time>2026-03-25T15:07:48.314Z</time></trkpt><trkpt lat="51.3609073" lon="-0.1254595"><ele>55.99999999999999</ele><time>2026-03-25T15:07:49.315Z</time></trkpt><trkpt lat="51.3608712" lon="-0.125622"><ele>56.0</ele><time>2026-03-25T15:07:50.316Z</time></trkpt><trkpt lat="51.3608428" lon="-0.1257832"><ele>56.0</ele><time>2026-03-25T15:07:51.316Z</time></trkpt><trkpt lat="51.3608221" lon="-0.1259264"><ele>56.16666666666667</ele><time>2026-03-25T15:07:52.318Z</time></trkpt><trkpt lat="51.360808" lon="-0.126041"><ele>56.333333333333336</ele><time>2026-03-25T15:07:53.315Z</time></trkpt><trkpt lat="51.3607915" lon="-0.126174"><ele>56.5</ele><time>2026-03-25T15:07:55.316Z</time></trkpt><trkpt lat="51.3607735" lon="-0.126291"><ele>56.66666666666667</ele><time>2026-03-25T15:07:57.316Z</time></trkpt><trkpt lat="51.3607402" lon="-0.1264687"><ele>56.833333333333336</ele><time>2026-03-25T15:07:59.316Z</time></trkpt><trkpt lat="51.360722" lon="-0.1265694"><ele>57.0</ele><time>2026-03-25T15:08:00.315Z</time></trkpt><trkpt lat="51.3607024" lon="-0.1266749"><ele>57.0</ele><time>2026-03-25T15:08:01.32Z</time></trkpt><trkpt lat="51.3606825" lon="-0.1267886"><ele>57.0</ele><time>2026-03-25T15:08:02.315Z</time></trkpt><trkpt lat="51.3606632" lon="-0.1269103"><ele>57.0</ele><time>2026-03-25T15:08:03.319Z</time></trkpt><trkpt lat="51.3606445" lon="-0.1270535"><ele>57.0</ele><time>2026-03-25T15:08:04.316Z</time></trkpt><trkpt lat="51.3606249" lon="-0.1272126"><ele>57.0</ele><time>2026-03-25T15:08:05.315Z</time></trkpt><trkpt lat="51.3606049" lon="-0.1273726"><ele>57.0</ele><time>2026-03-25T15:08:06.314Z</time></trkpt><trkpt lat="51.3605846" lon="-0.1275237"><ele>57.0</ele><time>2026-03-25T15:08:07.316Z</time></trkpt><trkpt lat="51.3605659" lon="-0.1276764"><ele>57.0</ele><time>2026-03-25T15:08:08.315Z</time></trkpt><trkpt lat="51.3605476" lon="-0.1278358"><ele>57.0</ele><time>2026-03-25T15:08:09.316Z</time></trkpt><trkpt lat="51.3605279" lon="-0.1280009"><ele>57.0</ele><time>2026-03-25T15:08:10.317Z</time></trkpt><trkpt lat="51.3605063" lon="-0.1281719"><ele>57.0</ele><time>2026-03-25T15:08:11.314Z</time></trkpt><trkpt lat="51.3604872" lon="-0.1283429"><ele>56.8</ele><time>2026-03-25T15:08:12.315Z</time></trkpt><trkpt lat="51.3604706" lon="-0.1285064"><ele>56.6</ele><time>2026-03-25T15:08:13.315Z</time></trkpt><trkpt lat="51.3604559" lon="-0.1286609"><ele>56.39999999999999</ele><time>2026-03-25T15:08:14.315Z</time></trkpt><trkpt lat="51.3604398" lon="-0.1288084"><ele>56.199999999999996</ele><time>2026-03-25T15:08:15.316Z</time></trkpt><trkpt lat="51.3604245" lon="-0.1289542"><ele>56.0</ele><time>2026-03-25T15:08:16.314Z</time></trkpt><trkpt lat="51.3604094" lon="-0.1291"><ele>55.8</ele><time>2026-03-25T15:08:17.315Z</time></trkpt><trkpt lat="51.3603969" lon="-0.1292452"><ele>55.599999999999994</ele><time>2026-03-25T15:08:18.314Z</time></trkpt><trkpt lat="51.3603813" lon="-0.1293942"><ele>55.4</ele><time>2026-03-25T15:08:19.315Z</time></trkpt><trkpt lat="51.3603606" lon="-0.129546"><ele>55.2</ele><time>2026-03-25T15:08:20.317Z</time></trkpt><trkpt lat="51.3603387" lon="-0.1297024"><ele>55.0</ele><time>2026-03-25T15:08:21.315Z</time></trkpt><trkpt lat="51.3603194" lon="-0.129864"><ele>55.4</ele><time>2026-03-25T15:08:22.315Z</time></trkpt><trkpt lat="51.3603063" lon="-0.1300305"><ele>55.8</ele><time>2026-03-25T15:08:23.314Z</time></trkpt><trkpt lat="51.3602948" lon="-0.1301963"><ele>56.2</ele><time>2026-03-25T15:08:24.315Z</time></trkpt><trkpt lat="51.3602824" lon="-0.1303585"><ele>56.6</ele><time>2026-03-25T15:08:25.315Z</time></trkpt><trkpt lat="51.3602711" lon="-0.1305143"><ele>57.0</ele><time>2026-03-25T15:08:26.315Z</time></trkpt><trkpt lat="51.3602593" lon="-0.1306687"><ele>57.2</ele><time>2026-03-25T15:08:27.316Z</time></trkpt><trkpt lat="51.3602465" lon="-0.1308176"><ele>57.400000000000006</ele><time>2026-03-25T15:08:28.314Z</time></trkpt><trkpt lat="51.3602333" lon="-0.1309612"><ele>57.599999999999994</ele><time>2026-03-25T15:08:29.315Z</time></trkpt><trkpt lat="51.3602198" lon="-0.1311037"><ele>57.8</ele><time>2026-03-25T15:08:30.314Z</time></trkpt><trkpt lat="51.3602048" lon="-0.1312489"><ele>58.0</ele><time>2026-03-25T15:08:31.317Z</time></trkpt><trkpt lat="51.3601865" lon="-0.1313982"><ele>58.0</ele><time>2026-03-25T15:08:32.315Z</time></trkpt><trkpt lat="51.3601681" lon="-0.1315515"><ele>58.0</ele><time>2026-03-25T15:08:33.315Z</time></trkpt><trkpt lat="51.3601531" lon="-0.1317076"><ele>58.0</ele><time>2026-03-25T15:08:34.315Z</time></trkpt><trkpt lat="51.3601353" lon="-0.1318635"><ele>58.0</ele><time>2026-03-25T15:08:35.315Z</time></trkpt><trkpt lat="51.3601194" lon="-0.1320259"><ele>58.0</ele><time>2026-03-25T15:08:36.316Z</time></trkpt><trkpt lat="51.3601045" lon="-0.1321894"><ele>57.83333333333333</ele><time>2026-03-25T15:08:37.317Z</time></trkpt><trkpt lat="51.3600878" lon="-0.1323289"><ele>57.666666666666664</ele><time>2026-03-25T15:08:38.314Z</time></trkpt><trkpt lat="51.3600764" lon="-0.1324408"><ele>57.5</ele><time>2026-03-25T15:08:39.315Z</time></trkpt><trkpt lat="51.3600599" lon="-0.132599"><ele>57.33333333333333</ele><time>2026-03-25T15:08:41.315Z</time></trkpt><trkpt lat="51.3600518" lon="-0.132721"><ele>57.166666666666664</ele><time>2026-03-25T15:08:43.315Z</time></trkpt><trkpt lat="51.3600403" lon="-0.1328643"><ele>57.0</ele><time>2026-03-25T15:08:45.317Z</time></trkpt><trkpt lat="51.3600279" lon="-0.132971"><ele>57.0</ele><time>2026-03-25T15:08:46.316Z</time></trkpt><trkpt lat="51.3600058" lon="-0.1330992"><ele>57.0</ele><time>2026-03-25T15:08:47.316Z</time></trkpt><trkpt lat="51.3599815" lon="-0.1332578"><ele>57.0</ele><time>2026-03-25T15:08:48.314Z</time></trkpt><trkpt lat="51.3599577" lon="-0.1334469"><ele>57.0</ele><time>2026-03-25T15:08:49.315Z</time></trkpt><trkpt lat="51.3599361" lon="-0.1336299"><ele>57.0</ele><time>2026-03-25T15:08:50.315Z</time></trkpt><trkpt lat="51.3599182" lon="-0.133795"><ele>57.2</ele><time>2026-03-25T15:08:51.314Z</time></trkpt><trkpt lat="51.3599057" lon="-0.133948"><ele>57.400000000000006</ele><time>2026-03-25T15:08:52.315Z</time></trkpt><trkpt lat="51.3598941" lon="-0.134099"><ele>57.599999999999994</ele><time>2026-03-25T15:08:53.314Z</time></trkpt><trkpt lat="51.3598813" lon="-0.1342572"><ele>57.8</ele><time>2026-03-25T15:08:54.316Z</time></trkpt><trkpt lat="51.3598666" lon="-0.1344195"><ele>58.0</ele><time>2026-03-25T15:08:55.315Z</time></trkpt><trkpt lat="51.3598541" lon="-0.1345885"><ele>58.25</ele><time>2026-03-25T15:08:56.314Z</time></trkpt><trkpt lat="51.3598433" lon="-0.1347609"><ele>58.5</ele><time>2026-03-25T15:08:57.314Z</time></trkpt><trkpt lat="51.3598319" lon="-0.134938"><ele>58.75</ele><time>2026-03-25T15:08:58.315Z</time></trkpt><trkpt lat="51.3598214" lon="-0.1351162"><ele>59.0</ele><time>2026-03-25T15:08:59.316Z</time></trkpt><trkpt lat="51.3598023" lon="-0.1353051"><ele>59.25</ele><time>2026-03-25T15:09:00.316Z</time></trkpt><trkpt lat="51.3597817" lon="-0.1354974"><ele>59.5</ele><time>2026-03-25T15:09:01.315Z</time></trkpt><trkpt lat="51.3597629" lon="-0.1356843"><ele>59.75</ele><time>2026-03-25T15:09:02.316Z</time></trkpt><trkpt lat="51.3597467" lon="-0.1358602"><ele>60.0</ele><time>2026-03-25T15:09:03.317Z</time></trkpt><trkpt lat="51.3597312" lon="-0.136028"><ele>60.0</ele><time>2026-03-25T15:09:04.317Z</time></trkpt><trkpt lat="51.3597197" lon="-0.1361884"><ele>60.0</ele><time>2026-03-25T15:09:05.314Z</time></trkpt><trkpt lat="51.3597072" lon="-0.136335"><ele>60.0</ele><time>2026-03-25T15:09:06.315Z</time></trkpt><trkpt lat="51.3596936" lon="-0.1364741"><ele>60.0</ele><time>2026-03-25T15:09:07.317Z</time></trkpt><trkpt lat="51.359682" lon="-0.13661"><ele>60.0</ele><time>2026-03-25T15:09:08.315Z</time></trkpt><trkpt lat="51.3596715" lon="-0.1367586"><ele>60.166666666666664</ele><time>2026-03-25T15:09:09.315Z</time></trkpt><trkpt lat="51.35966" lon="-0.1369137"><ele>60.33333333333333</ele><time>2026-03-25T15:09:10.314Z</time></trkpt><trkpt lat="51.3596473" lon="-0.1370649"><ele>60.5</ele><time>2026-03-25T15:09:11.316Z</time></trkpt><trkpt lat="51.3596357" lon="-0.1371974"><ele>60.666666666666664</ele><time>2026-03-25T15:09:12.316Z</time></trkpt><trkpt lat="51.3596241" lon="-0.1373012"><ele>60.83333333333333</ele><time>2026-03-25T15:09:13.319Z</time></trkpt><trkpt lat="51.3596073" lon="-0.1374133"><ele>61.0</ele><time>2026-03-25T15:09:15.318Z</time></trkpt><trkpt lat="51.3595911" lon="-0.1375123"><ele>61.0</ele><time>2026-03-25T15:09:56.317Z</time></trkpt><trkpt lat="51.3595633" lon="-0.1376461"><ele>60.99999999999999</ele><time>2026-03-25T15:09:58.321Z</time></trkpt><trkpt lat="51.3595016" lon="-0.1377644"><ele>60.99999999999999</ele><time>2026-03-25T15:10:00.315Z</time></trkpt><trkpt lat="51.3593788" lon="-0.137833"><ele>61.0</ele><time>2026-03-25T15:10:02.319Z</time></trkpt><trkpt lat="51.3592988" lon="-0.1378558"><ele>61.0</ele><time>2026-03-25T15:10:03.315Z</time></trkpt><trkpt lat="51.3592209" lon="-0.1378793"><ele>61.0</ele><time>2026-03-25T15:10:04.315Z</time></trkpt><trkpt lat="51.3591515" lon="-0.1379008"><ele>60.99999999999999</ele><time>2026-03-25T15:10:05.315Z</time></trkpt><trkpt lat="51.3590888" lon="-0.1379191"><ele>60.99999999999999</ele><time>2026-03-25T15:10:06.315Z</time></trkpt><trkpt lat="51.3589642" lon="-0.1379511"><ele>61.0</ele><time>2026-03-25T15:10:08.32Z</time></trkpt><trkpt lat="51.3588417" lon="-0.1379755"><ele>61.0</ele><time>2026-03-25T15:10:10.315Z</time></trkpt><trkpt lat="51.3587336" lon="-0.1380013"><ele>61.599999999999994</ele><time>2026-03-25T15:10:12.315Z</time></trkpt><trkpt lat="51.3586348" lon="-0.1380289"><ele>62.199999999999996</ele><time>2026-03-25T15:10:14.319Z</time></trkpt><trkpt lat="51.3585338" lon="-0.1380475"><ele>62.800000000000004</ele><time>2026-03-25T15:10:16.318Z</time></trkpt><trkpt lat="51.3584644" lon="-0.1380563"><ele>63.400000000000006</ele><time>2026-03-25T15:10:18.314Z</time></trkpt><trkpt lat="51.3583851" lon="-0.138038"><ele>64.0</ele><time>2026-03-25T15:10:26.319Z</time></trkpt><trkpt lat="51.358281" lon="-0.1380481"><ele>63.99999999999999</ele><time>2026-03-25T15:10:28.315Z</time></trkpt><trkpt lat="51.3582149" lon="-0.1380654"><ele>64.0</ele><time>2026-03-25T15:10:29.314Z</time></trkpt><trkpt lat="51.3581362" lon="-0.1380839"><ele>64.0</ele><time>2026-03-25T15:10:30.315Z</time></trkpt><trkpt lat="51.3580464" lon="-0.1381053"><ele>64.0</ele><time>2026-03-25T15:10:31.315Z</time></trkpt><trkpt lat="51.3579473" lon="-0.1381332"><ele>63.99999999999999</ele><time>2026-03-25T15:10:32.316Z</time></trkpt><trkpt lat="51.3578433" lon="-0.138166"><ele>64.0</ele><time>2026-03-25T15:10:33.315Z</time></trkpt><trkpt lat="51.3577321" lon="-0.1381999"><ele>64.25</ele><time>2026-03-25T15:10:34.316Z</time></trkpt><trkpt lat="51.3576193" lon="-0.1382388"><ele>64.5</ele><time>2026-03-25T15:10:35.315Z</time></trkpt><trkpt lat="51.3575055" lon="-0.1382792"><ele>64.75</ele><time>2026-03-25T15:10:36.314Z</time></trkpt><trkpt lat="51.3573943" lon="-0.1383185"><ele>65.0</ele><time>2026-03-25T15:10:37.314Z</time></trkpt><trkpt lat="51.3572827" lon="-0.1383518"><ele>65.8</ele><time>2026-03-25T15:10:38.314Z</time></trkpt><trkpt lat="51.3571732" lon="-0.1383838"><ele>66.6</ele><time>2026-03-25T15:10:39.318Z</time></trkpt><trkpt lat="51.3570691" lon="-0.1384168"><ele>67.4</ele><time>2026-03-25T15:10:40.313Z</time></trkpt><trkpt lat="51.3569704" lon="-0.138447"><ele>68.2</ele><time>2026-03-25T15:10:41.314Z</time></trkpt><trkpt lat="51.3568767" lon="-0.1384724"><ele>69.0</ele><time>2026-03-25T15:10:42.315Z</time></trkpt><trkpt lat="51.3567883" lon="-0.138494"><ele>69.0</ele><time>2026-03-25T15:10:43.319Z</time></trkpt><trkpt lat="51.356717" lon="-0.1385106"><ele>69.0</ele><time>2026-03-25T15:10:44.318Z</time></trkpt><trkpt lat="51.356606" lon="-0.1385254"><ele>69.0</ele><time>2026-03-25T15:10:46.317Z</time></trkpt><trkpt lat="51.3565289" lon="-0.1385681"><ele>69.0</ele><time>2026-03-25T15:10:48.317Z</time></trkpt><trkpt lat="51.356476" lon="-0.1386417"><ele>69.0</ele><time>2026-03-25T15:10:50.318Z</time></trkpt><trkpt lat="51.3563995" lon="-0.1387329"><ele>69.0</ele><time>2026-03-25T15:10:52.318Z</time></trkpt><trkpt lat="51.3562895" lon="-0.1388729"><ele>69.0</ele><time>2026-03-25T15:10:54.318Z</time></trkpt><trkpt lat="51.3562223" lon="-0.1389595"><ele>69.0</ele><time>2026-03-25T15:10:55.315Z</time></trkpt><trkpt lat="51.3561438" lon="-0.1390575"><ele>69.0</ele><time>2026-03-25T15:10:56.315Z</time></trkpt><trkpt lat="51.3560508" lon="-0.1391602"><ele>69.0</ele><time>2026-03-25T15:10:57.315Z</time></trkpt><trkpt lat="51.3559488" lon="-0.1392664"><ele>69.0</ele><time>2026-03-25T15:10:58.315Z</time></trkpt><trkpt lat="51.3558424" lon="-0.1393785"><ele>69.25</ele><time>2026-03-25T15:10:59.317Z</time></trkpt><trkpt lat="51.3557371" lon="-0.1394988"><ele>69.5</ele><time>2026-03-25T15:11:00.315Z</time></trkpt><trkpt lat="51.3556305" lon="-0.1396241"><ele>69.75</ele><time>2026-03-25T15:11:01.314Z</time></trkpt><trkpt lat="51.3555166" lon="-0.1397527"><ele>70.0</ele><time>2026-03-25T15:11:02.314Z</time></trkpt><trkpt lat="51.3554012" lon="-0.1398813"><ele>69.75</ele><time>2026-03-25T15:11:03.315Z</time></trkpt><trkpt lat="51.3552896" lon="-0.1400073"><ele>69.5</ele><time>2026-03-25T15:11:04.319Z</time></trkpt><trkpt lat="51.3551822" lon="-0.1401303"><ele>69.25</ele><time>2026-03-25T15:11:05.314Z</time></trkpt><trkpt lat="51.3550716" lon="-0.1402603"><ele>69.0</ele><time>2026-03-25T15:11:06.318Z</time></trkpt><trkpt lat="51.3549573" lon="-0.1403954"><ele>69.0</ele><time>2026-03-25T15:11:07.317Z</time></trkpt><trkpt lat="51.3548423" lon="-0.1405272"><ele>69.0</ele><time>2026-03-25T15:11:08.315Z</time></trkpt><trkpt lat="51.3547282" lon="-0.1406564"><ele>69.0</ele><time>2026-03-25T15:11:09.319Z</time></trkpt><trkpt lat="51.3546149" lon="-0.1407871"><ele>69.0</ele><time>2026-03-25T15:11:10.318Z</time></trkpt><trkpt lat="51.3545029" lon="-0.1409187"><ele>70.0</ele><time>2026-03-25T15:11:11.315Z</time></trkpt><trkpt lat="51.3543923" lon="-0.1410479"><ele>71.0</ele><time>2026-03-25T15:11:12.314Z</time></trkpt><trkpt lat="51.3542852" lon="-0.1411761"><ele>72.0</ele><time>2026-03-25T15:11:13.314Z</time></trkpt><trkpt lat="51.3541846" lon="-0.1412966"><ele>73.0</ele><time>2026-03-25T15:11:14.314Z</time></trkpt><trkpt lat="51.35409" lon="-0.1414055"><ele>73.0</ele><time>2026-03-25T15:11:15.315Z</time></trkpt><trkpt lat="51.3540002" lon="-0.1415058"><ele>73.0</ele><time>2026-03-25T15:11:16.32Z</time></trkpt><trkpt lat="51.3539146" lon="-0.1416021"><ele>73.0</ele><time>2026-03-25T15:11:17.318Z</time></trkpt><trkpt lat="51.3538358" lon="-0.1416925"><ele>73.0</ele><time>2026-03-25T15:11:18.315Z</time></trkpt><trkpt lat="51.3537618" lon="-0.1417736"><ele>73.0</ele><time>2026-03-25T15:11:19.314Z</time></trkpt><trkpt lat="51.3536902" lon="-0.1418497"><ele>73.33333333333333</ele><time>2026-03-25T15:11:20.313Z</time></trkpt><trkpt lat="51.3536204" lon="-0.1419249"><ele>73.66666666666666</ele><time>2026-03-25T15:11:21.315Z</time></trkpt><trkpt lat="51.3535535" lon="-0.1420024"><ele>74.0</ele><time>2026-03-25T15:11:22.314Z</time></trkpt><trkpt lat="51.353486" lon="-0.1420788"><ele>74.33333333333333</ele><time>2026-03-25T15:11:23.315Z</time></trkpt><trkpt lat="51.353418" lon="-0.1421497"><ele>74.66666666666667</ele><time>2026-03-25T15:11:24.314Z</time></trkpt><trkpt lat="51.3533498" lon="-0.1422227"><ele>75.0</ele><time>2026-03-25T15:11:25.314Z</time></trkpt><trkpt lat="51.3532815" lon="-0.1422991"><ele>75.0</ele><time>2026-03-25T15:11:26.314Z</time></trkpt><trkpt lat="51.3532158" lon="-0.1423791"><ele>75.0</ele><time>2026-03-25T15:11:27.314Z</time></trkpt><trkpt lat="51.353152" lon="-0.142457"><ele>75.0</ele><time>2026-03-25T15:11:28.317Z</time></trkpt><trkpt lat="51.3530861" lon="-0.1425335"><ele>75.0</ele><time>2026-03-25T15:11:29.317Z</time></trkpt><trkpt lat="51.3530152" lon="-0.1426099"><ele>75.0</ele><time>2026-03-25T15:11:30.317Z</time></trkpt><trkpt lat="51.3529391" lon="-0.1426881"><ele>75.0</ele><time>2026-03-25T15:11:31.317Z</time></trkpt><trkpt lat="51.3528603" lon="-0.1427666"><ele>75.4</ele><time>2026-03-25T15:11:32.314Z</time></trkpt><trkpt lat="51.352777" lon="-0.1428436"><ele>75.8</ele><time>2026-03-25T15:11:33.315Z</time></trkpt><trkpt lat="51.3526902" lon="-0.1429204"><ele>76.2</ele><time>2026-03-25T15:11:34.317Z</time></trkpt><trkpt lat="51.3526044" lon="-0.1429992"><ele>76.6</ele><time>2026-03-25T15:11:35.314Z</time></trkpt><trkpt lat="51.3525179" lon="-0.1430805"><ele>77.0</ele><time>2026-03-25T15:11:36.315Z</time></trkpt><trkpt lat="51.3524359" lon="-0.1431593"><ele>77.33333333333334</ele><time>2026-03-25T15:11:37.313Z</time></trkpt><trkpt lat="51.3523645" lon="-0.1432275"><ele>77.66666666666667</ele><time>2026-03-25T15:11:38.318Z</time></trkpt><trkpt lat="51.352305" lon="-0.1432832"><ele>78.0</ele><time>2026-03-25T15:11:39.318Z</time></trkpt><trkpt lat="51.3522388" lon="-0.1433449"><ele>78.33333333333333</ele><time>2026-03-25T15:11:41.314Z</time></trkpt><trkpt lat="51.3521801" lon="-0.1434071"><ele>78.66666666666666</ele><time>2026-03-25T15:11:44.317Z</time></trkpt><trkpt lat="51.3521189" lon="-0.1434611"><ele>79.0</ele><time>2026-03-25T15:11:46.318Z</time></trkpt><trkpt lat="51.3520047" lon="-0.1435785"><ele>79.2</ele><time>2026-03-25T15:11:48.315Z</time></trkpt><trkpt lat="51.3519333" lon="-0.1436523"><ele>79.4</ele><time>2026-03-25T15:11:49.318Z</time></trkpt><trkpt lat="51.3518532" lon="-0.1437251"><ele>79.6</ele><time>2026-03-25T15:11:50.317Z</time></trkpt><trkpt lat="51.3517654" lon="-0.1437888"><ele>79.8</ele><time>2026-03-25T15:11:51.319Z</time></trkpt><trkpt lat="51.351673" lon="-0.1438477"><ele>80.0</ele><time>2026-03-25T15:11:52.317Z</time></trkpt><trkpt lat="51.351579" lon="-0.143903"><ele>80.0</ele><time>2026-03-25T15:11:53.318Z</time></trkpt><trkpt lat="51.3514893" lon="-0.1439625"><ele>80.0</ele><time>2026-03-25T15:11:54.315Z</time></trkpt><trkpt lat="51.3513971" lon="-0.1440264"><ele>80.0</ele><time>2026-03-25T15:11:55.314Z</time></trkpt><trkpt lat="51.3513007" lon="-0.1440905"><ele>80.0</ele><time>2026-03-25T15:11:56.317Z</time></trkpt><trkpt lat="51.3512039" lon="-0.1441579"><ele>80.0</ele><time>2026-03-25T15:11:57.318Z</time></trkpt><trkpt lat="51.3511025" lon="-0.1442461"><ele>80.25</ele><time>2026-03-25T15:11:58.318Z</time></trkpt><trkpt lat="51.3509921" lon="-0.1443485"><ele>80.5</ele><time>2026-03-25T15:11:59.314Z</time></trkpt><trkpt lat="51.3508771" lon="-0.1444659"><ele>80.75</ele><time>2026-03-25T15:12:00.318Z</time></trkpt><trkpt lat="51.3507744" lon="-0.1445849"><ele>81.0</ele><time>2026-03-25T15:12:01.319Z</time></trkpt><trkpt lat="51.3506783" lon="-0.1446978"><ele>81.0</ele><time>2026-03-25T15:12:02.315Z</time></trkpt><trkpt lat="51.3505842" lon="-0.1447946"><ele>81.0</ele><time>2026-03-25T15:12:03.314Z</time></trkpt><trkpt lat="51.3504948" lon="-0.1448807"><ele>81.0</ele><time>2026-03-25T15:12:04.315Z</time></trkpt><trkpt lat="51.3504108" lon="-0.1449547"><ele>81.0</ele><time>2026-03-25T15:12:05.318Z</time></trkpt><trkpt lat="51.3503328" lon="-0.1450204"><ele>81.0</ele><time>2026-03-25T15:12:06.317Z</time></trkpt><trkpt lat="51.3502511" lon="-0.1450742"><ele>81.66666666666667</ele><time>2026-03-25T15:12:07.317Z</time></trkpt><trkpt lat="51.3501689" lon="-0.145115"><ele>82.33333333333333</ele><time>2026-03-25T15:12:08.317Z</time></trkpt><trkpt lat="51.350097" lon="-0.1451514"><ele>83.0</ele><time>2026-03-25T15:12:09.314Z</time></trkpt><trkpt lat="51.3500342" lon="-0.1451814"><ele>83.66666666666666</ele><time>2026-03-25T15:12:10.318Z</time></trkpt><trkpt lat="51.3499303" lon="-0.1452241"><ele>84.33333333333333</ele><time>2026-03-25T15:12:12.314Z</time></trkpt><trkpt lat="51.3498558" lon="-0.1452713"><ele>85.0</ele><time>2026-03-25T15:12:14.315Z</time></trkpt><trkpt lat="51.3497733" lon="-0.1453278"><ele>85.4</ele><time>2026-03-25T15:12:16.318Z</time></trkpt><trkpt lat="51.3496631" lon="-0.1453946"><ele>85.8</ele><time>2026-03-25T15:12:18.317Z</time></trkpt><trkpt lat="51.3495426" lon="-0.1454624"><ele>86.19999999999999</ele><time>2026-03-25T15:12:20.314Z</time></trkpt><trkpt lat="51.3494752" lon="-0.1454978"><ele>86.6</ele><time>2026-03-25T15:12:21.319Z</time></trkpt><trkpt lat="51.349409" lon="-0.1455335"><ele>87.0</ele><time>2026-03-25T15:12:22.315Z</time></trkpt><trkpt lat="51.3493477" lon="-0.1455685"><ele>87.0</ele><time>2026-03-25T15:12:23.316Z</time></trkpt><trkpt lat="51.3492865" lon="-0.1456033"><ele>87.0</ele><time>2026-03-25T15:12:24.32Z</time></trkpt><trkpt lat="51.3491692" lon="-0.1456647"><ele>87.0</ele><time>2026-03-25T15:12:26.316Z</time></trkpt><trkpt lat="51.3490505" lon="-0.1457425"><ele>87.0</ele><time>2026-03-25T15:12:28.315Z</time></trkpt><trkpt lat="51.3489891" lon="-0.1457875"><ele>87.0</ele><time>2026-03-25T15:12:29.314Z</time></trkpt><trkpt lat="51.3489178" lon="-0.1458297"><ele>87.39999999999999</ele><time>2026-03-25T15:12:30.32Z</time></trkpt><trkpt lat="51.3488388" lon="-0.1458803"><ele>87.8</ele><time>2026-03-25T15:12:31.317Z</time></trkpt><trkpt lat="51.3487484" lon="-0.1459401"><ele>88.2</ele><time>2026-03-25T15:12:32.313Z</time></trkpt><trkpt lat="51.3486535" lon="-0.1460011"><ele>88.6</ele><time>2026-03-25T15:12:33.314Z</time></trkpt><trkpt lat="51.3485548" lon="-0.1460584"><ele>89.0</ele><time>2026-03-25T15:12:34.315Z</time></trkpt><trkpt lat="51.3484558" lon="-0.146115"><ele>89.0</ele><time>2026-03-25T15:12:35.313Z</time></trkpt><trkpt lat="51.3483635" lon="-0.1461671"><ele>89.0</ele><time>2026-03-25T15:12:36.314Z</time></trkpt><trkpt lat="51.3482746" lon="-0.1462119"><ele>89.0</ele><time>2026-03-25T15:12:37.314Z</time></trkpt><trkpt lat="51.3481853" lon="-0.146251"><ele>89.0</ele><time>2026-03-25T15:12:38.314Z</time></trkpt><trkpt lat="51.3480998" lon="-0.1462903"><ele>89.0</ele><time>2026-03-25T15:12:39.315Z</time></trkpt><trkpt lat="51.348018" lon="-0.1463288"><ele>89.0</ele><time>2026-03-25T15:12:40.314Z</time></trkpt><trkpt lat="51.3479381" lon="-0.146367"><ele>89.0</ele><time>2026-03-25T15:12:41.318Z</time></trkpt><trkpt lat="51.3478587" lon="-0.1464086"><ele>89.0</ele><time>2026-03-25T15:12:42.318Z</time></trkpt><trkpt lat="51.3477804" lon="-0.1464471"><ele>89.0</ele><time>2026-03-25T15:12:43.313Z</time></trkpt><trkpt lat="51.3477075" lon="-0.146481"><ele>89.0</ele><time>2026-03-25T15:12:44.314Z</time></trkpt><trkpt lat="51.3476427" lon="-0.146506"><ele>89.0</ele><time>2026-03-25T15:12:45.315Z</time></trkpt><trkpt lat="51.3475551" lon="-0.146536"><ele>89.33333333333334</ele><time>2026-03-25T15:12:47.314Z</time></trkpt><trkpt lat="51.3474763" lon="-0.1465983"><ele>89.66666666666667</ele><time>2026-03-25T15:12:51.315Z</time></trkpt><trkpt lat="51.3473743" lon="-0.1466553"><ele>90.0</ele><time>2026-03-25T15:12:53.313Z</time></trkpt><trkpt lat="51.3473108" lon="-0.1466859"><ele>90.33333333333333</ele><time>2026-03-25T15:12:54.314Z</time></trkpt><trkpt lat="51.3472462" lon="-0.1467148"><ele>90.66666666666666</ele><time>2026-03-25T15:12:55.314Z</time></trkpt><trkpt lat="51.3471849" lon="-0.1467412"><ele>91.0</ele><time>2026-03-25T15:12:56.313Z</time></trkpt><trkpt lat="51.3470817" lon="-0.1468012"><ele>91.4</ele><time>2026-03-25T15:12:58.314Z</time></trkpt><trkpt lat="51.3469903" lon="-0.1468564"><ele>91.8</ele><time>2026-03-25T15:13:00.314Z</time></trkpt><trkpt lat="51.3468939" lon="-0.1468937"><ele>92.2</ele><time>2026-03-25T15:13:02.316Z</time></trkpt><trkpt lat="51.3468018" lon="-0.1469399"><ele>92.60000000000001</ele><time>2026-03-25T15:13:04.314Z</time></trkpt><trkpt lat="51.3467404" lon="-0.1469733"><ele>93.0</ele><time>2026-03-25T15:13:08.314Z</time></trkpt><trkpt lat="51.3466503" lon="-0.147008"><ele>93.0</ele><time>2026-03-25T15:13:11.314Z</time></trkpt><trkpt lat="51.346578" lon="-0.147015"><ele>93.0</ele><time>2026-03-25T15:13:12.317Z</time></trkpt><trkpt lat="51.3464809" lon="-0.147011"><ele>93.0</ele><time>2026-03-25T15:13:13.318Z</time></trkpt><trkpt lat="51.3463718" lon="-0.1469977"><ele>93.0</ele><time>2026-03-25T15:13:14.317Z</time></trkpt><trkpt lat="51.3462615" lon="-0.146982"><ele>93.0</ele><time>2026-03-25T15:13:15.317Z</time></trkpt><trkpt lat="51.346143" lon="-0.1469624"><ele>93.25</ele><time>2026-03-25T15:13:16.314Z</time></trkpt><trkpt lat="51.346021" lon="-0.1469382"><ele>93.5</ele><time>2026-03-25T15:13:17.318Z</time></trkpt><trkpt lat="51.3458899" lon="-0.1469063"><ele>93.75</ele><time>2026-03-25T15:13:18.313Z</time></trkpt><trkpt lat="51.3457553" lon="-0.1468781"><ele>94.0</ele><time>2026-03-25T15:13:19.313Z</time></trkpt><trkpt lat="51.3456165" lon="-0.1468543"><ele>94.33333333333333</ele><time>2026-03-25T15:13:20.314Z</time></trkpt><trkpt lat="51.3454699" lon="-0.1468301"><ele>94.66666666666667</ele><time>2026-03-25T15:13:21.315Z</time></trkpt><trkpt lat="51.3453165" lon="-0.1467926"><ele>95.0</ele><time>2026-03-25T15:13:22.314Z</time></trkpt><trkpt lat="51.3451621" lon="-0.1467539"><ele>95.0</ele><time>2026-03-25T15:13:23.314Z</time></trkpt><trkpt lat="51.3450106" lon="-0.1467174"><ele>95.0</ele><time>2026-03-25T15:13:24.314Z</time></trkpt><trkpt lat="51.3448637" lon="-0.14668"><ele>95.0</ele><time>2026-03-25T15:13:25.317Z</time></trkpt><trkpt lat="51.3447194" lon="-0.1466438"><ele>95.0</ele><time>2026-03-25T15:13:26.313Z</time></trkpt><trkpt lat="51.3445794" lon="-0.1466095"><ele>95.75</ele><time>2026-03-25T15:13:27.314Z</time></trkpt><trkpt lat="51.3444403" lon="-0.1465723"><ele>96.5</ele><time>2026-03-25T15:13:28.317Z</time></trkpt><trkpt lat="51.3443026" lon="-0.1465232"><ele>97.25</ele><time>2026-03-25T15:13:29.314Z</time></trkpt><trkpt lat="51.3441679" lon="-0.1464643"><ele>98.0</ele><time>2026-03-25T15:13:30.318Z</time></trkpt><trkpt lat="51.3440374" lon="-0.146403"><ele>98.75</ele><time>2026-03-25T15:13:31.318Z</time></trkpt><trkpt lat="51.343911" lon="-0.1463395"><ele>99.5</ele><time>2026-03-25T15:13:32.314Z</time></trkpt><trkpt lat="51.3437849" lon="-0.1462731"><ele>100.25</ele><time>2026-03-25T15:13:33.315Z</time></trkpt><trkpt lat="51.3436587" lon="-0.1462075"><ele>101.0</ele><time>2026-03-25T15:13:34.314Z</time></trkpt><trkpt lat="51.3435385" lon="-0.1461424"><ele>101.25</ele><time>2026-03-25T15:13:35.315Z</time></trkpt><trkpt lat="51.3434268" lon="-0.1460792"><ele>101.5</ele><time>2026-03-25T15:13:36.313Z</time></trkpt><trkpt lat="51.3433157" lon="-0.1460241"><ele>101.75</ele><time>2026-03-25T15:13:37.314Z</time></trkpt><trkpt lat="51.343201" lon="-0.1459722"><ele>102.0</ele><time>2026-03-25T15:13:38.315Z</time></trkpt><trkpt lat="51.3430862" lon="-0.1459221"><ele>102.75</ele><time>2026-03-25T15:13:39.315Z</time></trkpt><trkpt lat="51.3429673" lon="-0.1458793"><ele>103.5</ele><time>2026-03-25T15:13:40.314Z</time></trkpt><trkpt lat="51.3428442" lon="-0.1458481"><ele>104.25</ele><time>2026-03-25T15:13:41.314Z</time></trkpt><trkpt lat="51.3427141" lon="-0.1458244"><ele>105.0</ele><time>2026-03-25T15:13:42.317Z</time></trkpt><trkpt lat="51.3425887" lon="-0.1458008"><ele>105.0</ele><time>2026-03-25T15:13:43.318Z</time></trkpt><trkpt lat="51.3424702" lon="-0.1457736"><ele>105.0</ele><time>2026-03-25T15:13:44.318Z</time></trkpt><trkpt lat="51.3423564" lon="-0.1457351"><ele>105.0</ele><time>2026-03-25T15:13:45.316Z</time></trkpt><trkpt lat="51.3422462" lon="-0.1456829"><ele>105.0</ele><time>2026-03-25T15:13:46.318Z</time></trkpt><trkpt lat="51.3421409" lon="-0.1456171"><ele>105.16666666666667</ele><time>2026-03-25T15:13:47.314Z</time></trkpt><trkpt lat="51.3420392" lon="-0.145545"><ele>105.33333333333334</ele><time>2026-03-25T15:13:48.318Z</time></trkpt><trkpt lat="51.341948" lon="-0.1454713"><ele>105.5</ele><time>2026-03-25T15:13:49.314Z</time></trkpt><trkpt lat="51.3418721" lon="-0.1454083"><ele>105.66666666666667</ele><time>2026-03-25T15:13:50.315Z</time></trkpt><trkpt lat="51.3418136" lon="-0.1453564"><ele>105.83333333333334</ele><time>2026-03-25T15:13:51.317Z</time></trkpt><trkpt lat="51.341759" lon="-0.1453045"><ele>106.0</ele><time>2026-03-25T15:13:59.317Z</time></trkpt><trkpt lat="51.3416947" lon="-0.1452546"><ele>106.0</ele><time>2026-03-25T15:14:01.315Z</time></trkpt><trkpt lat="51.3416169" lon="-0.1451905"><ele>106.0</ele><time>2026-03-25T15:14:03.314Z</time></trkpt><trkpt lat="51.3415287" lon="-0.1451289"><ele>106.0</ele><time>2026-03-25T15:14:05.313Z</time></trkpt><trkpt lat="51.3414124" lon="-0.1450361"><ele>106.0</ele><time>2026-03-25T15:14:07.318Z</time></trkpt><trkpt lat="51.3413552" lon="-0.1449928"><ele>106.0</ele><time>2026-03-25T15:14:08.315Z</time></trkpt><trkpt lat="51.3412591" lon="-0.1449189"><ele>106.33333333333334</ele><time>2026-03-25T15:14:10.314Z</time></trkpt><trkpt lat="51.3411868" lon="-0.1448789"><ele>106.66666666666667</ele><time>2026-03-25T15:14:12.315Z</time></trkpt><trkpt lat="51.3411248" lon="-0.1448324"><ele>107.0</ele><time>2026-03-25T15:14:14.317Z</time></trkpt><trkpt lat="51.3410251" lon="-0.1447627"><ele>107.33333333333334</ele><time>2026-03-25T15:14:16.313Z</time></trkpt><trkpt lat="51.340942" lon="-0.1447083"><ele>107.66666666666667</ele><time>2026-03-25T15:14:17.313Z</time></trkpt><trkpt lat="51.3408581" lon="-0.1446487"><ele>108.0</ele><time>2026-03-25T15:14:18.314Z</time></trkpt><trkpt lat="51.340779" lon="-0.1445901"><ele>108.0</ele><time>2026-03-25T15:14:19.316Z</time></trkpt><trkpt lat="51.3407196" lon="-0.1445381"><ele>108.0</ele><time>2026-03-25T15:14:20.317Z</time></trkpt><trkpt lat="51.3406604" lon="-0.1444958"><ele>108.0</ele><time>2026-03-25T15:14:22.318Z</time></trkpt><trkpt lat="51.3405761" lon="-0.1444512"><ele>108.0</ele><time>2026-03-25T15:14:27.411Z</time></trkpt><trkpt lat="51.3404979" lon="-0.1443996"><ele>108.0</ele><time>2026-03-25T15:14:29.315Z</time></trkpt><trkpt lat="51.3404233" lon="-0.1443573"><ele>108.0</ele><time>2026-03-25T15:14:31.316Z</time></trkpt><trkpt lat="51.3403623" lon="-0.1443248"><ele>108.0</ele><time>2026-03-25T15:14:33.314Z</time></trkpt><trkpt lat="51.3402912" lon="-0.1442869"><ele>107.83333333333333</ele><time>2026-03-25T15:14:35.313Z</time></trkpt><trkpt lat="51.3402146" lon="-0.1442551"><ele>107.66666666666666</ele><time>2026-03-25T15:14:37.314Z</time></trkpt><trkpt lat="51.34014" lon="-0.1442218"><ele>107.5</ele><time>2026-03-25T15:14:39.313Z</time></trkpt><trkpt lat="51.3400608" lon="-0.1441997"><ele>107.33333333333333</ele><time>2026-03-25T15:14:41.314Z</time></trkpt><trkpt lat="51.3399852" lon="-0.1441841"><ele>107.16666666666666</ele><time>2026-03-25T15:14:43.313Z</time></trkpt><trkpt lat="51.3399086" lon="-0.1441595"><ele>107.0</ele><time>2026-03-25T15:14:45.313Z</time></trkpt><trkpt lat="51.3398359" lon="-0.1441237"><ele>107.0</ele><time>2026-03-25T15:14:47.315Z</time></trkpt><trkpt lat="51.3397763" lon="-0.1440708"><ele>106.99999999999999</ele><time>2026-03-25T15:14:49.313Z</time></trkpt><trkpt lat="51.3397134" lon="-0.1440372"><ele>106.99999999999999</ele><time>2026-03-25T15:14:52.313Z</time></trkpt><trkpt lat="51.3396149" lon="-0.1440586"><ele>107.0</ele><time>2026-03-25T15:14:55.314Z</time></trkpt><trkpt lat="51.3395554" lon="-0.1441667"><ele>107.0</ele><time>2026-03-25T15:14:57.318Z</time></trkpt><trkpt lat="51.3394929" lon="-0.1443509"><ele>107.39999999999999</ele><time>2026-03-25T15:14:59.313Z</time></trkpt><trkpt lat="51.3394482" lon="-0.1444611"><ele>107.79999999999998</ele><time>2026-03-25T15:15:00.313Z</time></trkpt><trkpt lat="51.339401" lon="-0.144573"><ele>108.2</ele><time>2026-03-25T15:15:01.314Z</time></trkpt><trkpt lat="51.3393549" lon="-0.144692"><ele>108.6</ele><time>2026-03-25T15:15:02.314Z</time></trkpt><trkpt lat="51.339309" lon="-0.1448253"><ele>109.0</ele><time>2026-03-25T15:15:03.317Z</time></trkpt><trkpt lat="51.3392665" lon="-0.1449751"><ele>109.0</ele><time>2026-03-25T15:15:04.318Z</time></trkpt><trkpt lat="51.3392278" lon="-0.1451268"><ele>109.0</ele><time>2026-03-25T15:15:05.313Z</time></trkpt><trkpt lat="51.3391898" lon="-0.1452745"><ele>109.0</ele><time>2026-03-25T15:15:06.315Z</time></trkpt><trkpt lat="51.3391525" lon="-0.1454218"><ele>109.0</ele><time>2026-03-25T15:15:07.316Z</time></trkpt><trkpt lat="51.339113" lon="-0.1455683"><ele>109.0</ele><time>2026-03-25T15:15:08.316Z</time></trkpt><trkpt lat="51.3390759" lon="-0.1457208"><ele>108.80000000000001</ele><time>2026-03-25T15:15:09.316Z</time></trkpt><trkpt lat="51.339042" lon="-0.1458748"><ele>108.60000000000001</ele><time>2026-03-25T15:15:10.314Z</time></trkpt><trkpt lat="51.3390118" lon="-0.1460273"><ele>108.4</ele><time>2026-03-25T15:15:11.315Z</time></trkpt><trkpt lat="51.3389837" lon="-0.1461761"><ele>108.2</ele><time>2026-03-25T15:15:12.315Z</time></trkpt><trkpt lat="51.3389584" lon="-0.1463257"><ele>108.0</ele><time>2026-03-25T15:15:13.316Z</time></trkpt><trkpt lat="51.338931" lon="-0.1464801"><ele>108.5</ele><time>2026-03-25T15:15:14.316Z</time></trkpt><trkpt lat="51.3389022" lon="-0.1466424"><ele>109.0</ele><time>2026-03-25T15:15:15.315Z</time></trkpt><trkpt lat="51.3388696" lon="-0.1468201"><ele>109.5</ele><time>2026-03-25T15:15:16.315Z</time></trkpt><trkpt lat="51.3388345" lon="-0.1470131"><ele>110.0</ele><time>2026-03-25T15:15:17.316Z</time></trkpt><trkpt lat="51.3387952" lon="-0.1472264"><ele>110.75</ele><time>2026-03-25T15:15:18.314Z</time></trkpt><trkpt lat="51.3387561" lon="-0.1474344"><ele>111.5</ele><time>2026-03-25T15:15:19.316Z</time></trkpt><trkpt lat="51.338716" lon="-0.1476339"><ele>112.25</ele><time>2026-03-25T15:15:20.315Z</time></trkpt><trkpt lat="51.3386746" lon="-0.1478284"><ele>113.0</ele><time>2026-03-25T15:15:21.317Z</time></trkpt><trkpt lat="51.3386341" lon="-0.1480307"><ele>113.0</ele><time>2026-03-25T15:15:22.314Z</time></trkpt><trkpt lat="51.3385916" lon="-0.1482368"><ele>113.0</ele><time>2026-03-25T15:15:23.316Z</time></trkpt><trkpt lat="51.3385511" lon="-0.1484368"><ele>113.0</ele><time>2026-03-25T15:15:24.314Z</time></trkpt><trkpt lat="51.3385101" lon="-0.1486271"><ele>113.0</ele><time>2026-03-25T15:15:25.314Z</time></trkpt><trkpt lat="51.3384699" lon="-0.1488138"><ele>113.0</ele><time>2026-03-25T15:15:26.315Z</time></trkpt><trkpt lat="51.3384313" lon="-0.1490038"><ele>113.0</ele><time>2026-03-25T15:15:27.316Z</time></trkpt><trkpt lat="51.338393" lon="-0.1491947"><ele>113.0</ele><time>2026-03-25T15:15:28.314Z</time></trkpt><trkpt lat="51.3383548" lon="-0.1493861"><ele>113.0</ele><time>2026-03-25T15:15:29.315Z</time></trkpt><trkpt lat="51.3383154" lon="-0.1495768"><ele>112.75</ele><time>2026-03-25T15:15:30.317Z</time></trkpt><trkpt lat="51.3382796" lon="-0.1497696"><ele>112.5</ele><time>2026-03-25T15:15:31.316Z</time></trkpt><trkpt lat="51.3382448" lon="-0.1499652"><ele>112.25</ele><time>2026-03-25T15:15:32.314Z</time></trkpt><trkpt lat="51.3382062" lon="-0.150169"><ele>112.0</ele><time>2026-03-25T15:15:33.313Z</time></trkpt><trkpt lat="51.3381635" lon="-0.1503828"><ele>112.0</ele><time>2026-03-25T15:15:34.313Z</time></trkpt><trkpt lat="51.3381196" lon="-0.1505951"><ele>112.0</ele><time>2026-03-25T15:15:35.313Z</time></trkpt><trkpt lat="51.3380773" lon="-0.1508019"><ele>112.0</ele><time>2026-03-25T15:15:36.314Z</time></trkpt><trkpt lat="51.3380393" lon="-0.1510059"><ele>112.0</ele><time>2026-03-25T15:15:37.313Z</time></trkpt><trkpt lat="51.3380052" lon="-0.1512122"><ele>113.5</ele><time>2026-03-25T15:15:38.314Z</time></trkpt><trkpt lat="51.3379801" lon="-0.1514356"><ele>115.0</ele><time>2026-03-25T15:15:39.314Z</time></trkpt><trkpt lat="51.3379589" lon="-0.1516641"><ele>116.5</ele><time>2026-03-25T15:15:40.314Z</time></trkpt><trkpt lat="51.3379369" lon="-0.1518797"><ele>118.0</ele><time>2026-03-25T15:15:41.318Z</time></trkpt><trkpt lat="51.3379186" lon="-0.1520774"><ele>118.0</ele><time>2026-03-25T15:15:42.314Z</time></trkpt><trkpt lat="51.3379038" lon="-0.1522594"><ele>118.00000000000001</ele><time>2026-03-25T15:15:43.317Z</time></trkpt><trkpt lat="51.3378935" lon="-0.1524323"><ele>118.00000000000001</ele><time>2026-03-25T15:15:44.315Z</time></trkpt><trkpt lat="51.3378855" lon="-0.1526033"><ele>118.0</ele><time>2026-03-25T15:15:45.315Z</time></trkpt><trkpt lat="51.3378764" lon="-0.1527796"><ele>118.0</ele><time>2026-03-25T15:15:46.313Z</time></trkpt><trkpt lat="51.337868" lon="-0.1529634"><ele>117.4</ele><time>2026-03-25T15:15:47.314Z</time></trkpt><trkpt lat="51.337863" lon="-0.1531413"><ele>116.80000000000001</ele><time>2026-03-25T15:15:48.314Z</time></trkpt><trkpt lat="51.3378593" lon="-0.1533052"><ele>116.2</ele><time>2026-03-25T15:15:49.313Z</time></trkpt><trkpt lat="51.3378474" lon="-0.1534632"><ele>115.6</ele><time>2026-03-25T15:15:50.313Z</time></trkpt><trkpt lat="51.3378295" lon="-0.1536234"><ele>115.0</ele><time>2026-03-25T15:15:51.314Z</time></trkpt><trkpt lat="51.3378039" lon="-0.1537861"><ele>114.6</ele><time>2026-03-25T15:15:52.313Z</time></trkpt><trkpt lat="51.3377759" lon="-0.1539469"><ele>114.2</ele><time>2026-03-25T15:15:53.314Z</time></trkpt><trkpt lat="51.3377447" lon="-0.1541004"><ele>113.80000000000001</ele><time>2026-03-25T15:15:54.313Z</time></trkpt><trkpt lat="51.3377129" lon="-0.1542616"><ele>113.4</ele><time>2026-03-25T15:15:55.314Z</time></trkpt><trkpt lat="51.3376727" lon="-0.1544277"><ele>113.0</ele><time>2026-03-25T15:15:56.313Z</time></trkpt><trkpt lat="51.3376315" lon="-0.1546005"><ele>112.5</ele><time>2026-03-25T15:15:57.313Z</time></trkpt><trkpt lat="51.3375946" lon="-0.1547826"><ele>112.0</ele><time>2026-03-25T15:15:58.313Z</time></trkpt><trkpt lat="51.3375632" lon="-0.1549741"><ele>111.5</ele><time>2026-03-25T15:15:59.314Z</time></trkpt><trkpt lat="51.3375343" lon="-0.1551738"><ele>111.0</ele><time>2026-03-25T15:16:00.313Z</time></trkpt><trkpt lat="51.3375085" lon="-0.155383"><ele>110.0</ele><time>2026-03-25T15:16:01.315Z</time></trkpt><trkpt lat="51.3374902" lon="-0.1555982"><ele>109.0</ele><time>2026-03-25T15:16:02.318Z</time></trkpt><trkpt lat="51.337479" lon="-0.1558111"><ele>108.0</ele><time>2026-03-25T15:16:03.313Z</time></trkpt><trkpt lat="51.3374753" lon="-0.1560176"><ele>107.0</ele><time>2026-03-25T15:16:04.314Z</time></trkpt><trkpt lat="51.3374757" lon="-0.1562132"><ele>106.75</ele><time>2026-03-25T15:16:05.313Z</time></trkpt><trkpt lat="51.3374797" lon="-0.1564044"><ele>106.5</ele><time>2026-03-25T15:16:06.313Z</time></trkpt><trkpt lat="51.3374838" lon="-0.1565984"><ele>106.25</ele><time>2026-03-25T15:16:07.314Z</time></trkpt><trkpt lat="51.3374827" lon="-0.1567996"><ele>106.0</ele><time>2026-03-25T15:16:08.314Z</time></trkpt><trkpt lat="51.3374759" lon="-0.1570037"><ele>106.5</ele><time>2026-03-25T15:16:09.314Z</time></trkpt><trkpt lat="51.3374659" lon="-0.1572011"><ele>107.0</ele><time>2026-03-25T15:16:10.313Z</time></trkpt><trkpt lat="51.3374543" lon="-0.1573823"><ele>107.5</ele><time>2026-03-25T15:16:11.314Z</time></trkpt><trkpt lat="51.3374414" lon="-0.1575554"><ele>108.0</ele><time>2026-03-25T15:16:12.315Z</time></trkpt><trkpt lat="51.337425" lon="-0.157731"><ele>108.4</ele><time>2026-03-25T15:16:13.313Z</time></trkpt><trkpt lat="51.337399" lon="-0.1579032"><ele>108.80000000000001</ele><time>2026-03-25T15:16:14.314Z</time></trkpt><trkpt lat="51.3373636" lon="-0.1580682"><ele>109.2</ele><time>2026-03-25T15:16:15.317Z</time></trkpt><trkpt lat="51.3373177" lon="-0.1582264"><ele>109.6</ele><time>2026-03-25T15:16:16.313Z</time></trkpt><trkpt lat="51.3372582" lon="-0.1583817"><ele>110.0</ele><time>2026-03-25T15:16:17.314Z</time></trkpt><trkpt lat="51.337186" lon="-0.1585394"><ele>110.5</ele><time>2026-03-25T15:16:18.317Z</time></trkpt><trkpt lat="51.3370988" lon="-0.1587037"><ele>111.0</ele><time>2026-03-25T15:16:19.314Z</time></trkpt><trkpt lat="51.3370032" lon="-0.1588675"><ele>111.5</ele><time>2026-03-25T15:16:20.314Z</time></trkpt><trkpt lat="51.3369169" lon="-0.1590102"><ele>112.0</ele><time>2026-03-25T15:16:21.315Z</time></trkpt><trkpt lat="51.3368378" lon="-0.1591315"><ele>112.19999999999999</ele><time>2026-03-25T15:16:22.316Z</time></trkpt><trkpt lat="51.3367602" lon="-0.1592427"><ele>112.39999999999999</ele><time>2026-03-25T15:16:23.315Z</time></trkpt><trkpt lat="51.3366824" lon="-0.159358"><ele>112.60000000000001</ele><time>2026-03-25T15:16:24.315Z</time></trkpt><trkpt lat="51.3366078" lon="-0.1594785"><ele>112.80000000000001</ele><time>2026-03-25T15:16:25.314Z</time></trkpt><trkpt lat="51.3365331" lon="-0.1596018"><ele>113.0</ele><time>2026-03-25T15:16:26.315Z</time></trkpt><trkpt lat="51.3364587" lon="-0.1597259"><ele>113.0</ele><time>2026-03-25T15:16:27.317Z</time></trkpt><trkpt lat="51.3363891" lon="-0.1598569"><ele>113.00000000000001</ele><time>2026-03-25T15:16:28.316Z</time></trkpt><trkpt lat="51.3363246" lon="-0.1599975"><ele>113.00000000000001</ele><time>2026-03-25T15:16:29.316Z</time></trkpt><trkpt lat="51.336259" lon="-0.1601414"><ele>113.0</ele><time>2026-03-25T15:16:30.315Z</time></trkpt><trkpt lat="51.3361923" lon="-0.1602834"><ele>113.0</ele><time>2026-03-25T15:16:31.314Z</time></trkpt><trkpt lat="51.3361282" lon="-0.160427"><ele>113.0</ele><time>2026-03-25T15:16:32.315Z</time></trkpt><trkpt lat="51.3360624" lon="-0.1605723"><ele>113.0</ele><time>2026-03-25T15:16:33.315Z</time></trkpt><trkpt lat="51.3359906" lon="-0.1607271"><ele>113.0</ele><time>2026-03-25T15:16:34.317Z</time></trkpt><trkpt lat="51.3359161" lon="-0.1608924"><ele>113.0</ele><time>2026-03-25T15:16:35.318Z</time></trkpt><trkpt lat="51.3358439" lon="-0.1610547"><ele>112.75</ele><time>2026-03-25T15:16:36.314Z</time></trkpt><trkpt lat="51.3357776" lon="-0.1612116"><ele>112.5</ele><time>2026-03-25T15:16:37.316Z</time></trkpt><trkpt lat="51.3357159" lon="-0.1613649"><ele>112.25</ele><time>2026-03-25T15:16:38.316Z</time></trkpt><trkpt lat="51.3356564" lon="-0.1615139"><ele>112.0</ele><time>2026-03-25T15:16:39.316Z</time></trkpt><trkpt lat="51.3355989" lon="-0.1616625"><ele>111.6</ele><time>2026-03-25T15:16:40.318Z</time></trkpt><trkpt lat="51.3355432" lon="-0.1618115"><ele>111.19999999999999</ele><time>2026-03-25T15:16:41.314Z</time></trkpt><trkpt lat="51.3354885" lon="-0.1619658"><ele>110.8</ele><time>2026-03-25T15:16:42.318Z</time></trkpt><trkpt lat="51.3354395" lon="-0.1621237"><ele>110.4</ele><time>2026-03-25T15:16:43.318Z</time></trkpt><trkpt lat="51.3353915" lon="-0.1622878"><ele>110.0</ele><time>2026-03-25T15:16:44.315Z</time></trkpt><trkpt lat="51.3353416" lon="-0.1624669"><ele>110.0</ele><time>2026-03-25T15:16:45.318Z</time></trkpt><trkpt lat="51.3352911" lon="-0.162663"><ele>110.0</ele><time>2026-03-25T15:16:46.313Z</time></trkpt><trkpt lat="51.3352442" lon="-0.1628674"><ele>110.0</ele><time>2026-03-25T15:16:47.313Z</time></trkpt><trkpt lat="51.3352017" lon="-0.1630756"><ele>110.0</ele><time>2026-03-25T15:16:48.313Z</time></trkpt><trkpt lat="51.3351662" lon="-0.1632758"><ele>110.0</ele><time>2026-03-25T15:16:49.315Z</time></trkpt><trkpt lat="51.335137" lon="-0.1634572"><ele>110.0</ele><time>2026-03-25T15:16:50.314Z</time></trkpt><trkpt lat="51.3351144" lon="-0.1636255"><ele>110.0</ele><time>2026-03-25T15:16:51.315Z</time></trkpt><trkpt lat="51.3350972" lon="-0.1637877"><ele>110.0</ele><time>2026-03-25T15:16:52.314Z</time></trkpt><trkpt lat="51.3350872" lon="-0.1639561"><ele>110.0</ele><time>2026-03-25T15:16:53.312Z</time></trkpt><trkpt lat="51.3350781" lon="-0.1641226"><ele>110.2</ele><time>2026-03-25T15:16:54.313Z</time></trkpt><trkpt lat="51.3350742" lon="-0.1642807"><ele>110.4</ele><time>2026-03-25T15:16:55.314Z</time></trkpt><trkpt lat="51.3350704" lon="-0.1644341"><ele>110.6</ele><time>2026-03-25T15:16:56.313Z</time></trkpt><trkpt lat="51.3350674" lon="-0.1645927"><ele>110.8</ele><time>2026-03-25T15:16:57.313Z</time></trkpt><trkpt lat="51.3350658" lon="-0.1647621"><ele>111.0</ele><time>2026-03-25T15:16:58.314Z</time></trkpt><trkpt lat="51.3350629" lon="-0.1649312"><ele>111.19999999999999</ele><time>2026-03-25T15:16:59.314Z</time></trkpt><trkpt lat="51.3350607" lon="-0.1650984"><ele>111.39999999999999</ele><time>2026-03-25T15:17:00.313Z</time></trkpt><trkpt lat="51.3350567" lon="-0.1652596"><ele>111.6</ele><time>2026-03-25T15:17:01.313Z</time></trkpt><trkpt lat="51.3350561" lon="-0.1654111"><ele>111.8</ele><time>2026-03-25T15:17:02.313Z</time></trkpt><trkpt lat="51.3350563" lon="-0.1655548"><ele>112.0</ele><time>2026-03-25T15:17:03.315Z</time></trkpt><trkpt lat="51.3350551" lon="-0.1656944"><ele>111.6</ele><time>2026-03-25T15:17:04.313Z</time></trkpt><trkpt lat="51.3350504" lon="-0.165826"><ele>111.19999999999999</ele><time>2026-03-25T15:17:05.314Z</time></trkpt><trkpt lat="51.3350435" lon="-0.1659427"><ele>110.8</ele><time>2026-03-25T15:17:06.314Z</time></trkpt><trkpt lat="51.3350187" lon="-0.1661259"><ele>110.4</ele><time>2026-03-25T15:17:08.313Z</time></trkpt><trkpt lat="51.3349881" lon="-0.1662862"><ele>110.0</ele><time>2026-03-25T15:17:10.313Z</time></trkpt><trkpt lat="51.334946" lon="-0.1664727"><ele>109.83333333333333</ele><time>2026-03-25T15:17:12.314Z</time></trkpt><trkpt lat="51.3349226" lon="-0.1665725"><ele>109.66666666666666</ele><time>2026-03-25T15:17:13.314Z</time></trkpt><trkpt lat="51.3349032" lon="-0.1666757"><ele>109.5</ele><time>2026-03-25T15:17:14.313Z</time></trkpt><trkpt lat="51.3348903" lon="-0.1667753"><ele>109.33333333333334</ele><time>2026-03-25T15:17:15.313Z</time></trkpt><trkpt lat="51.3348649" lon="-0.1669277"><ele>109.16666666666667</ele><time>2026-03-25T15:17:17.314Z</time></trkpt><trkpt lat="51.3348331" lon="-0.1670853"><ele>109.0</ele><time>2026-03-25T15:17:19.314Z</time></trkpt><trkpt lat="51.3348045" lon="-0.167267"><ele>109.0</ele><time>2026-03-25T15:17:21.313Z</time></trkpt><trkpt lat="51.3347813" lon="-0.1674173"><ele>109.0</ele><time>2026-03-25T15:17:23.314Z</time></trkpt><trkpt lat="51.3347617" lon="-0.1675168"><ele>109.0</ele><time>2026-03-25T15:17:24.314Z</time></trkpt><trkpt lat="51.3347425" lon="-0.1676361"><ele>109.0</ele><time>2026-03-25T15:17:25.313Z</time></trkpt><trkpt lat="51.3347172" lon="-0.1677858"><ele>109.0</ele><time>2026-03-25T15:17:26.313Z</time></trkpt><trkpt lat="51.334709" lon="-0.1679894"><ele>110.66666666666667</ele><time>2026-03-25T15:17:27.314Z</time></trkpt><trkpt lat="51.3347076" lon="-0.1682224"><ele>112.33333333333334</ele><time>2026-03-25T15:17:28.314Z</time></trkpt><trkpt lat="51.3347061" lon="-0.1684734"><ele>114.0</ele><time>2026-03-25T15:17:29.314Z</time></trkpt><trkpt lat="51.3347076" lon="-0.16874"><ele>114.0</ele><time>2026-03-25T15:17:30.313Z</time></trkpt><trkpt lat="51.3347121" lon="-0.1690119"><ele>114.0</ele><time>2026-03-25T15:17:31.313Z</time></trkpt><trkpt lat="51.3347153" lon="-0.1692836"><ele>114.0</ele><time>2026-03-25T15:17:32.317Z</time></trkpt><trkpt lat="51.3347094" lon="-0.1695611"><ele>114.0</ele><time>2026-03-25T15:17:33.313Z</time></trkpt><trkpt lat="51.3347084" lon="-0.1698404"><ele>114.0</ele><time>2026-03-25T15:17:34.315Z</time></trkpt><trkpt lat="51.3347112" lon="-0.1701257"><ele>114.0</ele><time>2026-03-25T15:17:35.314Z</time></trkpt><trkpt lat="51.3347092" lon="-0.1704102"><ele>115.33333333333334</ele><time>2026-03-25T15:17:36.314Z</time></trkpt><trkpt lat="51.3347077" lon="-0.1706849"><ele>116.66666666666667</ele><time>2026-03-25T15:17:37.314Z</time></trkpt><trkpt lat="51.3347104" lon="-0.1709383"><ele>118.0</ele><time>2026-03-25T15:17:38.314Z</time></trkpt><trkpt lat="51.334709" lon="-0.1711675"><ele>118.25</ele><time>2026-03-25T15:17:39.318Z</time></trkpt><trkpt lat="51.3347073" lon="-0.1713984"><ele>118.5</ele><time>2026-03-25T15:17:40.315Z</time></trkpt><trkpt lat="51.3347049" lon="-0.1716198"><ele>118.75</ele><time>2026-03-25T15:17:41.313Z</time></trkpt><trkpt lat="51.3346966" lon="-0.1718391"><ele>119.0</ele><time>2026-03-25T15:17:42.315Z</time></trkpt><trkpt lat="51.3346805" lon="-0.1720577"><ele>119.0</ele><time>2026-03-25T15:17:43.314Z</time></trkpt><trkpt lat="51.3346552" lon="-0.1722762"><ele>119.0</ele><time>2026-03-25T15:17:44.316Z</time></trkpt><trkpt lat="51.3346232" lon="-0.1724825"><ele>119.0</ele><time>2026-03-25T15:17:45.315Z</time></trkpt><trkpt lat="51.3345797" lon="-0.1726676"><ele>119.0</ele><time>2026-03-25T15:17:46.315Z</time></trkpt><trkpt lat="51.3345255" lon="-0.1728376"><ele>118.5</ele><time>2026-03-25T15:17:47.314Z</time></trkpt><trkpt lat="51.3344619" lon="-0.1729937"><ele>118.0</ele><time>2026-03-25T15:17:48.315Z</time></trkpt><trkpt lat="51.3343849" lon="-0.1731382"><ele>117.5</ele><time>2026-03-25T15:17:49.314Z</time></trkpt><trkpt lat="51.3343086" lon="-0.1732728"><ele>117.0</ele><time>2026-03-25T15:17:50.314Z</time></trkpt><trkpt lat="51.3342387" lon="-0.1734077"><ele>116.0</ele><time>2026-03-25T15:17:51.314Z</time></trkpt><trkpt lat="51.3341673" lon="-0.1735564"><ele>115.0</ele><time>2026-03-25T15:17:52.314Z</time></trkpt><trkpt lat="51.3340879" lon="-0.1737012"><ele>114.0</ele><time>2026-03-25T15:17:53.316Z</time></trkpt><trkpt lat="51.3340065" lon="-0.1738369"><ele>113.0</ele><time>2026-03-25T15:17:54.316Z</time></trkpt><trkpt lat="51.3339307" lon="-0.1739726"><ele>112.4</ele><time>2026-03-25T15:17:55.313Z</time></trkpt><trkpt lat="51.3338611" lon="-0.1741134"><ele>111.80000000000001</ele><time>2026-03-25T15:17:56.315Z</time></trkpt><trkpt lat="51.3338001" lon="-0.1742551"><ele>111.2</ele><time>2026-03-25T15:17:57.314Z</time></trkpt><trkpt lat="51.333749" lon="-0.1743956"><ele>110.6</ele><time>2026-03-25T15:17:58.315Z</time></trkpt><trkpt lat="51.333704" lon="-0.174538"><ele>110.0</ele><time>2026-03-25T15:17:59.315Z</time></trkpt><trkpt lat="51.333663" lon="-0.1746855"><ele>110.0</ele><time>2026-03-25T15:18:00.315Z</time></trkpt><trkpt lat="51.3336277" lon="-0.17484"><ele>110.0</ele><time>2026-03-25T15:18:01.315Z</time></trkpt><trkpt lat="51.3335936" lon="-0.1750035"><ele>110.0</ele><time>2026-03-25T15:18:02.315Z</time></trkpt><trkpt lat="51.3335546" lon="-0.1751826"><ele>110.0</ele><time>2026-03-25T15:18:03.315Z</time></trkpt><trkpt lat="51.3335218" lon="-0.175372"><ele>110.0</ele><time>2026-03-25T15:18:04.314Z</time></trkpt><trkpt lat="51.3334867" lon="-0.1755731"><ele>110.0</ele><time>2026-03-25T15:18:05.316Z</time></trkpt><trkpt lat="51.3334492" lon="-0.1757881"><ele>110.0</ele><time>2026-03-25T15:18:06.314Z</time></trkpt><trkpt lat="51.3334067" lon="-0.1760103"><ele>110.0</ele><time>2026-03-25T15:18:07.314Z</time></trkpt><trkpt lat="51.333364" lon="-0.1762379"><ele>111.33333333333333</ele><time>2026-03-25T15:18:08.316Z</time></trkpt><trkpt lat="51.3333155" lon="-0.1764726"><ele>112.66666666666666</ele><time>2026-03-25T15:18:09.317Z</time></trkpt><trkpt lat="51.3332647" lon="-0.1767046"><ele>114.0</ele><time>2026-03-25T15:18:10.314Z</time></trkpt><trkpt lat="51.3332115" lon="-0.1769296"><ele>115.0</ele><time>2026-03-25T15:18:11.314Z</time></trkpt><trkpt lat="51.3331632" lon="-0.1771343"><ele>116.0</ele><time>2026-03-25T15:18:12.314Z</time></trkpt><trkpt lat="51.3331151" lon="-0.177326"><ele>117.0</ele><time>2026-03-25T15:18:13.314Z</time></trkpt><trkpt lat="51.3330682" lon="-0.1775127"><ele>118.0</ele><time>2026-03-25T15:18:14.314Z</time></trkpt><trkpt lat="51.3330217" lon="-0.1777035"><ele>118.25</ele><time>2026-03-25T15:18:15.315Z</time></trkpt><trkpt lat="51.3329762" lon="-0.1779057"><ele>118.5</ele><time>2026-03-25T15:18:16.315Z</time></trkpt><trkpt lat="51.3329176" lon="-0.178125"><ele>118.75</ele><time>2026-03-25T15:18:17.314Z</time></trkpt><trkpt lat="51.3328626" lon="-0.1783556"><ele>119.0</ele><time>2026-03-25T15:18:18.314Z</time></trkpt><trkpt lat="51.3328135" lon="-0.1785893"><ele>120.0</ele><time>2026-03-25T15:18:19.315Z</time></trkpt><trkpt lat="51.3327636" lon="-0.1788231"><ele>121.0</ele><time>2026-03-25T15:18:20.316Z</time></trkpt><trkpt lat="51.3327147" lon="-0.1790613"><ele>122.0</ele><time>2026-03-25T15:18:21.315Z</time></trkpt><trkpt lat="51.3326636" lon="-0.1793092"><ele>123.0</ele><time>2026-03-25T15:18:22.313Z</time></trkpt><trkpt lat="51.3326103" lon="-0.1795704"><ele>124.0</ele><time>2026-03-25T15:18:23.315Z</time></trkpt><trkpt lat="51.3325539" lon="-0.1798377"><ele>125.0</ele><time>2026-03-25T15:18:24.315Z</time></trkpt><trkpt lat="51.3324994" lon="-0.1800972"><ele>125.5</ele><time>2026-03-25T15:18:25.314Z</time></trkpt><trkpt lat="51.3324436" lon="-0.18034"><ele>126.0</ele><time>2026-03-25T15:18:26.314Z</time></trkpt><trkpt lat="51.3323877" lon="-0.1805619"><ele>126.5</ele><time>2026-03-25T15:18:27.315Z</time></trkpt><trkpt lat="51.3323365" lon="-0.1807626"><ele>127.0</ele><time>2026-03-25T15:18:28.316Z</time></trkpt><trkpt lat="51.3322918" lon="-0.1809542"><ele>127.5</ele><time>2026-03-25T15:18:29.315Z</time></trkpt><trkpt lat="51.332249" lon="-0.1811417"><ele>128.0</ele><time>2026-03-25T15:18:30.315Z</time></trkpt><trkpt lat="51.3322062" lon="-0.1813257"><ele>128.5</ele><time>2026-03-25T15:18:31.318Z</time></trkpt><trkpt lat="51.3321657" lon="-0.1815062"><ele>129.0</ele><time>2026-03-25T15:18:32.314Z</time></trkpt><trkpt lat="51.3321226" lon="-0.1816826"><ele>129.5</ele><time>2026-03-25T15:18:33.314Z</time></trkpt><trkpt lat="51.3320736" lon="-0.1818505"><ele>130.0</ele><time>2026-03-25T15:18:34.313Z</time></trkpt><trkpt lat="51.3320172" lon="-0.1820171"><ele>130.5</ele><time>2026-03-25T15:18:35.315Z</time></trkpt><trkpt lat="51.3319576" lon="-0.1821864"><ele>131.0</ele><time>2026-03-25T15:18:36.315Z</time></trkpt><trkpt lat="51.331897" lon="-0.1823615"><ele>131.25</ele><time>2026-03-25T15:18:37.314Z</time></trkpt><trkpt lat="51.3318365" lon="-0.1825423"><ele>131.5</ele><time>2026-03-25T15:18:38.314Z</time></trkpt><trkpt lat="51.3317765" lon="-0.182729"><ele>131.75</ele><time>2026-03-25T15:18:39.316Z</time></trkpt><trkpt lat="51.3317147" lon="-0.1829151"><ele>132.0</ele><time>2026-03-25T15:18:40.318Z</time></trkpt><trkpt lat="51.3316541" lon="-0.1830898"><ele>132.25</ele><time>2026-03-25T15:18:41.315Z</time></trkpt><trkpt lat="51.3315972" lon="-0.1832555"><ele>132.5</ele><time>2026-03-25T15:18:42.315Z</time></trkpt><trkpt lat="51.331542" lon="-0.1834146"><ele>132.75</ele><time>2026-03-25T15:18:43.314Z</time></trkpt><trkpt lat="51.3314847" lon="-0.1835741"><ele>133.0</ele><time>2026-03-25T15:18:44.315Z</time></trkpt><trkpt lat="51.3314237" lon="-0.1837373"><ele>133.25</ele><time>2026-03-25T15:18:45.314Z</time></trkpt><trkpt lat="51.3313578" lon="-0.1839036"><ele>133.5</ele><time>2026-03-25T15:18:46.315Z</time></trkpt><trkpt lat="51.3312958" lon="-0.1840778"><ele>133.75</ele><time>2026-03-25T15:18:47.314Z</time></trkpt><trkpt lat="51.3312368" lon="-0.1842563"><ele>134.0</ele><time>2026-03-25T15:18:48.315Z</time></trkpt><trkpt lat="51.3311749" lon="-0.1844324"><ele>134.5</ele><time>2026-03-25T15:18:49.314Z</time></trkpt><trkpt lat="51.3311125" lon="-0.1846004"><ele>135.0</ele><time>2026-03-25T15:18:50.314Z</time></trkpt><trkpt lat="51.3310521" lon="-0.1847524"><ele>135.5</ele><time>2026-03-25T15:18:51.315Z</time></trkpt><trkpt lat="51.3309924" lon="-0.1848976"><ele>136.0</ele><time>2026-03-25T15:18:52.315Z</time></trkpt><trkpt lat="51.3309343" lon="-0.1850405"><ele>136.2</ele><time>2026-03-25T15:18:53.314Z</time></trkpt><trkpt lat="51.3308804" lon="-0.1851764"><ele>136.39999999999998</ele><time>2026-03-25T15:18:54.314Z</time></trkpt><trkpt lat="51.3308261" lon="-0.1853064"><ele>136.6</ele><time>2026-03-25T15:18:55.315Z</time></trkpt><trkpt lat="51.3307712" lon="-0.1854418"><ele>136.79999999999998</ele><time>2026-03-25T15:18:56.314Z</time></trkpt><trkpt lat="51.3307157" lon="-0.1855924"><ele>137.0</ele><time>2026-03-25T15:18:57.315Z</time></trkpt><trkpt lat="51.330651" lon="-0.1857615"><ele>137.0</ele><time>2026-03-25T15:18:58.315Z</time></trkpt><trkpt lat="51.3305731" lon="-0.1859561"><ele>137.0</ele><time>2026-03-25T15:18:59.315Z</time></trkpt><trkpt lat="51.3304906" lon="-0.1861633"><ele>137.0</ele><time>2026-03-25T15:19:00.315Z</time></trkpt><trkpt lat="51.3304156" lon="-0.1863541"><ele>137.0</ele><time>2026-03-25T15:19:01.315Z</time></trkpt><trkpt lat="51.3303481" lon="-0.1865294"><ele>138.25</ele><time>2026-03-25T15:19:02.314Z</time></trkpt><trkpt lat="51.3302785" lon="-0.1867001"><ele>139.5</ele><time>2026-03-25T15:19:03.314Z</time></trkpt><trkpt lat="51.3302067" lon="-0.186875"><ele>140.75</ele><time>2026-03-25T15:19:04.315Z</time></trkpt><trkpt lat="51.3301413" lon="-0.18705"><ele>142.0</ele><time>2026-03-25T15:19:05.314Z</time></trkpt><trkpt lat="51.3300775" lon="-0.1872124"><ele>142.75</ele><time>2026-03-25T15:19:06.314Z</time></trkpt><trkpt lat="51.330019" lon="-0.1873694"><ele>143.5</ele><time>2026-03-25T15:19:07.314Z</time></trkpt><trkpt lat="51.3299547" lon="-0.1875304"><ele>144.25</ele><time>2026-03-25T15:19:08.314Z</time></trkpt><trkpt lat="51.3298823" lon="-0.1877016"><ele>145.0</ele><time>2026-03-25T15:19:09.315Z</time></trkpt><trkpt lat="51.3298053" lon="-0.1878873"><ele>145.25</ele><time>2026-03-25T15:19:10.313Z</time></trkpt><trkpt lat="51.3297231" lon="-0.1880771"><ele>145.5</ele><time>2026-03-25T15:19:11.315Z</time></trkpt><trkpt lat="51.3296429" lon="-0.188258"><ele>145.75</ele><time>2026-03-25T15:19:12.314Z</time></trkpt><trkpt lat="51.3295675" lon="-0.1884225"><ele>146.0</ele><time>2026-03-25T15:19:13.314Z</time></trkpt><trkpt lat="51.3294965" lon="-0.1885647"><ele>146.25</ele><time>2026-03-25T15:19:14.314Z</time></trkpt><trkpt lat="51.3294176" lon="-0.1886961"><ele>146.5</ele><time>2026-03-25T15:19:15.316Z</time></trkpt><trkpt lat="51.3293376" lon="-0.188831"><ele>146.75</ele><time>2026-03-25T15:19:16.314Z</time></trkpt><trkpt lat="51.3292548" lon="-0.1889619"><ele>147.0</ele><time>2026-03-25T15:19:17.314Z</time></trkpt><trkpt lat="51.3291726" lon="-0.1890869"><ele>147.2</ele><time>2026-03-25T15:19:18.315Z</time></trkpt><trkpt lat="51.3290922" lon="-0.189199"><ele>147.39999999999998</ele><time>2026-03-25T15:19:19.314Z</time></trkpt><trkpt lat="51.3290124" lon="-0.1893019"><ele>147.60000000000002</ele><time>2026-03-25T15:19:20.314Z</time></trkpt><trkpt lat="51.3289356" lon="-0.1894047"><ele>147.8</ele><time>2026-03-25T15:19:21.316Z</time></trkpt><trkpt lat="51.3288665" lon="-0.189495"><ele>148.0</ele><time>2026-03-25T15:19:22.313Z</time></trkpt><trkpt lat="51.3287983" lon="-0.1895763"><ele>148.33333333333334</ele><time>2026-03-25T15:19:23.315Z</time></trkpt><trkpt lat="51.3287251" lon="-0.1896524"><ele>148.66666666666669</ele><time>2026-03-25T15:19:24.314Z</time></trkpt><trkpt lat="51.3286512" lon="-0.189731"><ele>149.0</ele><time>2026-03-25T15:19:25.315Z</time></trkpt><trkpt lat="51.32858" lon="-0.1898124"><ele>149.33333333333334</ele><time>2026-03-25T15:19:26.315Z</time></trkpt><trkpt lat="51.3285153" lon="-0.1898984"><ele>149.66666666666666</ele><time>2026-03-25T15:19:27.315Z</time></trkpt><trkpt lat="51.3284515" lon="-0.189988"><ele>150.0</ele><time>2026-03-25T15:19:28.313Z</time></trkpt><trkpt lat="51.3283883" lon="-0.1900811"><ele>150.0</ele><time>2026-03-25T15:19:29.315Z</time></trkpt><trkpt lat="51.3283318" lon="-0.1901747"><ele>150.0</ele><time>2026-03-25T15:19:30.314Z</time></trkpt><trkpt lat="51.328276" lon="-0.190266"><ele>150.0</ele><time>2026-03-25T15:19:31.315Z</time></trkpt><trkpt lat="51.3282182" lon="-0.1903576"><ele>150.0</ele><time>2026-03-25T15:19:32.314Z</time></trkpt><trkpt lat="51.3281624" lon="-0.1904532"><ele>150.0</ele><time>2026-03-25T15:19:33.315Z</time></trkpt><trkpt lat="51.3281098" lon="-0.1905538"><ele>150.0</ele><time>2026-03-25T15:19:34.314Z</time></trkpt><trkpt lat="51.3280556" lon="-0.1906561"><ele>150.83333333333334</ele><time>2026-03-25T15:19:35.315Z</time></trkpt><trkpt lat="51.3280017" lon="-0.1907665"><ele>151.66666666666666</ele><time>2026-03-25T15:19:36.315Z</time></trkpt><trkpt lat="51.3279467" lon="-0.19088"><ele>152.5</ele><time>2026-03-25T15:19:37.315Z</time></trkpt><trkpt lat="51.3278907" lon="-0.190986"><ele>153.33333333333331</ele><time>2026-03-25T15:19:38.318Z</time></trkpt><trkpt lat="51.3278397" lon="-0.1910853"><ele>154.16666666666666</ele><time>2026-03-25T15:19:39.316Z</time></trkpt><trkpt lat="51.3277944" lon="-0.1911784"><ele>155.0</ele><time>2026-03-25T15:19:40.314Z</time></trkpt><trkpt lat="51.327752" lon="-0.1912557"><ele>155.0</ele><time>2026-03-25T15:19:41.316Z</time></trkpt><trkpt lat="51.3276792" lon="-0.1913659"><ele>155.0</ele><time>2026-03-25T15:19:43.317Z</time></trkpt><trkpt lat="51.3276303" lon="-0.1914609"><ele>155.0</ele><time>2026-03-25T15:19:45.315Z</time></trkpt><trkpt lat="51.3275854" lon="-0.1915401"><ele>155.0</ele><time>2026-03-25T15:19:47.315Z</time></trkpt><trkpt lat="51.3275359" lon="-0.1916483"><ele>155.0</ele><time>2026-03-25T15:19:50.317Z</time></trkpt><trkpt lat="51.3274866" lon="-0.1917728"><ele>155.0</ele><time>2026-03-25T15:19:52.317Z</time></trkpt><trkpt lat="51.3274413" lon="-0.1918956"><ele>155.0</ele><time>2026-03-25T15:19:54.317Z</time></trkpt><trkpt lat="51.3273961" lon="-0.192064"><ele>155.0</ele><time>2026-03-25T15:19:56.315Z</time></trkpt><trkpt lat="51.3273616" lon="-0.1921678"><ele>155.0</ele><time>2026-03-25T15:19:57.315Z</time></trkpt><trkpt lat="51.3273272" lon="-0.1922688"><ele>155.0</ele><time>2026-03-25T15:19:58.318Z</time></trkpt><trkpt lat="51.3272607" lon="-0.1924225"><ele>155.0</ele><time>2026-03-25T15:20:00.315Z</time></trkpt><trkpt lat="51.3272133" lon="-0.1925413"><ele>155.16666666666666</ele><time>2026-03-25T15:20:02.317Z</time></trkpt><trkpt lat="51.3271698" lon="-0.1926631"><ele>155.33333333333331</ele><time>2026-03-25T15:20:04.315Z</time></trkpt><trkpt lat="51.3271311" lon="-0.1928053"><ele>155.5</ele><time>2026-03-25T15:20:06.318Z</time></trkpt><trkpt lat="51.3270973" lon="-0.192942"><ele>155.66666666666666</ele><time>2026-03-25T15:20:08.318Z</time></trkpt><trkpt lat="51.3270681" lon="-0.1930542"><ele>155.83333333333334</ele><time>2026-03-25T15:20:10.318Z</time></trkpt><trkpt lat="51.327044" lon="-0.1931776"><ele>156.0</ele><time>2026-03-25T15:20:12.314Z</time></trkpt><trkpt lat="51.327011" lon="-0.1933422"><ele>156.0</ele><time>2026-03-25T15:20:14.314Z</time></trkpt><trkpt lat="51.3269729" lon="-0.1935228"><ele>156.0</ele><time>2026-03-25T15:20:16.313Z</time></trkpt><trkpt lat="51.3269334" lon="-0.1937047"><ele>156.0</ele><time>2026-03-25T15:20:18.313Z</time></trkpt><trkpt lat="51.3269052" lon="-0.193798"><ele>156.0</ele><time>2026-03-25T15:20:19.318Z</time></trkpt><trkpt lat="51.3268726" lon="-0.1939842"><ele>156.0</ele><time>2026-03-25T15:20:21.318Z</time></trkpt><trkpt lat="51.3268985" lon="-0.194184"><ele>155.71428571428572</ele><time>2026-03-25T15:20:23.318Z</time></trkpt><trkpt lat="51.3269355" lon="-0.1942936"><ele>155.42857142857142</ele><time>2026-03-25T15:20:24.313Z</time></trkpt><trkpt lat="51.3269678" lon="-0.1944033"><ele>155.14285714285714</ele><time>2026-03-25T15:20:25.318Z</time></trkpt><trkpt lat="51.3269946" lon="-0.1945108"><ele>154.85714285714286</ele><time>2026-03-25T15:20:26.315Z</time></trkpt><trkpt lat="51.3270142" lon="-0.1946114"><ele>154.57142857142856</ele><time>2026-03-25T15:20:27.318Z</time></trkpt><trkpt lat="51.3270345" lon="-0.1947086"><ele>154.28571428571428</ele><time>2026-03-25T15:20:28.315Z</time></trkpt><trkpt lat="51.3270564" lon="-0.1948105"><ele>154.0</ele><time>2026-03-25T15:20:29.314Z</time></trkpt><trkpt lat="51.3270775" lon="-0.1949198"><ele>153.66666666666669</ele><time>2026-03-25T15:20:30.314Z</time></trkpt><trkpt lat="51.3270993" lon="-0.1950301"><ele>153.33333333333334</ele><time>2026-03-25T15:20:31.315Z</time></trkpt><trkpt lat="51.3271186" lon="-0.1951367"><ele>153.0</ele><time>2026-03-25T15:20:32.314Z</time></trkpt><trkpt lat="51.3271391" lon="-0.1952483"><ele>152.66666666666666</ele><time>2026-03-25T15:20:33.315Z</time></trkpt><trkpt lat="51.3271634" lon="-0.1953675"><ele>152.33333333333331</ele><time>2026-03-25T15:20:34.314Z</time></trkpt><trkpt lat="51.327194" lon="-0.1954967"><ele>152.0</ele><time>2026-03-25T15:20:35.315Z</time></trkpt><trkpt lat="51.3272241" lon="-0.1956411"><ele>150.79999999999998</ele><time>2026-03-25T15:20:36.317Z</time></trkpt><trkpt lat="51.3272571" lon="-0.1957929"><ele>149.6</ele><time>2026-03-25T15:20:37.313Z</time></trkpt><trkpt lat="51.3272908" lon="-0.1959425"><ele>148.39999999999998</ele><time>2026-03-25T15:20:38.315Z</time></trkpt><trkpt lat="51.3273201" lon="-0.1960839"><ele>147.2</ele><time>2026-03-25T15:20:39.317Z</time></trkpt><trkpt lat="51.3273486" lon="-0.1962203"><ele>146.0</ele><time>2026-03-25T15:20:40.318Z</time></trkpt><trkpt lat="51.3273782" lon="-0.1963567"><ele>146.0</ele><time>2026-03-25T15:20:41.317Z</time></trkpt><trkpt lat="51.3274058" lon="-0.1964933"><ele>146.0</ele><time>2026-03-25T15:20:42.317Z</time></trkpt><trkpt lat="51.3274329" lon="-0.1966303"><ele>146.0</ele><time>2026-03-25T15:20:43.314Z</time></trkpt><trkpt lat="51.327461" lon="-0.1967707"><ele>146.0</ele><time>2026-03-25T15:20:44.314Z</time></trkpt><trkpt lat="51.32749" lon="-0.1969152"><ele>146.0</ele><time>2026-03-25T15:20:45.316Z</time></trkpt><trkpt lat="51.3275198" lon="-0.197059"><ele>145.4</ele><time>2026-03-25T15:20:46.314Z</time></trkpt><trkpt lat="51.3275486" lon="-0.1971987"><ele>144.8</ele><time>2026-03-25T15:20:47.315Z</time></trkpt><trkpt lat="51.3275749" lon="-0.1973349"><ele>144.20000000000002</ele><time>2026-03-25T15:20:48.317Z</time></trkpt><trkpt lat="51.3276036" lon="-0.1974772"><ele>143.6</ele><time>2026-03-25T15:20:49.32Z</time></trkpt><trkpt lat="51.3276368" lon="-0.1976322"><ele>143.0</ele><time>2026-03-25T15:20:50.318Z</time></trkpt><trkpt lat="51.3276727" lon="-0.1977982"><ele>142.25</ele><time>2026-03-25T15:20:51.314Z</time></trkpt><trkpt lat="51.3277073" lon="-0.1979712"><ele>141.5</ele><time>2026-03-25T15:20:52.314Z</time></trkpt><trkpt lat="51.3277388" lon="-0.198146"><ele>140.75</ele><time>2026-03-25T15:20:53.317Z</time></trkpt><trkpt lat="51.3277718" lon="-0.1983212"><ele>140.0</ele><time>2026-03-25T15:20:54.315Z</time></trkpt><trkpt lat="51.3278074" lon="-0.1985008"><ele>139.5</ele><time>2026-03-25T15:20:55.315Z</time></trkpt><trkpt lat="51.3278423" lon="-0.1986865"><ele>139.0</ele><time>2026-03-25T15:20:56.316Z</time></trkpt><trkpt lat="51.3278747" lon="-0.1988758"><ele>138.5</ele><time>2026-03-25T15:20:57.315Z</time></trkpt><trkpt lat="51.3279039" lon="-0.1990647"><ele>138.0</ele><time>2026-03-25T15:20:58.314Z</time></trkpt><trkpt lat="51.3279323" lon="-0.1992563"><ele>137.5</ele><time>2026-03-25T15:20:59.318Z</time></trkpt><trkpt lat="51.3279605" lon="-0.1994626"><ele>137.0</ele><time>2026-03-25T15:21:00.314Z</time></trkpt><trkpt lat="51.3279901" lon="-0.1996991"><ele>136.5</ele><time>2026-03-25T15:21:01.318Z</time></trkpt><trkpt lat="51.3280212" lon="-0.1999489"><ele>136.0</ele><time>2026-03-25T15:21:02.314Z</time></trkpt><trkpt lat="51.3280484" lon="-0.2001899"><ele>134.5</ele><time>2026-03-25T15:21:03.315Z</time></trkpt><trkpt lat="51.3280704" lon="-0.2004154"><ele>133.0</ele><time>2026-03-25T15:21:04.315Z</time></trkpt><trkpt lat="51.3280873" lon="-0.2006324"><ele>131.5</ele><time>2026-03-25T15:21:05.315Z</time></trkpt><trkpt lat="51.3281" lon="-0.20084"><ele>130.0</ele><time>2026-03-25T15:21:06.318Z</time></trkpt><trkpt lat="51.3281116" lon="-0.201043"><ele>129.75</ele><time>2026-03-25T15:21:07.318Z</time></trkpt><trkpt lat="51.3281231" lon="-0.2012499"><ele>129.5</ele><time>2026-03-25T15:21:08.316Z</time></trkpt><trkpt lat="51.3281318" lon="-0.2014597"><ele>129.25</ele><time>2026-03-25T15:21:09.314Z</time></trkpt><trkpt lat="51.328138" lon="-0.2016673"><ele>129.0</ele><time>2026-03-25T15:21:10.314Z</time></trkpt><trkpt lat="51.3281432" lon="-0.201877"><ele>129.0</ele><time>2026-03-25T15:21:11.318Z</time></trkpt><trkpt lat="51.3281481" lon="-0.2020858"><ele>129.0</ele><time>2026-03-25T15:21:12.319Z</time></trkpt><trkpt lat="51.3281502" lon="-0.2022924"><ele>129.0</ele><time>2026-03-25T15:21:13.317Z</time></trkpt><trkpt lat="51.328152" lon="-0.2024964"><ele>129.0</ele><time>2026-03-25T15:21:14.317Z</time></trkpt><trkpt lat="51.3281549" lon="-0.2027035"><ele>129.0</ele><time>2026-03-25T15:21:15.317Z</time></trkpt><trkpt lat="51.3281557" lon="-0.202903"><ele>129.0</ele><time>2026-03-25T15:21:16.315Z</time></trkpt><trkpt lat="51.3281521" lon="-0.2030999"><ele>129.0</ele><time>2026-03-25T15:21:17.318Z</time></trkpt><trkpt lat="51.3281425" lon="-0.2033005"><ele>129.0</ele><time>2026-03-25T15:21:18.321Z</time></trkpt><trkpt lat="51.3281293" lon="-0.2035029"><ele>129.5</ele><time>2026-03-25T15:21:19.318Z</time></trkpt><trkpt lat="51.3281115" lon="-0.2037011"><ele>130.0</ele><time>2026-03-25T15:21:20.317Z</time></trkpt><trkpt lat="51.3280885" lon="-0.2038952"><ele>130.5</ele><time>2026-03-25T15:21:21.319Z</time></trkpt><trkpt lat="51.3280658" lon="-0.2040917"><ele>131.0</ele><time>2026-03-25T15:21:22.316Z</time></trkpt><trkpt lat="51.3280437" lon="-0.2042977"><ele>131.0</ele><time>2026-03-25T15:21:23.316Z</time></trkpt><trkpt lat="51.3280184" lon="-0.2045088"><ele>131.0</ele><time>2026-03-25T15:21:24.316Z</time></trkpt><trkpt lat="51.3279939" lon="-0.2047212"><ele>131.0</ele><time>2026-03-25T15:21:25.318Z</time></trkpt><trkpt lat="51.3279736" lon="-0.2049334"><ele>131.0</ele><time>2026-03-25T15:21:26.318Z</time></trkpt><trkpt lat="51.3279552" lon="-0.205152"><ele>131.0</ele><time>2026-03-25T15:21:27.317Z</time></trkpt><trkpt lat="51.3279371" lon="-0.2053649"><ele>131.0</ele><time>2026-03-25T15:21:28.316Z</time></trkpt><trkpt lat="51.3279181" lon="-0.2055609"><ele>131.0</ele><time>2026-03-25T15:21:29.314Z</time></trkpt><trkpt lat="51.3279019" lon="-0.2057498"><ele>131.0</ele><time>2026-03-25T15:21:30.317Z</time></trkpt><trkpt lat="51.3278817" lon="-0.205942"><ele>131.0</ele><time>2026-03-25T15:21:31.318Z</time></trkpt><trkpt lat="51.327863" lon="-0.2061366"><ele>131.0</ele><time>2026-03-25T15:21:32.318Z</time></trkpt><trkpt lat="51.3278462" lon="-0.2063288"><ele>131.0</ele><time>2026-03-25T15:21:33.314Z</time></trkpt><trkpt lat="51.327831" lon="-0.2065179"><ele>131.0</ele><time>2026-03-25T15:21:34.313Z</time></trkpt><trkpt lat="51.32782" lon="-0.2066912"><ele>131.6</ele><time>2026-03-25T15:21:35.314Z</time></trkpt><trkpt lat="51.3278062" lon="-0.2068504"><ele>132.2</ele><time>2026-03-25T15:21:36.315Z</time></trkpt><trkpt lat="51.3277955" lon="-0.2069903"><ele>132.8</ele><time>2026-03-25T15:21:37.314Z</time></trkpt><trkpt lat="51.3277887" lon="-0.207113"><ele>133.4</ele><time>2026-03-25T15:21:38.318Z</time></trkpt><trkpt lat="51.3277812" lon="-0.2072214"><ele>134.0</ele><time>2026-03-25T15:21:39.315Z</time></trkpt><trkpt lat="51.3277711" lon="-0.2074077"><ele>134.33333333333331</ele><time>2026-03-25T15:21:41.313Z</time></trkpt><trkpt lat="51.3277645" lon="-0.2075725"><ele>134.66666666666666</ele><time>2026-03-25T15:21:43.314Z</time></trkpt><trkpt lat="51.3277565" lon="-0.2077201"><ele>135.0</ele><time>2026-03-25T15:21:45.314Z</time></trkpt><trkpt lat="51.3277501" lon="-0.2078346"><ele>135.33333333333334</ele><time>2026-03-25T15:21:47.317Z</time></trkpt><trkpt lat="51.3277418" lon="-0.2079433"><ele>135.66666666666669</ele><time>2026-03-25T15:21:49.316Z</time></trkpt><trkpt lat="51.3277081" lon="-0.2080695"><ele>136.0</ele><time>2026-03-25T15:21:56.314Z</time></trkpt><trkpt lat="51.3277135" lon="-0.208231"><ele>136.16666666666669</ele><time>2026-03-25T15:21:58.318Z</time></trkpt><trkpt lat="51.3277147" lon="-0.2083557"><ele>136.33333333333334</ele><time>2026-03-25T15:21:59.313Z</time></trkpt><trkpt lat="51.3277159" lon="-0.2084804"><ele>136.5</ele><time>2026-03-25T15:22:00.318Z</time></trkpt><trkpt lat="51.3277134" lon="-0.2086003"><ele>136.66666666666666</ele><time>2026-03-25T15:22:01.313Z</time></trkpt><trkpt lat="51.3277128" lon="-0.20871"><ele>136.83333333333331</ele><time>2026-03-25T15:22:02.315Z</time></trkpt><trkpt lat="51.3277159" lon="-0.2088932"><ele>137.0</ele><time>2026-03-25T15:22:04.315Z</time></trkpt><trkpt lat="51.3277165" lon="-0.2090578"><ele>137.16666666666666</ele><time>2026-03-25T15:22:06.317Z</time></trkpt><trkpt lat="51.3277262" lon="-0.2092319"><ele>137.33333333333331</ele><time>2026-03-25T15:22:08.316Z</time></trkpt><trkpt lat="51.327733" lon="-0.2093495"><ele>137.5</ele><time>2026-03-25T15:22:09.314Z</time></trkpt><trkpt lat="51.3277412" lon="-0.2094638"><ele>137.66666666666666</ele><time>2026-03-25T15:22:10.317Z</time></trkpt><trkpt lat="51.3277532" lon="-0.2096275"><ele>137.83333333333334</ele><time>2026-03-25T15:22:12.316Z</time></trkpt><trkpt lat="51.327745" lon="-0.2097517"><ele>138.0</ele><time>2026-03-25T15:23:42.314Z</time></trkpt><trkpt lat="51.3277567" lon="-0.2099317"><ele>138.16666666666666</ele><time>2026-03-25T15:23:44.316Z</time></trkpt><trkpt lat="51.3277667" lon="-0.210035"><ele>138.33333333333334</ele><time>2026-03-25T15:23:45.314Z</time></trkpt><trkpt lat="51.3277783" lon="-0.210155"><ele>138.5</ele><time>2026-03-25T15:23:46.315Z</time></trkpt><trkpt lat="51.3277917" lon="-0.21029"><ele>138.66666666666669</ele><time>2026-03-25T15:23:47.316Z</time></trkpt><trkpt lat="51.3278133" lon="-0.2104433"><ele>138.83333333333334</ele><time>2026-03-25T15:23:48.317Z</time></trkpt><trkpt lat="51.3278417" lon="-0.2106167"><ele>139.0</ele><time>2026-03-25T15:23:49.315Z</time></trkpt><trkpt lat="51.32787" lon="-0.210805"><ele>139.25</ele><time>2026-03-25T15:23:50.315Z</time></trkpt><trkpt lat="51.3279017" lon="-0.21099"><ele>139.5</ele><time>2026-03-25T15:23:51.316Z</time></trkpt><trkpt lat="51.3279267" lon="-0.21117"><ele>139.75</ele><time>2026-03-25T15:23:52.317Z</time></trkpt><trkpt lat="51.3279567" lon="-0.21135"><ele>140.0</ele><time>2026-03-25T15:23:53.317Z</time></trkpt><trkpt lat="51.3279867" lon="-0.2115317"><ele>140.25</ele><time>2026-03-25T15:23:54.316Z</time></trkpt><trkpt lat="51.3280183" lon="-0.2117067"><ele>140.5</ele><time>2026-03-25T15:23:55.316Z</time></trkpt><trkpt lat="51.3280533" lon="-0.2118833"><ele>140.75</ele><time>2026-03-25T15:23:56.316Z</time></trkpt><trkpt lat="51.3280883" lon="-0.21207"><ele>141.0</ele><time>2026-03-25T15:23:57.316Z</time></trkpt><trkpt lat="51.3281233" lon="-0.212255"><ele>140.5</ele><time>2026-03-25T15:23:58.317Z</time></trkpt><trkpt lat="51.3281567" lon="-0.212445"><ele>140.0</ele><time>2026-03-25T15:23:59.316Z</time></trkpt><trkpt lat="51.3281917" lon="-0.2126367"><ele>139.5</ele><time>2026-03-25T15:24:00.316Z</time></trkpt><trkpt lat="51.3282283" lon="-0.2128383"><ele>139.0</ele><time>2026-03-25T15:24:01.316Z</time></trkpt><trkpt lat="51.3282667" lon="-0.2130433"><ele>139.0</ele><time>2026-03-25T15:24:02.315Z</time></trkpt><trkpt lat="51.3283033" lon="-0.2132567"><ele>139.0</ele><time>2026-03-25T15:24:03.315Z</time></trkpt><trkpt lat="51.3283367" lon="-0.2134717"><ele>139.0</ele><time>2026-03-25T15:24:04.315Z</time></trkpt><trkpt lat="51.3283667" lon="-0.2136733"><ele>139.0</ele><time>2026-03-25T15:24:05.315Z</time></trkpt><trkpt lat="51.3283917" lon="-0.213865"><ele>138.0</ele><time>2026-03-25T15:24:06.316Z</time></trkpt><trkpt lat="51.3284167" lon="-0.2140517"><ele>137.0</ele><time>2026-03-25T15:24:07.316Z</time></trkpt><trkpt lat="51.3284367" lon="-0.2142333"><ele>136.0</ele><time>2026-03-25T15:24:08.315Z</time></trkpt><trkpt lat="51.3284633" lon="-0.2144033"><ele>135.0</ele><time>2026-03-25T15:24:09.317Z</time></trkpt><trkpt lat="51.32848" lon="-0.21457"><ele>135.0</ele><time>2026-03-25T15:24:10.316Z</time></trkpt><trkpt lat="51.32849" lon="-0.214735"><ele>135.0</ele><time>2026-03-25T15:24:11.316Z</time></trkpt><trkpt lat="51.328505" lon="-0.2149033"><ele>135.0</ele><time>2026-03-25T15:24:12.316Z</time></trkpt><trkpt lat="51.328505" lon="-0.21508"><ele>135.0</ele><time>2026-03-25T15:24:13.317Z</time></trkpt><trkpt lat="51.3284917" lon="-0.2152717"><ele>135.0</ele><time>2026-03-25T15:24:14.317Z</time></trkpt><trkpt lat="51.3284683" lon="-0.21547"><ele>134.25</ele><time>2026-03-25T15:24:15.316Z</time></trkpt><trkpt lat="51.328435" lon="-0.215675"><ele>133.5</ele><time>2026-03-25T15:24:16.315Z</time></trkpt><trkpt lat="51.3283933" lon="-0.2158833"><ele>132.75</ele><time>2026-03-25T15:24:17.316Z</time></trkpt><trkpt lat="51.3283483" lon="-0.2160967"><ele>132.0</ele><time>2026-03-25T15:24:18.316Z</time></trkpt><trkpt lat="51.32831" lon="-0.216305"><ele>131.33333333333334</ele><time>2026-03-25T15:24:19.316Z</time></trkpt><trkpt lat="51.3282717" lon="-0.216525"><ele>130.66666666666669</ele><time>2026-03-25T15:24:20.316Z</time></trkpt><trkpt lat="51.3282317" lon="-0.216755"><ele>130.0</ele><time>2026-03-25T15:24:21.316Z</time></trkpt><trkpt lat="51.328185" lon="-0.217005"><ele>130.0</ele><time>2026-03-25T15:24:22.316Z</time></trkpt><trkpt lat="51.3281417" lon="-0.2172633"><ele>130.0</ele><time>2026-03-25T15:24:23.317Z</time></trkpt><trkpt lat="51.3281" lon="-0.2175367"><ele>130.0</ele><time>2026-03-25T15:24:24.314Z</time></trkpt><trkpt lat="51.328065" lon="-0.217805"><ele>130.0</ele><time>2026-03-25T15:24:25.315Z</time></trkpt><trkpt lat="51.328035" lon="-0.2180633"><ele>130.0</ele><time>2026-03-25T15:24:26.315Z</time></trkpt><trkpt lat="51.32801" lon="-0.21832"><ele>130.0</ele><time>2026-03-25T15:24:27.316Z</time></trkpt><trkpt lat="51.3279817" lon="-0.21856"><ele>130.0</ele><time>2026-03-25T15:24:28.315Z</time></trkpt><trkpt lat="51.3279533" lon="-0.2187917"><ele>130.0</ele><time>2026-03-25T15:24:29.317Z</time></trkpt><trkpt lat="51.327925" lon="-0.2190317"><ele>130.0</ele><time>2026-03-25T15:24:30.316Z</time></trkpt><trkpt lat="51.3278983" lon="-0.219275"><ele>129.33333333333334</ele><time>2026-03-25T15:24:31.315Z</time></trkpt><trkpt lat="51.3278683" lon="-0.219525"><ele>128.66666666666666</ele><time>2026-03-25T15:24:32.315Z</time></trkpt><trkpt lat="51.3278333" lon="-0.2197883"><ele>128.0</ele><time>2026-03-25T15:24:33.317Z</time></trkpt><trkpt lat="51.327805" lon="-0.220045"><ele>127.33333333333333</ele><time>2026-03-25T15:24:34.316Z</time></trkpt><trkpt lat="51.3277833" lon="-0.2203033"><ele>126.66666666666666</ele><time>2026-03-25T15:24:35.319Z</time></trkpt><trkpt lat="51.3277667" lon="-0.2205617"><ele>126.0</ele><time>2026-03-25T15:24:36.317Z</time></trkpt><trkpt lat="51.32775" lon="-0.2208217"><ele>126.0</ele><time>2026-03-25T15:24:37.318Z</time></trkpt><trkpt lat="51.327735" lon="-0.2210667"><ele>126.0</ele><time>2026-03-25T15:24:38.314Z</time></trkpt><trkpt lat="51.32772" lon="-0.2213117"><ele>126.0</ele><time>2026-03-25T15:24:39.316Z</time></trkpt><trkpt lat="51.327705" lon="-0.22155"><ele>125.75</ele><time>2026-03-25T15:24:40.314Z</time></trkpt><trkpt lat="51.3276917" lon="-0.2217817"><ele>125.5</ele><time>2026-03-25T15:24:41.315Z</time></trkpt><trkpt lat="51.3276817" lon="-0.2220083"><ele>125.25</ele><time>2026-03-25T15:24:42.315Z</time></trkpt><trkpt lat="51.327675" lon="-0.2222283"><ele>125.0</ele><time>2026-03-25T15:24:43.317Z</time></trkpt><trkpt lat="51.3276717" lon="-0.22243"><ele>124.5</ele><time>2026-03-25T15:24:44.317Z</time></trkpt><trkpt lat="51.3276717" lon="-0.2226333"><ele>124.0</ele><time>2026-03-25T15:24:45.317Z</time></trkpt><trkpt lat="51.3276783" lon="-0.2228317"><ele>123.5</ele><time>2026-03-25T15:24:46.315Z</time></trkpt><trkpt lat="51.3276883" lon="-0.2230317"><ele>123.0</ele><time>2026-03-25T15:24:47.316Z</time></trkpt><trkpt lat="51.3277" lon="-0.2232467"><ele>123.0</ele><time>2026-03-25T15:24:48.318Z</time></trkpt><trkpt lat="51.3277089" lon="-0.2234629"><ele>123.0</ele><time>2026-03-25T15:24:49.314Z</time></trkpt><trkpt lat="51.327714" lon="-0.2236904"><ele>123.0</ele><time>2026-03-25T15:24:50.315Z</time></trkpt><trkpt lat="51.3277066" lon="-0.2239207"><ele>123.0</ele><time>2026-03-25T15:24:51.315Z</time></trkpt><trkpt lat="51.3276871" lon="-0.2241465"><ele>122.75</ele><time>2026-03-25T15:24:52.314Z</time></trkpt><trkpt lat="51.3276635" lon="-0.2243683"><ele>122.5</ele><time>2026-03-25T15:24:53.314Z</time></trkpt><trkpt lat="51.327638" lon="-0.2245839"><ele>122.25</ele><time>2026-03-25T15:24:54.315Z</time></trkpt><trkpt lat="51.3276117" lon="-0.2247922"><ele>122.0</ele><time>2026-03-25T15:24:55.315Z</time></trkpt><trkpt lat="51.3275844" lon="-0.2249939"><ele>121.75</ele><time>2026-03-25T15:24:56.314Z</time></trkpt><trkpt lat="51.3275597" lon="-0.2251989"><ele>121.5</ele><time>2026-03-25T15:24:57.315Z</time></trkpt><trkpt lat="51.3275323" lon="-0.2254179"><ele>121.25</ele><time>2026-03-25T15:24:58.314Z</time></trkpt><trkpt lat="51.3275036" lon="-0.2256468"><ele>121.0</ele><time>2026-03-25T15:24:59.316Z</time></trkpt><trkpt lat="51.3274732" lon="-0.2258779"><ele>120.75</ele><time>2026-03-25T15:25:00.314Z</time></trkpt><trkpt lat="51.3274421" lon="-0.2261026"><ele>120.5</ele><time>2026-03-25T15:25:01.315Z</time></trkpt><trkpt lat="51.3274144" lon="-0.226324"><ele>120.25</ele><time>2026-03-25T15:25:02.317Z</time></trkpt><trkpt lat="51.3273892" lon="-0.2265431"><ele>120.0</ele><time>2026-03-25T15:25:03.315Z</time></trkpt><trkpt lat="51.3273644" lon="-0.2267598"><ele>119.5</ele><time>2026-03-25T15:25:04.315Z</time></trkpt><trkpt lat="51.3273372" lon="-0.2269727"><ele>119.0</ele><time>2026-03-25T15:25:05.315Z</time></trkpt><trkpt lat="51.3273124" lon="-0.2271776"><ele>118.5</ele><time>2026-03-25T15:25:06.317Z</time></trkpt><trkpt lat="51.3272875" lon="-0.2273803"><ele>118.0</ele><time>2026-03-25T15:25:07.319Z</time></trkpt><trkpt lat="51.3272642" lon="-0.2275802"><ele>117.25</ele><time>2026-03-25T15:25:08.317Z</time></trkpt><trkpt lat="51.3272417" lon="-0.2277832"><ele>116.5</ele><time>2026-03-25T15:25:09.317Z</time></trkpt><trkpt lat="51.327218" lon="-0.2279899"><ele>115.75</ele><time>2026-03-25T15:25:10.318Z</time></trkpt><trkpt lat="51.3271931" lon="-0.2282019"><ele>115.0</ele><time>2026-03-25T15:25:11.318Z</time></trkpt><trkpt lat="51.3271668" lon="-0.2284174"><ele>113.75</ele><time>2026-03-25T15:25:12.317Z</time></trkpt><trkpt lat="51.327145" lon="-0.2286347"><ele>112.5</ele><time>2026-03-25T15:25:13.318Z</time></trkpt><trkpt lat="51.3271249" lon="-0.2288644"><ele>111.25</ele><time>2026-03-25T15:25:14.318Z</time></trkpt><trkpt lat="51.3270991" lon="-0.2291017"><ele>110.0</ele><time>2026-03-25T15:25:15.316Z</time></trkpt><trkpt lat="51.3270712" lon="-0.2293355"><ele>109.75</ele><time>2026-03-25T15:25:16.318Z</time></trkpt><trkpt lat="51.3270466" lon="-0.2295611"><ele>109.5</ele><time>2026-03-25T15:25:17.318Z</time></trkpt><trkpt lat="51.3270246" lon="-0.2297842"><ele>109.25</ele><time>2026-03-25T15:25:18.315Z</time></trkpt><trkpt lat="51.3270035" lon="-0.2300024"><ele>109.0</ele><time>2026-03-25T15:25:19.315Z</time></trkpt><trkpt lat="51.3269777" lon="-0.2302244"><ele>108.5</ele><time>2026-03-25T15:25:20.315Z</time></trkpt><trkpt lat="51.326953" lon="-0.2304392"><ele>108.0</ele><time>2026-03-25T15:25:21.315Z</time></trkpt><trkpt lat="51.3269316" lon="-0.2306463"><ele>107.5</ele><time>2026-03-25T15:25:22.316Z</time></trkpt><trkpt lat="51.3269084" lon="-0.2308509"><ele>107.0</ele><time>2026-03-25T15:25:23.315Z</time></trkpt><trkpt lat="51.3268867" lon="-0.2310469"><ele>106.39999999999999</ele><time>2026-03-25T15:25:24.316Z</time></trkpt><trkpt lat="51.3268667" lon="-0.2312302"><ele>105.79999999999998</ele><time>2026-03-25T15:25:25.314Z</time></trkpt><trkpt lat="51.3268415" lon="-0.2313896"><ele>105.2</ele><time>2026-03-25T15:25:26.317Z</time></trkpt><trkpt lat="51.3268116" lon="-0.2315378"><ele>104.6</ele><time>2026-03-25T15:25:27.317Z</time></trkpt><trkpt lat="51.3267704" lon="-0.2316814"><ele>104.0</ele><time>2026-03-25T15:25:28.314Z</time></trkpt><trkpt lat="51.3267192" lon="-0.2318101"><ele>103.16666666666666</ele><time>2026-03-25T15:25:29.317Z</time></trkpt><trkpt lat="51.3266627" lon="-0.2319154"><ele>102.33333333333333</ele><time>2026-03-25T15:25:30.318Z</time></trkpt><trkpt lat="51.3266063" lon="-0.2319941"><ele>101.5</ele><time>2026-03-25T15:25:31.317Z</time></trkpt><trkpt lat="51.3265468" lon="-0.2320609"><ele>100.66666666666666</ele><time>2026-03-25T15:25:32.318Z</time></trkpt><trkpt lat="51.3264883" lon="-0.2321233"><ele>99.83333333333333</ele><time>2026-03-25T15:25:33.317Z</time></trkpt><trkpt lat="51.3263932" lon="-0.2322252"><ele>99.0</ele><time>2026-03-25T15:25:35.318Z</time></trkpt><trkpt lat="51.3263291" lon="-0.2322799"><ele>98.66666666666667</ele><time>2026-03-25T15:25:37.314Z</time></trkpt><trkpt lat="51.3262671" lon="-0.2323433"><ele>98.33333333333334</ele><time>2026-03-25T15:25:40.314Z</time></trkpt><trkpt lat="51.3262043" lon="-0.232369"><ele>98.0</ele><time>2026-03-25T15:26:12.316Z</time></trkpt><trkpt lat="51.3261269" lon="-0.2324255"><ele>97.66666666666667</ele><time>2026-03-25T15:26:22.313Z</time></trkpt><trkpt lat="51.326048" lon="-0.232499"><ele>97.33333333333334</ele><time>2026-03-25T15:26:24.314Z</time></trkpt><trkpt lat="51.3260004" lon="-0.2326065"><ele>97.0</ele><time>2026-03-25T15:26:26.317Z</time></trkpt><trkpt lat="51.3260039" lon="-0.2327179"><ele>97.0</ele><time>2026-03-25T15:26:28.314Z</time></trkpt><trkpt lat="51.3260722" lon="-0.2328251"><ele>97.0</ele><time>2026-03-25T15:26:30.318Z</time></trkpt><trkpt lat="51.3261805" lon="-0.2329321"><ele>97.0</ele><time>2026-03-25T15:26:32.316Z</time></trkpt><trkpt lat="51.3262837" lon="-0.2330221"><ele>97.0</ele><time>2026-03-25T15:26:34.315Z</time></trkpt><trkpt lat="51.3263802" lon="-0.2331107"><ele>97.0</ele><time>2026-03-25T15:26:36.314Z</time></trkpt><trkpt lat="51.3264732" lon="-0.233209"><ele>97.0</ele><time>2026-03-25T15:26:38.318Z</time></trkpt><trkpt lat="51.3265326" lon="-0.2332654"><ele>97.0</ele><time>2026-03-25T15:26:39.314Z</time></trkpt><trkpt lat="51.3266027" lon="-0.2333327"><ele>97.0</ele><time>2026-03-25T15:26:40.313Z</time></trkpt><trkpt lat="51.3266817" lon="-0.2334064"><ele>97.0</ele><time>2026-03-25T15:26:41.318Z</time></trkpt><trkpt lat="51.3267676" lon="-0.2334911"><ele>97.0</ele><time>2026-03-25T15:26:42.314Z</time></trkpt><trkpt lat="51.3268557" lon="-0.2335785"><ele>97.0</ele><time>2026-03-25T15:26:43.318Z</time></trkpt><trkpt lat="51.3269421" lon="-0.2336569"><ele>97.0</ele><time>2026-03-25T15:26:44.316Z</time></trkpt><trkpt lat="51.3270241" lon="-0.233734"><ele>97.0</ele><time>2026-03-25T15:26:45.314Z</time></trkpt><trkpt lat="51.3271124" lon="-0.2338045"><ele>97.0</ele><time>2026-03-25T15:26:46.315Z</time></trkpt><trkpt lat="51.3271985" lon="-0.233874"><ele>97.16666666666667</ele><time>2026-03-25T15:26:47.315Z</time></trkpt><trkpt lat="51.3272761" lon="-0.2339421"><ele>97.33333333333334</ele><time>2026-03-25T15:26:48.314Z</time></trkpt><trkpt lat="51.3273474" lon="-0.2340077"><ele>97.5</ele><time>2026-03-25T15:26:49.314Z</time></trkpt><trkpt lat="51.3274093" lon="-0.2340764"><ele>97.66666666666666</ele><time>2026-03-25T15:26:50.315Z</time></trkpt><trkpt lat="51.3274554" lon="-0.2341613"><ele>97.83333333333333</ele><time>2026-03-25T15:26:51.315Z</time></trkpt><trkpt lat="51.3274922" lon="-0.234259"><ele>98.0</ele><time>2026-03-25T15:26:52.315Z</time></trkpt><trkpt lat="51.3275185" lon="-0.2343701"><ele>97.2</ele><time>2026-03-25T15:26:53.315Z</time></trkpt><trkpt lat="51.3275281" lon="-0.2344961"><ele>96.4</ele><time>2026-03-25T15:26:54.314Z</time></trkpt><trkpt lat="51.3275212" lon="-0.2346394"><ele>95.60000000000001</ele><time>2026-03-25T15:26:55.315Z</time></trkpt><trkpt lat="51.3275015" lon="-0.2348109"><ele>94.80000000000001</ele><time>2026-03-25T15:26:56.315Z</time></trkpt><trkpt lat="51.3274635" lon="-0.2350137"><ele>94.0</ele><time>2026-03-25T15:26:57.316Z</time></trkpt><trkpt lat="51.3274141" lon="-0.2352571"><ele>93.66666666666666</ele><time>2026-03-25T15:26:58.315Z</time></trkpt><trkpt lat="51.3273676" lon="-0.2355201"><ele>93.33333333333333</ele><time>2026-03-25T15:26:59.314Z</time></trkpt><trkpt lat="51.3273149" lon="-0.2358024"><ele>93.0</ele><time>2026-03-25T15:27:00.315Z</time></trkpt><trkpt lat="51.327265" lon="-0.2360856"><ele>94.66666666666666</ele><time>2026-03-25T15:27:01.316Z</time></trkpt><trkpt lat="51.3272194" lon="-0.2363604"><ele>96.33333333333333</ele><time>2026-03-25T15:27:02.316Z</time></trkpt><trkpt lat="51.3271781" lon="-0.2366142"><ele>98.0</ele><time>2026-03-25T15:27:03.314Z</time></trkpt><trkpt lat="51.3271414" lon="-0.2368573"><ele>98.0</ele><time>2026-03-25T15:27:04.315Z</time></trkpt><trkpt lat="51.3271099" lon="-0.2370937"><ele>98.0</ele><time>2026-03-25T15:27:05.315Z</time></trkpt><trkpt lat="51.3270743" lon="-0.2373182"><ele>98.0</ele><time>2026-03-25T15:27:06.315Z</time></trkpt><trkpt lat="51.3270338" lon="-0.2375431"><ele>98.0</ele><time>2026-03-25T15:27:07.317Z</time></trkpt><trkpt lat="51.3269856" lon="-0.2377753"><ele>98.33333333333333</ele><time>2026-03-25T15:27:08.315Z</time></trkpt><trkpt lat="51.3269295" lon="-0.2380171"><ele>98.66666666666666</ele><time>2026-03-25T15:27:09.314Z</time></trkpt><trkpt lat="51.3268669" lon="-0.2382481"><ele>99.0</ele><time>2026-03-25T15:27:10.318Z</time></trkpt><trkpt lat="51.32681" lon="-0.2384558"><ele>99.0</ele><time>2026-03-25T15:27:11.314Z</time></trkpt><trkpt lat="51.3267551" lon="-0.2386487"><ele>99.0</ele><time>2026-03-25T15:27:12.315Z</time></trkpt><trkpt lat="51.3267033" lon="-0.2388276"><ele>99.0</ele><time>2026-03-25T15:27:13.317Z</time></trkpt><trkpt lat="51.3266516" lon="-0.2389968"><ele>99.0</ele><time>2026-03-25T15:27:14.318Z</time></trkpt><trkpt lat="51.3265995" lon="-0.239172"><ele>98.5</ele><time>2026-03-25T15:27:15.314Z</time></trkpt><trkpt lat="51.326549" lon="-0.2393596"><ele>98.0</ele><time>2026-03-25T15:27:16.315Z</time></trkpt><trkpt lat="51.3265007" lon="-0.2395451"><ele>97.5</ele><time>2026-03-25T15:27:17.317Z</time></trkpt><trkpt lat="51.3264567" lon="-0.2397257"><ele>97.0</ele><time>2026-03-25T15:27:18.314Z</time></trkpt><trkpt lat="51.3264221" lon="-0.2399094"><ele>97.39999999999999</ele><time>2026-03-25T15:27:19.313Z</time></trkpt><trkpt lat="51.3263955" lon="-0.2400916"><ele>97.8</ele><time>2026-03-25T15:27:20.314Z</time></trkpt><trkpt lat="51.3263805" lon="-0.2402695"><ele>98.2</ele><time>2026-03-25T15:27:21.314Z</time></trkpt><trkpt lat="51.3263886" lon="-0.240446"><ele>98.6</ele><time>2026-03-25T15:27:22.313Z</time></trkpt><trkpt lat="51.3264058" lon="-0.2406173"><ele>99.0</ele><time>2026-03-25T15:27:23.314Z</time></trkpt><trkpt lat="51.3264278" lon="-0.2407843"><ele>97.6</ele><time>2026-03-25T15:27:24.313Z</time></trkpt><trkpt lat="51.3264606" lon="-0.2409502"><ele>96.2</ele><time>2026-03-25T15:27:25.314Z</time></trkpt><trkpt lat="51.3264995" lon="-0.2411161"><ele>94.8</ele><time>2026-03-25T15:27:26.314Z</time></trkpt><trkpt lat="51.3265423" lon="-0.2412784"><ele>93.39999999999999</ele><time>2026-03-25T15:27:27.314Z</time></trkpt><trkpt lat="51.3265855" lon="-0.2414408"><ele>92.0</ele><time>2026-03-25T15:27:28.314Z</time></trkpt><trkpt lat="51.3266289" lon="-0.2416036"><ele>91.19999999999999</ele><time>2026-03-25T15:27:29.314Z</time></trkpt><trkpt lat="51.326675" lon="-0.2417655"><ele>90.4</ele><time>2026-03-25T15:27:30.314Z</time></trkpt><trkpt lat="51.3267209" lon="-0.2419244"><ele>89.6</ele><time>2026-03-25T15:27:31.314Z</time></trkpt><trkpt lat="51.3267646" lon="-0.2420827"><ele>88.80000000000001</ele><time>2026-03-25T15:27:32.315Z</time></trkpt><trkpt lat="51.3268103" lon="-0.2422387"><ele>88.0</ele><time>2026-03-25T15:27:33.314Z</time></trkpt><trkpt lat="51.3268532" lon="-0.2423939"><ele>87.60000000000001</ele><time>2026-03-25T15:27:34.314Z</time></trkpt><trkpt lat="51.3268937" lon="-0.2425486"><ele>87.2</ele><time>2026-03-25T15:27:35.313Z</time></trkpt><trkpt lat="51.3269306" lon="-0.242703"><ele>86.8</ele><time>2026-03-25T15:27:36.314Z</time></trkpt><trkpt lat="51.3269658" lon="-0.2428443"><ele>86.4</ele><time>2026-03-25T15:27:37.313Z</time></trkpt><trkpt lat="51.3269953" lon="-0.2429663"><ele>86.0</ele><time>2026-03-25T15:27:38.314Z</time></trkpt><trkpt lat="51.3270203" lon="-0.2430696"><ele>85.66666666666667</ele><time>2026-03-25T15:27:39.314Z</time></trkpt><trkpt lat="51.3270461" lon="-0.2431629"><ele>85.33333333333334</ele><time>2026-03-25T15:27:40.313Z</time></trkpt><trkpt lat="51.3270909" lon="-0.2433333"><ele>85.0</ele><time>2026-03-25T15:27:42.314Z</time></trkpt><trkpt lat="51.32713" lon="-0.243485"><ele>84.66666666666667</ele><time>2026-03-25T15:27:44.316Z</time></trkpt><trkpt lat="51.3271624" lon="-0.2436089"><ele>84.33333333333333</ele><time>2026-03-25T15:27:46.314Z</time></trkpt><trkpt lat="51.3271883" lon="-0.2437264"><ele>84.0</ele><time>2026-03-25T15:27:49.313Z</time></trkpt><trkpt lat="51.3272412" lon="-0.2438852"><ele>84.4</ele><time>2026-03-25T15:28:19.314Z</time></trkpt><trkpt lat="51.3272841" lon="-0.2440111"><ele>84.80000000000001</ele><time>2026-03-25T15:28:20.316Z</time></trkpt><trkpt lat="51.3273364" lon="-0.244152"><ele>85.19999999999999</ele><time>2026-03-25T15:28:21.314Z</time></trkpt><trkpt lat="51.3273917" lon="-0.2443059"><ele>85.6</ele><time>2026-03-25T15:28:22.315Z</time></trkpt><trkpt lat="51.3274467" lon="-0.2444621"><ele>86.0</ele><time>2026-03-25T15:28:23.315Z</time></trkpt><trkpt lat="51.3275012" lon="-0.2446245"><ele>86.0</ele><time>2026-03-25T15:28:24.315Z</time></trkpt><trkpt lat="51.3275591" lon="-0.2447941"><ele>86.0</ele><time>2026-03-25T15:28:25.314Z</time></trkpt><trkpt lat="51.327619" lon="-0.2449593"><ele>86.0</ele><time>2026-03-25T15:28:26.314Z</time></trkpt><trkpt lat="51.3276768" lon="-0.2451237"><ele>86.0</ele><time>2026-03-25T15:28:27.315Z</time></trkpt><trkpt lat="51.3277264" lon="-0.2452865"><ele>86.25</ele><time>2026-03-25T15:28:28.314Z</time></trkpt><trkpt lat="51.3277763" lon="-0.2454527"><ele>86.5</ele><time>2026-03-25T15:28:29.315Z</time></trkpt><trkpt lat="51.3278338" lon="-0.2456229"><ele>86.75</ele><time>2026-03-25T15:28:30.315Z</time></trkpt><trkpt lat="51.3278957" lon="-0.245788"><ele>87.0</ele><time>2026-03-25T15:28:31.315Z</time></trkpt><trkpt lat="51.3279522" lon="-0.2459433"><ele>87.0</ele><time>2026-03-25T15:28:32.315Z</time></trkpt><trkpt lat="51.3280101" lon="-0.246095"><ele>87.0</ele><time>2026-03-25T15:28:33.316Z</time></trkpt><trkpt lat="51.3280698" lon="-0.2462424"><ele>87.0</ele><time>2026-03-25T15:28:34.315Z</time></trkpt><trkpt lat="51.3281273" lon="-0.2463957"><ele>87.0</ele><time>2026-03-25T15:28:35.314Z</time></trkpt><trkpt lat="51.3281815" lon="-0.2465509"><ele>87.0</ele><time>2026-03-25T15:28:36.314Z</time></trkpt><trkpt lat="51.3282375" lon="-0.2467104"><ele>85.8</ele><time>2026-03-25T15:28:37.316Z</time></trkpt><trkpt lat="51.3282928" lon="-0.246872"><ele>84.6</ele><time>2026-03-25T15:28:38.315Z</time></trkpt><trkpt lat="51.3283516" lon="-0.2470299"><ele>83.39999999999999</ele><time>2026-03-25T15:28:39.314Z</time></trkpt><trkpt lat="51.328409" lon="-0.2471816"><ele>82.19999999999999</ele><time>2026-03-25T15:28:40.315Z</time></trkpt><trkpt lat="51.3284632" lon="-0.2473304"><ele>81.0</ele><time>2026-03-25T15:28:41.315Z</time></trkpt><trkpt lat="51.3285207" lon="-0.2474875"><ele>80.25</ele><time>2026-03-25T15:28:42.315Z</time></trkpt><trkpt lat="51.3285816" lon="-0.2476591"><ele>79.5</ele><time>2026-03-25T15:28:43.315Z</time></trkpt><trkpt lat="51.3286435" lon="-0.247838"><ele>78.75</ele><time>2026-03-25T15:28:44.314Z</time></trkpt><trkpt lat="51.3287067" lon="-0.2480154"><ele>78.0</ele><time>2026-03-25T15:28:45.314Z</time></trkpt><trkpt lat="51.3287652" lon="-0.2481807"><ele>77.6</ele><time>2026-03-25T15:28:46.315Z</time></trkpt><trkpt lat="51.3288228" lon="-0.2483362"><ele>77.19999999999999</ele><time>2026-03-25T15:28:47.316Z</time></trkpt><trkpt lat="51.3288803" lon="-0.248482"><ele>76.8</ele><time>2026-03-25T15:28:48.315Z</time></trkpt><trkpt lat="51.3289347" lon="-0.2486087"><ele>76.39999999999999</ele><time>2026-03-25T15:28:49.315Z</time></trkpt><trkpt lat="51.3289825" lon="-0.248714"><ele>76.0</ele><time>2026-03-25T15:28:50.319Z</time></trkpt><trkpt lat="51.3290354" lon="-0.2488065"><ele>75.39999999999999</ele><time>2026-03-25T15:28:51.316Z</time></trkpt><trkpt lat="51.3290809" lon="-0.2489082"><ele>74.8</ele><time>2026-03-25T15:28:52.315Z</time></trkpt><trkpt lat="51.329122" lon="-0.2490382"><ele>74.19999999999999</ele><time>2026-03-25T15:28:53.314Z</time></trkpt><trkpt lat="51.3291613" lon="-0.249192"><ele>73.6</ele><time>2026-03-25T15:28:54.315Z</time></trkpt><trkpt lat="51.3292086" lon="-0.2493619"><ele>73.0</ele><time>2026-03-25T15:28:55.314Z</time></trkpt><trkpt lat="51.3292513" lon="-0.24954"><ele>72.8</ele><time>2026-03-25T15:28:56.315Z</time></trkpt><trkpt lat="51.3292831" lon="-0.2497201"><ele>72.6</ele><time>2026-03-25T15:28:57.315Z</time></trkpt><trkpt lat="51.329307" lon="-0.2498905"><ele>72.4</ele><time>2026-03-25T15:28:58.316Z</time></trkpt><trkpt lat="51.3293216" lon="-0.2500519"><ele>72.2</ele><time>2026-03-25T15:28:59.315Z</time></trkpt><trkpt lat="51.3293156" lon="-0.2502084"><ele>72.0</ele><time>2026-03-25T15:29:00.315Z</time></trkpt><trkpt lat="51.3293051" lon="-0.250376"><ele>71.5</ele><time>2026-03-25T15:29:01.314Z</time></trkpt><trkpt lat="51.3292902" lon="-0.2505564"><ele>71.0</ele><time>2026-03-25T15:29:02.314Z</time></trkpt><trkpt lat="51.3292672" lon="-0.2507466"><ele>70.5</ele><time>2026-03-25T15:29:03.316Z</time></trkpt><trkpt lat="51.3292393" lon="-0.2509459"><ele>70.0</ele><time>2026-03-25T15:29:04.313Z</time></trkpt><trkpt lat="51.3292094" lon="-0.2511593"><ele>69.33333333333333</ele><time>2026-03-25T15:29:05.314Z</time></trkpt><trkpt lat="51.3291764" lon="-0.2513805"><ele>68.66666666666667</ele><time>2026-03-25T15:29:06.313Z</time></trkpt><trkpt lat="51.3291405" lon="-0.2516226"><ele>68.0</ele><time>2026-03-25T15:29:07.314Z</time></trkpt><trkpt lat="51.3291019" lon="-0.2518696"><ele>68.0</ele><time>2026-03-25T15:29:08.313Z</time></trkpt><trkpt lat="51.3290664" lon="-0.2521055"><ele>68.0</ele><time>2026-03-25T15:29:09.314Z</time></trkpt><trkpt lat="51.3290338" lon="-0.2523165"><ele>68.0</ele><time>2026-03-25T15:29:10.314Z</time></trkpt><trkpt lat="51.3290029" lon="-0.2525043"><ele>68.0</ele><time>2026-03-25T15:29:11.314Z</time></trkpt><trkpt lat="51.3289728" lon="-0.2526846"><ele>68.25</ele><time>2026-03-25T15:29:12.314Z</time></trkpt><trkpt lat="51.3289425" lon="-0.2528657"><ele>68.5</ele><time>2026-03-25T15:29:13.314Z</time></trkpt><trkpt lat="51.3289124" lon="-0.2530474"><ele>68.75</ele><time>2026-03-25T15:29:14.316Z</time></trkpt><trkpt lat="51.3288875" lon="-0.2532307"><ele>69.0</ele><time>2026-03-25T15:29:15.313Z</time></trkpt><trkpt lat="51.3288711" lon="-0.2534158"><ele>69.0</ele><time>2026-03-25T15:29:16.313Z</time></trkpt><trkpt lat="51.3288602" lon="-0.2536037"><ele>69.0</ele><time>2026-03-25T15:29:17.314Z</time></trkpt><trkpt lat="51.3288616" lon="-0.2537921"><ele>69.0</ele><time>2026-03-25T15:29:18.313Z</time></trkpt><trkpt lat="51.3288742" lon="-0.2539768"><ele>69.0</ele><time>2026-03-25T15:29:19.314Z</time></trkpt><trkpt lat="51.3288962" lon="-0.2541631"><ele>68.4</ele><time>2026-03-25T15:29:20.314Z</time></trkpt><trkpt lat="51.3289227" lon="-0.254352"><ele>67.80000000000001</ele><time>2026-03-25T15:29:21.314Z</time></trkpt><trkpt lat="51.3289476" lon="-0.2545307"><ele>67.19999999999999</ele><time>2026-03-25T15:29:22.314Z</time></trkpt><trkpt lat="51.328972" lon="-0.2546814"><ele>66.6</ele><time>2026-03-25T15:29:23.313Z</time></trkpt><trkpt lat="51.3289857" lon="-0.2547956"><ele>66.0</ele><time>2026-03-25T15:29:24.314Z</time></trkpt><trkpt lat="51.3290103" lon="-0.2549265"><ele>66.0</ele><time>2026-03-25T15:29:26.317Z</time></trkpt><trkpt lat="51.3290537" lon="-0.2550589"><ele>66.0</ele><time>2026-03-25T15:29:28.313Z</time></trkpt><trkpt lat="51.3290886" lon="-0.2551508"><ele>66.0</ele><time>2026-03-25T15:29:29.314Z</time></trkpt><trkpt lat="51.3291315" lon="-0.2552555"><ele>66.0</ele><time>2026-03-25T15:29:30.313Z</time></trkpt><trkpt lat="51.3291773" lon="-0.2553646"><ele>66.0</ele><time>2026-03-25T15:29:31.315Z</time></trkpt><trkpt lat="51.3292259" lon="-0.2554721"><ele>66.0</ele><time>2026-03-25T15:29:32.313Z</time></trkpt><trkpt lat="51.3292722" lon="-0.2555748"><ele>66.0</ele><time>2026-03-25T15:29:33.314Z</time></trkpt><trkpt lat="51.3293182" lon="-0.2556712"><ele>66.0</ele><time>2026-03-25T15:29:34.314Z</time></trkpt><trkpt lat="51.3293572" lon="-0.2557628"><ele>66.0</ele><time>2026-03-25T15:29:35.315Z</time></trkpt><trkpt lat="51.3293944" lon="-0.2558468"><ele>66.0</ele><time>2026-03-25T15:29:36.313Z</time></trkpt><trkpt lat="51.3294547" lon="-0.2559908"><ele>66.0</ele><time>2026-03-25T15:29:38.314Z</time></trkpt><trkpt lat="51.3295235" lon="-0.2561817"><ele>66.0</ele><time>2026-03-25T15:29:40.315Z</time></trkpt><trkpt lat="51.3295718" lon="-0.2563001"><ele>66.0</ele><time>2026-03-25T15:29:41.315Z</time></trkpt><trkpt lat="51.32962" lon="-0.2564081"><ele>66.0</ele><time>2026-03-25T15:29:42.315Z</time></trkpt><trkpt lat="51.3296606" lon="-0.2564894"><ele>66.0</ele><time>2026-03-25T15:29:43.314Z</time></trkpt><trkpt lat="51.329712" lon="-0.2565934"><ele>66.0</ele><time>2026-03-25T15:29:45.315Z</time></trkpt><trkpt lat="51.3297702" lon="-0.2566437"><ele>66.0</ele><time>2026-03-25T15:29:47.315Z</time></trkpt><trkpt lat="51.3298463" lon="-0.2566783"><ele>66.0</ele><time>2026-03-25T15:29:50.316Z</time></trkpt><trkpt lat="51.3297864" lon="-0.2567206"><ele>66.0</ele><time>2026-03-25T15:29:54.316Z</time></trkpt><trkpt lat="51.3297129" lon="-0.2566101"><ele>66.0</ele><time>2026-03-25T15:29:56.317Z</time></trkpt><trkpt lat="51.3296724" lon="-0.2565251"><ele>66.0</ele><time>2026-03-25T15:29:57.315Z</time></trkpt><trkpt lat="51.3296024" lon="-0.2563854"><ele>66.0</ele><time>2026-03-25T15:29:59.317Z</time></trkpt><trkpt lat="51.329531" lon="-0.2563566"><ele>66.0</ele><time>2026-03-25T15:30:01.315Z</time></trkpt><trkpt lat="51.3294604" lon="-0.2564123"><ele>65.5</ele><time>2026-03-25T15:30:03.316Z</time></trkpt><trkpt lat="51.3293497" lon="-0.2565442"><ele>65.0</ele><time>2026-03-25T15:30:05.316Z</time></trkpt><trkpt lat="51.329276" lon="-0.256639"><ele>64.5</ele><time>2026-03-25T15:30:06.316Z</time></trkpt><trkpt lat="51.3291889" lon="-0.256744"><ele>64.0</ele><time>2026-03-25T15:30:07.316Z</time></trkpt><trkpt lat="51.329097" lon="-0.2568379"><ele>63.99999999999999</ele><time>2026-03-25T15:30:08.315Z</time></trkpt><trkpt lat="51.3290128" lon="-0.2569237"><ele>64.0</ele><time>2026-03-25T15:30:09.316Z</time></trkpt><trkpt lat="51.3289415" lon="-0.2570073"><ele>64.0</ele><time>2026-03-25T15:30:10.316Z</time></trkpt><trkpt lat="51.3288757" lon="-0.2570872"><ele>64.0</ele><time>2026-03-25T15:30:11.315Z</time></trkpt><trkpt lat="51.3288116" lon="-0.2571612"><ele>63.99999999999999</ele><time>2026-03-25T15:30:12.316Z</time></trkpt><trkpt lat="51.3287549" lon="-0.2572259"><ele>64.0</ele><time>2026-03-25T15:30:13.316Z</time></trkpt><trkpt lat="51.3286609" lon="-0.2573259"><ele>64.0</ele><time>2026-03-25T15:30:15.315Z</time></trkpt><trkpt lat="51.3285972" lon="-0.2573829"><ele>63.99999999999999</ele><time>2026-03-25T15:30:17.316Z</time></trkpt><trkpt lat="51.3285755" lon="-0.2574974"><ele>64.0</ele><time>2026-03-25T15:30:21.319Z</time></trkpt><trkpt lat="51.3286111" lon="-0.2576291"><ele>64.0</ele><time>2026-03-25T15:30:23.315Z</time></trkpt><trkpt lat="51.3286525" lon="-0.2577061"><ele>63.99999999999999</ele><time>2026-03-25T15:30:24.315Z</time></trkpt><trkpt lat="51.3286932" lon="-0.2577859"><ele>64.0</ele><time>2026-03-25T15:30:25.316Z</time></trkpt><trkpt lat="51.328737" lon="-0.2578667"><ele>64.0</ele><time>2026-03-25T15:30:26.316Z</time></trkpt><trkpt lat="51.3287788" lon="-0.2579471"><ele>63.99999999999999</ele><time>2026-03-25T15:30:27.315Z</time></trkpt><trkpt lat="51.3288432" lon="-0.2580793"><ele>64.0</ele><time>2026-03-25T15:30:29.316Z</time></trkpt><trkpt lat="51.3288571" lon="-0.2581888"><ele>64.0</ele><time>2026-03-25T15:30:31.316Z</time></trkpt><trkpt lat="51.328814" lon="-0.2582999"><ele>64.0</ele><time>2026-03-25T15:30:33.316Z</time></trkpt><trkpt lat="51.3287526" lon="-0.258359"><ele>63.99999999999999</ele><time>2026-03-25T15:30:34.317Z</time></trkpt><trkpt lat="51.3286696" lon="-0.2584277"><ele>64.0</ele><time>2026-03-25T15:30:35.317Z</time></trkpt><trkpt lat="51.328575" lon="-0.258516"><ele>64.0</ele><time>2026-03-25T15:30:36.316Z</time></trkpt><trkpt lat="51.3284739" lon="-0.2586127"><ele>64.0</ele><time>2026-03-25T15:30:37.315Z</time></trkpt><trkpt lat="51.3283721" lon="-0.2587137"><ele>64.0</ele><time>2026-03-25T15:30:38.317Z</time></trkpt><trkpt lat="51.3282694" lon="-0.2588146"><ele>64.0</ele><time>2026-03-25T15:30:39.317Z</time></trkpt><trkpt lat="51.3281745" lon="-0.258907"><ele>63.6</ele><time>2026-03-25T15:30:40.317Z</time></trkpt><trkpt lat="51.3280825" lon="-0.2589918"><ele>63.2</ele><time>2026-03-25T15:30:41.316Z</time></trkpt><trkpt lat="51.3279893" lon="-0.2590755"><ele>62.800000000000004</ele><time>2026-03-25T15:30:42.317Z</time></trkpt><trkpt lat="51.3278866" lon="-0.2591561"><ele>62.400000000000006</ele><time>2026-03-25T15:30:43.317Z</time></trkpt><trkpt lat="51.3277753" lon="-0.2592307"><ele>62.0</ele><time>2026-03-25T15:30:44.316Z</time></trkpt><trkpt lat="51.3276624" lon="-0.2593089"><ele>63.0</ele><time>2026-03-25T15:30:45.316Z</time></trkpt><trkpt lat="51.327548" lon="-0.2593911"><ele>64.0</ele><time>2026-03-25T15:30:46.315Z</time></trkpt><trkpt lat="51.3274372" lon="-0.2594708"><ele>65.0</ele><time>2026-03-25T15:30:47.314Z</time></trkpt><trkpt lat="51.327331" lon="-0.2595473"><ele>66.0</ele><time>2026-03-25T15:30:48.315Z</time></trkpt><trkpt lat="51.327227" lon="-0.2596315"><ele>66.5</ele><time>2026-03-25T15:30:49.315Z</time></trkpt><trkpt lat="51.3271221" lon="-0.2597159"><ele>67.0</ele><time>2026-03-25T15:30:50.317Z</time></trkpt><trkpt lat="51.3270146" lon="-0.2598031"><ele>67.5</ele><time>2026-03-25T15:30:51.317Z</time></trkpt><trkpt lat="51.3269116" lon="-0.2598888"><ele>68.0</ele><time>2026-03-25T15:30:52.316Z</time></trkpt><trkpt lat="51.3268177" lon="-0.2599693"><ele>68.0</ele><time>2026-03-25T15:30:53.316Z</time></trkpt><trkpt lat="51.3267294" lon="-0.2600474"><ele>68.0</ele><time>2026-03-25T15:30:54.317Z</time></trkpt><trkpt lat="51.3266473" lon="-0.2601227"><ele>68.0</ele><time>2026-03-25T15:30:55.316Z</time></trkpt><trkpt lat="51.3265667" lon="-0.2601893"><ele>68.0</ele><time>2026-03-25T15:30:56.316Z</time></trkpt><trkpt lat="51.3264909" lon="-0.2602495"><ele>68.0</ele><time>2026-03-25T15:30:57.317Z</time></trkpt><trkpt lat="51.3264225" lon="-0.2603053"><ele>68.0</ele><time>2026-03-25T15:30:58.317Z</time></trkpt><trkpt lat="51.3263567" lon="-0.2603537"><ele>68.33333333333334</ele><time>2026-03-25T15:30:59.316Z</time></trkpt><trkpt lat="51.3262958" lon="-0.2603903"><ele>68.66666666666667</ele><time>2026-03-25T15:31:00.317Z</time></trkpt><trkpt lat="51.3261942" lon="-0.2604537"><ele>69.0</ele><time>2026-03-25T15:31:02.317Z</time></trkpt><trkpt lat="51.3261204" lon="-0.2604882"><ele>69.33333333333333</ele><time>2026-03-25T15:31:04.315Z</time></trkpt><trkpt lat="51.3260504" lon="-0.2604711"><ele>69.66666666666666</ele><time>2026-03-25T15:31:06.315Z</time></trkpt><trkpt lat="51.3259708" lon="-0.2604359"><ele>70.0</ele><time>2026-03-25T15:31:08.315Z</time></trkpt><trkpt lat="51.3258841" lon="-0.2603968"><ele>70.0</ele><time>2026-03-25T15:31:11.317Z</time></trkpt><trkpt lat="51.3258085" lon="-0.2603559"><ele>70.0</ele><time>2026-03-25T15:31:14.317Z</time></trkpt><trkpt lat="51.3257403" lon="-0.2603688"><ele>70.0</ele><time>2026-03-25T15:31:18.314Z</time></trkpt><trkpt lat="51.3257898" lon="-0.2604417"><ele>70.0</ele><time>2026-03-25T15:31:22.315Z</time></trkpt><trkpt lat="51.3258747" lon="-0.2604705"><ele>70.0</ele><time>2026-03-25T15:31:24.317Z</time></trkpt><trkpt lat="51.325965" lon="-0.2605"><ele>70.0</ele><time>2026-03-25T15:31:26.313Z</time></trkpt><trkpt lat="51.3260265" lon="-0.2605549"><ele>69.4</ele><time>2026-03-25T15:31:28.314Z</time></trkpt><trkpt lat="51.3260694" lon="-0.2606506"><ele>68.8</ele><time>2026-03-25T15:31:30.314Z</time></trkpt><trkpt lat="51.3261028" lon="-0.2607363"><ele>68.2</ele><time>2026-03-25T15:31:34.314Z</time></trkpt><trkpt lat="51.3261512" lon="-0.2609268"><ele>67.6</ele><time>2026-03-25T15:31:42.314Z</time></trkpt><trkpt lat="51.3261868" lon="-0.2610739"><ele>67.0</ele><time>2026-03-25T15:31:43.313Z</time></trkpt><trkpt lat="51.3262256" lon="-0.2612314"><ele>67.0</ele><time>2026-03-25T15:31:44.315Z</time></trkpt><trkpt lat="51.326265" lon="-0.2613911"><ele>67.0</ele><time>2026-03-25T15:31:45.314Z</time></trkpt><trkpt lat="51.3263075" lon="-0.2615636"><ele>67.0</ele><time>2026-03-25T15:31:46.313Z</time></trkpt><trkpt lat="51.3263512" lon="-0.261748"><ele>67.0</ele><time>2026-03-25T15:31:47.315Z</time></trkpt><trkpt lat="51.3263988" lon="-0.261953"><ele>66.0</ele><time>2026-03-25T15:31:48.315Z</time></trkpt><trkpt lat="51.3264456" lon="-0.2621593"><ele>65.0</ele><time>2026-03-25T15:31:49.315Z</time></trkpt><trkpt lat="51.3264912" lon="-0.2623522"><ele>64.0</ele><time>2026-03-25T15:31:50.315Z</time></trkpt><trkpt lat="51.3265335" lon="-0.26253"><ele>63.0</ele><time>2026-03-25T15:31:51.315Z</time></trkpt><trkpt lat="51.3265758" lon="-0.2627052"><ele>62.599999999999994</ele><time>2026-03-25T15:31:52.314Z</time></trkpt><trkpt lat="51.3266163" lon="-0.2628744"><ele>62.199999999999996</ele><time>2026-03-25T15:31:53.314Z</time></trkpt><trkpt lat="51.3266559" lon="-0.2630357"><ele>61.8</ele><time>2026-03-25T15:31:54.315Z</time></trkpt><trkpt lat="51.3266954" lon="-0.2631844"><ele>61.4</ele><time>2026-03-25T15:31:55.313Z</time></trkpt><trkpt lat="51.3267312" lon="-0.2633216"><ele>61.0</ele><time>2026-03-25T15:31:56.315Z</time></trkpt><trkpt lat="51.3267607" lon="-0.2634442"><ele>60.4</ele><time>2026-03-25T15:31:57.318Z</time></trkpt><trkpt lat="51.3267734" lon="-0.2635526"><ele>59.8</ele><time>2026-03-25T15:31:58.315Z</time></trkpt><trkpt lat="51.3267772" lon="-0.2637213"><ele>59.199999999999996</ele><time>2026-03-25T15:32:00.315Z</time></trkpt><trkpt lat="51.3267894" lon="-0.2638423"><ele>58.599999999999994</ele><time>2026-03-25T15:32:18.314Z</time></trkpt><trkpt lat="51.3268693" lon="-0.2639172"><ele>58.0</ele><time>2026-03-25T15:32:20.318Z</time></trkpt><trkpt lat="51.3269892" lon="-0.2639582"><ele>57.99999999999999</ele><time>2026-03-25T15:32:22.315Z</time></trkpt><trkpt lat="51.3270583" lon="-0.2639773"><ele>58.0</ele><time>2026-03-25T15:32:23.316Z</time></trkpt><trkpt lat="51.3271375" lon="-0.2640004"><ele>58.0</ele><time>2026-03-25T15:32:24.316Z</time></trkpt><trkpt lat="51.3272136" lon="-0.2640198"><ele>58.0</ele><time>2026-03-25T15:32:25.316Z</time></trkpt><trkpt lat="51.3272831" lon="-0.2640369"><ele>57.99999999999999</ele><time>2026-03-25T15:32:26.314Z</time></trkpt><trkpt lat="51.3273487" lon="-0.2640538"><ele>58.0</ele><time>2026-03-25T15:32:27.316Z</time></trkpt><trkpt lat="51.3274519" lon="-0.2641014"><ele>57.666666666666664</ele><time>2026-03-25T15:32:29.316Z</time></trkpt><trkpt lat="51.3275197" lon="-0.264122"><ele>57.33333333333333</ele><time>2026-03-25T15:32:31.317Z</time></trkpt><trkpt lat="51.327603" lon="-0.264165"><ele>57.0</ele><time>2026-03-25T15:32:38.314Z</time></trkpt><trkpt lat="51.3276837" lon="-0.2641774"><ele>56.66666666666667</ele><time>2026-03-25T15:32:39.317Z</time></trkpt><trkpt lat="51.3277828" lon="-0.2641971"><ele>56.333333333333336</ele><time>2026-03-25T15:32:40.314Z</time></trkpt><trkpt lat="51.3278785" lon="-0.2642217"><ele>56.0</ele><time>2026-03-25T15:32:41.315Z</time></trkpt><trkpt lat="51.3279669" lon="-0.2642486"><ele>56.0</ele><time>2026-03-25T15:32:42.316Z</time></trkpt><trkpt lat="51.3280545" lon="-0.2642658"><ele>55.99999999999999</ele><time>2026-03-25T15:32:43.314Z</time></trkpt><trkpt lat="51.3281401" lon="-0.264275"><ele>55.99999999999999</ele><time>2026-03-25T15:32:44.315Z</time></trkpt><trkpt lat="51.3282316" lon="-0.2642839"><ele>56.0</ele><time>2026-03-25T15:32:45.316Z</time></trkpt><trkpt lat="51.3283259" lon="-0.2643006"><ele>56.0</ele><time>2026-03-25T15:32:46.316Z</time></trkpt><trkpt lat="51.3284238" lon="-0.2643257"><ele>55.599999999999994</ele><time>2026-03-25T15:32:47.315Z</time></trkpt><trkpt lat="51.3285199" lon="-0.2643647"><ele>55.199999999999996</ele><time>2026-03-25T15:32:48.314Z</time></trkpt><trkpt lat="51.3286138" lon="-0.2644216"><ele>54.800000000000004</ele><time>2026-03-25T15:32:49.315Z</time></trkpt><trkpt lat="51.3287072" lon="-0.2644872"><ele>54.400000000000006</ele><time>2026-03-25T15:32:50.315Z</time></trkpt><trkpt lat="51.3288062" lon="-0.2645666"><ele>54.0</ele><time>2026-03-25T15:32:51.315Z</time></trkpt><trkpt lat="51.3289154" lon="-0.2646677"><ele>53.75</ele><time>2026-03-25T15:32:52.315Z</time></trkpt><trkpt lat="51.3290284" lon="-0.2647691"><ele>53.5</ele><time>2026-03-25T15:32:53.314Z</time></trkpt><trkpt lat="51.3291438" lon="-0.2648645"><ele>53.25</ele><time>2026-03-25T15:32:54.316Z</time></trkpt><trkpt lat="51.329253" lon="-0.2649623"><ele>53.0</ele><time>2026-03-25T15:32:55.316Z</time></trkpt><trkpt lat="51.3293587" lon="-0.2650529"><ele>53.0</ele><time>2026-03-25T15:32:56.317Z</time></trkpt><trkpt lat="51.3294533" lon="-0.2651404"><ele>53.0</ele><time>2026-03-25T15:32:57.316Z</time></trkpt><trkpt lat="51.3295423" lon="-0.2652244"><ele>53.0</ele><time>2026-03-25T15:32:58.316Z</time></trkpt><trkpt lat="51.3296325" lon="-0.2653019"><ele>53.0</ele><time>2026-03-25T15:32:59.315Z</time></trkpt><trkpt lat="51.3297196" lon="-0.2653771"><ele>53.0</ele><time>2026-03-25T15:33:00.315Z</time></trkpt><trkpt lat="51.3297932" lon="-0.265463"><ele>53.0</ele><time>2026-03-25T15:33:01.316Z</time></trkpt><trkpt lat="51.3298667" lon="-0.2655485"><ele>53.0</ele><time>2026-03-25T15:33:02.316Z</time></trkpt><trkpt lat="51.3299419" lon="-0.2656313"><ele>53.0</ele><time>2026-03-25T15:33:03.317Z</time></trkpt><trkpt lat="51.3300164" lon="-0.2657139"><ele>53.0</ele><time>2026-03-25T15:33:04.315Z</time></trkpt><trkpt lat="51.3300926" lon="-0.265803"><ele>53.0</ele><time>2026-03-25T15:33:05.316Z</time></trkpt><trkpt lat="51.3301679" lon="-0.2658973"><ele>53.0</ele><time>2026-03-25T15:33:06.316Z</time></trkpt><trkpt lat="51.3302516" lon="-0.2659902"><ele>53.0</ele><time>2026-03-25T15:33:07.315Z</time></trkpt><trkpt lat="51.3303379" lon="-0.2660993"><ele>53.0</ele><time>2026-03-25T15:33:08.316Z</time></trkpt><trkpt lat="51.3304225" lon="-0.2662082"><ele>53.0</ele><time>2026-03-25T15:33:09.316Z</time></trkpt><trkpt lat="51.330505" lon="-0.2663146"><ele>53.0</ele><time>2026-03-25T15:33:10.316Z</time></trkpt><trkpt lat="51.3305829" lon="-0.2664184"><ele>53.16666666666667</ele><time>2026-03-25T15:33:11.315Z</time></trkpt><trkpt lat="51.3306556" lon="-0.2665149"><ele>53.333333333333336</ele><time>2026-03-25T15:33:12.315Z</time></trkpt><trkpt lat="51.3307307" lon="-0.2666054"><ele>53.5</ele><time>2026-03-25T15:33:13.316Z</time></trkpt><trkpt lat="51.3308025" lon="-0.2666915"><ele>53.66666666666667</ele><time>2026-03-25T15:33:14.315Z</time></trkpt><trkpt lat="51.3308711" lon="-0.2667679"><ele>53.833333333333336</ele><time>2026-03-25T15:33:15.315Z</time></trkpt><trkpt lat="51.3309327" lon="-0.2668396"><ele>54.0</ele><time>2026-03-25T15:33:16.316Z</time></trkpt><trkpt lat="51.3309978" lon="-0.2668983"><ele>54.0</ele><time>2026-03-25T15:33:17.317Z</time></trkpt><trkpt lat="51.3310599" lon="-0.266942"><ele>54.00000000000001</ele><time>2026-03-25T15:33:18.315Z</time></trkpt><trkpt lat="51.3311213" lon="-0.2669766"><ele>54.00000000000001</ele><time>2026-03-25T15:33:19.316Z</time></trkpt><trkpt lat="51.331244" lon="-0.2669995"><ele>54.0</ele><time>2026-03-25T15:33:21.316Z</time></trkpt><trkpt lat="51.331348" lon="-0.266976"><ele>54.0</ele><time>2026-03-25T15:33:23.314Z</time></trkpt><trkpt lat="51.3314397" lon="-0.266949"><ele>54.0</ele><time>2026-03-25T15:33:25.314Z</time></trkpt><trkpt lat="51.3315175" lon="-0.2669185"><ele>54.0</ele><time>2026-03-25T15:33:27.317Z</time></trkpt><trkpt lat="51.3315844" lon="-0.266902"><ele>54.0</ele><time>2026-03-25T15:33:29.315Z</time></trkpt><trkpt lat="51.3316678" lon="-0.2669149"><ele>54.0</ele><time>2026-03-25T15:33:31.316Z</time></trkpt><trkpt lat="51.3317427" lon="-0.2670023"><ele>54.0</ele><time>2026-03-25T15:33:33.314Z</time></trkpt><trkpt lat="51.3317581" lon="-0.2671608"><ele>54.0</ele><time>2026-03-25T15:33:35.315Z</time></trkpt><trkpt lat="51.3317147" lon="-0.2673499"><ele>54.333333333333336</ele><time>2026-03-25T15:33:37.315Z</time></trkpt><trkpt lat="51.3316836" lon="-0.2674544"><ele>54.66666666666667</ele><time>2026-03-25T15:33:38.315Z</time></trkpt><trkpt lat="51.3316516" lon="-0.2675612"><ele>55.0</ele><time>2026-03-25T15:33:39.314Z</time></trkpt><trkpt lat="51.331625" lon="-0.2676599"><ele>55.333333333333336</ele><time>2026-03-25T15:33:40.316Z</time></trkpt><trkpt lat="51.3315829" lon="-0.2678485"><ele>55.66666666666667</ele><time>2026-03-25T15:33:42.316Z</time></trkpt><trkpt lat="51.3315547" lon="-0.2679593"><ele>56.0</ele><time>2026-03-25T15:33:43.316Z</time></trkpt><trkpt lat="51.331528" lon="-0.268071"><ele>56.16666666666667</ele><time>2026-03-25T15:33:44.315Z</time></trkpt><trkpt lat="51.3315076" lon="-0.2681732"><ele>56.333333333333336</ele><time>2026-03-25T15:33:45.316Z</time></trkpt><trkpt lat="51.3314817" lon="-0.2683308"><ele>56.5</ele><time>2026-03-25T15:33:47.315Z</time></trkpt><trkpt lat="51.331471" lon="-0.2684376"><ele>56.66666666666667</ele><time>2026-03-25T15:33:49.314Z</time></trkpt><trkpt lat="51.3314407" lon="-0.2685706"><ele>56.833333333333336</ele><time>2026-03-25T15:33:52.316Z</time></trkpt><trkpt lat="51.3314051" lon="-0.2686816"><ele>57.0</ele><time>2026-03-25T15:33:55.316Z</time></trkpt><trkpt lat="51.3314277" lon="-0.2687847"><ele>57.0</ele><time>2026-03-25T15:34:13.314Z</time></trkpt><trkpt lat="51.3314367" lon="-0.2689534"><ele>57.0</ele><time>2026-03-25T15:34:15.315Z</time></trkpt><trkpt lat="51.3314172" lon="-0.26909"><ele>57.0</ele><time>2026-03-25T15:34:17.315Z</time></trkpt><trkpt lat="51.331369" lon="-0.269167"><ele>57.0</ele><time>2026-03-25T15:34:19.316Z</time></trkpt><trkpt lat="51.3313067" lon="-0.269182"><ele>57.0</ele><time>2026-03-25T15:34:21.316Z</time></trkpt><trkpt lat="51.331259" lon="-0.2692733"><ele>57.0</ele><time>2026-03-25T15:34:25.314Z</time></trkpt><trkpt lat="51.3313161" lon="-0.2694018"><ele>57.0</ele><time>2026-03-25T15:34:43.314Z</time></trkpt><trkpt lat="51.3313229" lon="-0.2695762"><ele>57.0</ele><time>2026-03-25T15:34:45.313Z</time></trkpt><trkpt lat="51.3313016" lon="-0.2696811"><ele>57.0</ele><time>2026-03-25T15:34:46.313Z</time></trkpt><trkpt lat="51.3312712" lon="-0.2698014"><ele>57.0</ele><time>2026-03-25T15:34:47.313Z</time></trkpt><trkpt lat="51.3312299" lon="-0.2699293"><ele>57.0</ele><time>2026-03-25T15:34:48.313Z</time></trkpt><trkpt lat="51.3311854" lon="-0.2700466"><ele>57.0</ele><time>2026-03-25T15:34:49.314Z</time></trkpt><trkpt lat="51.3311408" lon="-0.2701431"><ele>57.0</ele><time>2026-03-25T15:34:50.314Z</time></trkpt><trkpt lat="51.3310913" lon="-0.270215"><ele>57.0</ele><time>2026-03-25T15:34:51.314Z</time></trkpt><trkpt lat="51.3309831" lon="-0.2702885"><ele>57.0</ele><time>2026-03-25T15:34:53.314Z</time></trkpt><trkpt lat="51.330874" lon="-0.2702993"><ele>57.0</ele><time>2026-03-25T15:34:55.314Z</time></trkpt><trkpt lat="51.3307912" lon="-0.2702885"><ele>57.0</ele><time>2026-03-25T15:34:57.313Z</time></trkpt><trkpt lat="51.3307259" lon="-0.270277"><ele>57.0</ele><time>2026-03-25T15:34:59.314Z</time></trkpt><trkpt lat="51.3306507" lon="-0.2702437"><ele>57.0</ele><time>2026-03-25T15:35:01.314Z</time></trkpt><trkpt lat="51.3305535" lon="-0.2702141"><ele>57.0</ele><time>2026-03-25T15:35:03.315Z</time></trkpt><trkpt lat="51.3304732" lon="-0.2701895"><ele>57.0</ele><time>2026-03-25T15:35:05.314Z</time></trkpt><trkpt lat="51.3304102" lon="-0.2701746"><ele>57.0</ele><time>2026-03-25T15:35:07.314Z</time></trkpt><trkpt lat="51.3303452" lon="-0.2701528"><ele>57.0</ele><time>2026-03-25T15:35:09.314Z</time></trkpt><trkpt lat="51.3302629" lon="-0.2701353"><ele>57.0</ele><time>2026-03-25T15:35:11.314Z</time></trkpt><trkpt lat="51.3301373" lon="-0.2701218"><ele>57.0</ele><time>2026-03-25T15:35:13.314Z</time></trkpt><trkpt lat="51.3300582" lon="-0.2701168"><ele>57.0</ele><time>2026-03-25T15:35:14.314Z</time></trkpt><trkpt lat="51.3299781" lon="-0.2701161"><ele>57.0</ele><time>2026-03-25T15:35:15.314Z</time></trkpt><trkpt lat="51.3299026" lon="-0.2701115"><ele>57.0</ele><time>2026-03-25T15:35:16.313Z</time></trkpt><trkpt lat="51.3298309" lon="-0.2701053"><ele>57.0</ele><time>2026-03-25T15:35:17.313Z</time></trkpt><trkpt lat="51.329759" lon="-0.270097"><ele>57.0</ele><time>2026-03-25T15:35:18.314Z</time></trkpt><trkpt lat="51.3296846" lon="-0.2700842"><ele>56.833333333333336</ele><time>2026-03-25T15:35:19.315Z</time></trkpt><trkpt lat="51.3296095" lon="-0.2700746"><ele>56.66666666666667</ele><time>2026-03-25T15:35:20.313Z</time></trkpt><trkpt lat="51.3295347" lon="-0.270066"><ele>56.5</ele><time>2026-03-25T15:35:21.314Z</time></trkpt><trkpt lat="51.3294624" lon="-0.2700565"><ele>56.333333333333336</ele><time>2026-03-25T15:35:22.313Z</time></trkpt><trkpt lat="51.3293882" lon="-0.2700531"><ele>56.16666666666667</ele><time>2026-03-25T15:35:23.313Z</time></trkpt><trkpt lat="51.3293174" lon="-0.270053"><ele>56.0</ele><time>2026-03-25T15:35:24.313Z</time></trkpt><trkpt lat="51.3292015" lon="-0.270066"><ele>56.00000000000001</ele><time>2026-03-25T15:35:26.313Z</time></trkpt><trkpt lat="51.3291159" lon="-0.2700971"><ele>56.0</ele><time>2026-03-25T15:35:28.319Z</time></trkpt><trkpt lat="51.329049" lon="-0.2701367"><ele>56.0</ele><time>2026-03-25T15:35:30.315Z</time></trkpt><trkpt lat="51.3289777" lon="-0.2701982"><ele>56.0</ele><time>2026-03-25T15:35:32.316Z</time></trkpt><trkpt lat="51.3288985" lon="-0.2702713"><ele>56.00000000000001</ele><time>2026-03-25T15:35:34.315Z</time></trkpt><trkpt lat="51.3288395" lon="-0.270328"><ele>56.0</ele><time>2026-03-25T15:35:36.314Z</time></trkpt><trkpt lat="51.32877" lon="-0.270395"><ele>56.0</ele><time>2026-03-25T15:36:20.318Z</time></trkpt><trkpt lat="51.3286717" lon="-0.2705117"><ele>55.99999999999999</ele><time>2026-03-25T15:36:22.314Z</time></trkpt><trkpt lat="51.3286217" lon="-0.270595"><ele>55.99999999999999</ele><time>2026-03-25T15:36:23.315Z</time></trkpt><trkpt lat="51.3285683" lon="-0.2707017"><ele>56.0</ele><time>2026-03-25T15:36:24.315Z</time></trkpt><trkpt lat="51.3285083" lon="-0.270825"><ele>56.0</ele><time>2026-03-25T15:36:25.317Z</time></trkpt><trkpt lat="51.3284417" lon="-0.2709633"><ele>55.8</ele><time>2026-03-25T15:36:26.315Z</time></trkpt><trkpt lat="51.3283733" lon="-0.271105"><ele>55.599999999999994</ele><time>2026-03-25T15:36:27.319Z</time></trkpt><trkpt lat="51.3283017" lon="-0.2712433"><ele>55.4</ele><time>2026-03-25T15:36:28.314Z</time></trkpt><trkpt lat="51.328235" lon="-0.27138"><ele>55.2</ele><time>2026-03-25T15:36:29.316Z</time></trkpt><trkpt lat="51.32817" lon="-0.2715183"><ele>55.0</ele><time>2026-03-25T15:36:30.316Z</time></trkpt><trkpt lat="51.3281033" lon="-0.2716467"><ele>55.2</ele><time>2026-03-25T15:36:31.317Z</time></trkpt><trkpt lat="51.3280367" lon="-0.2717667"><ele>55.4</ele><time>2026-03-25T15:36:32.316Z</time></trkpt><trkpt lat="51.3279717" lon="-0.2718917"><ele>55.599999999999994</ele><time>2026-03-25T15:36:33.315Z</time></trkpt><trkpt lat="51.3279117" lon="-0.2720133"><ele>55.8</ele><time>2026-03-25T15:36:34.314Z</time></trkpt><trkpt lat="51.3278517" lon="-0.272135"><ele>56.0</ele><time>2026-03-25T15:36:35.317Z</time></trkpt><trkpt lat="51.3277967" lon="-0.2722517"><ele>56.199999999999996</ele><time>2026-03-25T15:36:36.317Z</time></trkpt><trkpt lat="51.3277333" lon="-0.2723667"><ele>56.39999999999999</ele><time>2026-03-25T15:36:37.316Z</time></trkpt><trkpt lat="51.3276683" lon="-0.272475"><ele>56.6</ele><time>2026-03-25T15:36:38.316Z</time></trkpt><trkpt lat="51.3275933" lon="-0.2725833"><ele>56.8</ele><time>2026-03-25T15:36:39.318Z</time></trkpt><trkpt lat="51.3275217" lon="-0.2726967"><ele>57.0</ele><time>2026-03-25T15:36:40.314Z</time></trkpt><trkpt lat="51.3274383" lon="-0.2728067"><ele>57.0</ele><time>2026-03-25T15:36:41.316Z</time></trkpt><trkpt lat="51.3273567" lon="-0.2729167"><ele>57.0</ele><time>2026-03-25T15:36:42.316Z</time></trkpt><trkpt lat="51.32727" lon="-0.2730233"><ele>57.0</ele><time>2026-03-25T15:36:43.317Z</time></trkpt><trkpt lat="51.3271833" lon="-0.273125"><ele>57.0</ele><time>2026-03-25T15:36:44.317Z</time></trkpt><trkpt lat="51.3270917" lon="-0.27322"><ele>57.0</ele><time>2026-03-25T15:36:45.317Z</time></trkpt><trkpt lat="51.3270083" lon="-0.27332"><ele>57.2</ele><time>2026-03-25T15:36:46.319Z</time></trkpt><trkpt lat="51.3269267" lon="-0.2734183"><ele>57.400000000000006</ele><time>2026-03-25T15:36:47.314Z</time></trkpt><trkpt lat="51.3268474" lon="-0.2735153"><ele>57.599999999999994</ele><time>2026-03-25T15:36:48.315Z</time></trkpt><trkpt lat="51.3267673" lon="-0.2736186"><ele>57.8</ele><time>2026-03-25T15:36:49.316Z</time></trkpt><trkpt lat="51.3266834" lon="-0.2737318"><ele>58.0</ele><time>2026-03-25T15:36:50.317Z</time></trkpt><trkpt lat="51.3266017" lon="-0.2738493"><ele>58.599999999999994</ele><time>2026-03-25T15:36:51.317Z</time></trkpt><trkpt lat="51.3265227" lon="-0.2739753"><ele>59.199999999999996</ele><time>2026-03-25T15:36:52.315Z</time></trkpt><trkpt lat="51.3264468" lon="-0.2741101"><ele>59.8</ele><time>2026-03-25T15:36:53.317Z</time></trkpt><trkpt lat="51.3263816" lon="-0.2742439"><ele>60.4</ele><time>2026-03-25T15:36:54.316Z</time></trkpt><trkpt lat="51.3263231" lon="-0.2743741"><ele>61.0</ele><time>2026-03-25T15:36:55.317Z</time></trkpt><trkpt lat="51.326273" lon="-0.2745023"><ele>60.99999999999999</ele><time>2026-03-25T15:36:56.317Z</time></trkpt><trkpt lat="51.32623" lon="-0.2746259"><ele>61.0</ele><time>2026-03-25T15:36:57.316Z</time></trkpt><trkpt lat="51.3261965" lon="-0.2747513"><ele>61.0</ele><time>2026-03-25T15:36:58.315Z</time></trkpt><trkpt lat="51.3261687" lon="-0.274883"><ele>61.0</ele><time>2026-03-25T15:36:59.317Z</time></trkpt><trkpt lat="51.3261414" lon="-0.2750198"><ele>60.99999999999999</ele><time>2026-03-25T15:37:00.317Z</time></trkpt><trkpt lat="51.3261123" lon="-0.27516"><ele>61.0</ele><time>2026-03-25T15:37:01.315Z</time></trkpt><trkpt lat="51.3260849" lon="-0.2752979"><ele>61.599999999999994</ele><time>2026-03-25T15:37:02.314Z</time></trkpt><trkpt lat="51.3260559" lon="-0.2754324"><ele>62.199999999999996</ele><time>2026-03-25T15:37:03.316Z</time></trkpt><trkpt lat="51.3260262" lon="-0.2755657"><ele>62.800000000000004</ele><time>2026-03-25T15:37:04.316Z</time></trkpt><trkpt lat="51.3259939" lon="-0.2757011"><ele>63.400000000000006</ele><time>2026-03-25T15:37:05.317Z</time></trkpt><trkpt lat="51.3259624" lon="-0.2758439"><ele>64.0</ele><time>2026-03-25T15:37:06.313Z</time></trkpt><trkpt lat="51.325928" lon="-0.2759944"><ele>64.2</ele><time>2026-03-25T15:37:07.316Z</time></trkpt><trkpt lat="51.3258969" lon="-0.2761422"><ele>64.4</ele><time>2026-03-25T15:37:08.317Z</time></trkpt><trkpt lat="51.3258662" lon="-0.2762838"><ele>64.6</ele><time>2026-03-25T15:37:09.317Z</time></trkpt><trkpt lat="51.3258367" lon="-0.2764235"><ele>64.8</ele><time>2026-03-25T15:37:10.317Z</time></trkpt><trkpt lat="51.3258046" lon="-0.2765643"><ele>65.0</ele><time>2026-03-25T15:37:11.319Z</time></trkpt><trkpt lat="51.3257728" lon="-0.2767075"><ele>65.0</ele><time>2026-03-25T15:37:12.315Z</time></trkpt><trkpt lat="51.3257383" lon="-0.2768505"><ele>65.0</ele><time>2026-03-25T15:37:13.318Z</time></trkpt><trkpt lat="51.3257017" lon="-0.2769963"><ele>65.0</ele><time>2026-03-25T15:37:14.315Z</time></trkpt><trkpt lat="51.3256621" lon="-0.2771369"><ele>65.0</ele><time>2026-03-25T15:37:15.316Z</time></trkpt><trkpt lat="51.325629" lon="-0.2772727"><ele>65.0</ele><time>2026-03-25T15:37:16.316Z</time></trkpt><trkpt lat="51.325599" lon="-0.2774028"><ele>65.0</ele><time>2026-03-25T15:37:17.316Z</time></trkpt><trkpt lat="51.3255702" lon="-0.2775372"><ele>65.0</ele><time>2026-03-25T15:37:18.316Z</time></trkpt><trkpt lat="51.3255379" lon="-0.2776788"><ele>65.0</ele><time>2026-03-25T15:37:19.317Z</time></trkpt><trkpt lat="51.3254981" lon="-0.2778298"><ele>65.0</ele><time>2026-03-25T15:37:20.315Z</time></trkpt><trkpt lat="51.3254542" lon="-0.2779848"><ele>65.0</ele><time>2026-03-25T15:37:21.317Z</time></trkpt><trkpt lat="51.325404" lon="-0.278145"><ele>65.75</ele><time>2026-03-25T15:37:22.315Z</time></trkpt><trkpt lat="51.3253501" lon="-0.2783091"><ele>66.5</ele><time>2026-03-25T15:37:23.317Z</time></trkpt><trkpt lat="51.3252972" lon="-0.2784743"><ele>67.25</ele><time>2026-03-25T15:37:24.316Z</time></trkpt><trkpt lat="51.3252491" lon="-0.2786386"><ele>68.0</ele><time>2026-03-25T15:37:25.315Z</time></trkpt><trkpt lat="51.3251976" lon="-0.2788102"><ele>68.25</ele><time>2026-03-25T15:37:26.315Z</time></trkpt><trkpt lat="51.3251436" lon="-0.2789861"><ele>68.5</ele><time>2026-03-25T15:37:27.317Z</time></trkpt><trkpt lat="51.3250879" lon="-0.279157"><ele>68.75</ele><time>2026-03-25T15:37:28.317Z</time></trkpt><trkpt lat="51.3250348" lon="-0.2793287"><ele>69.0</ele><time>2026-03-25T15:37:29.318Z</time></trkpt><trkpt lat="51.3249815" lon="-0.2795055"><ele>69.0</ele><time>2026-03-25T15:37:30.318Z</time></trkpt><trkpt lat="51.3249253" lon="-0.2796816"><ele>69.0</ele><time>2026-03-25T15:37:31.318Z</time></trkpt><trkpt lat="51.324871" lon="-0.2798539"><ele>69.0</ele><time>2026-03-25T15:37:32.318Z</time></trkpt><trkpt lat="51.3248163" lon="-0.2800193"><ele>69.0</ele><time>2026-03-25T15:37:33.317Z</time></trkpt><trkpt lat="51.3247635" lon="-0.2801796"><ele>71.25</ele><time>2026-03-25T15:37:34.318Z</time></trkpt><trkpt lat="51.3247072" lon="-0.2803386"><ele>73.5</ele><time>2026-03-25T15:37:35.318Z</time></trkpt><trkpt lat="51.3246489" lon="-0.2804958"><ele>75.75</ele><time>2026-03-25T15:37:36.318Z</time></trkpt><trkpt lat="51.3245932" lon="-0.2806515"><ele>78.0</ele><time>2026-03-25T15:37:37.314Z</time></trkpt><trkpt lat="51.324538" lon="-0.2808042"><ele>78.4</ele><time>2026-03-25T15:37:38.317Z</time></trkpt><trkpt lat="51.3244831" lon="-0.2809571"><ele>78.8</ele><time>2026-03-25T15:37:39.317Z</time></trkpt><trkpt lat="51.3244281" lon="-0.2811102"><ele>79.2</ele><time>2026-03-25T15:37:40.315Z</time></trkpt><trkpt lat="51.3243756" lon="-0.2812647"><ele>79.6</ele><time>2026-03-25T15:37:41.317Z</time></trkpt><trkpt lat="51.3243244" lon="-0.2814171"><ele>80.0</ele><time>2026-03-25T15:37:42.317Z</time></trkpt><trkpt lat="51.3242713" lon="-0.2815697"><ele>80.0</ele><time>2026-03-25T15:37:43.313Z</time></trkpt><trkpt lat="51.3242149" lon="-0.2817292"><ele>80.0</ele><time>2026-03-25T15:37:44.318Z</time></trkpt><trkpt lat="51.3241553" lon="-0.2818967"><ele>80.0</ele><time>2026-03-25T15:37:45.317Z</time></trkpt><trkpt lat="51.3240894" lon="-0.2820727"><ele>80.0</ele><time>2026-03-25T15:37:46.317Z</time></trkpt><trkpt lat="51.3240232" lon="-0.2822508"><ele>80.0</ele><time>2026-03-25T15:37:47.313Z</time></trkpt><trkpt lat="51.3239574" lon="-0.2824253"><ele>80.0</ele><time>2026-03-25T15:37:48.313Z</time></trkpt><trkpt lat="51.3238976" lon="-0.2825924"><ele>80.0</ele><time>2026-03-25T15:37:49.315Z</time></trkpt><trkpt lat="51.323842" lon="-0.2827446"><ele>80.0</ele><time>2026-03-25T15:37:50.315Z</time></trkpt><trkpt lat="51.323789" lon="-0.2828901"><ele>80.75</ele><time>2026-03-25T15:37:51.315Z</time></trkpt><trkpt lat="51.3237324" lon="-0.2830375"><ele>81.5</ele><time>2026-03-25T15:37:52.313Z</time></trkpt><trkpt lat="51.3236711" lon="-0.2831859"><ele>82.25</ele><time>2026-03-25T15:37:53.315Z</time></trkpt><trkpt lat="51.3236036" lon="-0.2833366"><ele>83.0</ele><time>2026-03-25T15:37:54.314Z</time></trkpt><trkpt lat="51.3235301" lon="-0.2834865"><ele>83.0</ele><time>2026-03-25T15:37:55.314Z</time></trkpt><trkpt lat="51.3234509" lon="-0.2836393"><ele>83.0</ele><time>2026-03-25T15:37:56.318Z</time></trkpt><trkpt lat="51.323369" lon="-0.2837925"><ele>83.0</ele><time>2026-03-25T15:37:57.315Z</time></trkpt><trkpt lat="51.3232852" lon="-0.283945"><ele>83.0</ele><time>2026-03-25T15:37:58.316Z</time></trkpt><trkpt lat="51.3232002" lon="-0.2840981"><ele>83.0</ele><time>2026-03-25T15:37:59.314Z</time></trkpt><trkpt lat="51.323116" lon="-0.2842478"><ele>83.0</ele><time>2026-03-25T15:38:00.315Z</time></trkpt><trkpt lat="51.3230321" lon="-0.2843973"><ele>83.0</ele><time>2026-03-25T15:38:01.317Z</time></trkpt><trkpt lat="51.3229419" lon="-0.2845466"><ele>83.0</ele><time>2026-03-25T15:38:02.316Z</time></trkpt><trkpt lat="51.3228524" lon="-0.2847019"><ele>82.25</ele><time>2026-03-25T15:38:03.316Z</time></trkpt><trkpt lat="51.3227605" lon="-0.2848606"><ele>81.5</ele><time>2026-03-25T15:38:04.32Z</time></trkpt><trkpt lat="51.3226711" lon="-0.2850215"><ele>80.75</ele><time>2026-03-25T15:38:05.316Z</time></trkpt><trkpt lat="51.3225825" lon="-0.2851823"><ele>80.0</ele><time>2026-03-25T15:38:06.316Z</time></trkpt><trkpt lat="51.3224929" lon="-0.2853466"><ele>80.0</ele><time>2026-03-25T15:38:07.317Z</time></trkpt><trkpt lat="51.3224042" lon="-0.2855106"><ele>80.0</ele><time>2026-03-25T15:38:08.316Z</time></trkpt><trkpt lat="51.3223108" lon="-0.285674"><ele>80.0</ele><time>2026-03-25T15:38:09.317Z</time></trkpt><trkpt lat="51.3222093" lon="-0.2858415"><ele>80.0</ele><time>2026-03-25T15:38:10.316Z</time></trkpt><trkpt lat="51.3221005" lon="-0.2860119"><ele>79.5</ele><time>2026-03-25T15:38:11.317Z</time></trkpt><trkpt lat="51.3219978" lon="-0.2861861"><ele>79.0</ele><time>2026-03-25T15:38:12.318Z</time></trkpt><trkpt lat="51.3218985" lon="-0.2863506"><ele>78.5</ele><time>2026-03-25T15:38:13.317Z</time></trkpt><trkpt lat="51.3218026" lon="-0.2865124"><ele>78.0</ele><time>2026-03-25T15:38:14.316Z</time></trkpt><trkpt lat="51.3217088" lon="-0.2866751"><ele>77.25</ele><time>2026-03-25T15:38:15.317Z</time></trkpt><trkpt lat="51.3216144" lon="-0.2868282"><ele>76.5</ele><time>2026-03-25T15:38:16.316Z</time></trkpt><trkpt lat="51.3215249" lon="-0.286978"><ele>75.75</ele><time>2026-03-25T15:38:17.317Z</time></trkpt><trkpt lat="51.3214384" lon="-0.2871256"><ele>75.0</ele><time>2026-03-25T15:38:18.315Z</time></trkpt><trkpt lat="51.3213499" lon="-0.2872692"><ele>73.75</ele><time>2026-03-25T15:38:19.315Z</time></trkpt><trkpt lat="51.3212667" lon="-0.2874153"><ele>72.5</ele><time>2026-03-25T15:38:20.316Z</time></trkpt><trkpt lat="51.3211761" lon="-0.2875567"><ele>71.25</ele><time>2026-03-25T15:38:21.316Z</time></trkpt><trkpt lat="51.321071" lon="-0.2876953"><ele>70.0</ele><time>2026-03-25T15:38:22.316Z</time></trkpt><trkpt lat="51.3209419" lon="-0.2878304"><ele>70.0</ele><time>2026-03-25T15:38:23.317Z</time></trkpt><trkpt lat="51.3208019" lon="-0.2879517"><ele>70.0</ele><time>2026-03-25T15:38:24.316Z</time></trkpt><trkpt lat="51.3206637" lon="-0.2880637"><ele>70.0</ele><time>2026-03-25T15:38:25.316Z</time></trkpt><trkpt lat="51.3205313" lon="-0.2881728"><ele>70.25</ele><time>2026-03-25T15:38:26.315Z</time></trkpt><trkpt lat="51.3204098" lon="-0.2882742"><ele>70.5</ele><time>2026-03-25T15:38:27.316Z</time></trkpt><trkpt lat="51.3202913" lon="-0.2883695"><ele>70.75</ele><time>2026-03-25T15:38:28.315Z</time></trkpt><trkpt lat="51.320177" lon="-0.2884574"><ele>71.0</ele><time>2026-03-25T15:38:29.316Z</time></trkpt><trkpt lat="51.320078" lon="-0.2885347"><ele>71.0</ele><time>2026-03-25T15:38:30.316Z</time></trkpt><trkpt lat="51.319991" lon="-0.288604"><ele>71.0</ele><time>2026-03-25T15:38:31.316Z</time></trkpt><trkpt lat="51.3199132" lon="-0.2886656"><ele>71.0</ele><time>2026-03-25T15:38:32.316Z</time></trkpt><trkpt lat="51.3198487" lon="-0.288713"><ele>71.0</ele><time>2026-03-25T15:38:33.317Z</time></trkpt><trkpt lat="51.3197633" lon="-0.2887875"><ele>71.0</ele><time>2026-03-25T15:38:35.315Z</time></trkpt><trkpt lat="51.3196942" lon="-0.2888532"><ele>71.0</ele><time>2026-03-25T15:38:38.317Z</time></trkpt><trkpt lat="51.3196623" lon="-0.28895"><ele>71.28571428571428</ele><time>2026-03-25T15:38:50.314Z</time></trkpt><trkpt lat="51.3196762" lon="-0.2891073"><ele>71.57142857142857</ele><time>2026-03-25T15:38:52.317Z</time></trkpt><trkpt lat="51.3197064" lon="-0.2892089"><ele>71.85714285714286</ele><time>2026-03-25T15:38:53.318Z</time></trkpt><trkpt lat="51.3197363" lon="-0.2893119"><ele>72.14285714285714</ele><time>2026-03-25T15:38:54.317Z</time></trkpt><trkpt lat="51.3197587" lon="-0.2894085"><ele>72.42857142857143</ele><time>2026-03-25T15:38:55.318Z</time></trkpt><trkpt lat="51.3197682" lon="-0.2895138"><ele>72.71428571428571</ele><time>2026-03-25T15:38:56.315Z</time></trkpt><trkpt lat="51.319765" lon="-0.2896352"><ele>73.0</ele><time>2026-03-25T15:38:57.315Z</time></trkpt><trkpt lat="51.319747" lon="-0.2897826"><ele>73.0</ele><time>2026-03-25T15:38:58.317Z</time></trkpt><trkpt lat="51.3197183" lon="-0.2899721"><ele>73.0</ele><time>2026-03-25T15:38:59.314Z</time></trkpt><trkpt lat="51.319688" lon="-0.2901801"><ele>73.0</ele><time>2026-03-25T15:39:00.314Z</time></trkpt><trkpt lat="51.3196598" lon="-0.2903784"><ele>73.0</ele><time>2026-03-25T15:39:01.318Z</time></trkpt><trkpt lat="51.3196379" lon="-0.290558"><ele>72.4</ele><time>2026-03-25T15:39:02.316Z</time></trkpt><trkpt lat="51.319623" lon="-0.2907356"><ele>71.8</ele><time>2026-03-25T15:39:03.317Z</time></trkpt><trkpt lat="51.3196043" lon="-0.2909091"><ele>71.2</ele><time>2026-03-25T15:39:04.318Z</time></trkpt><trkpt lat="51.319587" lon="-0.2910855"><ele>70.6</ele><time>2026-03-25T15:39:05.317Z</time></trkpt><trkpt lat="51.3195702" lon="-0.2912654"><ele>70.0</ele><time>2026-03-25T15:39:06.317Z</time></trkpt><trkpt lat="51.3195525" lon="-0.2914515"><ele>69.75</ele><time>2026-03-25T15:39:07.318Z</time></trkpt><trkpt lat="51.3195373" lon="-0.291644"><ele>69.5</ele><time>2026-03-25T15:39:08.314Z</time></trkpt><trkpt lat="51.3195227" lon="-0.2918413"><ele>69.25</ele><time>2026-03-25T15:39:09.318Z</time></trkpt><trkpt lat="51.3195102" lon="-0.2920456"><ele>69.0</ele><time>2026-03-25T15:39:10.318Z</time></trkpt><trkpt lat="51.3195031" lon="-0.2922503"><ele>68.25</ele><time>2026-03-25T15:39:11.319Z</time></trkpt><trkpt lat="51.3194996" lon="-0.2924483"><ele>67.5</ele><time>2026-03-25T15:39:12.318Z</time></trkpt><trkpt lat="51.3194965" lon="-0.292629"><ele>66.75</ele><time>2026-03-25T15:39:13.318Z</time></trkpt><trkpt lat="51.3194968" lon="-0.2928021"><ele>66.0</ele><time>2026-03-25T15:39:14.317Z</time></trkpt><trkpt lat="51.3194973" lon="-0.292979"><ele>65.75</ele><time>2026-03-25T15:39:15.318Z</time></trkpt><trkpt lat="51.3195007" lon="-0.2931629"><ele>65.5</ele><time>2026-03-25T15:39:16.319Z</time></trkpt><trkpt lat="51.3195138" lon="-0.2933539"><ele>65.25</ele><time>2026-03-25T15:39:17.318Z</time></trkpt><trkpt lat="51.3195254" lon="-0.2935529"><ele>65.0</ele><time>2026-03-25T15:39:18.318Z</time></trkpt><trkpt lat="51.3195319" lon="-0.2937491"><ele>64.6</ele><time>2026-03-25T15:39:19.314Z</time></trkpt><trkpt lat="51.319537" lon="-0.2939362"><ele>64.2</ele><time>2026-03-25T15:39:20.314Z</time></trkpt><trkpt lat="51.3195418" lon="-0.2941138"><ele>63.8</ele><time>2026-03-25T15:39:21.313Z</time></trkpt><trkpt lat="51.3195479" lon="-0.2942772"><ele>63.4</ele><time>2026-03-25T15:39:22.314Z</time></trkpt><trkpt lat="51.3195533" lon="-0.2944391"><ele>63.0</ele><time>2026-03-25T15:39:23.315Z</time></trkpt><trkpt lat="51.319557" lon="-0.2946044"><ele>62.75</ele><time>2026-03-25T15:39:24.313Z</time></trkpt><trkpt lat="51.3195627" lon="-0.2947794"><ele>62.5</ele><time>2026-03-25T15:39:25.315Z</time></trkpt><trkpt lat="51.3195707" lon="-0.2949621"><ele>62.25</ele><time>2026-03-25T15:39:26.316Z</time></trkpt><trkpt lat="51.319582" lon="-0.295153"><ele>62.0</ele><time>2026-03-25T15:39:27.315Z</time></trkpt><trkpt lat="51.319594" lon="-0.2953541"><ele>62.0</ele><time>2026-03-25T15:39:28.314Z</time></trkpt><trkpt lat="51.3196028" lon="-0.295573"><ele>62.0</ele><time>2026-03-25T15:39:29.315Z</time></trkpt><trkpt lat="51.3196128" lon="-0.2958144"><ele>62.0</ele><time>2026-03-25T15:39:30.317Z</time></trkpt><trkpt lat="51.3196241" lon="-0.2960592"><ele>62.0</ele><time>2026-03-25T15:39:31.317Z</time></trkpt><trkpt lat="51.3196318" lon="-0.2962884"><ele>61.25</ele><time>2026-03-25T15:39:32.317Z</time></trkpt><trkpt lat="51.3196376" lon="-0.2965052"><ele>60.5</ele><time>2026-03-25T15:39:33.317Z</time></trkpt><trkpt lat="51.3196452" lon="-0.2967138"><ele>59.75</ele><time>2026-03-25T15:39:34.318Z</time></trkpt><trkpt lat="51.3196517" lon="-0.2969121"><ele>59.0</ele><time>2026-03-25T15:39:35.318Z</time></trkpt><trkpt lat="51.3196537" lon="-0.2970959"><ele>59.00000000000001</ele><time>2026-03-25T15:39:36.318Z</time></trkpt><trkpt lat="51.319651" lon="-0.2972588"><ele>59.0</ele><time>2026-03-25T15:39:37.317Z</time></trkpt><trkpt lat="51.3196427" lon="-0.2973928"><ele>59.0</ele><time>2026-03-25T15:39:38.318Z</time></trkpt><trkpt lat="51.3196354" lon="-0.2974989"><ele>59.0</ele><time>2026-03-25T15:39:39.317Z</time></trkpt><trkpt lat="51.3196299" lon="-0.297629"><ele>59.00000000000001</ele><time>2026-03-25T15:39:41.318Z</time></trkpt><trkpt lat="51.3196355" lon="-0.2977724"><ele>59.0</ele><time>2026-03-25T15:39:43.317Z</time></trkpt><trkpt lat="51.3196185" lon="-0.2979787"><ele>59.16666666666667</ele><time>2026-03-25T15:39:45.317Z</time></trkpt><trkpt lat="51.319603" lon="-0.2981019"><ele>59.333333333333336</ele><time>2026-03-25T15:39:46.318Z</time></trkpt><trkpt lat="51.3195832" lon="-0.298234"><ele>59.5</ele><time>2026-03-25T15:39:47.316Z</time></trkpt><trkpt lat="51.3195651" lon="-0.2983629"><ele>59.66666666666667</ele><time>2026-03-25T15:39:48.317Z</time></trkpt><trkpt lat="51.3195463" lon="-0.2984786"><ele>59.833333333333336</ele><time>2026-03-25T15:39:49.315Z</time></trkpt><trkpt lat="51.3195267" lon="-0.2985835"><ele>60.0</ele><time>2026-03-25T15:39:50.315Z</time></trkpt><trkpt lat="51.3195072" lon="-0.2986865"><ele>60.0</ele><time>2026-03-25T15:39:51.315Z</time></trkpt><trkpt lat="51.3194835" lon="-0.2987962"><ele>60.0</ele><time>2026-03-25T15:39:52.314Z</time></trkpt><trkpt lat="51.3194572" lon="-0.2989107"><ele>60.0</ele><time>2026-03-25T15:39:53.314Z</time></trkpt><trkpt lat="51.3194286" lon="-0.2990243"><ele>60.0</ele><time>2026-03-25T15:39:54.315Z</time></trkpt><trkpt lat="51.3194038" lon="-0.2991336"><ele>60.0</ele><time>2026-03-25T15:39:55.314Z</time></trkpt><trkpt lat="51.3193586" lon="-0.2993145"><ele>60.0</ele><time>2026-03-25T15:39:57.314Z</time></trkpt><trkpt lat="51.3193243" lon="-0.2994148"><ele>60.0</ele><time>2026-03-25T15:39:58.315Z</time></trkpt><trkpt lat="51.3192839" lon="-0.2995355"><ele>60.0</ele><time>2026-03-25T15:39:59.314Z</time></trkpt><trkpt lat="51.319233" lon="-0.2996761"><ele>60.0</ele><time>2026-03-25T15:40:00.318Z</time></trkpt><trkpt lat="51.3191732" lon="-0.2998342"><ele>60.0</ele><time>2026-03-25T15:40:01.318Z</time></trkpt><trkpt lat="51.3191092" lon="-0.2999938"><ele>60.0</ele><time>2026-03-25T15:40:02.317Z</time></trkpt><trkpt lat="51.3190389" lon="-0.3001521"><ele>59.5</ele><time>2026-03-25T15:40:03.318Z</time></trkpt><trkpt lat="51.3189647" lon="-0.3003122"><ele>59.0</ele><time>2026-03-25T15:40:04.317Z</time></trkpt><trkpt lat="51.3188923" lon="-0.3004683"><ele>58.5</ele><time>2026-03-25T15:40:05.315Z</time></trkpt><trkpt lat="51.3188266" lon="-0.3006173"><ele>58.0</ele><time>2026-03-25T15:40:06.318Z</time></trkpt><trkpt lat="51.3187654" lon="-0.3007571"><ele>57.599999999999994</ele><time>2026-03-25T15:40:07.317Z</time></trkpt><trkpt lat="51.3187046" lon="-0.3008888"><ele>57.199999999999996</ele><time>2026-03-25T15:40:08.317Z</time></trkpt><trkpt lat="51.3186429" lon="-0.3010206"><ele>56.8</ele><time>2026-03-25T15:40:09.316Z</time></trkpt><trkpt lat="51.3185813" lon="-0.3011514"><ele>56.4</ele><time>2026-03-25T15:40:10.314Z</time></trkpt><trkpt lat="51.3185253" lon="-0.3012756"><ele>56.0</ele><time>2026-03-25T15:40:11.318Z</time></trkpt><trkpt lat="51.3184733" lon="-0.3013872"><ele>55.66666666666667</ele><time>2026-03-25T15:40:12.318Z</time></trkpt><trkpt lat="51.3184251" lon="-0.3014825"><ele>55.333333333333336</ele><time>2026-03-25T15:40:13.317Z</time></trkpt><trkpt lat="51.3183774" lon="-0.3015726"><ele>55.0</ele><time>2026-03-25T15:40:14.314Z</time></trkpt><trkpt lat="51.3183332" lon="-0.3016658"><ele>54.66666666666667</ele><time>2026-03-25T15:40:15.314Z</time></trkpt><trkpt lat="51.3182862" lon="-0.3017736"><ele>54.333333333333336</ele><time>2026-03-25T15:40:16.313Z</time></trkpt><trkpt lat="51.3182352" lon="-0.3018988"><ele>54.0</ele><time>2026-03-25T15:40:17.313Z</time></trkpt><trkpt lat="51.3181751" lon="-0.3020354"><ele>54.0</ele><time>2026-03-25T15:40:18.315Z</time></trkpt><trkpt lat="51.3181019" lon="-0.3021746"><ele>54.0</ele><time>2026-03-25T15:40:19.314Z</time></trkpt><trkpt lat="51.3180198" lon="-0.3023125"><ele>54.0</ele><time>2026-03-25T15:40:20.316Z</time></trkpt><trkpt lat="51.3179339" lon="-0.302451"><ele>54.0</ele><time>2026-03-25T15:40:21.314Z</time></trkpt><trkpt lat="51.3178479" lon="-0.3025915"><ele>54.0</ele><time>2026-03-25T15:40:22.313Z</time></trkpt><trkpt lat="51.3177596" lon="-0.3027388"><ele>54.0</ele><time>2026-03-25T15:40:23.313Z</time></trkpt><trkpt lat="51.3176723" lon="-0.3028902"><ele>54.0</ele><time>2026-03-25T15:40:24.314Z</time></trkpt><trkpt lat="51.3175866" lon="-0.3030452"><ele>54.0</ele><time>2026-03-25T15:40:25.313Z</time></trkpt><trkpt lat="51.3174969" lon="-0.3032048"><ele>54.0</ele><time>2026-03-25T15:40:26.313Z</time></trkpt><trkpt lat="51.3174041" lon="-0.3033639"><ele>54.0</ele><time>2026-03-25T15:40:27.314Z</time></trkpt><trkpt lat="51.3173116" lon="-0.3035268"><ele>54.0</ele><time>2026-03-25T15:40:28.314Z</time></trkpt><trkpt lat="51.3172158" lon="-0.3036969"><ele>54.0</ele><time>2026-03-25T15:40:29.313Z</time></trkpt><trkpt lat="51.317114" lon="-0.303874"><ele>54.25</ele><time>2026-03-25T15:40:30.313Z</time></trkpt><trkpt lat="51.3170074" lon="-0.3040503"><ele>54.5</ele><time>2026-03-25T15:40:31.313Z</time></trkpt><trkpt lat="51.316908" lon="-0.3042179"><ele>54.75</ele><time>2026-03-25T15:40:32.314Z</time></trkpt><trkpt lat="51.3168126" lon="-0.3043716"><ele>55.0</ele><time>2026-03-25T15:40:33.314Z</time></trkpt><trkpt lat="51.3167261" lon="-0.3045114"><ele>54.99999999999999</ele><time>2026-03-25T15:40:34.314Z</time></trkpt><trkpt lat="51.3166483" lon="-0.3046383"><ele>55.0</ele><time>2026-03-25T15:40:35.318Z</time></trkpt><trkpt lat="51.3165801" lon="-0.3047554"><ele>55.0</ele><time>2026-03-25T15:40:36.316Z</time></trkpt><trkpt lat="51.3165213" lon="-0.3048566"><ele>55.0</ele><time>2026-03-25T15:40:37.313Z</time></trkpt><trkpt lat="51.3164664" lon="-0.3049456"><ele>54.99999999999999</ele><time>2026-03-25T15:40:38.318Z</time></trkpt><trkpt lat="51.3164111" lon="-0.3050065"><ele>55.0</ele><time>2026-03-25T15:40:39.316Z</time></trkpt><trkpt lat="51.3162901" lon="-0.3050777"><ele>55.166666666666664</ele><time>2026-03-25T15:40:41.316Z</time></trkpt><trkpt lat="51.3162241" lon="-0.3050928"><ele>55.33333333333333</ele><time>2026-03-25T15:40:42.317Z</time></trkpt><trkpt lat="51.3161132" lon="-0.3051225"><ele>55.5</ele><time>2026-03-25T15:40:44.318Z</time></trkpt><trkpt lat="51.3160394" lon="-0.3052101"><ele>55.66666666666667</ele><time>2026-03-25T15:40:46.318Z</time></trkpt><trkpt lat="51.3160008" lon="-0.3053439"><ele>55.833333333333336</ele><time>2026-03-25T15:40:48.314Z</time></trkpt><trkpt lat="51.3159769" lon="-0.3054584"><ele>56.0</ele><time>2026-03-25T15:40:50.316Z</time></trkpt><trkpt lat="51.3159638" lon="-0.3055692"><ele>56.00000000000001</ele><time>2026-03-25T15:40:54.316Z</time></trkpt><trkpt lat="51.3159455" lon="-0.3056823"><ele>56.0</ele><time>2026-03-25T15:40:59.315Z</time></trkpt><trkpt lat="51.3159281" lon="-0.3058032"><ele>56.0</ele><time>2026-03-25T15:41:02.314Z</time></trkpt><trkpt lat="51.3159101" lon="-0.3059055"><ele>56.0</ele><time>2026-03-25T15:41:04.318Z</time></trkpt><trkpt lat="51.3158866" lon="-0.3060228"><ele>56.00000000000001</ele><time>2026-03-25T15:41:06.317Z</time></trkpt><trkpt lat="51.315843" lon="-0.3061634"><ele>56.0</ele><time>2026-03-25T15:41:08.314Z</time></trkpt><trkpt lat="51.3157799" lon="-0.3063229"><ele>55.8</ele><time>2026-03-25T15:41:10.313Z</time></trkpt><trkpt lat="51.3157161" lon="-0.3064664"><ele>55.599999999999994</ele><time>2026-03-25T15:41:12.315Z</time></trkpt><trkpt lat="51.3156586" lon="-0.3065809"><ele>55.4</ele><time>2026-03-25T15:41:14.313Z</time></trkpt><trkpt lat="51.3155832" lon="-0.306716"><ele>55.2</ele><time>2026-03-25T15:41:16.313Z</time></trkpt><trkpt lat="51.3155391" lon="-0.3067973"><ele>55.0</ele><time>2026-03-25T15:41:17.315Z</time></trkpt><trkpt lat="51.3154977" lon="-0.3068852"><ele>55.0</ele><time>2026-03-25T15:41:18.314Z</time></trkpt><trkpt lat="51.3154571" lon="-0.3069755"><ele>55.0</ele><time>2026-03-25T15:41:19.315Z</time></trkpt><trkpt lat="51.3154157" lon="-0.307057"><ele>55.0</ele><time>2026-03-25T15:41:20.314Z</time></trkpt><trkpt lat="51.3153424" lon="-0.3072107"><ele>55.0</ele><time>2026-03-25T15:41:22.313Z</time></trkpt><trkpt lat="51.3152774" lon="-0.3073599"><ele>55.0</ele><time>2026-03-25T15:41:24.313Z</time></trkpt><trkpt lat="51.315214" lon="-0.3075012"><ele>55.166666666666664</ele><time>2026-03-25T15:41:26.313Z</time></trkpt><trkpt lat="51.3151466" lon="-0.3076473"><ele>55.33333333333333</ele><time>2026-03-25T15:41:28.313Z</time></trkpt><trkpt lat="51.3151132" lon="-0.3077335"><ele>55.5</ele><time>2026-03-25T15:41:29.313Z</time></trkpt><trkpt lat="51.3150744" lon="-0.3078313"><ele>55.66666666666667</ele><time>2026-03-25T15:41:30.313Z</time></trkpt><trkpt lat="51.3150281" lon="-0.3079351"><ele>55.833333333333336</ele><time>2026-03-25T15:41:31.314Z</time></trkpt><trkpt lat="51.3149826" lon="-0.308031"><ele>56.0</ele><time>2026-03-25T15:41:32.411Z</time></trkpt><trkpt lat="51.3149079" lon="-0.3081763"><ele>56.00000000000001</ele><time>2026-03-25T15:41:34.314Z</time></trkpt><trkpt lat="51.3148581" lon="-0.3082767"><ele>56.0</ele><time>2026-03-25T15:41:36.316Z</time></trkpt><trkpt lat="51.3148029" lon="-0.3083529"><ele>56.0</ele><time>2026-03-25T15:41:38.316Z</time></trkpt><trkpt lat="51.3147441" lon="-0.308429"><ele>56.0</ele><time>2026-03-25T15:41:40.316Z</time></trkpt><trkpt lat="51.3146584" lon="-0.3085395"><ele>56.00000000000001</ele><time>2026-03-25T15:41:42.316Z</time></trkpt><trkpt lat="51.3146031" lon="-0.30861"><ele>56.0</ele><time>2026-03-25T15:41:43.315Z</time></trkpt><trkpt lat="51.3145457" lon="-0.30868"><ele>56.0</ele><time>2026-03-25T15:41:44.316Z</time></trkpt><trkpt lat="51.3144958" lon="-0.3087424"><ele>55.99999999999999</ele><time>2026-03-25T15:41:45.317Z</time></trkpt><trkpt lat="51.31441" lon="-0.3088481"><ele>55.99999999999999</ele><time>2026-03-25T15:41:47.315Z</time></trkpt><trkpt lat="51.3143334" lon="-0.3089571"><ele>56.0</ele><time>2026-03-25T15:41:49.315Z</time></trkpt><trkpt lat="51.314258" lon="-0.3090798"><ele>56.0</ele><time>2026-03-25T15:41:51.314Z</time></trkpt><trkpt lat="51.3141956" lon="-0.3091981"><ele>55.8</ele><time>2026-03-25T15:41:53.314Z</time></trkpt><trkpt lat="51.314143" lon="-0.3093133"><ele>55.599999999999994</ele><time>2026-03-25T15:41:55.315Z</time></trkpt><trkpt lat="51.3141007" lon="-0.3094234"><ele>55.4</ele><time>2026-03-25T15:41:57.314Z</time></trkpt><trkpt lat="51.3140512" lon="-0.3095353"><ele>55.2</ele><time>2026-03-25T15:41:59.316Z</time></trkpt><trkpt lat="51.3139874" lon="-0.3096645"><ele>55.0</ele><time>2026-03-25T15:42:01.316Z</time></trkpt><trkpt lat="51.3139267" lon="-0.3097898"><ele>54.83333333333333</ele><time>2026-03-25T15:42:03.316Z</time></trkpt><trkpt lat="51.3138719" lon="-0.3099044"><ele>54.666666666666664</ele><time>2026-03-25T15:42:05.315Z</time></trkpt><trkpt lat="51.313813" lon="-0.3100106"><ele>54.5</ele><time>2026-03-25T15:42:07.316Z</time></trkpt><trkpt lat="51.3137624" lon="-0.310106"><ele>54.33333333333333</ele><time>2026-03-25T15:42:09.316Z</time></trkpt><trkpt lat="51.3137147" lon="-0.3102026"><ele>54.166666666666664</ele><time>2026-03-25T15:42:11.316Z</time></trkpt><trkpt lat="51.3136592" lon="-0.310305"><ele>54.0</ele><time>2026-03-25T15:42:13.315Z</time></trkpt><trkpt lat="51.313619" lon="-0.3103972"><ele>54.0</ele><time>2026-03-25T15:42:15.316Z</time></trkpt><trkpt lat="51.313571" lon="-0.3104875"><ele>54.00000000000001</ele><time>2026-03-25T15:42:17.316Z</time></trkpt><trkpt lat="51.3135158" lon="-0.3105917"><ele>54.00000000000001</ele><time>2026-03-25T15:42:19.315Z</time></trkpt><trkpt lat="51.3134536" lon="-0.3107132"><ele>54.0</ele><time>2026-03-25T15:42:21.319Z</time></trkpt><trkpt lat="51.3133879" lon="-0.3108453"><ele>54.0</ele><time>2026-03-25T15:42:23.315Z</time></trkpt><trkpt lat="51.3133242" lon="-0.3109646"><ele>54.0</ele><time>2026-03-25T15:42:25.315Z</time></trkpt><trkpt lat="51.3132529" lon="-0.311088"><ele>54.0</ele><time>2026-03-25T15:42:27.316Z</time></trkpt><trkpt lat="51.3131797" lon="-0.3112316"><ele>54.0</ele><time>2026-03-25T15:42:29.315Z</time></trkpt><trkpt lat="51.3130991" lon="-0.3113797"><ele>54.0</ele><time>2026-03-25T15:42:31.318Z</time></trkpt><trkpt lat="51.3130276" lon="-0.3115094"><ele>54.2</ele><time>2026-03-25T15:42:33.319Z</time></trkpt><trkpt lat="51.3129569" lon="-0.3116532"><ele>54.400000000000006</ele><time>2026-03-25T15:42:35.317Z</time></trkpt><trkpt lat="51.31287" lon="-0.3118329"><ele>54.6</ele><time>2026-03-25T15:42:37.318Z</time></trkpt><trkpt lat="51.3128128" lon="-0.311948"><ele>54.8</ele><time>2026-03-25T15:42:38.318Z</time></trkpt><trkpt lat="51.3127577" lon="-0.3120562"><ele>55.0</ele><time>2026-03-25T15:42:39.317Z</time></trkpt><trkpt lat="51.3127074" lon="-0.3121511"><ele>54.99999999999999</ele><time>2026-03-25T15:42:40.315Z</time></trkpt><trkpt lat="51.3126596" lon="-0.3122421"><ele>55.0</ele><time>2026-03-25T15:42:41.318Z</time></trkpt><trkpt lat="51.3126108" lon="-0.3123356"><ele>55.0</ele><time>2026-03-25T15:42:42.317Z</time></trkpt><trkpt lat="51.3125637" lon="-0.3124293"><ele>55.0</ele><time>2026-03-25T15:42:43.318Z</time></trkpt><trkpt lat="51.3125204" lon="-0.3125191"><ele>55.0</ele><time>2026-03-25T15:42:44.316Z</time></trkpt><trkpt lat="51.3124793" lon="-0.3126043"><ele>54.99999999999999</ele><time>2026-03-25T15:42:45.318Z</time></trkpt><trkpt lat="51.3124371" lon="-0.3126941"><ele>55.0</ele><time>2026-03-25T15:42:46.317Z</time></trkpt><trkpt lat="51.3123914" lon="-0.3127897"><ele>54.99999999999999</ele><time>2026-03-25T15:42:47.317Z</time></trkpt><trkpt lat="51.3123445" lon="-0.3128826"><ele>55.0</ele><time>2026-03-25T15:42:48.315Z</time></trkpt><trkpt lat="51.312302" lon="-0.3129695"><ele>55.0</ele><time>2026-03-25T15:42:49.314Z</time></trkpt><trkpt lat="51.312228" lon="-0.3131315"><ele>55.0</ele><time>2026-03-25T15:42:51.317Z</time></trkpt><trkpt lat="51.3121899" lon="-0.3132169"><ele>54.99999999999999</ele><time>2026-03-25T15:42:52.315Z</time></trkpt><trkpt lat="51.3121502" lon="-0.3133063"><ele>55.0</ele><time>2026-03-25T15:42:53.316Z</time></trkpt><trkpt lat="51.3121101" lon="-0.3133935"><ele>55.2</ele><time>2026-03-25T15:42:54.319Z</time></trkpt><trkpt lat="51.3120385" lon="-0.3135351"><ele>55.4</ele><time>2026-03-25T15:42:56.316Z</time></trkpt><trkpt lat="51.3119842" lon="-0.3136693"><ele>55.599999999999994</ele><time>2026-03-25T15:42:58.318Z</time></trkpt><trkpt lat="51.3119125" lon="-0.3138429"><ele>55.8</ele><time>2026-03-25T15:43:00.314Z</time></trkpt><trkpt lat="51.3118657" lon="-0.3139524"><ele>56.0</ele><time>2026-03-25T15:43:01.319Z</time></trkpt><trkpt lat="51.3118172" lon="-0.3140778"><ele>55.599999999999994</ele><time>2026-03-25T15:43:02.319Z</time></trkpt><trkpt lat="51.3117697" lon="-0.31421"><ele>55.199999999999996</ele><time>2026-03-25T15:43:03.318Z</time></trkpt><trkpt lat="51.3117239" lon="-0.3143401"><ele>54.800000000000004</ele><time>2026-03-25T15:43:04.318Z</time></trkpt><trkpt lat="51.3116804" lon="-0.3144672"><ele>54.400000000000006</ele><time>2026-03-25T15:43:05.315Z</time></trkpt><trkpt lat="51.3116335" lon="-0.3145876"><ele>54.0</ele><time>2026-03-25T15:43:06.317Z</time></trkpt><trkpt lat="51.3115892" lon="-0.3147072"><ele>53.800000000000004</ele><time>2026-03-25T15:43:07.318Z</time></trkpt><trkpt lat="51.3115388" lon="-0.3148341"><ele>53.60000000000001</ele><time>2026-03-25T15:43:08.315Z</time></trkpt><trkpt lat="51.3114816" lon="-0.3149694"><ele>53.4</ele><time>2026-03-25T15:43:09.32Z</time></trkpt><trkpt lat="51.3114217" lon="-0.3151096"><ele>53.2</ele><time>2026-03-25T15:43:10.314Z</time></trkpt><trkpt lat="51.3113641" lon="-0.3152505"><ele>53.0</ele><time>2026-03-25T15:43:11.316Z</time></trkpt><trkpt lat="51.3113113" lon="-0.3153847"><ele>53.0</ele><time>2026-03-25T15:43:12.317Z</time></trkpt><trkpt lat="51.3112536" lon="-0.3155192"><ele>53.0</ele><time>2026-03-25T15:43:13.317Z</time></trkpt><trkpt lat="51.3111962" lon="-0.3156599"><ele>53.0</ele><time>2026-03-25T15:43:14.317Z</time></trkpt><trkpt lat="51.3111334" lon="-0.315817"><ele>53.0</ele><time>2026-03-25T15:43:15.315Z</time></trkpt><trkpt lat="51.3110697" lon="-0.3159796"><ele>53.0</ele><time>2026-03-25T15:43:16.315Z</time></trkpt><trkpt lat="51.3110113" lon="-0.3161396"><ele>52.599999999999994</ele><time>2026-03-25T15:43:17.314Z</time></trkpt><trkpt lat="51.3109559" lon="-0.316295"><ele>52.199999999999996</ele><time>2026-03-25T15:43:18.317Z</time></trkpt><trkpt lat="51.3109028" lon="-0.3164501"><ele>51.8</ele><time>2026-03-25T15:43:19.317Z</time></trkpt><trkpt lat="51.3108499" lon="-0.3166056"><ele>51.4</ele><time>2026-03-25T15:43:20.318Z</time></trkpt><trkpt lat="51.3107955" lon="-0.3167672"><ele>51.0</ele><time>2026-03-25T15:43:21.314Z</time></trkpt><trkpt lat="51.3107391" lon="-0.3169318"><ele>50.8</ele><time>2026-03-25T15:43:22.315Z</time></trkpt><trkpt lat="51.3106851" lon="-0.3170885"><ele>50.599999999999994</ele><time>2026-03-25T15:43:23.314Z</time></trkpt><trkpt lat="51.3106306" lon="-0.3172366"><ele>50.4</ele><time>2026-03-25T15:43:24.314Z</time></trkpt><trkpt lat="51.3105795" lon="-0.3173827"><ele>50.2</ele><time>2026-03-25T15:43:25.314Z</time></trkpt><trkpt lat="51.3105272" lon="-0.3175278"><ele>50.0</ele><time>2026-03-25T15:43:26.315Z</time></trkpt><trkpt lat="51.3104803" lon="-0.3176751"><ele>50.0</ele><time>2026-03-25T15:43:27.314Z</time></trkpt><trkpt lat="51.3104298" lon="-0.3178208"><ele>50.0</ele><time>2026-03-25T15:43:28.314Z</time></trkpt><trkpt lat="51.3103781" lon="-0.31797"><ele>50.0</ele><time>2026-03-25T15:43:29.315Z</time></trkpt><trkpt lat="51.3103245" lon="-0.3181186"><ele>50.0</ele><time>2026-03-25T15:43:30.317Z</time></trkpt><trkpt lat="51.3102672" lon="-0.3182691"><ele>50.0</ele><time>2026-03-25T15:43:31.315Z</time></trkpt><trkpt lat="51.3102087" lon="-0.3184238"><ele>50.0</ele><time>2026-03-25T15:43:32.317Z</time></trkpt><trkpt lat="51.3101529" lon="-0.3185817"><ele>50.0</ele><time>2026-03-25T15:43:33.315Z</time></trkpt><trkpt lat="51.3100979" lon="-0.3187388"><ele>50.0</ele><time>2026-03-25T15:43:34.314Z</time></trkpt><trkpt lat="51.3100417" lon="-0.3188882"><ele>50.0</ele><time>2026-03-25T15:43:35.313Z</time></trkpt><trkpt lat="51.3099849" lon="-0.3190246"><ele>50.0</ele><time>2026-03-25T15:43:36.315Z</time></trkpt><trkpt lat="51.3099348" lon="-0.3191398"><ele>49.833333333333336</ele><time>2026-03-25T15:43:37.318Z</time></trkpt><trkpt lat="51.3098941" lon="-0.3192375"><ele>49.66666666666667</ele><time>2026-03-25T15:43:38.319Z</time></trkpt><trkpt lat="51.3098589" lon="-0.3193262"><ele>49.5</ele><time>2026-03-25T15:43:39.317Z</time></trkpt><trkpt lat="51.3098233" lon="-0.3194109"><ele>49.33333333333333</ele><time>2026-03-25T15:43:40.313Z</time></trkpt><trkpt lat="51.3097552" lon="-0.3195564"><ele>49.166666666666664</ele><time>2026-03-25T15:43:42.315Z</time></trkpt><trkpt lat="51.309688" lon="-0.3196859"><ele>49.0</ele><time>2026-03-25T15:43:44.315Z</time></trkpt><trkpt lat="51.3096152" lon="-0.3198223"><ele>48.99999999999999</ele><time>2026-03-25T15:43:46.315Z</time></trkpt><trkpt lat="51.3095385" lon="-0.3199588"><ele>49.0</ele><time>2026-03-25T15:43:48.316Z</time></trkpt><trkpt lat="51.3094562" lon="-0.320093"><ele>49.0</ele><time>2026-03-25T15:43:50.315Z</time></trkpt><trkpt lat="51.3094045" lon="-0.320166"><ele>49.0</ele><time>2026-03-25T15:43:51.315Z</time></trkpt><trkpt lat="51.3093509" lon="-0.3202381"><ele>48.99999999999999</ele><time>2026-03-25T15:43:52.314Z</time></trkpt><trkpt lat="51.3093008" lon="-0.3203086"><ele>49.0</ele><time>2026-03-25T15:43:53.314Z</time></trkpt><trkpt lat="51.3092521" lon="-0.3203731"><ele>48.99999999999999</ele><time>2026-03-25T15:43:54.315Z</time></trkpt><trkpt lat="51.3091796" lon="-0.320452"><ele>49.0</ele><time>2026-03-25T15:43:56.315Z</time></trkpt><trkpt lat="51.3091223" lon="-0.3205105"><ele>49.0</ele><time>2026-03-25T15:43:58.314Z</time></trkpt><trkpt lat="51.3090348" lon="-0.3205954"><ele>49.0</ele><time>2026-03-25T15:44:00.314Z</time></trkpt><trkpt lat="51.3089731" lon="-0.3206728"><ele>48.99999999999999</ele><time>2026-03-25T15:44:01.314Z</time></trkpt><trkpt lat="51.3089075" lon="-0.3207656"><ele>49.0</ele><time>2026-03-25T15:44:02.316Z</time></trkpt><trkpt lat="51.3088427" lon="-0.3208653"><ele>49.0</ele><time>2026-03-25T15:44:03.314Z</time></trkpt><trkpt lat="51.3087839" lon="-0.3209603"><ele>49.0</ele><time>2026-03-25T15:44:04.313Z</time></trkpt><trkpt lat="51.3087282" lon="-0.3210492"><ele>49.0</ele><time>2026-03-25T15:44:05.314Z</time></trkpt><trkpt lat="51.308676" lon="-0.3211341"><ele>49.0</ele><time>2026-03-25T15:44:06.315Z</time></trkpt><trkpt lat="51.3086284" lon="-0.3212164"><ele>49.0</ele><time>2026-03-25T15:44:07.314Z</time></trkpt><trkpt lat="51.3085817" lon="-0.3212943"><ele>49.0</ele><time>2026-03-25T15:44:08.315Z</time></trkpt><trkpt lat="51.3085357" lon="-0.3213704"><ele>49.0</ele><time>2026-03-25T15:44:09.315Z</time></trkpt><trkpt lat="51.308483" lon="-0.3214473"><ele>48.99999999999999</ele><time>2026-03-25T15:44:10.316Z</time></trkpt><trkpt lat="51.3084262" lon="-0.3215335"><ele>49.0</ele><time>2026-03-25T15:44:11.313Z</time></trkpt><trkpt lat="51.3083677" lon="-0.3216262"><ele>49.0</ele><time>2026-03-25T15:44:12.315Z</time></trkpt><trkpt lat="51.3083144" lon="-0.321724"><ele>49.0</ele><time>2026-03-25T15:44:13.315Z</time></trkpt><trkpt lat="51.3082682" lon="-0.321813"><ele>48.99999999999999</ele><time>2026-03-25T15:44:14.315Z</time></trkpt><trkpt lat="51.3082274" lon="-0.3218924"><ele>49.0</ele><time>2026-03-25T15:44:15.314Z</time></trkpt><trkpt lat="51.3081519" lon="-0.3220234"><ele>48.99999999999999</ele><time>2026-03-25T15:44:17.314Z</time></trkpt><trkpt lat="51.3080927" lon="-0.322133"><ele>49.0</ele><time>2026-03-25T15:44:19.314Z</time></trkpt><trkpt lat="51.3080288" lon="-0.3222407"><ele>49.0</ele><time>2026-03-25T15:44:21.315Z</time></trkpt><trkpt lat="51.3079583" lon="-0.3223752"><ele>49.0</ele><time>2026-03-25T15:44:23.313Z</time></trkpt><trkpt lat="51.3079146" lon="-0.3224537"><ele>48.99999999999999</ele><time>2026-03-25T15:44:24.315Z</time></trkpt><trkpt lat="51.3078683" lon="-0.3225373"><ele>49.0</ele><time>2026-03-25T15:44:25.313Z</time></trkpt><trkpt lat="51.3078198" lon="-0.3226227"><ele>48.99999999999999</ele><time>2026-03-25T15:44:26.315Z</time></trkpt><trkpt lat="51.3077632" lon="-0.3227102"><ele>49.0</ele><time>2026-03-25T15:44:27.315Z</time></trkpt><trkpt lat="51.3077042" lon="-0.3227993"><ele>49.0</ele><time>2026-03-25T15:44:28.314Z</time></trkpt><trkpt lat="51.3076422" lon="-0.3228929"><ele>49.0</ele><time>2026-03-25T15:44:29.313Z</time></trkpt><trkpt lat="51.3075804" lon="-0.3229899"><ele>48.99999999999999</ele><time>2026-03-25T15:44:30.315Z</time></trkpt><trkpt lat="51.3075155" lon="-0.3230959"><ele>49.0</ele><time>2026-03-25T15:44:31.313Z</time></trkpt><trkpt lat="51.3074523" lon="-0.3232082"><ele>49.2</ele><time>2026-03-25T15:44:32.314Z</time></trkpt><trkpt lat="51.3073864" lon="-0.3233261"><ele>49.400000000000006</ele><time>2026-03-25T15:44:33.314Z</time></trkpt><trkpt lat="51.3073246" lon="-0.3234353"><ele>49.6</ele><time>2026-03-25T15:44:34.315Z</time></trkpt><trkpt lat="51.307257" lon="-0.3235435"><ele>49.8</ele><time>2026-03-25T15:44:35.316Z</time></trkpt><trkpt lat="51.3071812" lon="-0.3236576"><ele>50.0</ele><time>2026-03-25T15:44:36.315Z</time></trkpt><trkpt lat="51.3071091" lon="-0.3237523"><ele>50.0</ele><time>2026-03-25T15:44:37.315Z</time></trkpt><trkpt lat="51.3070699" lon="-0.3238584"><ele>50.0</ele><time>2026-03-25T15:44:38.314Z</time></trkpt><trkpt lat="51.3070224" lon="-0.3239725"><ele>50.0</ele><time>2026-03-25T15:44:39.314Z</time></trkpt><trkpt lat="51.3069531" lon="-0.3240991"><ele>50.0</ele><time>2026-03-25T15:44:40.316Z</time></trkpt><trkpt lat="51.3068892" lon="-0.3242169"><ele>50.0</ele><time>2026-03-25T15:44:41.315Z</time></trkpt><trkpt lat="51.3068231" lon="-0.3243303"><ele>49.4</ele><time>2026-03-25T15:44:42.317Z</time></trkpt><trkpt lat="51.3067556" lon="-0.3244424"><ele>48.8</ele><time>2026-03-25T15:44:43.315Z</time></trkpt><trkpt lat="51.3066634" lon="-0.3245291"><ele>48.2</ele><time>2026-03-25T15:44:44.315Z</time></trkpt><trkpt lat="51.3065921" lon="-0.3246223"><ele>47.6</ele><time>2026-03-25T15:44:45.316Z</time></trkpt><trkpt lat="51.3065291" lon="-0.3247266"><ele>47.0</ele><time>2026-03-25T15:44:46.314Z</time></trkpt><trkpt lat="51.3064686" lon="-0.3248322"><ele>46.5</ele><time>2026-03-25T15:44:47.315Z</time></trkpt><trkpt lat="51.3064097" lon="-0.3249358"><ele>46.0</ele><time>2026-03-25T15:44:48.315Z</time></trkpt><trkpt lat="51.3063523" lon="-0.3250413"><ele>45.5</ele><time>2026-03-25T15:44:49.317Z</time></trkpt><trkpt lat="51.3062953" lon="-0.3251442"><ele>45.0</ele><time>2026-03-25T15:44:50.315Z</time></trkpt><trkpt lat="51.3062361" lon="-0.3252517"><ele>44.5</ele><time>2026-03-25T15:44:51.316Z</time></trkpt><trkpt lat="51.306184" lon="-0.3253601"><ele>44.0</ele><time>2026-03-25T15:44:52.317Z</time></trkpt><trkpt lat="51.3061366" lon="-0.325467"><ele>44.0</ele><time>2026-03-25T15:44:53.316Z</time></trkpt><trkpt lat="51.3060903" lon="-0.3255696"><ele>44.0</ele><time>2026-03-25T15:44:54.317Z</time></trkpt><trkpt lat="51.306039" lon="-0.3256667"><ele>44.0</ele><time>2026-03-25T15:44:55.316Z</time></trkpt><trkpt lat="51.3059889" lon="-0.3257538"><ele>44.0</ele><time>2026-03-25T15:44:56.317Z</time></trkpt><trkpt lat="51.3059429" lon="-0.3258351"><ele>44.0</ele><time>2026-03-25T15:44:57.319Z</time></trkpt><trkpt lat="51.3058974" lon="-0.3259143"><ele>44.0</ele><time>2026-03-25T15:44:58.316Z</time></trkpt><trkpt lat="51.3058212" lon="-0.3260588"><ele>44.0</ele><time>2026-03-25T15:45:00.315Z</time></trkpt><trkpt lat="51.3057502" lon="-0.3261942"><ele>44.0</ele><time>2026-03-25T15:45:02.316Z</time></trkpt><trkpt lat="51.3056783" lon="-0.326332"><ele>44.0</ele><time>2026-03-25T15:45:04.318Z</time></trkpt><trkpt lat="51.3056062" lon="-0.3264743"><ele>44.0</ele><time>2026-03-25T15:45:06.316Z</time></trkpt><trkpt lat="51.3055264" lon="-0.3266207"><ele>43.714285714285715</ele><time>2026-03-25T15:45:08.319Z</time></trkpt><trkpt lat="51.305484" lon="-0.3267016"><ele>43.42857142857143</ele><time>2026-03-25T15:45:09.317Z</time></trkpt><trkpt lat="51.3054393" lon="-0.3267865"><ele>43.14285714285714</ele><time>2026-03-25T15:45:10.315Z</time></trkpt><trkpt lat="51.3053939" lon="-0.3268735"><ele>42.85714285714286</ele><time>2026-03-25T15:45:11.314Z</time></trkpt><trkpt lat="51.3053473" lon="-0.3269617"><ele>42.57142857142857</ele><time>2026-03-25T15:45:12.315Z</time></trkpt><trkpt lat="51.3053018" lon="-0.3270475"><ele>42.285714285714285</ele><time>2026-03-25T15:45:13.317Z</time></trkpt><trkpt lat="51.3052591" lon="-0.3271314"><ele>42.0</ele><time>2026-03-25T15:45:14.314Z</time></trkpt><trkpt lat="51.3052131" lon="-0.3272136"><ele>41.857142857142854</ele><time>2026-03-25T15:45:15.317Z</time></trkpt><trkpt lat="51.3051651" lon="-0.3272965"><ele>41.714285714285715</ele><time>2026-03-25T15:45:16.314Z</time></trkpt><trkpt lat="51.3051151" lon="-0.3273809"><ele>41.57142857142857</ele><time>2026-03-25T15:45:17.317Z</time></trkpt><trkpt lat="51.3050659" lon="-0.3274602"><ele>41.42857142857143</ele><time>2026-03-25T15:45:18.314Z</time></trkpt><trkpt lat="51.3050125" lon="-0.3275319"><ele>41.285714285714285</ele><time>2026-03-25T15:45:19.314Z</time></trkpt><trkpt lat="51.3049466" lon="-0.3276036"><ele>41.14285714285714</ele><time>2026-03-25T15:45:20.313Z</time></trkpt><trkpt lat="51.3048776" lon="-0.3276765"><ele>41.0</ele><time>2026-03-25T15:45:21.315Z</time></trkpt><trkpt lat="51.3048121" lon="-0.3277394"><ele>41.0</ele><time>2026-03-25T15:45:22.314Z</time></trkpt><trkpt lat="51.3047575" lon="-0.3277977"><ele>41.0</ele><time>2026-03-25T15:45:23.314Z</time></trkpt><trkpt lat="51.3046577" lon="-0.3278979"><ele>41.0</ele><time>2026-03-25T15:45:25.315Z</time></trkpt><trkpt lat="51.304602" lon="-0.3279559"><ele>41.0</ele><time>2026-03-25T15:45:26.313Z</time></trkpt><trkpt lat="51.3045396" lon="-0.3280185"><ele>41.0</ele><time>2026-03-25T15:45:27.316Z</time></trkpt><trkpt lat="51.3044755" lon="-0.328086"><ele>41.0</ele><time>2026-03-25T15:45:28.318Z</time></trkpt><trkpt lat="51.3044106" lon="-0.3281603"><ele>41.0</ele><time>2026-03-25T15:45:29.314Z</time></trkpt><trkpt lat="51.3043477" lon="-0.3282339"><ele>41.0</ele><time>2026-03-25T15:45:30.318Z</time></trkpt><trkpt lat="51.3042883" lon="-0.3283046"><ele>41.0</ele><time>2026-03-25T15:45:31.313Z</time></trkpt><trkpt lat="51.3042262" lon="-0.328369"><ele>41.0</ele><time>2026-03-25T15:45:32.313Z</time></trkpt><trkpt lat="51.3041662" lon="-0.3284303"><ele>41.0</ele><time>2026-03-25T15:45:33.313Z</time></trkpt><trkpt lat="51.3040758" lon="-0.3285392"><ele>41.0</ele><time>2026-03-25T15:45:35.314Z</time></trkpt><trkpt lat="51.3039921" lon="-0.3286299"><ele>41.0</ele><time>2026-03-25T15:45:37.315Z</time></trkpt><trkpt lat="51.3038886" lon="-0.3287263"><ele>41.0</ele><time>2026-03-25T15:45:39.319Z</time></trkpt><trkpt lat="51.3037852" lon="-0.3288268"><ele>41.0</ele><time>2026-03-25T15:45:41.318Z</time></trkpt><trkpt lat="51.3036904" lon="-0.3289142"><ele>41.0</ele><time>2026-03-25T15:45:43.313Z</time></trkpt><trkpt lat="51.3036047" lon="-0.3289855"><ele>41.0</ele><time>2026-03-25T15:45:45.317Z</time></trkpt><trkpt lat="51.3035203" lon="-0.3290408"><ele>41.0</ele><time>2026-03-25T15:45:47.316Z</time></trkpt><trkpt lat="51.303413" lon="-0.3290547"><ele>41.0</ele><time>2026-03-25T15:45:49.317Z</time></trkpt><trkpt lat="51.3032897" lon="-0.3290365"><ele>41.0</ele><time>2026-03-25T15:45:51.316Z</time></trkpt><trkpt lat="51.3032217" lon="-0.3290201"><ele>41.0</ele><time>2026-03-25T15:45:52.315Z</time></trkpt><trkpt lat="51.303154" lon="-0.3290169"><ele>41.0</ele><time>2026-03-25T15:45:53.314Z</time></trkpt><trkpt lat="51.3030431" lon="-0.3290582"><ele>41.0</ele><time>2026-03-25T15:45:55.318Z</time></trkpt><trkpt lat="51.3029523" lon="-0.3292067"><ele>41.0</ele><time>2026-03-25T15:45:57.317Z</time></trkpt><trkpt lat="51.3029235" lon="-0.329389"><ele>41.0</ele><time>2026-03-25T15:45:59.318Z</time></trkpt><trkpt lat="51.3029675" lon="-0.3294863"><ele>41.0</ele><time>2026-03-25T15:46:00.317Z</time></trkpt><trkpt lat="51.3030456" lon="-0.3295694"><ele>41.0</ele><time>2026-03-25T15:46:01.314Z</time></trkpt><trkpt lat="51.3031456" lon="-0.3296319"><ele>41.0</ele><time>2026-03-25T15:46:02.314Z</time></trkpt><trkpt lat="51.3032532" lon="-0.3296793"><ele>41.0</ele><time>2026-03-25T15:46:03.315Z</time></trkpt><trkpt lat="51.3033604" lon="-0.3297285"><ele>41.0</ele><time>2026-03-25T15:46:04.314Z</time></trkpt><trkpt lat="51.303474" lon="-0.3297857"><ele>41.0</ele><time>2026-03-25T15:46:05.314Z</time></trkpt><trkpt lat="51.3035889" lon="-0.3298603"><ele>41.0</ele><time>2026-03-25T15:46:06.313Z</time></trkpt><trkpt lat="51.3037007" lon="-0.3299387"><ele>41.0</ele><time>2026-03-25T15:46:07.314Z</time></trkpt><trkpt lat="51.3038051" lon="-0.3300121"><ele>41.0</ele><time>2026-03-25T15:46:08.316Z</time></trkpt><trkpt lat="51.3039027" lon="-0.3300821"><ele>41.0</ele><time>2026-03-25T15:46:09.315Z</time></trkpt><trkpt lat="51.3040046" lon="-0.330148"><ele>41.0</ele><time>2026-03-25T15:46:10.318Z</time></trkpt><trkpt lat="51.3041113" lon="-0.3302158"><ele>41.0</ele><time>2026-03-25T15:46:11.317Z</time></trkpt><trkpt lat="51.3042298" lon="-0.3302915"><ele>41.0</ele><time>2026-03-25T15:46:12.315Z</time></trkpt><trkpt lat="51.3043574" lon="-0.3303762"><ele>41.0</ele><time>2026-03-25T15:46:13.314Z</time></trkpt><trkpt lat="51.304481" lon="-0.3304599"><ele>41.0</ele><time>2026-03-25T15:46:14.316Z</time></trkpt><trkpt lat="51.304593" lon="-0.3305334"><ele>41.0</ele><time>2026-03-25T15:46:15.314Z</time></trkpt><trkpt lat="51.3046943" lon="-0.3305961"><ele>41.0</ele><time>2026-03-25T15:46:16.313Z</time></trkpt><trkpt lat="51.3047853" lon="-0.3306522"><ele>41.0</ele><time>2026-03-25T15:46:17.314Z</time></trkpt><trkpt lat="51.3048617" lon="-0.3307054"><ele>41.0</ele><time>2026-03-25T15:46:18.315Z</time></trkpt><trkpt lat="51.3049291" lon="-0.3307514"><ele>41.0</ele><time>2026-03-25T15:46:19.314Z</time></trkpt><trkpt lat="51.304986" lon="-0.3308009"><ele>41.0</ele><time>2026-03-25T15:46:20.316Z</time></trkpt><trkpt lat="51.3050431" lon="-0.3308494"><ele>41.0</ele><time>2026-03-25T15:46:21.314Z</time></trkpt><trkpt lat="51.3051104" lon="-0.3309045"><ele>41.0</ele><time>2026-03-25T15:46:22.313Z</time></trkpt><trkpt lat="51.3051897" lon="-0.3309633"><ele>41.0</ele><time>2026-03-25T15:46:23.317Z</time></trkpt><trkpt lat="51.3052754" lon="-0.3310194"><ele>41.0</ele><time>2026-03-25T15:46:24.313Z</time></trkpt><trkpt lat="51.3053643" lon="-0.3310672"><ele>41.0</ele><time>2026-03-25T15:46:25.314Z</time></trkpt><trkpt lat="51.3054549" lon="-0.3311048"><ele>41.0</ele><time>2026-03-25T15:46:26.315Z</time></trkpt><trkpt lat="51.3055474" lon="-0.3311349"><ele>41.0</ele><time>2026-03-25T15:46:27.314Z</time></trkpt><trkpt lat="51.305644" lon="-0.331168"><ele>41.0</ele><time>2026-03-25T15:46:28.313Z</time></trkpt><trkpt lat="51.3057374" lon="-0.3312016"><ele>41.0</ele><time>2026-03-25T15:46:29.314Z</time></trkpt><trkpt lat="51.3058269" lon="-0.331223"><ele>41.0</ele><time>2026-03-25T15:46:30.315Z</time></trkpt><trkpt lat="51.3059123" lon="-0.331233"><ele>41.0</ele><time>2026-03-25T15:46:31.314Z</time></trkpt><trkpt lat="51.3059881" lon="-0.3312385"><ele>41.0</ele><time>2026-03-25T15:46:32.314Z</time></trkpt><trkpt lat="51.3060839" lon="-0.3312423"><ele>41.0</ele><time>2026-03-25T15:46:34.314Z</time></trkpt><trkpt lat="51.3061622" lon="-0.3312587"><ele>41.0</ele><time>2026-03-25T15:46:36.314Z</time></trkpt><trkpt lat="51.3062606" lon="-0.3313138"><ele>41.0</ele><time>2026-03-25T15:46:38.314Z</time></trkpt><trkpt lat="51.3063215" lon="-0.3313476"><ele>40.99999999999999</ele><time>2026-03-25T15:46:39.317Z</time></trkpt><trkpt lat="51.3063838" lon="-0.3313773"><ele>41.0</ele><time>2026-03-25T15:46:40.315Z</time></trkpt><trkpt lat="51.3064462" lon="-0.3314058"><ele>41.0</ele><time>2026-03-25T15:46:41.316Z</time></trkpt><trkpt lat="51.3065122" lon="-0.3314355"><ele>41.0</ele><time>2026-03-25T15:46:42.318Z</time></trkpt><trkpt lat="51.306582" lon="-0.3314674"><ele>41.0</ele><time>2026-03-25T15:46:43.315Z</time></trkpt><trkpt lat="51.3066568" lon="-0.3314995"><ele>40.99999999999999</ele><time>2026-03-25T15:46:44.315Z</time></trkpt><trkpt lat="51.306735" lon="-0.3315313"><ele>41.0</ele><time>2026-03-25T15:46:45.317Z</time></trkpt><trkpt lat="51.306817" lon="-0.3315618"><ele>41.199999999999996</ele><time>2026-03-25T15:46:46.316Z</time></trkpt><trkpt lat="51.306906" lon="-0.3315947"><ele>41.4</ele><time>2026-03-25T15:46:47.316Z</time></trkpt><trkpt lat="51.3069991" lon="-0.3316334"><ele>41.6</ele><time>2026-03-25T15:46:48.315Z</time></trkpt><trkpt lat="51.3070982" lon="-0.3316739"><ele>41.8</ele><time>2026-03-25T15:46:49.316Z</time></trkpt><trkpt lat="51.3071977" lon="-0.3317108"><ele>42.0</ele><time>2026-03-25T15:46:50.316Z</time></trkpt><trkpt lat="51.3072981" lon="-0.3317464"><ele>42.2</ele><time>2026-03-25T15:46:51.315Z</time></trkpt><trkpt lat="51.3073986" lon="-0.3317842"><ele>42.400000000000006</ele><time>2026-03-25T15:46:52.315Z</time></trkpt><trkpt lat="51.3075015" lon="-0.3318264"><ele>42.599999999999994</ele><time>2026-03-25T15:46:53.316Z</time></trkpt><trkpt lat="51.3076014" lon="-0.3318733"><ele>42.8</ele><time>2026-03-25T15:46:54.317Z</time></trkpt><trkpt lat="51.3077054" lon="-0.3319175"><ele>43.0</ele><time>2026-03-25T15:46:55.315Z</time></trkpt><trkpt lat="51.3078164" lon="-0.3319665"><ele>43.0</ele><time>2026-03-25T15:46:56.314Z</time></trkpt><trkpt lat="51.3079337" lon="-0.3320146"><ele>43.0</ele><time>2026-03-25T15:46:57.318Z</time></trkpt><trkpt lat="51.3080537" lon="-0.332062"><ele>43.0</ele><time>2026-03-25T15:46:58.314Z</time></trkpt><trkpt lat="51.3081703" lon="-0.3321129"><ele>43.0</ele><time>2026-03-25T15:46:59.314Z</time></trkpt><trkpt lat="51.3082846" lon="-0.3321623"><ele>42.75</ele><time>2026-03-25T15:47:00.318Z</time></trkpt><trkpt lat="51.3083979" lon="-0.3322142"><ele>42.5</ele><time>2026-03-25T15:47:01.315Z</time></trkpt><trkpt lat="51.3085113" lon="-0.3322636"><ele>42.25</ele><time>2026-03-25T15:47:02.314Z</time></trkpt><trkpt lat="51.3086232" lon="-0.3323119"><ele>42.0</ele><time>2026-03-25T15:47:03.315Z</time></trkpt><trkpt lat="51.3087334" lon="-0.3323604"><ele>41.8</ele><time>2026-03-25T15:47:04.315Z</time></trkpt><trkpt lat="51.308843" lon="-0.3324044"><ele>41.6</ele><time>2026-03-25T15:47:05.315Z</time></trkpt><trkpt lat="51.3089474" lon="-0.3324407"><ele>41.4</ele><time>2026-03-25T15:47:06.315Z</time></trkpt><trkpt lat="51.3090463" lon="-0.3324739"><ele>41.199999999999996</ele><time>2026-03-25T15:47:07.318Z</time></trkpt><trkpt lat="51.3091425" lon="-0.3325132"><ele>41.0</ele><time>2026-03-25T15:47:08.318Z</time></trkpt><trkpt lat="51.3092343" lon="-0.3325506"><ele>40.83333333333333</ele><time>2026-03-25T15:47:09.314Z</time></trkpt><trkpt lat="51.3093192" lon="-0.3325848"><ele>40.666666666666664</ele><time>2026-03-25T15:47:10.316Z</time></trkpt><trkpt lat="51.3094032" lon="-0.3326201"><ele>40.5</ele><time>2026-03-25T15:47:11.315Z</time></trkpt><trkpt lat="51.3094874" lon="-0.3326578"><ele>40.333333333333336</ele><time>2026-03-25T15:47:12.315Z</time></trkpt><trkpt lat="51.3095706" lon="-0.3326989"><ele>40.16666666666667</ele><time>2026-03-25T15:47:13.316Z</time></trkpt><trkpt lat="51.309651" lon="-0.3327371"><ele>40.0</ele><time>2026-03-25T15:47:14.316Z</time></trkpt><trkpt lat="51.309729" lon="-0.3327728"><ele>40.16666666666667</ele><time>2026-03-25T15:47:15.32Z</time></trkpt><trkpt lat="51.309804" lon="-0.3328088"><ele>40.333333333333336</ele><time>2026-03-25T15:47:16.315Z</time></trkpt><trkpt lat="51.3098751" lon="-0.3328465"><ele>40.5</ele><time>2026-03-25T15:47:17.314Z</time></trkpt><trkpt lat="51.3099446" lon="-0.332881"><ele>40.666666666666664</ele><time>2026-03-25T15:47:18.314Z</time></trkpt><trkpt lat="51.3100472" lon="-0.3329266"><ele>40.83333333333333</ele><time>2026-03-25T15:47:20.316Z</time></trkpt><trkpt lat="51.3101121" lon="-0.3329073"><ele>41.0</ele><time>2026-03-25T15:47:22.315Z</time></trkpt><trkpt lat="51.3101369" lon="-0.3327571"><ele>41.0</ele><time>2026-03-25T15:47:24.316Z</time></trkpt><trkpt lat="51.3101506" lon="-0.3326362"><ele>41.0</ele><time>2026-03-25T15:47:25.314Z</time></trkpt><trkpt lat="51.310166" lon="-0.3325015"><ele>41.0</ele><time>2026-03-25T15:47:26.315Z</time></trkpt><trkpt lat="51.3101852" lon="-0.3323614"><ele>41.0</ele><time>2026-03-25T15:47:27.315Z</time></trkpt><trkpt lat="51.3102064" lon="-0.3322216"><ele>41.0</ele><time>2026-03-25T15:47:28.316Z</time></trkpt><trkpt lat="51.3102271" lon="-0.3320868"><ele>41.0</ele><time>2026-03-25T15:47:29.314Z</time></trkpt><trkpt lat="51.3102514" lon="-0.3319612"><ele>41.166666666666664</ele><time>2026-03-25T15:47:30.315Z</time></trkpt><trkpt lat="51.3102745" lon="-0.3318499"><ele>41.33333333333333</ele><time>2026-03-25T15:47:31.314Z</time></trkpt><trkpt lat="51.3103191" lon="-0.3317212"><ele>41.5</ele><time>2026-03-25T15:47:33.317Z</time></trkpt><trkpt lat="51.310396" lon="-0.3317241"><ele>41.666666666666664</ele><time>2026-03-25T15:47:35.315Z</time></trkpt><trkpt lat="51.3105021" lon="-0.3317996"><ele>41.833333333333336</ele><time>2026-03-25T15:47:37.313Z</time></trkpt><trkpt lat="51.3105779" lon="-0.3318566"><ele>42.0</ele><time>2026-03-25T15:47:39.314Z</time></trkpt><trkpt lat="51.310643" lon="-0.3317946"><ele>42.0</ele><time>2026-03-25T15:47:42.314Z</time></trkpt><trkpt lat="51.3106842" lon="-0.3315832"><ele>42.0</ele><time>2026-03-25T15:47:44.316Z</time></trkpt><trkpt lat="51.3107106" lon="-0.3314285"><ele>42.0</ele><time>2026-03-25T15:47:45.317Z</time></trkpt><trkpt lat="51.3107331" lon="-0.3312752"><ele>42.0</ele><time>2026-03-25T15:47:46.314Z</time></trkpt><trkpt lat="51.3107556" lon="-0.331129"><ele>42.0</ele><time>2026-03-25T15:47:47.318Z</time></trkpt><trkpt lat="51.3107877" lon="-0.330989"><ele>42.0</ele><time>2026-03-25T15:47:48.316Z</time></trkpt><trkpt lat="51.3108296" lon="-0.3308512"><ele>42.0</ele><time>2026-03-25T15:47:49.317Z</time></trkpt><trkpt lat="51.3108762" lon="-0.3307073"><ele>42.0</ele><time>2026-03-25T15:47:50.314Z</time></trkpt><trkpt lat="51.3109265" lon="-0.3305625"><ele>42.0</ele><time>2026-03-25T15:47:51.316Z</time></trkpt><trkpt lat="51.3109745" lon="-0.3304161"><ele>42.0</ele><time>2026-03-25T15:47:52.32Z</time></trkpt><trkpt lat="51.3110202" lon="-0.3302756"><ele>42.0</ele><time>2026-03-25T15:47:53.317Z</time></trkpt><trkpt lat="51.3110642" lon="-0.3301384"><ele>42.0</ele><time>2026-03-25T15:47:54.316Z</time></trkpt><trkpt lat="51.3111089" lon="-0.3300103"><ele>42.0</ele><time>2026-03-25T15:47:55.316Z</time></trkpt><trkpt lat="51.3111549" lon="-0.329895"><ele>42.0</ele><time>2026-03-25T15:47:56.317Z</time></trkpt><trkpt lat="51.3111958" lon="-0.3297925"><ele>42.0</ele><time>2026-03-25T15:47:57.314Z</time></trkpt><trkpt lat="51.3112326" lon="-0.3297093"><ele>42.0</ele><time>2026-03-25T15:47:58.317Z</time></trkpt><trkpt lat="51.3113038" lon="-0.3296116"><ele>42.0</ele><time>2026-03-25T15:48:00.316Z</time></trkpt><trkpt lat="51.3113891" lon="-0.3296057"><ele>42.0</ele><time>2026-03-25T15:48:02.312Z</time></trkpt><trkpt lat="51.3114993" lon="-0.3296748"><ele>42.0</ele><time>2026-03-25T15:48:04.315Z</time></trkpt><trkpt lat="51.3115691" lon="-0.3297147"><ele>42.0</ele><time>2026-03-25T15:48:05.314Z</time></trkpt><trkpt lat="51.3116411" lon="-0.3297523"><ele>42.0</ele><time>2026-03-25T15:48:06.315Z</time></trkpt><trkpt lat="51.3117078" lon="-0.3297881"><ele>42.0</ele><time>2026-03-25T15:48:07.315Z</time></trkpt><trkpt lat="51.311804" lon="-0.3298576"><ele>41.8</ele><time>2026-03-25T15:48:09.318Z</time></trkpt><trkpt lat="51.3118529" lon="-0.3299677"><ele>41.6</ele><time>2026-03-25T15:48:11.318Z</time></trkpt><trkpt lat="51.3118384" lon="-0.3301364"><ele>41.4</ele><time>2026-03-25T15:48:13.318Z</time></trkpt><trkpt lat="51.3118137" lon="-0.3302312"><ele>41.199999999999996</ele><time>2026-03-25T15:48:14.318Z</time></trkpt><trkpt lat="51.3117641" lon="-0.3304016"><ele>41.0</ele><time>2026-03-25T15:48:16.317Z</time></trkpt><trkpt lat="51.3117485" lon="-0.3305361"><ele>40.83333333333333</ele><time>2026-03-25T15:48:18.317Z</time></trkpt><trkpt lat="51.3117882" lon="-0.3306209"><ele>40.666666666666664</ele><time>2026-03-25T15:48:20.317Z</time></trkpt><trkpt lat="51.3118825" lon="-0.3306843"><ele>40.5</ele><time>2026-03-25T15:48:22.319Z</time></trkpt><trkpt lat="51.3119467" lon="-0.3307183"><ele>40.333333333333336</ele><time>2026-03-25T15:48:23.318Z</time></trkpt><trkpt lat="51.3120139" lon="-0.3307536"><ele>40.16666666666667</ele><time>2026-03-25T15:48:24.317Z</time></trkpt><trkpt lat="51.3120857" lon="-0.3307924"><ele>40.0</ele><time>2026-03-25T15:48:25.317Z</time></trkpt><trkpt lat="51.31216" lon="-0.3308377"><ele>40.0</ele><time>2026-03-25T15:48:26.315Z</time></trkpt><trkpt lat="51.3122396" lon="-0.3308884"><ele>40.0</ele><time>2026-03-25T15:48:27.316Z</time></trkpt><trkpt lat="51.3123219" lon="-0.3309369"><ele>40.0</ele><time>2026-03-25T15:48:28.316Z</time></trkpt><trkpt lat="51.3124066" lon="-0.330985"><ele>40.0</ele><time>2026-03-25T15:48:29.317Z</time></trkpt><trkpt lat="51.3124906" lon="-0.3310338"><ele>40.0</ele><time>2026-03-25T15:48:30.315Z</time></trkpt><trkpt lat="51.3125741" lon="-0.3310804"><ele>40.0</ele><time>2026-03-25T15:48:31.317Z</time></trkpt><trkpt lat="51.3126588" lon="-0.3311264"><ele>40.0</ele><time>2026-03-25T15:48:32.315Z</time></trkpt><trkpt lat="51.3127419" lon="-0.331174"><ele>40.0</ele><time>2026-03-25T15:48:33.318Z</time></trkpt><trkpt lat="51.3128204" lon="-0.3312213"><ele>40.0</ele><time>2026-03-25T15:48:34.315Z</time></trkpt><trkpt lat="51.3128954" lon="-0.3312739"><ele>40.0</ele><time>2026-03-25T15:48:35.315Z</time></trkpt><trkpt lat="51.312961" lon="-0.3313429"><ele>40.0</ele><time>2026-03-25T15:48:36.316Z</time></trkpt><trkpt lat="51.3130147" lon="-0.3314255"><ele>40.0</ele><time>2026-03-25T15:48:37.319Z</time></trkpt><trkpt lat="51.3130608" lon="-0.3315234"><ele>40.0</ele><time>2026-03-25T15:48:38.315Z</time></trkpt><trkpt lat="51.3130906" lon="-0.3316296"><ele>40.0</ele><time>2026-03-25T15:48:39.316Z</time></trkpt><trkpt lat="51.3131153" lon="-0.3317326"><ele>40.0</ele><time>2026-03-25T15:48:40.317Z</time></trkpt><trkpt lat="51.3131376" lon="-0.331895"><ele>40.0</ele><time>2026-03-25T15:48:42.315Z</time></trkpt><trkpt lat="51.3131017" lon="-0.3319935"><ele>40.0</ele><time>2026-03-25T15:48:44.316Z</time></trkpt><trkpt lat="51.3130056" lon="-0.3320168"><ele>40.0</ele><time>2026-03-25T15:48:46.314Z</time></trkpt><trkpt lat="51.3128832" lon="-0.332032"><ele>40.0</ele><time>2026-03-25T15:48:48.316Z</time></trkpt><trkpt lat="51.3127788" lon="-0.3320797"><ele>40.0</ele><time>2026-03-25T15:48:50.32Z</time></trkpt><trkpt lat="51.3127016" lon="-0.3321559"><ele>40.0</ele><time>2026-03-25T15:48:52.316Z</time></trkpt><trkpt lat="51.3126405" lon="-0.3322361"><ele>40.0</ele><time>2026-03-25T15:48:54.317Z</time></trkpt><trkpt lat="51.3126314" lon="-0.3323752"><ele>40.0</ele><time>2026-03-25T15:48:57.318Z</time></trkpt><trkpt lat="51.3126917" lon="-0.3324862"><ele>40.0</ele><time>2026-03-25T15:49:00.314Z</time></trkpt><trkpt lat="51.3126799" lon="-0.3323708"><ele>40.0</ele><time>2026-03-25T16:12:21.313Z</time></trkpt><trkpt lat="51.3126813" lon="-0.332256"><ele>40.0</ele><time>2026-03-25T16:12:24.315Z</time></trkpt><trkpt lat="51.3127326" lon="-0.3321637"><ele>40.0</ele><time>2026-03-25T16:12:26.313Z</time></trkpt><trkpt lat="51.3128143" lon="-0.3320809"><ele>40.0</ele><time>2026-03-25T16:12:28.315Z</time></trkpt><trkpt lat="51.3129087" lon="-0.33203"><ele>40.0</ele><time>2026-03-25T16:12:30.313Z</time></trkpt><trkpt lat="51.3130149" lon="-0.331996"><ele>40.0</ele><time>2026-03-25T16:12:32.316Z</time></trkpt><trkpt lat="51.3130926" lon="-0.3319549"><ele>40.0</ele><time>2026-03-25T16:12:34.315Z</time></trkpt><trkpt lat="51.3131292" lon="-0.3318294"><ele>40.0</ele><time>2026-03-25T16:12:37.314Z</time></trkpt><trkpt lat="51.3130968" lon="-0.3317226"><ele>40.0</ele><time>2026-03-25T16:12:39.314Z</time></trkpt><trkpt lat="51.3130618" lon="-0.331615"><ele>40.0</ele><time>2026-03-25T16:12:41.314Z</time></trkpt><trkpt lat="51.3130211" lon="-0.3314954"><ele>40.0</ele><time>2026-03-25T16:12:43.313Z</time></trkpt><trkpt lat="51.3129473" lon="-0.3313827"><ele>40.2</ele><time>2026-03-25T16:12:45.315Z</time></trkpt><trkpt lat="51.312856" lon="-0.3312769"><ele>40.4</ele><time>2026-03-25T16:12:47.313Z</time></trkpt><trkpt lat="51.3127562" lon="-0.3311993"><ele>40.599999999999994</ele><time>2026-03-25T16:12:49.314Z</time></trkpt><trkpt lat="51.3126588" lon="-0.3311412"><ele>40.8</ele><time>2026-03-25T16:12:51.317Z</time></trkpt><trkpt lat="51.3125724" lon="-0.3310908"><ele>41.0</ele><time>2026-03-25T16:12:53.314Z</time></trkpt><trkpt lat="51.3125078" lon="-0.3310524"><ele>41.0</ele><time>2026-03-25T16:12:55.313Z</time></trkpt><trkpt lat="51.3124512" lon="-0.3309726"><ele>41.0</ele><time>2026-03-25T16:14:36.313Z</time></trkpt><trkpt lat="51.3123521" lon="-0.3309203"><ele>41.0</ele><time>2026-03-25T16:14:38.314Z</time></trkpt><trkpt lat="51.3122251" lon="-0.3308467"><ele>41.0</ele><time>2026-03-25T16:14:40.314Z</time></trkpt><trkpt lat="51.3121607" lon="-0.3308114"><ele>41.0</ele><time>2026-03-25T16:14:41.313Z</time></trkpt><trkpt lat="51.3120977" lon="-0.3307856"><ele>41.0</ele><time>2026-03-25T16:14:42.314Z</time></trkpt><trkpt lat="51.3120315" lon="-0.3307671"><ele>40.857142857142854</ele><time>2026-03-25T16:14:43.314Z</time></trkpt><trkpt lat="51.3119692" lon="-0.3307406"><ele>40.714285714285715</ele><time>2026-03-25T16:14:44.321Z</time></trkpt><trkpt lat="51.3119086" lon="-0.3307112"><ele>40.57142857142857</ele><time>2026-03-25T16:14:45.317Z</time></trkpt><trkpt lat="51.3118212" lon="-0.3306707"><ele>40.42857142857143</ele><time>2026-03-25T16:14:47.315Z</time></trkpt><trkpt lat="51.3117408" lon="-0.3306698"><ele>40.285714285714285</ele><time>2026-03-25T16:14:50.314Z</time></trkpt><trkpt lat="51.3116985" lon="-0.3307502"><ele>40.14285714285714</ele><time>2026-03-25T16:14:53.313Z</time></trkpt><trkpt lat="51.3116881" lon="-0.3308632"><ele>40.0</ele><time>2026-03-25T16:14:57.313Z</time></trkpt><trkpt lat="51.3116619" lon="-0.3309585"><ele>40.0</ele><time>2026-03-25T16:15:01.314Z</time></trkpt><trkpt lat="51.3116433" lon="-0.3310801"><ele>40.0</ele><time>2026-03-25T16:15:04.314Z</time></trkpt><trkpt lat="51.3116075" lon="-0.3312427"><ele>40.0</ele><time>2026-03-25T16:15:06.314Z</time></trkpt><trkpt lat="51.3115796" lon="-0.3313397"><ele>40.0</ele><time>2026-03-25T16:15:07.315Z</time></trkpt><trkpt lat="51.3115271" lon="-0.3315086"><ele>40.0</ele><time>2026-03-25T16:15:09.314Z</time></trkpt><trkpt lat="51.3114886" lon="-0.3316675"><ele>40.0</ele><time>2026-03-25T16:15:11.314Z</time></trkpt><trkpt lat="51.3114501" lon="-0.3318155"><ele>40.0</ele><time>2026-03-25T16:15:13.314Z</time></trkpt><trkpt lat="51.3114219" lon="-0.3319485"><ele>40.0</ele><time>2026-03-25T16:15:15.315Z</time></trkpt><trkpt lat="51.3113981" lon="-0.3320818"><ele>40.0</ele><time>2026-03-25T16:15:17.315Z</time></trkpt><trkpt lat="51.3113745" lon="-0.3321921"><ele>40.0</ele><time>2026-03-25T16:15:19.315Z</time></trkpt><trkpt lat="51.3113544" lon="-0.3322946"><ele>40.0</ele><time>2026-03-25T16:15:21.315Z</time></trkpt><trkpt lat="51.3113328" lon="-0.3324185"><ele>39.857142857142854</ele><time>2026-03-25T16:15:24.314Z</time></trkpt><trkpt lat="51.3113095" lon="-0.3325404"><ele>39.714285714285715</ele><time>2026-03-25T16:15:27.315Z</time></trkpt><trkpt lat="51.3112953" lon="-0.3326398"><ele>39.57142857142857</ele><time>2026-03-25T16:15:30.315Z</time></trkpt><trkpt lat="51.311273" lon="-0.3327433"><ele>39.42857142857143</ele><time>2026-03-25T16:15:34.315Z</time></trkpt><trkpt lat="51.3113299" lon="-0.3328293"><ele>39.285714285714285</ele><time>2026-03-25T16:15:38.314Z</time></trkpt><trkpt lat="51.311391" lon="-0.3328854"><ele>39.142857142857146</ele><time>2026-03-25T16:15:41.314Z</time></trkpt><trkpt lat="51.3114698" lon="-0.3329431"><ele>39.0</ele><time>2026-03-25T16:15:44.314Z</time></trkpt><trkpt lat="51.3114792" lon="-0.3330525"><ele>38.833333333333336</ele><time>2026-03-25T16:16:02.315Z</time></trkpt><trkpt lat="51.3114676" lon="-0.3331599"><ele>38.666666666666664</ele><time>2026-03-25T16:16:04.314Z</time></trkpt><trkpt lat="51.3114311" lon="-0.3332885"><ele>38.5</ele><time>2026-03-25T16:16:06.318Z</time></trkpt><trkpt lat="51.3113997" lon="-0.333393"><ele>38.33333333333333</ele><time>2026-03-25T16:16:08.315Z</time></trkpt><trkpt lat="51.3113322" lon="-0.3335109"><ele>38.166666666666664</ele><time>2026-03-25T16:16:15.317Z</time></trkpt><trkpt lat="51.3112582" lon="-0.3335036"><ele>38.0</ele><time>2026-03-25T16:16:17.315Z</time></trkpt><trkpt lat="51.3111549" lon="-0.3334564"><ele>38.5</ele><time>2026-03-25T16:16:19.315Z</time></trkpt><trkpt lat="51.3110577" lon="-0.3334057"><ele>39.0</ele><time>2026-03-25T16:16:21.314Z</time></trkpt><trkpt lat="51.3109757" lon="-0.3333666"><ele>39.5</ele><time>2026-03-25T16:16:23.315Z</time></trkpt><trkpt lat="51.3109199" lon="-0.3333191"><ele>40.0</ele><time>2026-03-25T16:16:25.315Z</time></trkpt><trkpt lat="51.3108605" lon="-0.3332813"><ele>40.5</ele><time>2026-03-25T16:17:40.314Z</time></trkpt><trkpt lat="51.3107838" lon="-0.3332366"><ele>41.0</ele><time>2026-03-25T16:17:42.317Z</time></trkpt><trkpt lat="51.3107214" lon="-0.3331965"><ele>41.0</ele><time>2026-03-25T16:17:43.315Z</time></trkpt><trkpt lat="51.3106364" lon="-0.3331525"><ele>41.0</ele><time>2026-03-25T16:17:44.316Z</time></trkpt><trkpt lat="51.3105423" lon="-0.3331056"><ele>41.0</ele><time>2026-03-25T16:17:45.315Z</time></trkpt><trkpt lat="51.3104471" lon="-0.3330564"><ele>41.0</ele><time>2026-03-25T16:17:46.314Z</time></trkpt><trkpt lat="51.3103541" lon="-0.3330082"><ele>41.0</ele><time>2026-03-25T16:17:47.315Z</time></trkpt><trkpt lat="51.3102669" lon="-0.3329555"><ele>41.0</ele><time>2026-03-25T16:17:48.315Z</time></trkpt><trkpt lat="51.310185" lon="-0.3329096"><ele>41.0</ele><time>2026-03-25T16:17:49.315Z</time></trkpt><trkpt lat="51.3101083" lon="-0.3328762"><ele>41.0</ele><time>2026-03-25T16:17:50.315Z</time></trkpt><trkpt lat="51.3100304" lon="-0.3328406"><ele>41.0</ele><time>2026-03-25T16:17:51.315Z</time></trkpt><trkpt lat="51.3099478" lon="-0.3328043"><ele>41.0</ele><time>2026-03-25T16:17:52.314Z</time></trkpt><trkpt lat="51.3098654" lon="-0.3327678"><ele>41.0</ele><time>2026-03-25T16:17:53.315Z</time></trkpt><trkpt lat="51.3097778" lon="-0.3327279"><ele>40.83333333333333</ele><time>2026-03-25T16:17:54.315Z</time></trkpt><trkpt lat="51.3096922" lon="-0.3326881"><ele>40.666666666666664</ele><time>2026-03-25T16:17:55.315Z</time></trkpt><trkpt lat="51.3096133" lon="-0.3326514"><ele>40.5</ele><time>2026-03-25T16:17:56.314Z</time></trkpt><trkpt lat="51.3095365" lon="-0.3326179"><ele>40.333333333333336</ele><time>2026-03-25T16:17:57.316Z</time></trkpt><trkpt lat="51.3094612" lon="-0.3325817"><ele>40.16666666666667</ele><time>2026-03-25T16:17:58.313Z</time></trkpt><trkpt lat="51.3093819" lon="-0.3325434"><ele>40.0</ele><time>2026-03-25T16:17:59.313Z</time></trkpt><trkpt lat="51.3093004" lon="-0.332511"><ele>40.0</ele><time>2026-03-25T16:18:00.314Z</time></trkpt><trkpt lat="51.3092169" lon="-0.3324808"><ele>40.0</ele><time>2026-03-25T16:18:01.314Z</time></trkpt><trkpt lat="51.3091366" lon="-0.3324498"><ele>40.0</ele><time>2026-03-25T16:18:02.314Z</time></trkpt><trkpt lat="51.3090597" lon="-0.332417"><ele>40.0</ele><time>2026-03-25T16:18:03.315Z</time></trkpt><trkpt lat="51.3089786" lon="-0.3323833"><ele>40.0</ele><time>2026-03-25T16:18:04.313Z</time></trkpt><trkpt lat="51.3088905" lon="-0.3323484"><ele>40.0</ele><time>2026-03-25T16:18:05.314Z</time></trkpt><trkpt lat="51.3087944" lon="-0.3323142"><ele>40.2</ele><time>2026-03-25T16:18:06.315Z</time></trkpt><trkpt lat="51.3087" lon="-0.3322763"><ele>40.4</ele><time>2026-03-25T16:18:07.314Z</time></trkpt><trkpt lat="51.3086184" lon="-0.33224"><ele>40.599999999999994</ele><time>2026-03-25T16:18:08.313Z</time></trkpt><trkpt lat="51.3085514" lon="-0.3322071"><ele>40.8</ele><time>2026-03-25T16:18:09.315Z</time></trkpt><trkpt lat="51.3084375" lon="-0.3321574"><ele>41.0</ele><time>2026-03-25T16:18:11.315Z</time></trkpt><trkpt lat="51.308351" lon="-0.3321261"><ele>41.199999999999996</ele><time>2026-03-25T16:18:13.314Z</time></trkpt><trkpt lat="51.3082812" lon="-0.3321077"><ele>41.4</ele><time>2026-03-25T16:18:15.315Z</time></trkpt><trkpt lat="51.3081617" lon="-0.332055"><ele>41.6</ele><time>2026-03-25T16:18:22.314Z</time></trkpt><trkpt lat="51.3080467" lon="-0.33202"><ele>41.8</ele><time>2026-03-25T16:18:24.314Z</time></trkpt><trkpt lat="51.3079267" lon="-0.3319833"><ele>42.0</ele><time>2026-03-25T16:18:26.314Z</time></trkpt><trkpt lat="51.3078133" lon="-0.3319417"><ele>42.166666666666664</ele><time>2026-03-25T16:18:28.313Z</time></trkpt><trkpt lat="51.3076983" lon="-0.33188"><ele>42.333333333333336</ele><time>2026-03-25T16:18:30.313Z</time></trkpt><trkpt lat="51.3076333" lon="-0.3318483"><ele>42.5</ele><time>2026-03-25T16:18:31.315Z</time></trkpt><trkpt lat="51.3075667" lon="-0.3318217"><ele>42.66666666666667</ele><time>2026-03-25T16:18:32.315Z</time></trkpt><trkpt lat="51.3074933" lon="-0.33179"><ele>42.833333333333336</ele><time>2026-03-25T16:18:33.315Z</time></trkpt><trkpt lat="51.3074067" lon="-0.3317533"><ele>43.0</ele><time>2026-03-25T16:18:34.314Z</time></trkpt><trkpt lat="51.3073183" lon="-0.3317117"><ele>42.75</ele><time>2026-03-25T16:18:35.313Z</time></trkpt><trkpt lat="51.3072283" lon="-0.3316733"><ele>42.5</ele><time>2026-03-25T16:18:36.316Z</time></trkpt><trkpt lat="51.3071433" lon="-0.3316367"><ele>42.25</ele><time>2026-03-25T16:18:37.314Z</time></trkpt><trkpt lat="51.3069883" lon="-0.3315717"><ele>42.0</ele><time>2026-03-25T16:18:39.314Z</time></trkpt><trkpt lat="51.3066817" lon="-0.3314417"><ele>42.0</ele><time>2026-03-25T16:18:45.316Z</time></trkpt><trkpt lat="51.3065617" lon="-0.3314033"><ele>42.0</ele><time>2026-03-25T16:18:49.315Z</time></trkpt><trkpt lat="51.3065033" lon="-0.3313633"><ele>42.0</ele><time>2026-03-25T16:18:52.314Z</time></trkpt><trkpt lat="51.30643" lon="-0.3313417"><ele>42.0</ele><time>2026-03-25T16:18:55.316Z</time></trkpt><trkpt lat="51.3063733" lon="-0.3312817"><ele>42.0</ele><time>2026-03-25T16:18:59.315Z</time></trkpt><trkpt lat="51.3063117" lon="-0.3312483"><ele>42.0</ele><time>2026-03-25T16:19:01.315Z</time></trkpt><trkpt lat="51.3062017" lon="-0.331205"><ele>41.8</ele><time>2026-03-25T16:19:03.316Z</time></trkpt><trkpt lat="51.3060817" lon="-0.3311967"><ele>41.6</ele><time>2026-03-25T16:19:05.315Z</time></trkpt><trkpt lat="51.3060067" lon="-0.3312017"><ele>41.4</ele><time>2026-03-25T16:19:07.316Z</time></trkpt><trkpt lat="51.3058967" lon="-0.33121"><ele>41.199999999999996</ele><time>2026-03-25T16:19:10.315Z</time></trkpt><trkpt lat="51.3057983" lon="-0.3311967"><ele>41.0</ele><time>2026-03-25T16:19:12.315Z</time></trkpt><trkpt lat="51.305675" lon="-0.331155"><ele>41.0</ele><time>2026-03-25T16:19:14.314Z</time></trkpt><trkpt lat="51.3055933" lon="-0.3311333"><ele>41.0</ele><time>2026-03-25T16:19:15.316Z</time></trkpt><trkpt lat="51.3055083" lon="-0.33111"><ele>41.0</ele><time>2026-03-25T16:19:16.314Z</time></trkpt><trkpt lat="51.3054217" lon="-0.331075"><ele>41.0</ele><time>2026-03-25T16:19:17.314Z</time></trkpt><trkpt lat="51.305335" lon="-0.33104"><ele>41.0</ele><time>2026-03-25T16:19:18.315Z</time></trkpt><trkpt lat="51.3052583" lon="-0.331005"><ele>41.0</ele><time>2026-03-25T16:19:19.313Z</time></trkpt><trkpt lat="51.3051883" lon="-0.3309567"><ele>41.0</ele><time>2026-03-25T16:19:20.315Z</time></trkpt><trkpt lat="51.3050983" lon="-0.3308783"><ele>41.0</ele><time>2026-03-25T16:19:22.314Z</time></trkpt><trkpt lat="51.3050233" lon="-0.3308383"><ele>41.0</ele><time>2026-03-25T16:19:25.315Z</time></trkpt><trkpt lat="51.3049583" lon="-0.330795"><ele>41.0</ele><time>2026-03-25T16:19:28.314Z</time></trkpt><trkpt lat="51.3048767" lon="-0.330755"><ele>41.0</ele><time>2026-03-25T16:19:31.316Z</time></trkpt><trkpt lat="51.3047683" lon="-0.3306817"><ele>41.0</ele><time>2026-03-25T16:19:33.315Z</time></trkpt><trkpt lat="51.3046983" lon="-0.3306333"><ele>41.0</ele><time>2026-03-25T16:19:34.315Z</time></trkpt><trkpt lat="51.3046217" lon="-0.3305783"><ele>41.0</ele><time>2026-03-25T16:19:35.315Z</time></trkpt><trkpt lat="51.3045417" lon="-0.3305233"><ele>41.0</ele><time>2026-03-25T16:19:36.315Z</time></trkpt><trkpt lat="51.3044583" lon="-0.3304583"><ele>41.0</ele><time>2026-03-25T16:19:37.315Z</time></trkpt><trkpt lat="51.30438" lon="-0.3303917"><ele>41.0</ele><time>2026-03-25T16:19:38.315Z</time></trkpt><trkpt lat="51.3043033" lon="-0.3303333"><ele>40.99999999999999</ele><time>2026-03-25T16:19:39.317Z</time></trkpt><trkpt lat="51.3042283" lon="-0.3302833"><ele>41.0</ele><time>2026-03-25T16:19:40.315Z</time></trkpt><trkpt lat="51.304155" lon="-0.3302383"><ele>41.0</ele><time>2026-03-25T16:19:41.316Z</time></trkpt><trkpt lat="51.3040867" lon="-0.3301933"><ele>41.0</ele><time>2026-03-25T16:19:42.316Z</time></trkpt><trkpt lat="51.3040167" lon="-0.3301483"><ele>41.0</ele><time>2026-03-25T16:19:43.314Z</time></trkpt><trkpt lat="51.3039517" lon="-0.3300983"><ele>40.99999999999999</ele><time>2026-03-25T16:19:44.316Z</time></trkpt><trkpt lat="51.30389" lon="-0.3300567"><ele>41.0</ele><time>2026-03-25T16:19:45.315Z</time></trkpt><trkpt lat="51.3038283" lon="-0.330015"><ele>41.0</ele><time>2026-03-25T16:19:46.315Z</time></trkpt><trkpt lat="51.30372" lon="-0.3299467"><ele>41.0</ele><time>2026-03-25T16:19:48.315Z</time></trkpt><trkpt lat="51.3036133" lon="-0.329875"><ele>41.0</ele><time>2026-03-25T16:19:50.315Z</time></trkpt><trkpt lat="51.3035133" lon="-0.3298033"><ele>41.0</ele><time>2026-03-25T16:19:52.315Z</time></trkpt><trkpt lat="51.303445" lon="-0.3297267"><ele>41.0</ele><time>2026-03-25T16:19:54.314Z</time></trkpt><trkpt lat="51.3033933" lon="-0.329655"><ele>41.0</ele><time>2026-03-25T16:19:56.315Z</time></trkpt><trkpt lat="51.30335" lon="-0.32957"><ele>41.0</ele><time>2026-03-25T16:19:59.314Z</time></trkpt><trkpt lat="51.3033317" lon="-0.3294583"><ele>41.0</ele><time>2026-03-25T16:20:04.315Z</time></trkpt><trkpt lat="51.3033583" lon="-0.3293033"><ele>41.0</ele><time>2026-03-25T16:20:06.316Z</time></trkpt><trkpt lat="51.3033967" lon="-0.3292183"><ele>41.0</ele><time>2026-03-25T16:20:07.315Z</time></trkpt><trkpt lat="51.30345" lon="-0.3291433"><ele>41.0</ele><time>2026-03-25T16:20:08.315Z</time></trkpt><trkpt lat="51.3035283" lon="-0.3290733"><ele>41.0</ele><time>2026-03-25T16:20:09.314Z</time></trkpt><trkpt lat="51.3036133" lon="-0.329"><ele>41.0</ele><time>2026-03-25T16:20:10.314Z</time></trkpt><trkpt lat="51.303705" lon="-0.3289283"><ele>41.0</ele><time>2026-03-25T16:20:11.315Z</time></trkpt><trkpt lat="51.3037917" lon="-0.3288483"><ele>41.0</ele><time>2026-03-25T16:20:12.315Z</time></trkpt><trkpt lat="51.30387" lon="-0.3287833"><ele>41.0</ele><time>2026-03-25T16:20:13.314Z</time></trkpt><trkpt lat="51.3039367" lon="-0.328725"><ele>41.0</ele><time>2026-03-25T16:20:14.314Z</time></trkpt><trkpt lat="51.3039933" lon="-0.3286633"><ele>41.0</ele><time>2026-03-25T16:20:15.314Z</time></trkpt><trkpt lat="51.3040917" lon="-0.3285717"><ele>41.0</ele><time>2026-03-25T16:20:17.314Z</time></trkpt><trkpt lat="51.304195" lon="-0.3284633"><ele>41.0</ele><time>2026-03-25T16:20:19.313Z</time></trkpt><trkpt lat="51.3042517" lon="-0.3284"><ele>41.0</ele><time>2026-03-25T16:20:20.315Z</time></trkpt><trkpt lat="51.3043183" lon="-0.3283267"><ele>41.0</ele><time>2026-03-25T16:20:21.315Z</time></trkpt><trkpt lat="51.304395" lon="-0.3282433"><ele>41.0</ele><time>2026-03-25T16:20:22.314Z</time></trkpt><trkpt lat="51.3044733" lon="-0.32816"><ele>41.0</ele><time>2026-03-25T16:20:23.315Z</time></trkpt><trkpt lat="51.3045467" lon="-0.3280817"><ele>41.0</ele><time>2026-03-25T16:20:24.315Z</time></trkpt><trkpt lat="51.3046767" lon="-0.3279367"><ele>41.0</ele><time>2026-03-25T16:20:26.315Z</time></trkpt><trkpt lat="51.3047983" lon="-0.3278067"><ele>41.0</ele><time>2026-03-25T16:20:28.314Z</time></trkpt><trkpt lat="51.3048533" lon="-0.327745"><ele>41.0</ele><time>2026-03-25T16:20:29.316Z</time></trkpt><trkpt lat="51.30496" lon="-0.3276317"><ele>41.0</ele><time>2026-03-25T16:20:31.313Z</time></trkpt><trkpt lat="51.30506" lon="-0.327525"><ele>41.0</ele><time>2026-03-25T16:20:33.314Z</time></trkpt><trkpt lat="51.3051983" lon="-0.3273233"><ele>41.33333333333333</ele><time>2026-03-25T16:20:36.315Z</time></trkpt><trkpt lat="51.3052817" lon="-0.32718"><ele>41.666666666666664</ele><time>2026-03-25T16:20:38.314Z</time></trkpt><trkpt lat="51.3053833" lon="-0.3270033"><ele>42.0</ele><time>2026-03-25T16:20:41.314Z</time></trkpt><trkpt lat="51.3056167" lon="-0.326525"><ele>42.0</ele><time>2026-03-25T16:20:47.316Z</time></trkpt><trkpt lat="51.30566" lon="-0.3264383"><ele>42.0</ele><time>2026-03-25T16:20:48.314Z</time></trkpt><trkpt lat="51.3057717" lon="-0.32621"><ele>42.0</ele><time>2026-03-25T16:20:51.314Z</time></trkpt><trkpt lat="51.3058217" lon="-0.32611"><ele>42.0</ele><time>2026-03-25T16:20:52.313Z</time></trkpt><trkpt lat="51.305875" lon="-0.32599"><ele>42.0</ele><time>2026-03-25T16:20:53.315Z</time></trkpt><trkpt lat="51.30593" lon="-0.3258617"><ele>42.5</ele><time>2026-03-25T16:20:54.314Z</time></trkpt><trkpt lat="51.305995" lon="-0.3257333"><ele>43.0</ele><time>2026-03-25T16:20:55.314Z</time></trkpt><trkpt lat="51.3060667" lon="-0.3255783"><ele>43.5</ele><time>2026-03-25T16:20:56.317Z</time></trkpt><trkpt lat="51.3061517" lon="-0.3254067"><ele>44.0</ele><time>2026-03-25T16:20:57.314Z</time></trkpt><trkpt lat="51.3062433" lon="-0.325225"><ele>44.0</ele><time>2026-03-25T16:20:58.315Z</time></trkpt><trkpt lat="51.3063367" lon="-0.325045"><ele>44.0</ele><time>2026-03-25T16:20:59.315Z</time></trkpt><trkpt lat="51.306425" lon="-0.3248683"><ele>44.0</ele><time>2026-03-25T16:21:00.315Z</time></trkpt><trkpt lat="51.3065133" lon="-0.3246983"><ele>44.0</ele><time>2026-03-25T16:21:01.315Z</time></trkpt><trkpt lat="51.3066" lon="-0.3245333"><ele>44.75</ele><time>2026-03-25T16:21:02.314Z</time></trkpt><trkpt lat="51.306685" lon="-0.3243733"><ele>45.5</ele><time>2026-03-25T16:21:03.313Z</time></trkpt><trkpt lat="51.306765" lon="-0.3242283"><ele>46.25</ele><time>2026-03-25T16:21:04.315Z</time></trkpt><trkpt lat="51.30684" lon="-0.3240933"><ele>47.0</ele><time>2026-03-25T16:21:05.314Z</time></trkpt><trkpt lat="51.3069117" lon="-0.3239717"><ele>47.6</ele><time>2026-03-25T16:21:06.314Z</time></trkpt><trkpt lat="51.3069817" lon="-0.3238533"><ele>48.2</ele><time>2026-03-25T16:21:07.316Z</time></trkpt><trkpt lat="51.3070483" lon="-0.3237383"><ele>48.8</ele><time>2026-03-25T16:21:08.314Z</time></trkpt><trkpt lat="51.3071133" lon="-0.3236267"><ele>49.4</ele><time>2026-03-25T16:21:09.314Z</time></trkpt><trkpt lat="51.30718" lon="-0.3235017"><ele>50.0</ele><time>2026-03-25T16:21:10.314Z</time></trkpt><trkpt lat="51.3072617" lon="-0.3233883"><ele>50.2</ele><time>2026-03-25T16:21:11.314Z</time></trkpt><trkpt lat="51.3073333" lon="-0.323275"><ele>50.4</ele><time>2026-03-25T16:21:12.317Z</time></trkpt><trkpt lat="51.307415" lon="-0.323145"><ele>50.599999999999994</ele><time>2026-03-25T16:21:13.315Z</time></trkpt><trkpt lat="51.307495" lon="-0.32302"><ele>50.8</ele><time>2026-03-25T16:21:14.314Z</time></trkpt><trkpt lat="51.3075683" lon="-0.3228983"><ele>51.0</ele><time>2026-03-25T16:21:15.315Z</time></trkpt><trkpt lat="51.307655" lon="-0.322775"><ele>50.666666666666664</ele><time>2026-03-25T16:21:16.316Z</time></trkpt><trkpt lat="51.3077167" lon="-0.3226667"><ele>50.33333333333333</ele><time>2026-03-25T16:21:17.315Z</time></trkpt><trkpt lat="51.307785" lon="-0.3225717"><ele>50.0</ele><time>2026-03-25T16:21:18.315Z</time></trkpt><trkpt lat="51.307855" lon="-0.3224967"><ele>49.666666666666664</ele><time>2026-03-25T16:21:19.314Z</time></trkpt><trkpt lat="51.307915" lon="-0.32241"><ele>49.33333333333333</ele><time>2026-03-25T16:21:20.314Z</time></trkpt><trkpt lat="51.30798" lon="-0.322315"><ele>49.0</ele><time>2026-03-25T16:21:21.314Z</time></trkpt><trkpt lat="51.3080333" lon="-0.322225"><ele>49.0</ele><time>2026-03-25T16:21:22.315Z</time></trkpt><trkpt lat="51.3080917" lon="-0.3221317"><ele>49.0</ele><time>2026-03-25T16:21:23.315Z</time></trkpt><trkpt lat="51.3081517" lon="-0.3220267"><ele>49.0</ele><time>2026-03-25T16:21:24.316Z</time></trkpt><trkpt lat="51.3082183" lon="-0.321915"><ele>49.0</ele><time>2026-03-25T16:21:25.314Z</time></trkpt><trkpt lat="51.3082983" lon="-0.3217817"><ele>49.0</ele><time>2026-03-25T16:21:26.313Z</time></trkpt><trkpt lat="51.3083817" lon="-0.3216467"><ele>49.0</ele><time>2026-03-25T16:21:27.314Z</time></trkpt><trkpt lat="51.3084667" lon="-0.3215083"><ele>49.0</ele><time>2026-03-25T16:21:28.313Z</time></trkpt><trkpt lat="51.3085567" lon="-0.321385"><ele>49.0</ele><time>2026-03-25T16:21:29.313Z</time></trkpt><trkpt lat="51.3086383" lon="-0.3212667"><ele>49.0</ele><time>2026-03-25T16:21:30.315Z</time></trkpt><trkpt lat="51.3087267" lon="-0.32113"><ele>49.0</ele><time>2026-03-25T16:21:31.314Z</time></trkpt><trkpt lat="51.30882" lon="-0.3209967"><ele>49.0</ele><time>2026-03-25T16:21:32.315Z</time></trkpt><trkpt lat="51.30891" lon="-0.32087"><ele>49.0</ele><time>2026-03-25T16:21:33.315Z</time></trkpt><trkpt lat="51.3089983" lon="-0.3207517"><ele>49.0</ele><time>2026-03-25T16:21:34.314Z</time></trkpt><trkpt lat="51.30909" lon="-0.3206433"><ele>49.0</ele><time>2026-03-25T16:21:35.315Z</time></trkpt><trkpt lat="51.3091733" lon="-0.3205417"><ele>49.0</ele><time>2026-03-25T16:21:36.313Z</time></trkpt><trkpt lat="51.309255" lon="-0.3204483"><ele>49.0</ele><time>2026-03-25T16:21:37.315Z</time></trkpt><trkpt lat="51.30933" lon="-0.3203583"><ele>49.0</ele><time>2026-03-25T16:21:38.314Z</time></trkpt><trkpt lat="51.3094" lon="-0.3202633"><ele>49.0</ele><time>2026-03-25T16:21:39.316Z</time></trkpt><trkpt lat="51.3094717" lon="-0.320155"><ele>49.0</ele><time>2026-03-25T16:21:40.315Z</time></trkpt><trkpt lat="51.3095483" lon="-0.32003"><ele>49.0</ele><time>2026-03-25T16:21:41.314Z</time></trkpt><trkpt lat="51.3096367" lon="-0.3198817"><ele>49.0</ele><time>2026-03-25T16:21:42.315Z</time></trkpt><trkpt lat="51.3097233" lon="-0.3197117"><ele>49.0</ele><time>2026-03-25T16:21:43.317Z</time></trkpt><trkpt lat="51.3098083" lon="-0.3195317"><ele>48.75</ele><time>2026-03-25T16:21:44.316Z</time></trkpt><trkpt lat="51.3098817" lon="-0.319365"><ele>48.5</ele><time>2026-03-25T16:21:45.318Z</time></trkpt><trkpt lat="51.3099533" lon="-0.3192067"><ele>48.25</ele><time>2026-03-25T16:21:46.318Z</time></trkpt><trkpt lat="51.310015" lon="-0.3190633"><ele>48.0</ele><time>2026-03-25T16:21:47.317Z</time></trkpt><trkpt lat="51.310075" lon="-0.3189267"><ele>48.4</ele><time>2026-03-25T16:21:48.313Z</time></trkpt><trkpt lat="51.3101317" lon="-0.3187883"><ele>48.8</ele><time>2026-03-25T16:21:49.316Z</time></trkpt><trkpt lat="51.3101833" lon="-0.3186467"><ele>49.2</ele><time>2026-03-25T16:21:50.313Z</time></trkpt><trkpt lat="51.3102317" lon="-0.3185133"><ele>49.6</ele><time>2026-03-25T16:21:51.314Z</time></trkpt><trkpt lat="51.3102733" lon="-0.3183933"><ele>50.0</ele><time>2026-03-25T16:21:52.313Z</time></trkpt><trkpt lat="51.31031" lon="-0.3182883"><ele>50.0</ele><time>2026-03-25T16:21:53.313Z</time></trkpt><trkpt lat="51.310345" lon="-0.3181967"><ele>50.0</ele><time>2026-03-25T16:21:54.314Z</time></trkpt><trkpt lat="51.31039" lon="-0.31806"><ele>50.0</ele><time>2026-03-25T16:21:56.314Z</time></trkpt><trkpt lat="51.3104283" lon="-0.31795"><ele>50.0</ele><time>2026-03-25T16:21:59.314Z</time></trkpt><trkpt lat="51.310475" lon="-0.3178"><ele>50.0</ele><time>2026-03-25T16:22:03.314Z</time></trkpt><trkpt lat="51.3105333" lon="-0.3176417"><ele>50.00000000000001</ele><time>2026-03-25T16:22:05.314Z</time></trkpt><trkpt lat="51.3105667" lon="-0.31754"><ele>50.0</ele><time>2026-03-25T16:22:06.314Z</time></trkpt><trkpt lat="51.3105983" lon="-0.3174317"><ele>50.0</ele><time>2026-03-25T16:22:07.315Z</time></trkpt><trkpt lat="51.3106383" lon="-0.3173333"><ele>50.0</ele><time>2026-03-25T16:22:08.315Z</time></trkpt><trkpt lat="51.310675" lon="-0.3172317"><ele>50.00000000000001</ele><time>2026-03-25T16:22:09.314Z</time></trkpt><trkpt lat="51.3107133" lon="-0.3171233"><ele>50.0</ele><time>2026-03-25T16:22:10.313Z</time></trkpt><trkpt lat="51.31075" lon="-0.317005"><ele>50.0</ele><time>2026-03-25T16:22:11.315Z</time></trkpt><trkpt lat="51.3107917" lon="-0.3168767"><ele>50.0</ele><time>2026-03-25T16:22:12.315Z</time></trkpt><trkpt lat="51.3108367" lon="-0.316745"><ele>50.0</ele><time>2026-03-25T16:22:13.315Z</time></trkpt><trkpt lat="51.3108833" lon="-0.316605"><ele>50.0</ele><time>2026-03-25T16:22:14.314Z</time></trkpt><trkpt lat="51.3109317" lon="-0.316465"><ele>50.0</ele><time>2026-03-25T16:22:15.315Z</time></trkpt><trkpt lat="51.3109817" lon="-0.31632"><ele>50.2</ele><time>2026-03-25T16:22:16.314Z</time></trkpt><trkpt lat="51.3110283" lon="-0.3161767"><ele>50.4</ele><time>2026-03-25T16:22:17.317Z</time></trkpt><trkpt lat="51.3110833" lon="-0.3160267"><ele>50.599999999999994</ele><time>2026-03-25T16:22:18.314Z</time></trkpt><trkpt lat="51.3111383" lon="-0.3158767"><ele>50.8</ele><time>2026-03-25T16:22:19.315Z</time></trkpt><trkpt lat="51.3111983" lon="-0.3157267"><ele>51.0</ele><time>2026-03-25T16:22:20.314Z</time></trkpt><trkpt lat="51.3112683" lon="-0.3155683"><ele>51.0</ele><time>2026-03-25T16:22:21.315Z</time></trkpt><trkpt lat="51.3113333" lon="-0.3154067"><ele>51.0</ele><time>2026-03-25T16:22:22.313Z</time></trkpt><trkpt lat="51.3113983" lon="-0.3152517"><ele>51.0</ele><time>2026-03-25T16:22:23.313Z</time></trkpt><trkpt lat="51.311465" lon="-0.3151"><ele>51.0</ele><time>2026-03-25T16:22:24.315Z</time></trkpt><trkpt lat="51.311535" lon="-0.3149517"><ele>51.0</ele><time>2026-03-25T16:22:25.314Z</time></trkpt><trkpt lat="51.3116" lon="-0.3147917"><ele>51.0</ele><time>2026-03-25T16:22:26.316Z</time></trkpt><trkpt lat="51.3116617" lon="-0.3146333"><ele>51.0</ele><time>2026-03-25T16:22:27.315Z</time></trkpt><trkpt lat="51.311725" lon="-0.3144683"><ele>51.0</ele><time>2026-03-25T16:22:28.314Z</time></trkpt><trkpt lat="51.3117917" lon="-0.314305"><ele>51.75</ele><time>2026-03-25T16:22:29.315Z</time></trkpt><trkpt lat="51.3118583" lon="-0.3141367"><ele>52.5</ele><time>2026-03-25T16:22:30.313Z</time></trkpt><trkpt lat="51.311925" lon="-0.313975"><ele>53.25</ele><time>2026-03-25T16:22:31.314Z</time></trkpt><trkpt lat="51.3119883" lon="-0.3138167"><ele>54.0</ele><time>2026-03-25T16:22:32.313Z</time></trkpt><trkpt lat="51.3120483" lon="-0.31366"><ele>54.25</ele><time>2026-03-25T16:22:33.313Z</time></trkpt><trkpt lat="51.3121083" lon="-0.3135017"><ele>54.5</ele><time>2026-03-25T16:22:34.313Z</time></trkpt><trkpt lat="51.3121717" lon="-0.313345"><ele>54.75</ele><time>2026-03-25T16:22:35.314Z</time></trkpt><trkpt lat="51.3122367" lon="-0.3131933"><ele>55.0</ele><time>2026-03-25T16:22:36.315Z</time></trkpt><trkpt lat="51.3123" lon="-0.3130533"><ele>55.0</ele><time>2026-03-25T16:22:37.314Z</time></trkpt></trkseg><trkseg><trkpt lat="51.3160367" lon="-0.3056617"><ele>56.00000000000001</ele><time>2026-03-25T16:29:36.315Z</time></trkpt><trkpt lat="51.3160533" lon="-0.30556"><ele>56.0</ele><time>2026-03-25T16:29:37.315Z</time></trkpt><trkpt lat="51.3161067" lon="-0.3054067"><ele>56.0</ele><time>2026-03-25T16:29:39.315Z</time></trkpt><trkpt lat="51.316135" lon="-0.3052867"><ele>56.0</ele><time>2026-03-25T16:29:41.315Z</time></trkpt><trkpt lat="51.3161283" lon="-0.3051617"><ele>56.00000000000001</ele><time>2026-03-25T16:29:43.314Z</time></trkpt><trkpt lat="51.316065" lon="-0.3050083"><ele>56.0</ele><time>2026-03-25T16:29:45.314Z</time></trkpt><trkpt lat="51.316015" lon="-0.3049383"><ele>56.00000000000001</ele><time>2026-03-25T16:29:46.314Z</time></trkpt><trkpt lat="51.3159617" lon="-0.3048717"><ele>56.0</ele><time>2026-03-25T16:29:47.313Z</time></trkpt><trkpt lat="51.315895" lon="-0.3048083"><ele>56.0</ele><time>2026-03-25T16:29:48.314Z</time></trkpt><trkpt lat="51.31584" lon="-0.304745"><ele>56.0</ele><time>2026-03-25T16:29:49.314Z</time></trkpt><trkpt lat="51.3157817" lon="-0.3046733"><ele>56.00000000000001</ele><time>2026-03-25T16:29:50.315Z</time></trkpt><trkpt lat="51.3157183" lon="-0.3045867"><ele>56.0</ele><time>2026-03-25T16:29:51.317Z</time></trkpt><trkpt lat="51.3156467" lon="-0.3044917"><ele>56.4</ele><time>2026-03-25T16:29:52.315Z</time></trkpt><trkpt lat="51.3155667" lon="-0.30439"><ele>56.8</ele><time>2026-03-25T16:29:53.313Z</time></trkpt><trkpt lat="51.315495" lon="-0.3042917"><ele>57.199999999999996</ele><time>2026-03-25T16:29:54.315Z</time></trkpt><trkpt lat="51.3154217" lon="-0.3041933"><ele>57.599999999999994</ele><time>2026-03-25T16:29:55.313Z</time></trkpt><trkpt lat="51.3153567" lon="-0.3041033"><ele>58.0</ele><time>2026-03-25T16:29:56.314Z</time></trkpt><trkpt lat="51.3152983" lon="-0.3040217"><ele>58.0</ele><time>2026-03-25T16:29:57.314Z</time></trkpt><trkpt lat="51.31525" lon="-0.3039483"><ele>58.0</ele><time>2026-03-25T16:29:58.315Z</time></trkpt><trkpt lat="51.3151983" lon="-0.3037983"><ele>58.0</ele><time>2026-03-25T16:30:00.315Z</time></trkpt><trkpt lat="51.3152233" lon="-0.3036017"><ele>58.0</ele><time>2026-03-25T16:30:02.315Z</time></trkpt><trkpt lat="51.3152533" lon="-0.3034817"><ele>58.0</ele><time>2026-03-25T16:30:03.315Z</time></trkpt><trkpt lat="51.3152983" lon="-0.3033383"><ele>58.2</ele><time>2026-03-25T16:30:04.314Z</time></trkpt><trkpt lat="51.31535" lon="-0.303195"><ele>58.4</ele><time>2026-03-25T16:30:05.314Z</time></trkpt><trkpt lat="51.3154117" lon="-0.3030433"><ele>58.60000000000001</ele><time>2026-03-25T16:30:06.315Z</time></trkpt><trkpt lat="51.31546" lon="-0.30291"><ele>58.800000000000004</ele><time>2026-03-25T16:30:07.314Z</time></trkpt><trkpt lat="51.3155167" lon="-0.302765"><ele>59.0</ele><time>2026-03-25T16:30:08.314Z</time></trkpt><trkpt lat="51.3155683" lon="-0.3026283"><ele>59.00000000000001</ele><time>2026-03-25T16:30:09.313Z</time></trkpt><trkpt lat="51.3156167" lon="-0.3025067"><ele>59.0</ele><time>2026-03-25T16:30:10.314Z</time></trkpt><trkpt lat="51.3156583" lon="-0.3023933"><ele>59.0</ele><time>2026-03-25T16:30:11.314Z</time></trkpt><trkpt lat="51.3157" lon="-0.30229"><ele>59.0</ele><time>2026-03-25T16:30:12.316Z</time></trkpt><trkpt lat="51.31574" lon="-0.3021883"><ele>59.00000000000001</ele><time>2026-03-25T16:30:13.315Z</time></trkpt><trkpt lat="51.3157767" lon="-0.302075"><ele>59.0</ele><time>2026-03-25T16:30:14.315Z</time></trkpt><trkpt lat="51.315815" lon="-0.3019683"><ele>58.800000000000004</ele><time>2026-03-25T16:30:15.314Z</time></trkpt><trkpt lat="51.3158483" lon="-0.3018533"><ele>58.60000000000001</ele><time>2026-03-25T16:30:16.314Z</time></trkpt><trkpt lat="51.3158817" lon="-0.3017533"><ele>58.4</ele><time>2026-03-25T16:30:17.314Z</time></trkpt><trkpt lat="51.3159383" lon="-0.3015917"><ele>58.2</ele><time>2026-03-25T16:30:19.313Z</time></trkpt><trkpt lat="51.3159717" lon="-0.301415"><ele>58.0</ele><time>2026-03-25T16:30:21.314Z</time></trkpt><trkpt lat="51.3159817" lon="-0.3013067"><ele>57.83333333333333</ele><time>2026-03-25T16:30:22.315Z</time></trkpt><trkpt lat="51.3159833" lon="-0.3011883"><ele>57.666666666666664</ele><time>2026-03-25T16:30:23.317Z</time></trkpt><trkpt lat="51.3159817" lon="-0.3010717"><ele>57.5</ele><time>2026-03-25T16:30:24.315Z</time></trkpt><trkpt lat="51.31597" lon="-0.3009533"><ele>57.33333333333333</ele><time>2026-03-25T16:30:25.314Z</time></trkpt><trkpt lat="51.3159467" lon="-0.3008317"><ele>57.166666666666664</ele><time>2026-03-25T16:30:26.316Z</time></trkpt><trkpt lat="51.3159133" lon="-0.3007033"><ele>57.0</ele><time>2026-03-25T16:30:27.315Z</time></trkpt><trkpt lat="51.3158683" lon="-0.3005817"><ele>57.400000000000006</ele><time>2026-03-25T16:30:28.313Z</time></trkpt><trkpt lat="51.3158167" lon="-0.30047"><ele>57.800000000000004</ele><time>2026-03-25T16:30:29.315Z</time></trkpt><trkpt lat="51.3157533" lon="-0.3003783"><ele>58.2</ele><time>2026-03-25T16:30:30.317Z</time></trkpt><trkpt lat="51.3156783" lon="-0.3002933"><ele>58.6</ele><time>2026-03-25T16:30:31.315Z</time></trkpt><trkpt lat="51.31559" lon="-0.3002233"><ele>59.0</ele><time>2026-03-25T16:30:32.314Z</time></trkpt><trkpt lat="51.3154833" lon="-0.3001633"><ele>59.5</ele><time>2026-03-25T16:30:33.315Z</time></trkpt><trkpt lat="51.3153733" lon="-0.300105"><ele>60.0</ele><time>2026-03-25T16:30:34.314Z</time></trkpt><trkpt lat="51.3152667" lon="-0.3000517"><ele>60.5</ele><time>2026-03-25T16:30:35.317Z</time></trkpt><trkpt lat="51.3151567" lon="-0.2999983"><ele>61.0</ele><time>2026-03-25T16:30:36.32Z</time></trkpt><trkpt lat="51.31505" lon="-0.2999417"><ele>61.0</ele><time>2026-03-25T16:30:37.318Z</time></trkpt><trkpt lat="51.3149483" lon="-0.2998767"><ele>60.99999999999999</ele><time>2026-03-25T16:30:38.318Z</time></trkpt><trkpt lat="51.3148483" lon="-0.299815"><ele>60.99999999999999</ele><time>2026-03-25T16:30:39.313Z</time></trkpt><trkpt lat="51.3147483" lon="-0.29975"><ele>61.0</ele><time>2026-03-25T16:30:40.315Z</time></trkpt><trkpt lat="51.31465" lon="-0.2996767"><ele>61.0</ele><time>2026-03-25T16:30:41.314Z</time></trkpt><trkpt lat="51.3145533" lon="-0.2995867"><ele>62.25</ele><time>2026-03-25T16:30:42.314Z</time></trkpt><trkpt lat="51.3144617" lon="-0.2994833"><ele>63.5</ele><time>2026-03-25T16:30:43.315Z</time></trkpt><trkpt lat="51.3143733" lon="-0.29937"><ele>64.75</ele><time>2026-03-25T16:30:44.317Z</time></trkpt><trkpt lat="51.3142867" lon="-0.2992533"><ele>66.0</ele><time>2026-03-25T16:30:45.314Z</time></trkpt><trkpt lat="51.31421" lon="-0.299125"><ele>66.0</ele><time>2026-03-25T16:30:46.313Z</time></trkpt><trkpt lat="51.314145" lon="-0.29899"><ele>66.0</ele><time>2026-03-25T16:30:47.313Z</time></trkpt><trkpt lat="51.314085" lon="-0.2988483"><ele>66.0</ele><time>2026-03-25T16:30:48.318Z</time></trkpt><trkpt lat="51.31403" lon="-0.2987133"><ele>66.0</ele><time>2026-03-25T16:30:49.319Z</time></trkpt><trkpt lat="51.313975" lon="-0.29858"><ele>66.0</ele><time>2026-03-25T16:30:50.315Z</time></trkpt><trkpt lat="51.31392" lon="-0.29844"><ele>66.2</ele><time>2026-03-25T16:30:51.314Z</time></trkpt><trkpt lat="51.31387" lon="-0.2983"><ele>66.39999999999999</ele><time>2026-03-25T16:30:52.315Z</time></trkpt><trkpt lat="51.3138217" lon="-0.2981567"><ele>66.6</ele><time>2026-03-25T16:30:53.315Z</time></trkpt><trkpt lat="51.3137817" lon="-0.2980083"><ele>66.8</ele><time>2026-03-25T16:30:54.314Z</time></trkpt><trkpt lat="51.3137483" lon="-0.2978617"><ele>67.0</ele><time>2026-03-25T16:30:55.316Z</time></trkpt><trkpt lat="51.3137167" lon="-0.29772"><ele>67.0</ele><time>2026-03-25T16:30:56.314Z</time></trkpt><trkpt lat="51.3136817" lon="-0.2975883"><ele>67.0</ele><time>2026-03-25T16:30:57.314Z</time></trkpt><trkpt lat="51.3136417" lon="-0.2974667"><ele>67.0</ele><time>2026-03-25T16:30:58.315Z</time></trkpt><trkpt lat="51.3135883" lon="-0.29735"><ele>67.0</ele><time>2026-03-25T16:30:59.316Z</time></trkpt><trkpt lat="51.3135017" lon="-0.29726"><ele>67.0</ele><time>2026-03-25T16:31:00.315Z</time></trkpt><trkpt lat="51.3134133" lon="-0.2971633"><ele>67.0</ele><time>2026-03-25T16:31:01.313Z</time></trkpt><trkpt lat="51.31332" lon="-0.2970667"><ele>67.0</ele><time>2026-03-25T16:31:02.315Z</time></trkpt><trkpt lat="51.3132133" lon="-0.296975"><ele>67.0</ele><time>2026-03-25T16:31:03.314Z</time></trkpt><trkpt lat="51.31311" lon="-0.2968783"><ele>67.0</ele><time>2026-03-25T16:31:04.315Z</time></trkpt><trkpt lat="51.3130067" lon="-0.2967817"><ele>67.2</ele><time>2026-03-25T16:31:05.313Z</time></trkpt><trkpt lat="51.3129067" lon="-0.296685"><ele>67.4</ele><time>2026-03-25T16:31:06.315Z</time></trkpt><trkpt lat="51.312815" lon="-0.2965817"><ele>67.6</ele><time>2026-03-25T16:31:07.315Z</time></trkpt><trkpt lat="51.3127283" lon="-0.2964867"><ele>67.8</ele><time>2026-03-25T16:31:08.318Z</time></trkpt><trkpt lat="51.3126517" lon="-0.2963817"><ele>68.0</ele><time>2026-03-25T16:31:09.315Z</time></trkpt><trkpt lat="51.3125933" lon="-0.29628"><ele>68.0</ele><time>2026-03-25T16:31:10.314Z</time></trkpt><trkpt lat="51.312555" lon="-0.2961583"><ele>68.0</ele><time>2026-03-25T16:31:11.314Z</time></trkpt><trkpt lat="51.3125317" lon="-0.2960283"><ele>68.0</ele><time>2026-03-25T16:31:12.316Z</time></trkpt><trkpt lat="51.3125433" lon="-0.2959"><ele>68.0</ele><time>2026-03-25T16:31:13.315Z</time></trkpt><trkpt lat="51.3125917" lon="-0.2957917"><ele>68.0</ele><time>2026-03-25T16:31:14.317Z</time></trkpt><trkpt lat="51.31268" lon="-0.2957017"><ele>68.0</ele><time>2026-03-25T16:31:15.313Z</time></trkpt><trkpt lat="51.3127483" lon="-0.295635"><ele>68.0</ele><time>2026-03-25T16:31:16.318Z</time></trkpt><trkpt lat="51.3128333" lon="-0.2955917"><ele>68.0</ele><time>2026-03-25T16:31:17.314Z</time></trkpt><trkpt lat="51.3129267" lon="-0.29555"><ele>68.0</ele><time>2026-03-25T16:31:18.314Z</time></trkpt><trkpt lat="51.3130367" lon="-0.2955033"><ele>68.0</ele><time>2026-03-25T16:31:19.315Z</time></trkpt><trkpt lat="51.3131417" lon="-0.2954533"><ele>68.0</ele><time>2026-03-25T16:31:20.313Z</time></trkpt><trkpt lat="51.3132317" lon="-0.2954083"><ele>67.66666666666667</ele><time>2026-03-25T16:31:21.314Z</time></trkpt><trkpt lat="51.3133117" lon="-0.2953817"><ele>67.33333333333334</ele><time>2026-03-25T16:31:22.313Z</time></trkpt><trkpt lat="51.3133867" lon="-0.29539"><ele>67.0</ele><time>2026-03-25T16:31:23.314Z</time></trkpt><trkpt lat="51.313455" lon="-0.2954233"><ele>66.66666666666667</ele><time>2026-03-25T16:31:24.315Z</time></trkpt><trkpt lat="51.3135183" lon="-0.2954883"><ele>66.33333333333333</ele><time>2026-03-25T16:31:25.314Z</time></trkpt><trkpt lat="51.3135683" lon="-0.295575"><ele>66.0</ele><time>2026-03-25T16:31:26.314Z</time></trkpt><trkpt lat="51.3136233" lon="-0.2956833"><ele>66.0</ele><time>2026-03-25T16:31:27.313Z</time></trkpt><trkpt lat="51.31369" lon="-0.2958017"><ele>66.0</ele><time>2026-03-25T16:31:28.314Z</time></trkpt><trkpt lat="51.313755" lon="-0.2959067"><ele>66.0</ele><time>2026-03-25T16:31:29.314Z</time></trkpt><trkpt lat="51.3138233" lon="-0.296"><ele>66.0</ele><time>2026-03-25T16:31:30.315Z</time></trkpt><trkpt lat="51.3138933" lon="-0.2960783"><ele>66.0</ele><time>2026-03-25T16:31:31.315Z</time></trkpt><trkpt lat="51.31396" lon="-0.296145"><ele>66.0</ele><time>2026-03-25T16:31:32.316Z</time></trkpt><trkpt lat="51.3140233" lon="-0.2962067"><ele>65.5</ele><time>2026-03-25T16:31:33.313Z</time></trkpt><trkpt lat="51.31408" lon="-0.2962717"><ele>65.0</ele><time>2026-03-25T16:31:34.313Z</time></trkpt><trkpt lat="51.314165" lon="-0.29636"><ele>64.5</ele><time>2026-03-25T16:31:36.315Z</time></trkpt><trkpt lat="51.3142433" lon="-0.2963517"><ele>64.0</ele><time>2026-03-25T16:31:38.314Z</time></trkpt><trkpt lat="51.31431" lon="-0.2962517"><ele>63.5</ele><time>2026-03-25T16:31:40.315Z</time></trkpt><trkpt lat="51.3143367" lon="-0.29615"><ele>63.0</ele><time>2026-03-25T16:31:41.313Z</time></trkpt><trkpt lat="51.31437" lon="-0.29603"><ele>63.0</ele><time>2026-03-25T16:31:42.314Z</time></trkpt><trkpt lat="51.3144133" lon="-0.29591"><ele>63.0</ele><time>2026-03-25T16:31:43.314Z</time></trkpt><trkpt lat="51.3144533" lon="-0.2958"><ele>63.0</ele><time>2026-03-25T16:31:44.315Z</time></trkpt><trkpt lat="51.314495" lon="-0.29569"><ele>63.0</ele><time>2026-03-25T16:31:45.314Z</time></trkpt><trkpt lat="51.3145333" lon="-0.2955867"><ele>63.0</ele><time>2026-03-25T16:31:46.315Z</time></trkpt><trkpt lat="51.3145617" lon="-0.2954933"><ele>63.0</ele><time>2026-03-25T16:31:47.314Z</time></trkpt><trkpt lat="51.314625" lon="-0.2953317"><ele>63.0</ele><time>2026-03-25T16:31:49.315Z</time></trkpt><trkpt lat="51.31469" lon="-0.2952"><ele>63.0</ele><time>2026-03-25T16:31:51.314Z</time></trkpt><trkpt lat="51.314735" lon="-0.2951267"><ele>63.0</ele><time>2026-03-25T16:31:52.314Z</time></trkpt><trkpt lat="51.3148083" lon="-0.29498"><ele>63.0</ele><time>2026-03-25T16:31:54.314Z</time></trkpt><trkpt lat="51.3148917" lon="-0.2948183"><ele>63.0</ele><time>2026-03-25T16:31:56.314Z</time></trkpt><trkpt lat="51.3149467" lon="-0.2947183"><ele>63.0</ele><time>2026-03-25T16:31:57.317Z</time></trkpt><trkpt lat="51.3150067" lon="-0.2946117"><ele>63.0</ele><time>2026-03-25T16:31:58.313Z</time></trkpt><trkpt lat="51.315075" lon="-0.2945"><ele>63.0</ele><time>2026-03-25T16:31:59.313Z</time></trkpt><trkpt lat="51.31515" lon="-0.2944017"><ele>63.0</ele><time>2026-03-25T16:32:00.313Z</time></trkpt><trkpt lat="51.3152317" lon="-0.2943267"><ele>63.0</ele><time>2026-03-25T16:32:01.314Z</time></trkpt><trkpt lat="51.3153133" lon="-0.2942633"><ele>63.0</ele><time>2026-03-25T16:32:02.313Z</time></trkpt><trkpt lat="51.3153933" lon="-0.29421"><ele>63.0</ele><time>2026-03-25T16:32:03.314Z</time></trkpt><trkpt lat="51.3154633" lon="-0.2941617"><ele>63.0</ele><time>2026-03-25T16:32:04.314Z</time></trkpt><trkpt lat="51.3155217" lon="-0.29412"><ele>63.0</ele><time>2026-03-25T16:32:05.313Z</time></trkpt><trkpt lat="51.3155867" lon="-0.2940767"><ele>63.0</ele><time>2026-03-25T16:32:07.314Z</time></trkpt><trkpt lat="51.31567" lon="-0.2940167"><ele>63.0</ele><time>2026-03-25T16:32:09.316Z</time></trkpt><trkpt lat="51.3157967" lon="-0.2939283"><ele>63.333333333333336</ele><time>2026-03-25T16:32:11.313Z</time></trkpt><trkpt lat="51.31587" lon="-0.2938817"><ele>63.66666666666667</ele><time>2026-03-25T16:32:12.315Z</time></trkpt><trkpt lat="51.315935" lon="-0.293835"><ele>64.0</ele><time>2026-03-25T16:32:13.313Z</time></trkpt><trkpt lat="51.3160283" lon="-0.29377"><ele>64.33333333333334</ele><time>2026-03-25T16:32:15.315Z</time></trkpt><trkpt lat="51.3161333" lon="-0.293695"><ele>64.66666666666667</ele><time>2026-03-25T16:32:17.316Z</time></trkpt><trkpt lat="51.3162" lon="-0.293645"><ele>65.0</ele><time>2026-03-25T16:32:18.314Z</time></trkpt><trkpt lat="51.3162683" lon="-0.2935967"><ele>65.0</ele><time>2026-03-25T16:32:19.317Z</time></trkpt><trkpt lat="51.3163367" lon="-0.29355"><ele>65.0</ele><time>2026-03-25T16:32:20.318Z</time></trkpt><trkpt lat="51.3163983" lon="-0.2935117"><ele>65.0</ele><time>2026-03-25T16:32:21.314Z</time></trkpt><trkpt lat="51.3164933" lon="-0.2934433"><ele>65.0</ele><time>2026-03-25T16:32:23.317Z</time></trkpt><trkpt lat="51.3165617" lon="-0.2934017"><ele>65.0</ele><time>2026-03-25T16:32:26.317Z</time></trkpt><trkpt lat="51.3165617" lon="-0.2932967"><ele>65.0</ele><time>2026-03-25T16:32:28.314Z</time></trkpt><trkpt lat="51.3165067" lon="-0.2931"><ele>65.4</ele><time>2026-03-25T16:32:30.313Z</time></trkpt><trkpt lat="51.316465" lon="-0.2929533"><ele>65.8</ele><time>2026-03-25T16:32:31.313Z</time></trkpt><trkpt lat="51.3164267" lon="-0.292805"><ele>66.2</ele><time>2026-03-25T16:32:32.313Z</time></trkpt><trkpt lat="51.3163917" lon="-0.2926633"><ele>66.6</ele><time>2026-03-25T16:32:33.319Z</time></trkpt><trkpt lat="51.3163583" lon="-0.2925367"><ele>67.0</ele><time>2026-03-25T16:32:34.315Z</time></trkpt><trkpt lat="51.3163317" lon="-0.2924117"><ele>67.0</ele><time>2026-03-25T16:32:35.314Z</time></trkpt><trkpt lat="51.316305" lon="-0.2923067"><ele>67.0</ele><time>2026-03-25T16:32:36.315Z</time></trkpt><trkpt lat="51.3162683" lon="-0.2921533"><ele>67.0</ele><time>2026-03-25T16:32:38.314Z</time></trkpt><trkpt lat="51.3162317" lon="-0.2920317"><ele>67.0</ele><time>2026-03-25T16:32:40.315Z</time></trkpt><trkpt lat="51.3162" lon="-0.2919167"><ele>67.0</ele><time>2026-03-25T16:32:42.315Z</time></trkpt><trkpt lat="51.3161933" lon="-0.2918117"><ele>67.0</ele><time>2026-03-25T16:32:44.313Z</time></trkpt><trkpt lat="51.3162183" lon="-0.291675"><ele>68.2</ele><time>2026-03-25T16:32:47.313Z</time></trkpt><trkpt lat="51.3163033" lon="-0.2915833"><ele>69.4</ele><time>2026-03-25T16:32:49.314Z</time></trkpt><trkpt lat="51.31637" lon="-0.2915183"><ele>70.6</ele><time>2026-03-25T16:32:50.314Z</time></trkpt><trkpt lat="51.3164467" lon="-0.2914417"><ele>71.8</ele><time>2026-03-25T16:32:51.313Z</time></trkpt><trkpt lat="51.316525" lon="-0.2913617"><ele>73.0</ele><time>2026-03-25T16:32:52.314Z</time></trkpt><trkpt lat="51.3166" lon="-0.2912833"><ele>74.0</ele><time>2026-03-25T16:32:53.313Z</time></trkpt><trkpt lat="51.3166667" lon="-0.2912067"><ele>75.0</ele><time>2026-03-25T16:32:54.314Z</time></trkpt><trkpt lat="51.3167267" lon="-0.2911267"><ele>76.0</ele><time>2026-03-25T16:32:55.314Z</time></trkpt><trkpt lat="51.3167933" lon="-0.2910467"><ele>77.0</ele><time>2026-03-25T16:32:56.314Z</time></trkpt><trkpt lat="51.316865" lon="-0.2909617"><ele>78.0</ele><time>2026-03-25T16:32:57.315Z</time></trkpt><trkpt lat="51.3169333" lon="-0.29086"><ele>79.0</ele><time>2026-03-25T16:32:58.314Z</time></trkpt><trkpt lat="51.3170033" lon="-0.29076"><ele>79.0</ele><time>2026-03-25T16:32:59.314Z</time></trkpt><trkpt lat="51.3170717" lon="-0.29066"><ele>79.0</ele><time>2026-03-25T16:33:00.313Z</time></trkpt><trkpt lat="51.3171383" lon="-0.29056"><ele>79.0</ele><time>2026-03-25T16:33:01.315Z</time></trkpt><trkpt lat="51.3172083" lon="-0.2904533"><ele>79.0</ele><time>2026-03-25T16:33:02.314Z</time></trkpt><trkpt lat="51.3172733" lon="-0.290355"><ele>79.0</ele><time>2026-03-25T16:33:03.314Z</time></trkpt><trkpt lat="51.3173383" lon="-0.2902583"><ele>78.66666666666666</ele><time>2026-03-25T16:33:04.314Z</time></trkpt><trkpt lat="51.3174" lon="-0.2901667"><ele>78.33333333333333</ele><time>2026-03-25T16:33:05.313Z</time></trkpt><trkpt lat="51.317455" lon="-0.29009"><ele>78.0</ele><time>2026-03-25T16:33:06.313Z</time></trkpt><trkpt lat="51.3175083" lon="-0.2900217"><ele>77.66666666666667</ele><time>2026-03-25T16:33:07.314Z</time></trkpt><trkpt lat="51.3175867" lon="-0.2899217"><ele>77.33333333333334</ele><time>2026-03-25T16:33:09.314Z</time></trkpt><trkpt lat="51.3176033" lon="-0.2898183"><ele>77.0</ele><time>2026-03-25T16:33:13.313Z</time></trkpt><trkpt lat="51.317525" lon="-0.2898167"><ele>77.0</ele><time>2026-03-25T16:33:16.314Z</time></trkpt><trkpt lat="51.31745" lon="-0.2898383"><ele>77.0</ele><time>2026-03-25T16:33:18.315Z</time></trkpt><trkpt lat="51.3173733" lon="-0.2898567"><ele>77.0</ele><time>2026-03-25T16:33:20.318Z</time></trkpt><trkpt lat="51.317305" lon="-0.2898567"><ele>77.0</ele><time>2026-03-25T16:33:28.313Z</time></trkpt><trkpt lat="51.3171933" lon="-0.2898383"><ele>77.0</ele><time>2026-03-25T16:33:30.315Z</time></trkpt><trkpt lat="51.3170967" lon="-0.28981"><ele>77.0</ele><time>2026-03-25T16:33:32.315Z</time></trkpt><trkpt lat="51.3170083" lon="-0.2897817"><ele>78.0</ele><time>2026-03-25T16:33:34.313Z</time></trkpt><trkpt lat="51.316935" lon="-0.289755"><ele>79.0</ele><time>2026-03-25T16:33:36.314Z</time></trkpt><trkpt lat="51.31687" lon="-0.289725"><ele>80.0</ele><time>2026-03-25T16:33:38.313Z</time></trkpt><trkpt lat="51.316805" lon="-0.289695"><ele>81.0</ele><time>2026-03-25T16:33:40.314Z</time></trkpt><trkpt lat="51.316705" lon="-0.2896817"><ele>82.0</ele><time>2026-03-25T16:33:42.314Z</time></trkpt><trkpt lat="51.31662" lon="-0.2896617"><ele>83.0</ele><time>2026-03-25T16:33:44.316Z</time></trkpt><trkpt lat="51.316525" lon="-0.28965"><ele>83.0</ele><time>2026-03-25T16:33:46.314Z</time></trkpt><trkpt lat="51.3164117" lon="-0.2896583"><ele>83.0</ele><time>2026-03-25T16:33:48.314Z</time></trkpt><trkpt lat="51.3163" lon="-0.289685"><ele>83.0</ele><time>2026-03-25T16:33:50.313Z</time></trkpt><trkpt lat="51.3161833" lon="-0.289725"><ele>83.0</ele><time>2026-03-25T16:33:52.313Z</time></trkpt><trkpt lat="51.3160517" lon="-0.28976"><ele>81.80000000000001</ele><time>2026-03-25T16:33:54.315Z</time></trkpt><trkpt lat="51.315945" lon="-0.289795"><ele>80.60000000000001</ele><time>2026-03-25T16:33:56.315Z</time></trkpt><trkpt lat="51.31584" lon="-0.2898333"><ele>79.4</ele><time>2026-03-25T16:33:58.315Z</time></trkpt><trkpt lat="51.31574" lon="-0.2898717"><ele>78.2</ele><time>2026-03-25T16:34:00.316Z</time></trkpt><trkpt lat="51.3156283" lon="-0.289905"><ele>77.0</ele><time>2026-03-25T16:34:02.314Z</time></trkpt><trkpt lat="51.31556" lon="-0.2899217"><ele>76.16666666666667</ele><time>2026-03-25T16:34:03.315Z</time></trkpt><trkpt lat="51.3154917" lon="-0.2899367"><ele>75.33333333333334</ele><time>2026-03-25T16:34:04.315Z</time></trkpt><trkpt lat="51.3154267" lon="-0.28996"><ele>74.5</ele><time>2026-03-25T16:34:05.315Z</time></trkpt><trkpt lat="51.315315" lon="-0.2899833"><ele>73.66666666666667</ele><time>2026-03-25T16:34:07.314Z</time></trkpt><trkpt lat="51.3152317" lon="-0.2899883"><ele>72.83333333333333</ele><time>2026-03-25T16:34:09.315Z</time></trkpt><trkpt lat="51.3151533" lon="-0.28999"><ele>72.0</ele><time>2026-03-25T16:34:11.315Z</time></trkpt><trkpt lat="51.3150767" lon="-0.29"><ele>72.0</ele><time>2026-03-25T16:34:13.314Z</time></trkpt><trkpt lat="51.3149817" lon="-0.2900217"><ele>72.0</ele><time>2026-03-25T16:34:15.315Z</time></trkpt><trkpt lat="51.314885" lon="-0.2900383"><ele>72.0</ele><time>2026-03-25T16:34:17.313Z</time></trkpt><trkpt lat="51.314775" lon="-0.2900383"><ele>72.0</ele><time>2026-03-25T16:34:19.313Z</time></trkpt><trkpt lat="51.31466" lon="-0.290045"><ele>72.0</ele><time>2026-03-25T16:34:21.313Z</time></trkpt><trkpt lat="51.3145967" lon="-0.2900533"><ele>72.16666666666667</ele><time>2026-03-25T16:34:22.314Z</time></trkpt><trkpt lat="51.3145233" lon="-0.2900617"><ele>72.33333333333333</ele><time>2026-03-25T16:34:23.314Z</time></trkpt><trkpt lat="51.3144533" lon="-0.2900717"><ele>72.5</ele><time>2026-03-25T16:34:24.314Z</time></trkpt><trkpt lat="51.314335" lon="-0.2900733"><ele>72.66666666666666</ele><time>2026-03-25T16:34:26.314Z</time></trkpt><trkpt lat="51.3142183" lon="-0.2900667"><ele>72.83333333333333</ele><time>2026-03-25T16:34:28.313Z</time></trkpt><trkpt lat="51.3141517" lon="-0.290055"><ele>73.0</ele><time>2026-03-25T16:34:29.313Z</time></trkpt><trkpt lat="51.31408" lon="-0.2900383"><ele>73.0</ele><time>2026-03-25T16:34:30.314Z</time></trkpt><trkpt lat="51.3140117" lon="-0.290015"><ele>73.0</ele><time>2026-03-25T16:34:31.313Z</time></trkpt><trkpt lat="51.3139333" lon="-0.2900067"><ele>73.0</ele><time>2026-03-25T16:34:32.314Z</time></trkpt><trkpt lat="51.3138633" lon="-0.2899867"><ele>73.0</ele><time>2026-03-25T16:34:33.314Z</time></trkpt><trkpt lat="51.31374" lon="-0.2899533"><ele>73.0</ele><time>2026-03-25T16:34:35.314Z</time></trkpt><trkpt lat="51.3136283" lon="-0.28992"><ele>73.6</ele><time>2026-03-25T16:34:37.314Z</time></trkpt><trkpt lat="51.3135133" lon="-0.28993"><ele>74.19999999999999</ele><time>2026-03-25T16:34:39.315Z</time></trkpt><trkpt lat="51.3133933" lon="-0.28996"><ele>74.8</ele><time>2026-03-25T16:34:41.314Z</time></trkpt><trkpt lat="51.31333" lon="-0.2899683"><ele>75.39999999999999</ele><time>2026-03-25T16:34:42.314Z</time></trkpt><trkpt lat="51.31326" lon="-0.2899783"><ele>76.0</ele><time>2026-03-25T16:34:43.314Z</time></trkpt><trkpt lat="51.31315" lon="-0.290015"><ele>77.19999999999999</ele><time>2026-03-25T16:34:45.313Z</time></trkpt><trkpt lat="51.31305" lon="-0.2900533"><ele>78.39999999999999</ele><time>2026-03-25T16:34:47.314Z</time></trkpt><trkpt lat="51.3129467" lon="-0.2901"><ele>79.6</ele><time>2026-03-25T16:34:49.314Z</time></trkpt><trkpt lat="51.31288" lon="-0.29014"><ele>80.8</ele><time>2026-03-25T16:34:50.314Z</time></trkpt><trkpt lat="51.3127633" lon="-0.2902"><ele>82.0</ele><time>2026-03-25T16:34:52.314Z</time></trkpt><trkpt lat="51.3126617" lon="-0.29027"><ele>82.0</ele><time>2026-03-25T16:34:54.313Z</time></trkpt><trkpt lat="51.3125667" lon="-0.2903183"><ele>82.0</ele><time>2026-03-25T16:34:56.314Z</time></trkpt><trkpt lat="51.3124817" lon="-0.29037"><ele>82.0</ele><time>2026-03-25T16:34:58.314Z</time></trkpt><trkpt lat="51.3124033" lon="-0.29043"><ele>82.0</ele><time>2026-03-25T16:35:01.315Z</time></trkpt><trkpt lat="51.3123433" lon="-0.290475"><ele>82.0</ele><time>2026-03-25T16:35:05.313Z</time></trkpt><trkpt lat="51.3122717" lon="-0.2905"><ele>82.0</ele><time>2026-03-25T16:35:11.314Z</time></trkpt><trkpt lat="51.3121983" lon="-0.2904917"><ele>82.39999999999999</ele><time>2026-03-25T16:35:15.313Z</time></trkpt><trkpt lat="51.3120883" lon="-0.2905017"><ele>82.8</ele><time>2026-03-25T16:35:24.314Z</time></trkpt><trkpt lat="51.311995" lon="-0.290525"><ele>83.2</ele><time>2026-03-25T16:35:26.314Z</time></trkpt><trkpt lat="51.3118983" lon="-0.2905233"><ele>83.6</ele><time>2026-03-25T16:35:28.314Z</time></trkpt><trkpt lat="51.3118167" lon="-0.2905167"><ele>84.0</ele><time>2026-03-25T16:35:30.314Z</time></trkpt><trkpt lat="51.311725" lon="-0.2904733"><ele>84.0</ele><time>2026-03-25T16:35:32.314Z</time></trkpt><trkpt lat="51.31162" lon="-0.29042"><ele>84.0</ele><time>2026-03-25T16:35:34.313Z</time></trkpt><trkpt lat="51.3115033" lon="-0.2903383"><ele>84.0</ele><time>2026-03-25T16:35:36.313Z</time></trkpt><trkpt lat="51.3114283" lon="-0.2902817"><ele>84.0</ele><time>2026-03-25T16:35:37.314Z</time></trkpt><trkpt lat="51.311345" lon="-0.2902167"><ele>84.0</ele><time>2026-03-25T16:35:38.314Z</time></trkpt><trkpt lat="51.3112633" lon="-0.290145"><ele>84.33333333333333</ele><time>2026-03-25T16:35:39.314Z</time></trkpt><trkpt lat="51.3111833" lon="-0.29009"><ele>84.66666666666667</ele><time>2026-03-25T16:35:40.314Z</time></trkpt><trkpt lat="51.311115" lon="-0.2900383"><ele>85.0</ele><time>2026-03-25T16:35:41.314Z</time></trkpt><trkpt lat="51.3110533" lon="-0.2899817"><ele>85.33333333333334</ele><time>2026-03-25T16:35:42.314Z</time></trkpt><trkpt lat="51.310985" lon="-0.2899217"><ele>85.66666666666667</ele><time>2026-03-25T16:35:43.318Z</time></trkpt><trkpt lat="51.3109217" lon="-0.289875"><ele>86.0</ele><time>2026-03-25T16:35:44.314Z</time></trkpt><trkpt lat="51.31082" lon="-0.2897983"><ele>86.19999999999999</ele><time>2026-03-25T16:35:46.315Z</time></trkpt><trkpt lat="51.31075" lon="-0.2897467"><ele>86.39999999999999</ele><time>2026-03-25T16:35:48.313Z</time></trkpt><trkpt lat="51.310675" lon="-0.28969"><ele>86.6</ele><time>2026-03-25T16:35:51.315Z</time></trkpt><trkpt lat="51.3106683" lon="-0.2895367"><ele>86.8</ele><time>2026-03-25T16:35:55.314Z</time></trkpt><trkpt lat="51.3107117" lon="-0.289345"><ele>87.0</ele><time>2026-03-25T16:35:57.314Z</time></trkpt><trkpt lat="51.3107383" lon="-0.28922"><ele>87.0</ele><time>2026-03-25T16:35:58.314Z</time></trkpt><trkpt lat="51.3107667" lon="-0.28907"><ele>87.0</ele><time>2026-03-25T16:35:59.314Z</time></trkpt><trkpt lat="51.3108017" lon="-0.28891"><ele>87.0</ele><time>2026-03-25T16:36:00.314Z</time></trkpt><trkpt lat="51.3108267" lon="-0.2887517"><ele>87.0</ele><time>2026-03-25T16:36:01.314Z</time></trkpt><trkpt lat="51.3108433" lon="-0.2885983"><ele>87.0</ele><time>2026-03-25T16:36:02.314Z</time></trkpt><trkpt lat="51.3108617" lon="-0.2884533"><ele>87.19999999999999</ele><time>2026-03-25T16:36:03.315Z</time></trkpt><trkpt lat="51.3108717" lon="-0.2883083"><ele>87.4</ele><time>2026-03-25T16:36:04.314Z</time></trkpt><trkpt lat="51.3108717" lon="-0.28816"><ele>87.6</ele><time>2026-03-25T16:36:05.314Z</time></trkpt><trkpt lat="51.3108617" lon="-0.288"><ele>87.80000000000001</ele><time>2026-03-25T16:36:06.314Z</time></trkpt><trkpt lat="51.310845" lon="-0.287815"><ele>88.0</ele><time>2026-03-25T16:36:07.314Z</time></trkpt><trkpt lat="51.310815" lon="-0.2876383"><ele>88.2</ele><time>2026-03-25T16:36:08.314Z</time></trkpt><trkpt lat="51.3107917" lon="-0.2874533"><ele>88.4</ele><time>2026-03-25T16:36:09.313Z</time></trkpt><trkpt lat="51.3107683" lon="-0.2872783"><ele>88.60000000000001</ele><time>2026-03-25T16:36:10.313Z</time></trkpt><trkpt lat="51.31075" lon="-0.28711"><ele>88.80000000000001</ele><time>2026-03-25T16:36:11.314Z</time></trkpt><trkpt lat="51.3107317" lon="-0.2869533"><ele>89.0</ele><time>2026-03-25T16:36:12.313Z</time></trkpt><trkpt lat="51.3107133" lon="-0.2868017"><ele>88.66666666666667</ele><time>2026-03-25T16:36:13.313Z</time></trkpt><trkpt lat="51.3106983" lon="-0.2866617"><ele>88.33333333333334</ele><time>2026-03-25T16:36:14.314Z</time></trkpt><trkpt lat="51.3106867" lon="-0.286535"><ele>88.0</ele><time>2026-03-25T16:36:15.313Z</time></trkpt><trkpt lat="51.3106933" lon="-0.2864117"><ele>87.66666666666667</ele><time>2026-03-25T16:36:16.313Z</time></trkpt><trkpt lat="51.3107033" lon="-0.2863033"><ele>87.33333333333333</ele><time>2026-03-25T16:36:17.314Z</time></trkpt><trkpt lat="51.3107233" lon="-0.2861483"><ele>87.0</ele><time>2026-03-25T16:36:19.314Z</time></trkpt><trkpt lat="51.3107433" lon="-0.286015"><ele>87.0</ele><time>2026-03-25T16:36:21.313Z</time></trkpt><trkpt lat="51.31079" lon="-0.285855"><ele>87.0</ele><time>2026-03-25T16:36:23.314Z</time></trkpt><trkpt lat="51.3108533" lon="-0.28568"><ele>87.0</ele><time>2026-03-25T16:36:25.314Z</time></trkpt><trkpt lat="51.31091" lon="-0.2855233"><ele>87.0</ele><time>2026-03-25T16:36:27.313Z</time></trkpt><trkpt lat="51.31095" lon="-0.2854267"><ele>87.0</ele><time>2026-03-25T16:36:29.314Z</time></trkpt><trkpt lat="51.3110017" lon="-0.28529"><ele>87.19999999999999</ele><time>2026-03-25T16:36:36.313Z</time></trkpt><trkpt lat="51.3110367" lon="-0.2851583"><ele>87.4</ele><time>2026-03-25T16:36:38.314Z</time></trkpt><trkpt lat="51.3111083" lon="-0.2849617"><ele>87.6</ele><time>2026-03-25T16:36:40.314Z</time></trkpt><trkpt lat="51.3111433" lon="-0.2848433"><ele>87.80000000000001</ele><time>2026-03-25T16:36:41.314Z</time></trkpt><trkpt lat="51.311175" lon="-0.2847283"><ele>88.0</ele><time>2026-03-25T16:36:42.316Z</time></trkpt><trkpt lat="51.3112017" lon="-0.284595"><ele>88.0</ele><time>2026-03-25T16:36:43.313Z</time></trkpt><trkpt lat="51.3112217" lon="-0.2844633"><ele>88.0</ele><time>2026-03-25T16:36:44.314Z</time></trkpt><trkpt lat="51.3112383" lon="-0.2843167"><ele>88.0</ele><time>2026-03-25T16:36:45.314Z</time></trkpt><trkpt lat="51.3112567" lon="-0.284175"><ele>88.0</ele><time>2026-03-25T16:36:46.313Z</time></trkpt><trkpt lat="51.311275" lon="-0.28404"><ele>88.0</ele><time>2026-03-25T16:36:47.313Z</time></trkpt><trkpt lat="51.3112933" lon="-0.2839217"><ele>88.0</ele><time>2026-03-25T16:36:48.314Z</time></trkpt><trkpt lat="51.3113017" lon="-0.2837883"><ele>87.4</ele><time>2026-03-25T16:36:49.313Z</time></trkpt><trkpt lat="51.3113083" lon="-0.283655"><ele>86.80000000000001</ele><time>2026-03-25T16:36:50.314Z</time></trkpt><trkpt lat="51.3113033" lon="-0.2834883"><ele>86.2</ele><time>2026-03-25T16:36:51.313Z</time></trkpt><trkpt lat="51.3112917" lon="-0.28329"><ele>85.6</ele><time>2026-03-25T16:36:52.313Z</time></trkpt><trkpt lat="51.311275" lon="-0.28308"><ele>85.0</ele><time>2026-03-25T16:36:53.313Z</time></trkpt><trkpt lat="51.311255" lon="-0.2828783"><ele>84.8</ele><time>2026-03-25T16:36:54.313Z</time></trkpt><trkpt lat="51.3112267" lon="-0.2826883"><ele>84.6</ele><time>2026-03-25T16:36:55.314Z</time></trkpt><trkpt lat="51.311205" lon="-0.2824867"><ele>84.4</ele><time>2026-03-25T16:36:56.314Z</time></trkpt><trkpt lat="51.3111817" lon="-0.2823267"><ele>84.2</ele><time>2026-03-25T16:36:57.313Z</time></trkpt><trkpt lat="51.31116" lon="-0.282185"><ele>84.0</ele><time>2026-03-25T16:36:58.314Z</time></trkpt><trkpt lat="51.3111383" lon="-0.2820567"><ele>84.2</ele><time>2026-03-25T16:36:59.314Z</time></trkpt><trkpt lat="51.3111233" lon="-0.281955"><ele>84.4</ele><time>2026-03-25T16:37:00.315Z</time></trkpt><trkpt lat="51.3111583" lon="-0.2817983"><ele>84.6</ele><time>2026-03-25T16:37:02.314Z</time></trkpt><trkpt lat="51.31121" lon="-0.2817033"><ele>84.8</ele><time>2026-03-25T16:37:04.313Z</time></trkpt><trkpt lat="51.3113133" lon="-0.2816733"><ele>85.0</ele><time>2026-03-25T16:37:06.316Z</time></trkpt><trkpt lat="51.311435" lon="-0.2817017"><ele>85.0</ele><time>2026-03-25T16:37:08.314Z</time></trkpt><trkpt lat="51.3115433" lon="-0.2816967"><ele>85.0</ele><time>2026-03-25T16:37:10.314Z</time></trkpt><trkpt lat="51.3116483" lon="-0.281675"><ele>85.0</ele><time>2026-03-25T16:37:12.313Z</time></trkpt><trkpt lat="51.3117283" lon="-0.28162"><ele>85.0</ele><time>2026-03-25T16:37:14.313Z</time></trkpt><trkpt lat="51.3118367" lon="-0.2815633"><ele>85.0</ele><time>2026-03-25T16:37:16.314Z</time></trkpt><trkpt lat="51.3119083" lon="-0.28152"><ele>85.0</ele><time>2026-03-25T16:37:17.313Z</time></trkpt><trkpt lat="51.311985" lon="-0.2814433"><ele>85.0</ele><time>2026-03-25T16:37:18.314Z</time></trkpt><trkpt lat="51.3120733" lon="-0.2813483"><ele>85.0</ele><time>2026-03-25T16:37:19.313Z</time></trkpt><trkpt lat="51.312165" lon="-0.2811967"><ele>85.0</ele><time>2026-03-25T16:37:20.313Z</time></trkpt><trkpt lat="51.312255" lon="-0.2810583"><ele>86.0</ele><time>2026-03-25T16:37:21.314Z</time></trkpt><trkpt lat="51.312345" lon="-0.2809183"><ele>87.0</ele><time>2026-03-25T16:37:22.315Z</time></trkpt><trkpt lat="51.312435" lon="-0.28078"><ele>88.0</ele><time>2026-03-25T16:37:23.314Z</time></trkpt><trkpt lat="51.3125233" lon="-0.28065"><ele>89.0</ele><time>2026-03-25T16:37:24.314Z</time></trkpt><trkpt lat="51.31262" lon="-0.2805317"><ele>90.0</ele><time>2026-03-25T16:37:25.314Z</time></trkpt><trkpt lat="51.3127117" lon="-0.280435"><ele>91.0</ele><time>2026-03-25T16:37:26.314Z</time></trkpt><trkpt lat="51.31282" lon="-0.2803617"><ele>92.0</ele><time>2026-03-25T16:37:27.314Z</time></trkpt><trkpt lat="51.3129267" lon="-0.2803167"><ele>93.0</ele><time>2026-03-25T16:37:28.314Z</time></trkpt><trkpt lat="51.3130383" lon="-0.2802967"><ele>92.75</ele><time>2026-03-25T16:37:29.314Z</time></trkpt><trkpt lat="51.3131533" lon="-0.28029"><ele>92.5</ele><time>2026-03-25T16:37:30.315Z</time></trkpt><trkpt lat="51.3132667" lon="-0.2802817"><ele>92.25</ele><time>2026-03-25T16:37:31.314Z</time></trkpt><trkpt lat="51.313385" lon="-0.2802717"><ele>92.0</ele><time>2026-03-25T16:37:32.314Z</time></trkpt><trkpt lat="51.313505" lon="-0.280275"><ele>92.0</ele><time>2026-03-25T16:37:33.314Z</time></trkpt><trkpt lat="51.3136267" lon="-0.2802917"><ele>92.0</ele><time>2026-03-25T16:37:34.313Z</time></trkpt><trkpt lat="51.31374" lon="-0.2803233"><ele>92.0</ele><time>2026-03-25T16:37:35.314Z</time></trkpt><trkpt lat="51.3138467" lon="-0.2803567"><ele>92.0</ele><time>2026-03-25T16:37:36.314Z</time></trkpt><trkpt lat="51.3139517" lon="-0.2803867"><ele>91.8</ele><time>2026-03-25T16:37:37.313Z</time></trkpt><trkpt lat="51.3140483" lon="-0.280405"><ele>91.6</ele><time>2026-03-25T16:37:38.314Z</time></trkpt><trkpt lat="51.3141417" lon="-0.280415"><ele>91.39999999999999</ele><time>2026-03-25T16:37:39.315Z</time></trkpt><trkpt lat="51.3142383" lon="-0.2804067"><ele>91.19999999999999</ele><time>2026-03-25T16:37:40.314Z</time></trkpt><trkpt lat="51.3143467" lon="-0.2803767"><ele>91.0</ele><time>2026-03-25T16:37:41.314Z</time></trkpt><trkpt lat="51.3144567" lon="-0.2803283"><ele>91.0</ele><time>2026-03-25T16:37:42.316Z</time></trkpt><trkpt lat="51.3145817" lon="-0.2802667"><ele>91.0</ele><time>2026-03-25T16:37:43.315Z</time></trkpt><trkpt lat="51.3147133" lon="-0.2802"><ele>91.0</ele><time>2026-03-25T16:37:44.315Z</time></trkpt><trkpt lat="51.3148467" lon="-0.280135"><ele>91.0</ele><time>2026-03-25T16:37:45.315Z</time></trkpt><trkpt lat="51.31497" lon="-0.28008"><ele>90.0</ele><time>2026-03-25T16:37:46.315Z</time></trkpt><trkpt lat="51.3150867" lon="-0.2800217"><ele>89.0</ele><time>2026-03-25T16:37:47.315Z</time></trkpt><trkpt lat="51.3152017" lon="-0.2799633"><ele>88.0</ele><time>2026-03-25T16:37:48.314Z</time></trkpt><trkpt lat="51.3153233" lon="-0.2799083"><ele>87.0</ele><time>2026-03-25T16:37:49.315Z</time></trkpt><trkpt lat="51.3154517" lon="-0.2798583"><ele>87.25</ele><time>2026-03-25T16:37:50.314Z</time></trkpt><trkpt lat="51.3155783" lon="-0.27981"><ele>87.5</ele><time>2026-03-25T16:37:51.318Z</time></trkpt><trkpt lat="51.3157083" lon="-0.2797683"><ele>87.75</ele><time>2026-03-25T16:37:52.314Z</time></trkpt><trkpt lat="51.3158433" lon="-0.2797267"><ele>88.0</ele><time>2026-03-25T16:37:53.314Z</time></trkpt><trkpt lat="51.3159817" lon="-0.2796883"><ele>88.0</ele><time>2026-03-25T16:37:54.314Z</time></trkpt><trkpt lat="51.3161183" lon="-0.2796567"><ele>88.0</ele><time>2026-03-25T16:37:55.315Z</time></trkpt><trkpt lat="51.3162517" lon="-0.27964"><ele>88.0</ele><time>2026-03-25T16:37:56.315Z</time></trkpt><trkpt lat="51.3163783" lon="-0.2796333"><ele>88.0</ele><time>2026-03-25T16:37:57.315Z</time></trkpt><trkpt lat="51.3164967" lon="-0.2796317"><ele>88.0</ele><time>2026-03-25T16:37:58.315Z</time></trkpt><trkpt lat="51.3166117" lon="-0.2796217"><ele>88.0</ele><time>2026-03-25T16:37:59.315Z</time></trkpt><trkpt lat="51.3167233" lon="-0.2796083"><ele>88.0</ele><time>2026-03-25T16:38:00.315Z</time></trkpt><trkpt lat="51.31683" lon="-0.2795783"><ele>88.0</ele><time>2026-03-25T16:38:01.315Z</time></trkpt><trkpt lat="51.3169417" lon="-0.27953"><ele>88.0</ele><time>2026-03-25T16:38:02.316Z</time></trkpt><trkpt lat="51.31706" lon="-0.279465"><ele>88.0</ele><time>2026-03-25T16:38:03.315Z</time></trkpt><trkpt lat="51.3171833" lon="-0.2793667"><ele>88.0</ele><time>2026-03-25T16:38:04.315Z</time></trkpt><trkpt lat="51.3173117" lon="-0.2792383"><ele>88.0</ele><time>2026-03-25T16:38:05.315Z</time></trkpt><trkpt lat="51.3174467" lon="-0.2790967"><ele>88.33333333333333</ele><time>2026-03-25T16:38:06.316Z</time></trkpt><trkpt lat="51.3175767" lon="-0.2789583"><ele>88.66666666666667</ele><time>2026-03-25T16:38:07.314Z</time></trkpt><trkpt lat="51.3176983" lon="-0.2788183"><ele>89.0</ele><time>2026-03-25T16:38:08.315Z</time></trkpt><trkpt lat="51.3178183" lon="-0.2786833"><ele>88.5</ele><time>2026-03-25T16:38:09.314Z</time></trkpt><trkpt lat="51.317935" lon="-0.2785683"><ele>88.0</ele><time>2026-03-25T16:38:10.315Z</time></trkpt><trkpt lat="51.3180433" lon="-0.2784533"><ele>87.5</ele><time>2026-03-25T16:38:11.315Z</time></trkpt><trkpt lat="51.3181567" lon="-0.278335"><ele>87.0</ele><time>2026-03-25T16:38:12.314Z</time></trkpt><trkpt lat="51.3182683" lon="-0.2782283"><ele>86.5</ele><time>2026-03-25T16:38:13.315Z</time></trkpt><trkpt lat="51.3183783" lon="-0.2781467"><ele>86.0</ele><time>2026-03-25T16:38:14.316Z</time></trkpt><trkpt lat="51.318495" lon="-0.27807"><ele>85.5</ele><time>2026-03-25T16:38:15.315Z</time></trkpt><trkpt lat="51.3186133" lon="-0.27802"><ele>85.0</ele><time>2026-03-25T16:38:16.315Z</time></trkpt><trkpt lat="51.3187433" lon="-0.2779883"><ele>85.0</ele><time>2026-03-25T16:38:17.315Z</time></trkpt><trkpt lat="51.3188817" lon="-0.2779583"><ele>85.0</ele><time>2026-03-25T16:38:18.314Z</time></trkpt><trkpt lat="51.3190233" lon="-0.277945"><ele>85.0</ele><time>2026-03-25T16:38:19.315Z</time></trkpt><trkpt lat="51.319165" lon="-0.2779333"><ele>85.0</ele><time>2026-03-25T16:38:20.316Z</time></trkpt><trkpt lat="51.3192983" lon="-0.2779117"><ele>85.0</ele><time>2026-03-25T16:38:21.315Z</time></trkpt><trkpt lat="51.3194267" lon="-0.277895"><ele>85.0</ele><time>2026-03-25T16:38:22.314Z</time></trkpt><trkpt lat="51.3195583" lon="-0.2778767"><ele>85.0</ele><time>2026-03-25T16:38:23.314Z</time></trkpt><trkpt lat="51.319695" lon="-0.2778483"><ele>85.0</ele><time>2026-03-25T16:38:24.315Z</time></trkpt><trkpt lat="51.319845" lon="-0.2778067"><ele>84.75</ele><time>2026-03-25T16:38:25.315Z</time></trkpt><trkpt lat="51.3199783" lon="-0.277765"><ele>84.5</ele><time>2026-03-25T16:38:26.315Z</time></trkpt><trkpt lat="51.3201117" lon="-0.2777133"><ele>84.25</ele><time>2026-03-25T16:38:27.315Z</time></trkpt><trkpt lat="51.320235" lon="-0.2776567"><ele>84.0</ele><time>2026-03-25T16:38:28.316Z</time></trkpt><trkpt lat="51.3203483" lon="-0.2775867"><ele>84.0</ele><time>2026-03-25T16:38:29.315Z</time></trkpt><trkpt lat="51.3204617" lon="-0.277525"><ele>84.0</ele><time>2026-03-25T16:38:30.316Z</time></trkpt><trkpt lat="51.320575" lon="-0.277465"><ele>84.0</ele><time>2026-03-25T16:38:31.314Z</time></trkpt><trkpt lat="51.3206883" lon="-0.2773983"><ele>84.0</ele><time>2026-03-25T16:38:32.315Z</time></trkpt><trkpt lat="51.320795" lon="-0.27734"><ele>84.0</ele><time>2026-03-25T16:38:33.314Z</time></trkpt><trkpt lat="51.3208983" lon="-0.2772717"><ele>84.0</ele><time>2026-03-25T16:38:34.314Z</time></trkpt><trkpt lat="51.3209983" lon="-0.2772267"><ele>84.0</ele><time>2026-03-25T16:38:35.314Z</time></trkpt><trkpt lat="51.3210933" lon="-0.2771867"><ele>84.0</ele><time>2026-03-25T16:38:36.315Z</time></trkpt><trkpt lat="51.3211833" lon="-0.2771583"><ele>84.0</ele><time>2026-03-25T16:38:37.315Z</time></trkpt><trkpt lat="51.321275" lon="-0.2771383"><ele>82.83333333333333</ele><time>2026-03-25T16:38:38.315Z</time></trkpt><trkpt lat="51.3213683" lon="-0.277135"><ele>81.66666666666667</ele><time>2026-03-25T16:38:39.315Z</time></trkpt><trkpt lat="51.3214583" lon="-0.277125"><ele>80.5</ele><time>2026-03-25T16:38:40.314Z</time></trkpt><trkpt lat="51.32154" lon="-0.27712"><ele>79.33333333333334</ele><time>2026-03-25T16:38:41.315Z</time></trkpt><trkpt lat="51.3216183" lon="-0.277105"><ele>78.16666666666667</ele><time>2026-03-25T16:38:42.315Z</time></trkpt><trkpt lat="51.3216983" lon="-0.277085"><ele>77.0</ele><time>2026-03-25T16:38:43.314Z</time></trkpt><trkpt lat="51.32177" lon="-0.2770483"><ele>76.83333333333334</ele><time>2026-03-25T16:38:44.315Z</time></trkpt><trkpt lat="51.3218367" lon="-0.2769933"><ele>76.66666666666667</ele><time>2026-03-25T16:38:45.315Z</time></trkpt><trkpt lat="51.3218967" lon="-0.27692"><ele>76.5</ele><time>2026-03-25T16:38:46.314Z</time></trkpt><trkpt lat="51.3219483" lon="-0.2768233"><ele>76.33333333333333</ele><time>2026-03-25T16:38:47.314Z</time></trkpt><trkpt lat="51.3219933" lon="-0.2767017"><ele>76.16666666666666</ele><time>2026-03-25T16:38:48.315Z</time></trkpt><trkpt lat="51.3220267" lon="-0.27655"><ele>76.0</ele><time>2026-03-25T16:38:49.315Z</time></trkpt><trkpt lat="51.322085" lon="-0.2763883"><ele>74.75</ele><time>2026-03-25T16:38:50.315Z</time></trkpt><trkpt lat="51.3221433" lon="-0.2762083"><ele>73.5</ele><time>2026-03-25T16:38:51.315Z</time></trkpt><trkpt lat="51.322205" lon="-0.2760367"><ele>72.25</ele><time>2026-03-25T16:38:52.315Z</time></trkpt><trkpt lat="51.3222733" lon="-0.2758733"><ele>71.0</ele><time>2026-03-25T16:38:53.314Z</time></trkpt><trkpt lat="51.3223467" lon="-0.2757133"><ele>70.0</ele><time>2026-03-25T16:38:54.316Z</time></trkpt><trkpt lat="51.3224167" lon="-0.2755533"><ele>69.0</ele><time>2026-03-25T16:38:55.314Z</time></trkpt><trkpt lat="51.3224933" lon="-0.27539"><ele>68.0</ele><time>2026-03-25T16:38:56.314Z</time></trkpt><trkpt lat="51.3225617" lon="-0.2751967"><ele>67.0</ele><time>2026-03-25T16:38:57.315Z</time></trkpt><trkpt lat="51.3226483" lon="-0.2750317"><ele>67.0</ele><time>2026-03-25T16:38:58.314Z</time></trkpt><trkpt lat="51.3227333" lon="-0.2748683"><ele>67.0</ele><time>2026-03-25T16:38:59.313Z</time></trkpt><trkpt lat="51.32282" lon="-0.2747083"><ele>67.0</ele><time>2026-03-25T16:39:00.317Z</time></trkpt><trkpt lat="51.3229133" lon="-0.2745517"><ele>67.0</ele><time>2026-03-25T16:39:01.319Z</time></trkpt><trkpt lat="51.3230033" lon="-0.2743833"><ele>66.75</ele><time>2026-03-25T16:39:02.315Z</time></trkpt><trkpt lat="51.323095" lon="-0.27422"><ele>66.5</ele><time>2026-03-25T16:39:03.315Z</time></trkpt><trkpt lat="51.3231867" lon="-0.2740583"><ele>66.25</ele><time>2026-03-25T16:39:04.314Z</time></trkpt><trkpt lat="51.3232733" lon="-0.2738983"><ele>66.0</ele><time>2026-03-25T16:39:05.314Z</time></trkpt><trkpt lat="51.3233567" lon="-0.2737317"><ele>65.5</ele><time>2026-03-25T16:39:06.316Z</time></trkpt><trkpt lat="51.3234383" lon="-0.2735817"><ele>65.0</ele><time>2026-03-25T16:39:07.315Z</time></trkpt><trkpt lat="51.3235183" lon="-0.273435"><ele>64.5</ele><time>2026-03-25T16:39:08.315Z</time></trkpt><trkpt lat="51.3235983" lon="-0.2732833"><ele>64.0</ele><time>2026-03-25T16:39:09.314Z</time></trkpt><trkpt lat="51.3236667" lon="-0.2731433"><ele>64.0</ele><time>2026-03-25T16:39:10.317Z</time></trkpt><trkpt lat="51.3237283" lon="-0.2730083"><ele>64.0</ele><time>2026-03-25T16:39:11.315Z</time></trkpt><trkpt lat="51.3237783" lon="-0.2728717"><ele>64.0</ele><time>2026-03-25T16:39:12.314Z</time></trkpt><trkpt lat="51.32383" lon="-0.2727317"><ele>64.0</ele><time>2026-03-25T16:39:13.314Z</time></trkpt><trkpt lat="51.3238867" lon="-0.2725917"><ele>64.0</ele><time>2026-03-25T16:39:14.315Z</time></trkpt><trkpt lat="51.3239483" lon="-0.2724533"><ele>63.75</ele><time>2026-03-25T16:39:15.315Z</time></trkpt><trkpt lat="51.3240167" lon="-0.2723133"><ele>63.5</ele><time>2026-03-25T16:39:16.314Z</time></trkpt><trkpt lat="51.3240883" lon="-0.272165"><ele>63.25</ele><time>2026-03-25T16:39:17.315Z</time></trkpt><trkpt lat="51.32416" lon="-0.2720117"><ele>63.0</ele><time>2026-03-25T16:39:18.319Z</time></trkpt><trkpt lat="51.32423" lon="-0.2718533"><ele>63.0</ele><time>2026-03-25T16:39:19.315Z</time></trkpt><trkpt lat="51.3243033" lon="-0.2716917"><ele>63.0</ele><time>2026-03-25T16:39:20.315Z</time></trkpt><trkpt lat="51.32438" lon="-0.2715317"><ele>63.0</ele><time>2026-03-25T16:39:21.314Z</time></trkpt><trkpt lat="51.32445" lon="-0.271375"><ele>63.0</ele><time>2026-03-25T16:39:22.315Z</time></trkpt><trkpt lat="51.3245233" lon="-0.27121"><ele>63.0</ele><time>2026-03-25T16:39:23.315Z</time></trkpt><trkpt lat="51.3245917" lon="-0.27104"><ele>63.0</ele><time>2026-03-25T16:39:24.315Z</time></trkpt><trkpt lat="51.3246567" lon="-0.270865"><ele>63.0</ele><time>2026-03-25T16:39:25.314Z</time></trkpt><trkpt lat="51.3247233" lon="-0.2706933"><ele>63.0</ele><time>2026-03-25T16:39:26.314Z</time></trkpt><trkpt lat="51.3247917" lon="-0.2705267"><ele>62.8</ele><time>2026-03-25T16:39:27.314Z</time></trkpt><trkpt lat="51.3248567" lon="-0.2703733"><ele>62.599999999999994</ele><time>2026-03-25T16:39:28.315Z</time></trkpt><trkpt lat="51.3249233" lon="-0.2702283"><ele>62.400000000000006</ele><time>2026-03-25T16:39:29.315Z</time></trkpt><trkpt lat="51.3249967" lon="-0.2700983"><ele>62.2</ele><time>2026-03-25T16:39:30.315Z</time></trkpt><trkpt lat="51.32506" lon="-0.269995"><ele>62.0</ele><time>2026-03-25T16:39:31.32Z</time></trkpt><trkpt lat="51.3251217" lon="-0.26991"><ele>62.00000000000001</ele><time>2026-03-25T16:39:32.313Z</time></trkpt><trkpt lat="51.3251867" lon="-0.2698333"><ele>62.0</ele><time>2026-03-25T16:39:33.315Z</time></trkpt><trkpt lat="51.3252633" lon="-0.2697717"><ele>62.0</ele><time>2026-03-25T16:39:34.317Z</time></trkpt><trkpt lat="51.3253417" lon="-0.2697317"><ele>62.0</ele><time>2026-03-25T16:39:35.314Z</time></trkpt><trkpt lat="51.3254183" lon="-0.269725"><ele>62.00000000000001</ele><time>2026-03-25T16:39:36.315Z</time></trkpt><trkpt lat="51.3255017" lon="-0.2697267"><ele>62.0</ele><time>2026-03-25T16:39:37.315Z</time></trkpt><trkpt lat="51.3255917" lon="-0.269725"><ele>61.8</ele><time>2026-03-25T16:39:38.318Z</time></trkpt><trkpt lat="51.3256917" lon="-0.2697217"><ele>61.6</ele><time>2026-03-25T16:39:39.315Z</time></trkpt><trkpt lat="51.3257917" lon="-0.26971"><ele>61.39999999999999</ele><time>2026-03-25T16:39:40.314Z</time></trkpt><trkpt lat="51.3258983" lon="-0.2697067"><ele>61.199999999999996</ele><time>2026-03-25T16:39:41.314Z</time></trkpt><trkpt lat="51.326" lon="-0.2697033"><ele>61.0</ele><time>2026-03-25T16:39:42.315Z</time></trkpt><trkpt lat="51.3261017" lon="-0.2697067"><ele>60.99999999999999</ele><time>2026-03-25T16:39:43.314Z</time></trkpt><trkpt lat="51.3262017" lon="-0.2697117"><ele>61.0</ele><time>2026-03-25T16:39:44.314Z</time></trkpt><trkpt lat="51.3262917" lon="-0.2697333"><ele>61.0</ele><time>2026-03-25T16:39:45.314Z</time></trkpt><trkpt lat="51.3263783" lon="-0.2697517"><ele>61.0</ele><time>2026-03-25T16:39:46.314Z</time></trkpt><trkpt lat="51.3264567" lon="-0.2697733"><ele>60.99999999999999</ele><time>2026-03-25T16:39:47.313Z</time></trkpt><trkpt lat="51.3265333" lon="-0.2697917"><ele>61.0</ele><time>2026-03-25T16:39:48.314Z</time></trkpt><trkpt lat="51.3266017" lon="-0.2698033"><ele>60.599999999999994</ele><time>2026-03-25T16:39:49.315Z</time></trkpt><trkpt lat="51.3267083" lon="-0.2698217"><ele>60.199999999999996</ele><time>2026-03-25T16:39:51.315Z</time></trkpt><trkpt lat="51.326785" lon="-0.269835"><ele>59.800000000000004</ele><time>2026-03-25T16:39:53.317Z</time></trkpt><trkpt lat="51.3268583" lon="-0.2698117"><ele>59.400000000000006</ele><time>2026-03-25T16:39:56.315Z</time></trkpt><trkpt lat="51.3268767" lon="-0.2696617"><ele>59.0</ele><time>2026-03-25T16:40:00.315Z</time></trkpt><trkpt lat="51.3268917" lon="-0.2695083"><ele>58.833333333333336</ele><time>2026-03-25T16:40:02.315Z</time></trkpt><trkpt lat="51.3269" lon="-0.2694"><ele>58.66666666666667</ele><time>2026-03-25T16:40:03.315Z</time></trkpt><trkpt lat="51.3269117" lon="-0.2692833"><ele>58.5</ele><time>2026-03-25T16:40:04.315Z</time></trkpt><trkpt lat="51.3269317" lon="-0.26916"><ele>58.33333333333333</ele><time>2026-03-25T16:40:05.315Z</time></trkpt><trkpt lat="51.326955" lon="-0.26902"><ele>58.166666666666664</ele><time>2026-03-25T16:40:06.315Z</time></trkpt><trkpt lat="51.326985" lon="-0.2688717"><ele>58.0</ele><time>2026-03-25T16:40:07.314Z</time></trkpt><trkpt lat="51.32701" lon="-0.2687117"><ele>58.0</ele><time>2026-03-25T16:40:08.318Z</time></trkpt><trkpt lat="51.3270367" lon="-0.268555"><ele>58.0</ele><time>2026-03-25T16:40:09.315Z</time></trkpt><trkpt lat="51.3270667" lon="-0.268405"><ele>58.0</ele><time>2026-03-25T16:40:10.317Z</time></trkpt><trkpt lat="51.3270933" lon="-0.2682633"><ele>58.0</ele><time>2026-03-25T16:40:11.318Z</time></trkpt><trkpt lat="51.327125" lon="-0.268125"><ele>58.0</ele><time>2026-03-25T16:40:12.318Z</time></trkpt><trkpt lat="51.3271567" lon="-0.267985"><ele>58.0</ele><time>2026-03-25T16:40:13.314Z</time></trkpt><trkpt lat="51.3271867" lon="-0.2678417"><ele>58.0</ele><time>2026-03-25T16:40:14.314Z</time></trkpt><trkpt lat="51.3272133" lon="-0.2676933"><ele>58.0</ele><time>2026-03-25T16:40:15.315Z</time></trkpt><trkpt lat="51.3272383" lon="-0.2675467"><ele>58.0</ele><time>2026-03-25T16:40:16.313Z</time></trkpt><trkpt lat="51.3272567" lon="-0.2673983"><ele>58.0</ele><time>2026-03-25T16:40:17.313Z</time></trkpt><trkpt lat="51.327275" lon="-0.2672517"><ele>57.83333333333333</ele><time>2026-03-25T16:40:18.314Z</time></trkpt><trkpt lat="51.3272883" lon="-0.2671083"><ele>57.666666666666664</ele><time>2026-03-25T16:40:19.314Z</time></trkpt><trkpt lat="51.3272983" lon="-0.266975"><ele>57.5</ele><time>2026-03-25T16:40:20.314Z</time></trkpt><trkpt lat="51.3273067" lon="-0.2668383"><ele>57.33333333333333</ele><time>2026-03-25T16:40:21.316Z</time></trkpt><trkpt lat="51.3273117" lon="-0.266695"><ele>57.166666666666664</ele><time>2026-03-25T16:40:22.314Z</time></trkpt><trkpt lat="51.3273" lon="-0.26655"><ele>57.0</ele><time>2026-03-25T16:40:23.314Z</time></trkpt><trkpt lat="51.327275" lon="-0.266405"><ele>57.0</ele><time>2026-03-25T16:40:24.315Z</time></trkpt><trkpt lat="51.3272467" lon="-0.2662633"><ele>57.0</ele><time>2026-03-25T16:40:25.314Z</time></trkpt><trkpt lat="51.3272133" lon="-0.2661333"><ele>57.0</ele><time>2026-03-25T16:40:26.315Z</time></trkpt><trkpt lat="51.3271733" lon="-0.26601"><ele>57.0</ele><time>2026-03-25T16:40:27.315Z</time></trkpt><trkpt lat="51.3271317" lon="-0.2658883"><ele>57.0</ele><time>2026-03-25T16:40:28.314Z</time></trkpt><trkpt lat="51.3270967" lon="-0.2657733"><ele>57.0</ele><time>2026-03-25T16:40:29.314Z</time></trkpt><trkpt lat="51.3270633" lon="-0.26566"><ele>57.0</ele><time>2026-03-25T16:40:30.314Z</time></trkpt><trkpt lat="51.32703" lon="-0.2655517"><ele>57.0</ele><time>2026-03-25T16:40:31.315Z</time></trkpt><trkpt lat="51.3270017" lon="-0.2654533"><ele>57.0</ele><time>2026-03-25T16:40:32.314Z</time></trkpt><trkpt lat="51.3269733" lon="-0.26536"><ele>57.0</ele><time>2026-03-25T16:40:33.315Z</time></trkpt><trkpt lat="51.3269317" lon="-0.2652"><ele>57.0</ele><time>2026-03-25T16:40:35.315Z</time></trkpt><trkpt lat="51.32694" lon="-0.2650917"><ele>57.0</ele><time>2026-03-25T16:40:37.314Z</time></trkpt><trkpt lat="51.3270167" lon="-0.264985"><ele>57.0</ele><time>2026-03-25T16:40:39.316Z</time></trkpt><trkpt lat="51.3270817" lon="-0.26492"><ele>56.99999999999999</ele><time>2026-03-25T16:40:40.318Z</time></trkpt><trkpt lat="51.3271467" lon="-0.2648633"><ele>57.0</ele><time>2026-03-25T16:40:41.318Z</time></trkpt><trkpt lat="51.3272083" lon="-0.264805"><ele>57.0</ele><time>2026-03-25T16:40:42.314Z</time></trkpt><trkpt lat="51.32727" lon="-0.2647467"><ele>56.99999999999999</ele><time>2026-03-25T16:40:43.314Z</time></trkpt><trkpt lat="51.3273333" lon="-0.2646883"><ele>57.0</ele><time>2026-03-25T16:40:44.314Z</time></trkpt><trkpt lat="51.3273967" lon="-0.2646267"><ele>57.0</ele><time>2026-03-25T16:40:45.318Z</time></trkpt><trkpt lat="51.3274533" lon="-0.2645667"><ele>56.833333333333336</ele><time>2026-03-25T16:40:46.313Z</time></trkpt><trkpt lat="51.3275117" lon="-0.2645067"><ele>56.66666666666667</ele><time>2026-03-25T16:40:47.317Z</time></trkpt><trkpt lat="51.327565" lon="-0.26445"><ele>56.5</ele><time>2026-03-25T16:40:48.314Z</time></trkpt><trkpt lat="51.3276067" lon="-0.2643733"><ele>56.333333333333336</ele><time>2026-03-25T16:40:49.315Z</time></trkpt><trkpt lat="51.3276367" lon="-0.2642367"><ele>56.16666666666667</ele><time>2026-03-25T16:40:51.316Z</time></trkpt><trkpt lat="51.3275817" lon="-0.2641033"><ele>56.0</ele><time>2026-03-25T16:40:53.314Z</time></trkpt><trkpt lat="51.3274733" lon="-0.26401"><ele>56.0</ele><time>2026-03-25T16:40:55.315Z</time></trkpt><trkpt lat="51.327395" lon="-0.263975"><ele>55.99999999999999</ele><time>2026-03-25T16:40:56.314Z</time></trkpt><trkpt lat="51.3272967" lon="-0.26395"><ele>55.99999999999999</ele><time>2026-03-25T16:40:57.313Z</time></trkpt><trkpt lat="51.3271933" lon="-0.2639333"><ele>56.0</ele><time>2026-03-25T16:40:58.315Z</time></trkpt><trkpt lat="51.3271" lon="-0.2639067"><ele>56.0</ele><time>2026-03-25T16:40:59.315Z</time></trkpt><trkpt lat="51.3270233" lon="-0.2638833"><ele>56.4</ele><time>2026-03-25T16:41:00.317Z</time></trkpt><trkpt lat="51.32696" lon="-0.263865"><ele>56.8</ele><time>2026-03-25T16:41:01.315Z</time></trkpt><trkpt lat="51.3268617" lon="-0.2638167"><ele>57.199999999999996</ele><time>2026-03-25T16:41:03.315Z</time></trkpt><trkpt lat="51.3267967" lon="-0.2636967"><ele>57.599999999999994</ele><time>2026-03-25T16:41:05.315Z</time></trkpt><trkpt lat="51.3267617" lon="-0.26349"><ele>58.0</ele><time>2026-03-25T16:41:07.314Z</time></trkpt><trkpt lat="51.3267317" lon="-0.2633667"><ele>57.99999999999999</ele><time>2026-03-25T16:41:08.316Z</time></trkpt><trkpt lat="51.326705" lon="-0.263235"><ele>58.0</ele><time>2026-03-25T16:41:09.316Z</time></trkpt><trkpt lat="51.3266783" lon="-0.2631083"><ele>58.0</ele><time>2026-03-25T16:41:10.316Z</time></trkpt><trkpt lat="51.3266517" lon="-0.2629817"><ele>58.0</ele><time>2026-03-25T16:41:11.318Z</time></trkpt><trkpt lat="51.3266217" lon="-0.2628633"><ele>57.99999999999999</ele><time>2026-03-25T16:41:12.315Z</time></trkpt><trkpt lat="51.3265967" lon="-0.2627367"><ele>58.0</ele><time>2026-03-25T16:41:13.315Z</time></trkpt><trkpt lat="51.326565" lon="-0.262615"><ele>58.599999999999994</ele><time>2026-03-25T16:41:14.315Z</time></trkpt><trkpt lat="51.3265367" lon="-0.26248"><ele>59.199999999999996</ele><time>2026-03-25T16:41:15.318Z</time></trkpt><trkpt lat="51.326505" lon="-0.2623317"><ele>59.8</ele><time>2026-03-25T16:41:16.315Z</time></trkpt><trkpt lat="51.3264733" lon="-0.2621833"><ele>60.4</ele><time>2026-03-25T16:41:17.314Z</time></trkpt><trkpt lat="51.3264417" lon="-0.2620317"><ele>61.0</ele><time>2026-03-25T16:41:18.317Z</time></trkpt><trkpt lat="51.3264133" lon="-0.261885"><ele>61.49999999999999</ele><time>2026-03-25T16:41:19.315Z</time></trkpt><trkpt lat="51.3263883" lon="-0.2617483"><ele>62.0</ele><time>2026-03-25T16:41:20.314Z</time></trkpt><trkpt lat="51.3263583" lon="-0.261625"><ele>62.5</ele><time>2026-03-25T16:41:21.314Z</time></trkpt><trkpt lat="51.3263267" lon="-0.2615"><ele>63.0</ele><time>2026-03-25T16:41:22.313Z</time></trkpt><trkpt lat="51.326295" lon="-0.2613733"><ele>63.49999999999999</ele><time>2026-03-25T16:41:23.314Z</time></trkpt><trkpt lat="51.3262617" lon="-0.2612417"><ele>64.0</ele><time>2026-03-25T16:41:24.315Z</time></trkpt><trkpt lat="51.3262283" lon="-0.2611083"><ele>64.5</ele><time>2026-03-25T16:41:25.314Z</time></trkpt><trkpt lat="51.3261983" lon="-0.2609833"><ele>65.0</ele><time>2026-03-25T16:41:26.315Z</time></trkpt><trkpt lat="51.3261717" lon="-0.2608683"><ele>65.5</ele><time>2026-03-25T16:41:27.313Z</time></trkpt><trkpt lat="51.3261467" lon="-0.2607667"><ele>66.0</ele><time>2026-03-25T16:41:28.315Z</time></trkpt><trkpt lat="51.3261217" lon="-0.2606067"><ele>66.5</ele><time>2026-03-25T16:41:30.314Z</time></trkpt><trkpt lat="51.326085" lon="-0.2604833"><ele>67.0</ele><time>2026-03-25T16:41:33.316Z</time></trkpt><trkpt lat="51.3260067" lon="-0.2604033"><ele>67.5</ele><time>2026-03-25T16:41:35.318Z</time></trkpt><trkpt lat="51.3259467" lon="-0.2603683"><ele>68.0</ele><time>2026-03-25T16:41:36.315Z</time></trkpt><trkpt lat="51.32587" lon="-0.2603467"><ele>68.5</ele><time>2026-03-25T16:41:37.313Z</time></trkpt><trkpt lat="51.3257833" lon="-0.2603183"><ele>69.0</ele><time>2026-03-25T16:41:38.315Z</time></trkpt><trkpt lat="51.3256983" lon="-0.2602867"><ele>69.5</ele><time>2026-03-25T16:41:39.314Z</time></trkpt><trkpt lat="51.3256167" lon="-0.2602533"><ele>70.0</ele><time>2026-03-25T16:41:40.314Z</time></trkpt><trkpt lat="51.325545" lon="-0.2602317"><ele>70.5</ele><time>2026-03-25T16:41:41.314Z</time></trkpt><trkpt lat="51.32545" lon="-0.260165"><ele>71.0</ele><time>2026-03-25T16:41:43.314Z</time></trkpt><trkpt lat="51.3253983" lon="-0.2600333"><ele>71.5</ele><time>2026-03-25T16:41:45.313Z</time></trkpt><trkpt lat="51.3254183" lon="-0.2599167"><ele>72.0</ele><time>2026-03-25T16:41:46.316Z</time></trkpt><trkpt lat="51.3254217" lon="-0.2598"><ele>72.5</ele><time>2026-03-25T16:41:47.313Z</time></trkpt><trkpt lat="51.3254183" lon="-0.2596717"><ele>73.0</ele><time>2026-03-25T16:41:48.314Z</time></trkpt><trkpt lat="51.3254017" lon="-0.25953"><ele>73.4</ele><time>2026-03-25T16:41:49.315Z</time></trkpt><trkpt lat="51.3253667" lon="-0.259395"><ele>73.8</ele><time>2026-03-25T16:41:50.315Z</time></trkpt><trkpt lat="51.3253283" lon="-0.2592617"><ele>74.2</ele><time>2026-03-25T16:41:51.315Z</time></trkpt><trkpt lat="51.3252783" lon="-0.25913"><ele>74.6</ele><time>2026-03-25T16:41:52.315Z</time></trkpt><trkpt lat="51.32523" lon="-0.259005"><ele>75.0</ele><time>2026-03-25T16:41:53.313Z</time></trkpt><trkpt lat="51.3251783" lon="-0.2588733"><ele>75.4</ele><time>2026-03-25T16:41:54.315Z</time></trkpt><trkpt lat="51.32513" lon="-0.2587433"><ele>75.8</ele><time>2026-03-25T16:41:55.314Z</time></trkpt><trkpt lat="51.3250783" lon="-0.2586117"><ele>76.2</ele><time>2026-03-25T16:41:56.316Z</time></trkpt><trkpt lat="51.32503" lon="-0.25848"><ele>76.6</ele><time>2026-03-25T16:41:57.314Z</time></trkpt><trkpt lat="51.3249783" lon="-0.258355"><ele>77.0</ele><time>2026-03-25T16:41:58.313Z</time></trkpt><trkpt lat="51.3249383" lon="-0.2582333"><ele>77.16666666666667</ele><time>2026-03-25T16:41:59.318Z</time></trkpt><trkpt lat="51.3249" lon="-0.2581167"><ele>77.33333333333334</ele><time>2026-03-25T16:42:00.314Z</time></trkpt><trkpt lat="51.3248567" lon="-0.25801"><ele>77.5</ele><time>2026-03-25T16:42:01.318Z</time></trkpt><trkpt lat="51.3247983" lon="-0.2579117"><ele>77.66666666666667</ele><time>2026-03-25T16:42:02.314Z</time></trkpt><trkpt lat="51.3247317" lon="-0.2578317"><ele>77.83333333333333</ele><time>2026-03-25T16:42:03.314Z</time></trkpt><trkpt lat="51.3246617" lon="-0.2577617"><ele>78.0</ele><time>2026-03-25T16:42:04.315Z</time></trkpt><trkpt lat="51.3245833" lon="-0.2577067"><ele>78.75</ele><time>2026-03-25T16:42:05.314Z</time></trkpt><trkpt lat="51.3244933" lon="-0.2576583"><ele>79.5</ele><time>2026-03-25T16:42:06.322Z</time></trkpt><trkpt lat="51.3243783" lon="-0.2576317"><ele>80.25</ele><time>2026-03-25T16:42:07.318Z</time></trkpt><trkpt lat="51.324255" lon="-0.2576067"><ele>81.0</ele><time>2026-03-25T16:42:08.317Z</time></trkpt><trkpt lat="51.3241383" lon="-0.25758"><ele>81.0</ele><time>2026-03-25T16:42:09.314Z</time></trkpt><trkpt lat="51.324025" lon="-0.2575467"><ele>81.0</ele><time>2026-03-25T16:42:10.314Z</time></trkpt><trkpt lat="51.3239133" lon="-0.2575117"><ele>81.0</ele><time>2026-03-25T16:42:11.314Z</time></trkpt><trkpt lat="51.3238" lon="-0.257475"><ele>81.0</ele><time>2026-03-25T16:42:12.318Z</time></trkpt><trkpt lat="51.3236867" lon="-0.2574317"><ele>81.19999999999999</ele><time>2026-03-25T16:42:13.318Z</time></trkpt><trkpt lat="51.3235817" lon="-0.2573883"><ele>81.39999999999999</ele><time>2026-03-25T16:42:14.318Z</time></trkpt><trkpt lat="51.3234867" lon="-0.2573467"><ele>81.6</ele><time>2026-03-25T16:42:15.318Z</time></trkpt><trkpt lat="51.3233967" lon="-0.25731"><ele>81.8</ele><time>2026-03-25T16:42:16.318Z</time></trkpt><trkpt lat="51.3233067" lon="-0.2572683"><ele>82.0</ele><time>2026-03-25T16:42:17.314Z</time></trkpt><trkpt lat="51.3232067" lon="-0.2572167"><ele>82.0</ele><time>2026-03-25T16:42:18.314Z</time></trkpt><trkpt lat="51.323105" lon="-0.2571617"><ele>82.0</ele><time>2026-03-25T16:42:19.314Z</time></trkpt><trkpt lat="51.323005" lon="-0.2571117"><ele>82.0</ele><time>2026-03-25T16:42:20.317Z</time></trkpt><trkpt lat="51.3229133" lon="-0.25706"><ele>82.0</ele><time>2026-03-25T16:42:21.316Z</time></trkpt><trkpt lat="51.32283" lon="-0.2570133"><ele>82.0</ele><time>2026-03-25T16:42:22.319Z</time></trkpt><trkpt lat="51.322755" lon="-0.2569817"><ele>82.83333333333333</ele><time>2026-03-25T16:42:23.318Z</time></trkpt><trkpt lat="51.3226833" lon="-0.2569767"><ele>83.66666666666666</ele><time>2026-03-25T16:42:24.317Z</time></trkpt><trkpt lat="51.322615" lon="-0.2569933"><ele>84.5</ele><time>2026-03-25T16:42:25.317Z</time></trkpt><trkpt lat="51.3225467" lon="-0.257035"><ele>85.33333333333333</ele><time>2026-03-25T16:42:26.315Z</time></trkpt><trkpt lat="51.3224817" lon="-0.2570983"><ele>86.16666666666667</ele><time>2026-03-25T16:42:27.315Z</time></trkpt><trkpt lat="51.32243" lon="-0.2572033"><ele>87.0</ele><time>2026-03-25T16:42:28.317Z</time></trkpt><trkpt lat="51.3223783" lon="-0.2573383"><ele>87.0</ele><time>2026-03-25T16:42:29.314Z</time></trkpt><trkpt lat="51.3223283" lon="-0.2574883"><ele>87.0</ele><time>2026-03-25T16:42:30.314Z</time></trkpt><trkpt lat="51.32228" lon="-0.2576217"><ele>87.0</ele><time>2026-03-25T16:42:31.315Z</time></trkpt><trkpt lat="51.3222333" lon="-0.2577433"><ele>87.0</ele><time>2026-03-25T16:42:32.314Z</time></trkpt><trkpt lat="51.3221967" lon="-0.2578467"><ele>87.0</ele><time>2026-03-25T16:42:33.318Z</time></trkpt><trkpt lat="51.3221317" lon="-0.25799"><ele>87.5</ele><time>2026-03-25T16:42:35.314Z</time></trkpt><trkpt lat="51.3220633" lon="-0.25804"><ele>88.0</ele><time>2026-03-25T16:42:37.317Z</time></trkpt><trkpt lat="51.3219633" lon="-0.2579983"><ele>88.5</ele><time>2026-03-25T16:42:39.316Z</time></trkpt><trkpt lat="51.3219" lon="-0.2579417"><ele>89.0</ele><time>2026-03-25T16:42:40.314Z</time></trkpt><trkpt lat="51.3218367" lon="-0.2578867"><ele>89.5</ele><time>2026-03-25T16:42:41.313Z</time></trkpt><trkpt lat="51.3217733" lon="-0.2578133"><ele>90.0</ele><time>2026-03-25T16:42:43.314Z</time></trkpt><trkpt lat="51.3217667" lon="-0.2576967"><ele>90.0</ele><time>2026-03-25T16:42:46.313Z</time></trkpt><trkpt lat="51.3217933" lon="-0.2575617"><ele>90.0</ele><time>2026-03-25T16:42:48.315Z</time></trkpt><trkpt lat="51.3218417" lon="-0.25738"><ele>90.0</ele><time>2026-03-25T16:42:50.314Z</time></trkpt><trkpt lat="51.32188" lon="-0.2572617"><ele>90.0</ele><time>2026-03-25T16:42:51.315Z</time></trkpt><trkpt lat="51.321935" lon="-0.25711"><ele>90.0</ele><time>2026-03-25T16:42:52.314Z</time></trkpt><trkpt lat="51.3219883" lon="-0.25697"><ele>90.0</ele><time>2026-03-25T16:42:53.315Z</time></trkpt><trkpt lat="51.3220317" lon="-0.2568533"><ele>90.0</ele><time>2026-03-25T16:42:54.315Z</time></trkpt><trkpt lat="51.3220767" lon="-0.2567467"><ele>90.0</ele><time>2026-03-25T16:42:55.314Z</time></trkpt><trkpt lat="51.3221067" lon="-0.2566517"><ele>90.0</ele><time>2026-03-25T16:42:56.314Z</time></trkpt><trkpt lat="51.3221483" lon="-0.25652"><ele>90.0</ele><time>2026-03-25T16:42:58.313Z</time></trkpt><trkpt lat="51.322165" lon="-0.2564067"><ele>90.0</ele><time>2026-03-25T16:43:01.316Z</time></trkpt><trkpt lat="51.3222017" lon="-0.2562667"><ele>88.6</ele><time>2026-03-25T16:43:05.314Z</time></trkpt><trkpt lat="51.3222367" lon="-0.25612"><ele>87.2</ele><time>2026-03-25T16:43:07.313Z</time></trkpt><trkpt lat="51.322285" lon="-0.25597"><ele>85.80000000000001</ele><time>2026-03-25T16:43:09.315Z</time></trkpt><trkpt lat="51.322335" lon="-0.2558367"><ele>84.4</ele><time>2026-03-25T16:43:11.314Z</time></trkpt><trkpt lat="51.3224" lon="-0.255675"><ele>83.0</ele><time>2026-03-25T16:43:22.313Z</time></trkpt><trkpt lat="51.3224467" lon="-0.2555017"><ele>82.60000000000001</ele><time>2026-03-25T16:43:24.314Z</time></trkpt><trkpt lat="51.32248" lon="-0.255395"><ele>82.2</ele><time>2026-03-25T16:43:25.314Z</time></trkpt><trkpt lat="51.3225217" lon="-0.2552667"><ele>81.8</ele><time>2026-03-25T16:43:26.314Z</time></trkpt><trkpt lat="51.32257" lon="-0.2551183"><ele>81.4</ele><time>2026-03-25T16:43:27.314Z</time></trkpt><trkpt lat="51.32262" lon="-0.25496"><ele>81.0</ele><time>2026-03-25T16:43:28.314Z</time></trkpt><trkpt lat="51.3226717" lon="-0.254805"><ele>81.6</ele><time>2026-03-25T16:43:29.314Z</time></trkpt><trkpt lat="51.3227167" lon="-0.2546533"><ele>82.19999999999999</ele><time>2026-03-25T16:43:30.314Z</time></trkpt><trkpt lat="51.322765" lon="-0.25451"><ele>82.80000000000001</ele><time>2026-03-25T16:43:31.314Z</time></trkpt><trkpt lat="51.3228067" lon="-0.2543667"><ele>83.4</ele><time>2026-03-25T16:43:32.314Z</time></trkpt><trkpt lat="51.3228533" lon="-0.2542217"><ele>84.0</ele><time>2026-03-25T16:43:33.314Z</time></trkpt><trkpt lat="51.3229" lon="-0.254085"><ele>84.16666666666667</ele><time>2026-03-25T16:43:34.314Z</time></trkpt><trkpt lat="51.3229417" lon="-0.2539533"><ele>84.33333333333333</ele><time>2026-03-25T16:43:35.314Z</time></trkpt><trkpt lat="51.3229833" lon="-0.25383"><ele>84.5</ele><time>2026-03-25T16:43:36.317Z</time></trkpt><trkpt lat="51.3230167" lon="-0.2537217"><ele>84.66666666666666</ele><time>2026-03-25T16:43:37.314Z</time></trkpt><trkpt lat="51.3230667" lon="-0.2535767"><ele>84.83333333333333</ele><time>2026-03-25T16:43:39.314Z</time></trkpt><trkpt lat="51.323105" lon="-0.2534583"><ele>85.0</ele><time>2026-03-25T16:43:43.315Z</time></trkpt><trkpt lat="51.3230517" lon="-0.2533267"><ele>85.33333333333333</ele><time>2026-03-25T16:43:49.315Z</time></trkpt><trkpt lat="51.322955" lon="-0.2532283"><ele>85.66666666666666</ele><time>2026-03-25T16:43:51.316Z</time></trkpt><trkpt lat="51.3228917" lon="-0.2531683"><ele>86.0</ele><time>2026-03-25T16:43:52.316Z</time></trkpt><trkpt lat="51.3228283" lon="-0.2531033"><ele>86.33333333333333</ele><time>2026-03-25T16:43:53.314Z</time></trkpt><trkpt lat="51.3227733" lon="-0.253035"><ele>86.66666666666667</ele><time>2026-03-25T16:43:54.314Z</time></trkpt><trkpt lat="51.32272" lon="-0.2529633"><ele>87.0</ele><time>2026-03-25T16:43:55.314Z</time></trkpt><trkpt lat="51.3226717" lon="-0.2528867"><ele>87.6</ele><time>2026-03-25T16:43:56.314Z</time></trkpt><trkpt lat="51.3226167" lon="-0.2528117"><ele>88.19999999999999</ele><time>2026-03-25T16:43:57.313Z</time></trkpt><trkpt lat="51.3225517" lon="-0.2527317"><ele>88.8</ele><time>2026-03-25T16:43:58.317Z</time></trkpt><trkpt lat="51.3224783" lon="-0.25264"><ele>89.4</ele><time>2026-03-25T16:43:59.313Z</time></trkpt><trkpt lat="51.3223983" lon="-0.2525433"><ele>90.0</ele><time>2026-03-25T16:44:00.315Z</time></trkpt><trkpt lat="51.322315" lon="-0.2524333"><ele>90.75</ele><time>2026-03-25T16:44:01.313Z</time></trkpt><trkpt lat="51.322225" lon="-0.252325"><ele>91.5</ele><time>2026-03-25T16:44:02.314Z</time></trkpt><trkpt lat="51.3221333" lon="-0.2522133"><ele>92.25</ele><time>2026-03-25T16:44:03.313Z</time></trkpt><trkpt lat="51.32205" lon="-0.2520917"><ele>93.0</ele><time>2026-03-25T16:44:04.314Z</time></trkpt><trkpt lat="51.3219667" lon="-0.2519633"><ele>93.75</ele><time>2026-03-25T16:44:05.315Z</time></trkpt><trkpt lat="51.3218767" lon="-0.25183"><ele>94.5</ele><time>2026-03-25T16:44:06.313Z</time></trkpt><trkpt lat="51.32178" lon="-0.2516933"><ele>95.25</ele><time>2026-03-25T16:44:07.314Z</time></trkpt><trkpt lat="51.3216767" lon="-0.2515433"><ele>96.0</ele><time>2026-03-25T16:44:08.314Z</time></trkpt><trkpt lat="51.3215683" lon="-0.251385"><ele>96.33333333333334</ele><time>2026-03-25T16:44:09.313Z</time></trkpt><trkpt lat="51.3214567" lon="-0.2512133"><ele>96.66666666666667</ele><time>2026-03-25T16:44:10.314Z</time></trkpt><trkpt lat="51.321355" lon="-0.251035"><ele>97.0</ele><time>2026-03-25T16:44:11.315Z</time></trkpt><trkpt lat="51.32125" lon="-0.25087"><ele>97.75</ele><time>2026-03-25T16:44:12.314Z</time></trkpt><trkpt lat="51.3211383" lon="-0.250725"><ele>98.5</ele><time>2026-03-25T16:44:13.313Z</time></trkpt><trkpt lat="51.3210317" lon="-0.25059"><ele>99.25</ele><time>2026-03-25T16:44:14.318Z</time></trkpt><trkpt lat="51.320915" lon="-0.2504583"><ele>100.0</ele><time>2026-03-25T16:44:15.314Z</time></trkpt><trkpt lat="51.3207967" lon="-0.2503317"><ele>100.25</ele><time>2026-03-25T16:44:16.315Z</time></trkpt><trkpt lat="51.320675" lon="-0.25022"><ele>100.5</ele><time>2026-03-25T16:44:17.313Z</time></trkpt><trkpt lat="51.320555" lon="-0.2501067"><ele>100.75</ele><time>2026-03-25T16:44:18.316Z</time></trkpt><trkpt lat="51.3204467" lon="-0.2499933"><ele>101.0</ele><time>2026-03-25T16:44:19.314Z</time></trkpt><trkpt lat="51.3203383" lon="-0.2498717"><ele>102.5</ele><time>2026-03-25T16:44:20.314Z</time></trkpt><trkpt lat="51.32023" lon="-0.2497517"><ele>104.0</ele><time>2026-03-25T16:44:21.313Z</time></trkpt><trkpt lat="51.3201267" lon="-0.2496433"><ele>105.5</ele><time>2026-03-25T16:44:22.315Z</time></trkpt><trkpt lat="51.32003" lon="-0.2495383"><ele>107.0</ele><time>2026-03-25T16:44:23.316Z</time></trkpt><trkpt lat="51.3199367" lon="-0.2494267"><ele>107.0</ele><time>2026-03-25T16:44:24.314Z</time></trkpt><trkpt lat="51.3198433" lon="-0.24932"><ele>107.0</ele><time>2026-03-25T16:44:25.315Z</time></trkpt><trkpt lat="51.3197467" lon="-0.249205"><ele>107.0</ele><time>2026-03-25T16:44:26.313Z</time></trkpt><trkpt lat="51.3196517" lon="-0.2490583"><ele>107.0</ele><time>2026-03-25T16:44:27.315Z</time></trkpt><trkpt lat="51.31956" lon="-0.2489017"><ele>109.0</ele><time>2026-03-25T16:44:28.314Z</time></trkpt><trkpt lat="51.319475" lon="-0.24874"><ele>111.0</ele><time>2026-03-25T16:44:29.314Z</time></trkpt><trkpt lat="51.3193967" lon="-0.24859"><ele>113.0</ele><time>2026-03-25T16:44:30.314Z</time></trkpt><trkpt lat="51.3193117" lon="-0.2484417"><ele>115.0</ele><time>2026-03-25T16:44:31.313Z</time></trkpt><trkpt lat="51.3192167" lon="-0.2483117"><ele>115.0</ele><time>2026-03-25T16:44:32.314Z</time></trkpt><trkpt lat="51.3191083" lon="-0.2481767"><ele>115.0</ele><time>2026-03-25T16:44:33.315Z</time></trkpt><trkpt lat="51.319005" lon="-0.248025"><ele>115.0</ele><time>2026-03-25T16:44:34.313Z</time></trkpt><trkpt lat="51.318905" lon="-0.2478533"><ele>115.0</ele><time>2026-03-25T16:44:35.314Z</time></trkpt><trkpt lat="51.3187983" lon="-0.2476683"><ele>117.33333333333334</ele><time>2026-03-25T16:44:36.313Z</time></trkpt><trkpt lat="51.3186883" lon="-0.24747"><ele>119.66666666666666</ele><time>2026-03-25T16:44:37.315Z</time></trkpt><trkpt lat="51.31858" lon="-0.2472683"><ele>122.0</ele><time>2026-03-25T16:44:38.315Z</time></trkpt><trkpt lat="51.318475" lon="-0.2470633"><ele>122.0</ele><time>2026-03-25T16:44:39.313Z</time></trkpt><trkpt lat="51.3183733" lon="-0.24686"><ele>122.0</ele><time>2026-03-25T16:44:40.314Z</time></trkpt><trkpt lat="51.318275" lon="-0.2466633"><ele>122.0</ele><time>2026-03-25T16:44:41.314Z</time></trkpt><trkpt lat="51.3181833" lon="-0.2464817"><ele>122.25</ele><time>2026-03-25T16:44:42.314Z</time></trkpt><trkpt lat="51.3181033" lon="-0.2463017"><ele>122.5</ele><time>2026-03-25T16:44:43.313Z</time></trkpt><trkpt lat="51.3180283" lon="-0.2461267"><ele>122.75</ele><time>2026-03-25T16:44:44.313Z</time></trkpt><trkpt lat="51.317955" lon="-0.2459517"><ele>123.0</ele><time>2026-03-25T16:44:45.314Z</time></trkpt><trkpt lat="51.3178883" lon="-0.2457633"><ele>124.75</ele><time>2026-03-25T16:44:46.317Z</time></trkpt><trkpt lat="51.3178217" lon="-0.2455667"><ele>126.5</ele><time>2026-03-25T16:44:47.317Z</time></trkpt><trkpt lat="51.317755" lon="-0.2453683"><ele>128.25</ele><time>2026-03-25T16:44:48.314Z</time></trkpt><trkpt lat="51.317695" lon="-0.24517"><ele>130.0</ele><time>2026-03-25T16:44:49.313Z</time></trkpt><trkpt lat="51.3176417" lon="-0.2449633"><ele>130.0</ele><time>2026-03-25T16:44:50.314Z</time></trkpt><trkpt lat="51.317595" lon="-0.2447633"><ele>130.0</ele><time>2026-03-25T16:44:51.314Z</time></trkpt><trkpt lat="51.3175533" lon="-0.2445767"><ele>130.0</ele><time>2026-03-25T16:44:52.317Z</time></trkpt><trkpt lat="51.3175183" lon="-0.2443933"><ele>130.0</ele><time>2026-03-25T16:44:53.314Z</time></trkpt><trkpt lat="51.31749" lon="-0.2442183"><ele>130.0</ele><time>2026-03-25T16:44:54.317Z</time></trkpt><trkpt lat="51.3174667" lon="-0.2440467"><ele>130.0</ele><time>2026-03-25T16:44:55.314Z</time></trkpt><trkpt lat="51.3174433" lon="-0.24388"><ele>130.0</ele><time>2026-03-25T16:44:56.313Z</time></trkpt><trkpt lat="51.31742" lon="-0.2437183"><ele>130.0</ele><time>2026-03-25T16:44:57.313Z</time></trkpt><trkpt lat="51.3174017" lon="-0.2435633"><ele>130.0</ele><time>2026-03-25T16:44:58.313Z</time></trkpt><trkpt lat="51.3173833" lon="-0.243415"><ele>130.0</ele><time>2026-03-25T16:44:59.315Z</time></trkpt><trkpt lat="51.3173667" lon="-0.24327"><ele>130.0</ele><time>2026-03-25T16:45:00.314Z</time></trkpt><trkpt lat="51.3173483" lon="-0.2431283"><ele>130.0</ele><time>2026-03-25T16:45:01.313Z</time></trkpt><trkpt lat="51.3173283" lon="-0.2429917"><ele>130.0</ele><time>2026-03-25T16:45:02.313Z</time></trkpt><trkpt lat="51.3173167" lon="-0.2428517"><ele>130.0</ele><time>2026-03-25T16:45:03.315Z</time></trkpt><trkpt lat="51.3173017" lon="-0.2426983"><ele>130.0</ele><time>2026-03-25T16:45:04.315Z</time></trkpt><trkpt lat="51.3172883" lon="-0.2425517"><ele>130.0</ele><time>2026-03-25T16:45:05.314Z</time></trkpt><trkpt lat="51.3172767" lon="-0.2424183"><ele>130.0</ele><time>2026-03-25T16:45:06.315Z</time></trkpt><trkpt lat="51.317265" lon="-0.2423083"><ele>130.0</ele><time>2026-03-25T16:45:07.315Z</time></trkpt><trkpt lat="51.3172467" lon="-0.24213"><ele>130.0</ele><time>2026-03-25T16:45:09.317Z</time></trkpt><trkpt lat="51.317225" lon="-0.2420033"><ele>130.0</ele><time>2026-03-25T16:45:11.313Z</time></trkpt><trkpt lat="51.3172183" lon="-0.2418917"><ele>131.33333333333334</ele><time>2026-03-25T16:45:13.317Z</time></trkpt><trkpt lat="51.3172067" lon="-0.2417567"><ele>132.66666666666669</ele><time>2026-03-25T16:45:16.314Z</time></trkpt><trkpt lat="51.3172117" lon="-0.241615"><ele>134.0</ele><time>2026-03-25T16:45:18.313Z</time></trkpt><trkpt lat="51.31722" lon="-0.241515"><ele>135.33333333333334</ele><time>2026-03-25T16:45:19.313Z</time></trkpt><trkpt lat="51.3172333" lon="-0.2414017"><ele>136.66666666666666</ele><time>2026-03-25T16:45:20.317Z</time></trkpt><trkpt lat="51.31725" lon="-0.2412883"><ele>138.0</ele><time>2026-03-25T16:45:21.317Z</time></trkpt><trkpt lat="51.3172967" lon="-0.241115"><ele>138.0</ele><time>2026-03-25T16:45:23.313Z</time></trkpt><trkpt lat="51.31733" lon="-0.2409883"><ele>138.0</ele><time>2026-03-25T16:45:25.313Z</time></trkpt><trkpt lat="51.3173633" lon="-0.2408767"><ele>138.0</ele><time>2026-03-25T16:45:28.314Z</time></trkpt><trkpt lat="51.3174" lon="-0.2407833"><ele>138.0</ele><time>2026-03-25T16:45:30.316Z</time></trkpt><trkpt lat="51.3174483" lon="-0.240695"><ele>138.0</ele><time>2026-03-25T16:45:32.314Z</time></trkpt><trkpt lat="51.3174933" lon="-0.2406183"><ele>138.0</ele><time>2026-03-25T16:45:34.314Z</time></trkpt><trkpt lat="51.317545" lon="-0.24054"><ele>138.0</ele><time>2026-03-25T16:45:36.313Z</time></trkpt><trkpt lat="51.3176117" lon="-0.2404417"><ele>137.66666666666666</ele><time>2026-03-25T16:45:38.314Z</time></trkpt><trkpt lat="51.31768" lon="-0.2403267"><ele>137.33333333333334</ele><time>2026-03-25T16:45:40.314Z</time></trkpt><trkpt lat="51.3177383" lon="-0.2402433"><ele>137.0</ele><time>2026-03-25T16:45:42.315Z</time></trkpt><trkpt lat="51.3177867" lon="-0.24017"><ele>136.66666666666669</ele><time>2026-03-25T16:45:44.313Z</time></trkpt><trkpt lat="51.317835" lon="-0.2400883"><ele>136.33333333333334</ele><time>2026-03-25T16:45:47.313Z</time></trkpt><trkpt lat="51.3179183" lon="-0.2399683"><ele>136.0</ele><time>2026-03-25T16:45:51.314Z</time></trkpt><trkpt lat="51.3180017" lon="-0.2398433"><ele>135.66666666666669</ele><time>2026-03-25T16:45:53.316Z</time></trkpt><trkpt lat="51.31805" lon="-0.2397767"><ele>135.33333333333334</ele><time>2026-03-25T16:45:54.314Z</time></trkpt><trkpt lat="51.31813" lon="-0.23967"><ele>135.0</ele><time>2026-03-25T16:45:56.313Z</time></trkpt><trkpt lat="51.3181967" lon="-0.2396417"><ele>134.66666666666666</ele><time>2026-03-25T16:45:58.314Z</time></trkpt><trkpt lat="51.31825" lon="-0.239705"><ele>134.33333333333331</ele><time>2026-03-25T16:46:00.314Z</time></trkpt><trkpt lat="51.3183233" lon="-0.239815"><ele>134.0</ele><time>2026-03-25T16:46:02.314Z</time></trkpt><trkpt lat="51.31839" lon="-0.23987"><ele>134.0</ele><time>2026-03-25T16:46:03.314Z</time></trkpt><trkpt lat="51.31847" lon="-0.2399217"><ele>134.0</ele><time>2026-03-25T16:46:04.314Z</time></trkpt><trkpt lat="51.3185767" lon="-0.2399667"><ele>134.0</ele><time>2026-03-25T16:46:05.313Z</time></trkpt><trkpt lat="51.3186717" lon="-0.2400167"><ele>134.0</ele><time>2026-03-25T16:46:06.314Z</time></trkpt><trkpt lat="51.31877" lon="-0.2400683"><ele>134.0</ele><time>2026-03-25T16:46:07.314Z</time></trkpt><trkpt lat="51.3188633" lon="-0.2401167"><ele>132.75</ele><time>2026-03-25T16:46:08.314Z</time></trkpt><trkpt lat="51.318965" lon="-0.2401617"><ele>131.5</ele><time>2026-03-25T16:46:09.314Z</time></trkpt><trkpt lat="51.31908" lon="-0.2402067"><ele>130.25</ele><time>2026-03-25T16:46:10.314Z</time></trkpt><trkpt lat="51.3191967" lon="-0.24026"><ele>129.0</ele><time>2026-03-25T16:46:11.313Z</time></trkpt><trkpt lat="51.3193383" lon="-0.2403133"><ele>129.0</ele><time>2026-03-25T16:46:12.314Z</time></trkpt><trkpt lat="51.3194533" lon="-0.2403667"><ele>129.0</ele><time>2026-03-25T16:46:13.314Z</time></trkpt><trkpt lat="51.3195583" lon="-0.2404067"><ele>129.0</ele><time>2026-03-25T16:46:14.313Z</time></trkpt><trkpt lat="51.3196567" lon="-0.2404417"><ele>129.0</ele><time>2026-03-25T16:46:15.315Z</time></trkpt><trkpt lat="51.3197467" lon="-0.240475"><ele>129.0</ele><time>2026-03-25T16:46:16.314Z</time></trkpt><trkpt lat="51.3198283" lon="-0.24051"><ele>128.0</ele><time>2026-03-25T16:46:17.315Z</time></trkpt><trkpt lat="51.319905" lon="-0.2405533"><ele>127.0</ele><time>2026-03-25T16:46:18.313Z</time></trkpt><trkpt lat="51.31998" lon="-0.2405983"><ele>126.0</ele><time>2026-03-25T16:46:19.313Z</time></trkpt><trkpt lat="51.3200467" lon="-0.2406367"><ele>125.0</ele><time>2026-03-25T16:46:20.313Z</time></trkpt><trkpt lat="51.32016" lon="-0.240675"><ele>124.0</ele><time>2026-03-25T16:46:22.313Z</time></trkpt><trkpt lat="51.3202617" lon="-0.2406317"><ele>124.0</ele><time>2026-03-25T16:46:24.315Z</time></trkpt><trkpt lat="51.3203483" lon="-0.2405083"><ele>124.0</ele><time>2026-03-25T16:46:26.314Z</time></trkpt><trkpt lat="51.3203933" lon="-0.2404317"><ele>124.0</ele><time>2026-03-25T16:46:27.318Z</time></trkpt><trkpt lat="51.3204467" lon="-0.2403567"><ele>124.0</ele><time>2026-03-25T16:46:28.313Z</time></trkpt><trkpt lat="51.3205183" lon="-0.240265"><ele>124.0</ele><time>2026-03-25T16:46:29.314Z</time></trkpt><trkpt lat="51.320615" lon="-0.2401633"><ele>123.0</ele><time>2026-03-25T16:46:30.316Z</time></trkpt><trkpt lat="51.3207317" lon="-0.2400317"><ele>122.0</ele><time>2026-03-25T16:46:31.317Z</time></trkpt><trkpt lat="51.320845" lon="-0.2399183"><ele>121.0</ele><time>2026-03-25T16:46:32.314Z</time></trkpt><trkpt lat="51.320955" lon="-0.2398083"><ele>120.0</ele><time>2026-03-25T16:46:33.314Z</time></trkpt><trkpt lat="51.3210667" lon="-0.2397017"><ele>120.0</ele><time>2026-03-25T16:46:34.314Z</time></trkpt><trkpt lat="51.321175" lon="-0.239595"><ele>120.0</ele><time>2026-03-25T16:46:35.317Z</time></trkpt><trkpt lat="51.3212817" lon="-0.23949"><ele>120.0</ele><time>2026-03-25T16:46:36.314Z</time></trkpt><trkpt lat="51.32139" lon="-0.2393917"><ele>120.0</ele><time>2026-03-25T16:46:37.313Z</time></trkpt><trkpt lat="51.3214917" lon="-0.23929"><ele>119.0</ele><time>2026-03-25T16:46:38.313Z</time></trkpt><trkpt lat="51.3215967" lon="-0.2391833"><ele>118.0</ele><time>2026-03-25T16:46:39.317Z</time></trkpt><trkpt lat="51.3216983" lon="-0.2390767"><ele>117.0</ele><time>2026-03-25T16:46:40.411Z</time></trkpt><trkpt lat="51.3217967" lon="-0.2389767"><ele>116.0</ele><time>2026-03-25T16:46:41.315Z</time></trkpt><trkpt lat="51.3218917" lon="-0.238885"><ele>116.0</ele><time>2026-03-25T16:46:42.313Z</time></trkpt><trkpt lat="51.3219817" lon="-0.2387867"><ele>116.0</ele><time>2026-03-25T16:46:43.314Z</time></trkpt><trkpt lat="51.3220783" lon="-0.238685"><ele>116.0</ele><time>2026-03-25T16:46:44.315Z</time></trkpt><trkpt lat="51.3221817" lon="-0.23858"><ele>116.0</ele><time>2026-03-25T16:46:45.317Z</time></trkpt><trkpt lat="51.3222883" lon="-0.238475"><ele>116.0</ele><time>2026-03-25T16:46:46.314Z</time></trkpt><trkpt lat="51.3223967" lon="-0.2383667"><ele>116.0</ele><time>2026-03-25T16:46:47.314Z</time></trkpt><trkpt lat="51.3225083" lon="-0.2382567"><ele>116.0</ele><time>2026-03-25T16:46:48.314Z</time></trkpt><trkpt lat="51.3226183" lon="-0.2381467"><ele>116.0</ele><time>2026-03-25T16:46:49.315Z</time></trkpt><trkpt lat="51.3227267" lon="-0.2380433"><ele>116.0</ele><time>2026-03-25T16:46:50.315Z</time></trkpt><trkpt lat="51.3228317" lon="-0.2379433"><ele>116.0</ele><time>2026-03-25T16:46:51.315Z</time></trkpt><trkpt lat="51.32293" lon="-0.237845"><ele>116.0</ele><time>2026-03-25T16:46:52.318Z</time></trkpt><trkpt lat="51.3230217" lon="-0.2377467"><ele>116.0</ele><time>2026-03-25T16:46:53.314Z</time></trkpt><trkpt lat="51.3231133" lon="-0.2376533"><ele>115.19999999999999</ele><time>2026-03-25T16:46:54.314Z</time></trkpt><trkpt lat="51.323205" lon="-0.2375633"><ele>114.39999999999999</ele><time>2026-03-25T16:46:55.314Z</time></trkpt><trkpt lat="51.323295" lon="-0.2374733"><ele>113.6</ele><time>2026-03-25T16:46:56.316Z</time></trkpt><trkpt lat="51.323385" lon="-0.2373883"><ele>112.8</ele><time>2026-03-25T16:46:57.317Z</time></trkpt><trkpt lat="51.3234717" lon="-0.2373083"><ele>112.0</ele><time>2026-03-25T16:46:58.314Z</time></trkpt><trkpt lat="51.3235583" lon="-0.2372267"><ele>112.00000000000001</ele><time>2026-03-25T16:46:59.316Z</time></trkpt><trkpt lat="51.323645" lon="-0.23715"><ele>112.0</ele><time>2026-03-25T16:47:00.316Z</time></trkpt><trkpt lat="51.32373" lon="-0.2370733"><ele>112.0</ele><time>2026-03-25T16:47:01.316Z</time></trkpt><trkpt lat="51.3238067" lon="-0.237"><ele>112.0</ele><time>2026-03-25T16:47:02.317Z</time></trkpt><trkpt lat="51.3238783" lon="-0.2369333"><ele>112.00000000000001</ele><time>2026-03-25T16:47:03.314Z</time></trkpt><trkpt lat="51.323935" lon="-0.236875"><ele>112.0</ele><time>2026-03-25T16:47:04.314Z</time></trkpt><trkpt lat="51.324035" lon="-0.236765"><ele>111.19999999999999</ele><time>2026-03-25T16:47:06.314Z</time></trkpt><trkpt lat="51.32414" lon="-0.23666"><ele>110.39999999999999</ele><time>2026-03-25T16:47:08.317Z</time></trkpt><trkpt lat="51.3242033" lon="-0.2366"><ele>109.60000000000001</ele><time>2026-03-25T16:47:09.314Z</time></trkpt><trkpt lat="51.3242783" lon="-0.2365317"><ele>108.80000000000001</ele><time>2026-03-25T16:47:10.317Z</time></trkpt><trkpt lat="51.324355" lon="-0.2364567"><ele>108.0</ele><time>2026-03-25T16:47:11.317Z</time></trkpt><trkpt lat="51.324435" lon="-0.2363783"><ele>107.80000000000001</ele><time>2026-03-25T16:47:12.313Z</time></trkpt><trkpt lat="51.3245167" lon="-0.2362917"><ele>107.60000000000001</ele><time>2026-03-25T16:47:13.313Z</time></trkpt><trkpt lat="51.3246" lon="-0.2362017"><ele>107.39999999999999</ele><time>2026-03-25T16:47:14.314Z</time></trkpt><trkpt lat="51.3246817" lon="-0.2360967"><ele>107.19999999999999</ele><time>2026-03-25T16:47:15.313Z</time></trkpt><trkpt lat="51.3247617" lon="-0.235985"><ele>107.0</ele><time>2026-03-25T16:47:16.313Z</time></trkpt><trkpt lat="51.3248433" lon="-0.235875"><ele>106.19999999999999</ele><time>2026-03-25T16:47:17.314Z</time></trkpt><trkpt lat="51.3249217" lon="-0.2357767"><ele>105.39999999999999</ele><time>2026-03-25T16:47:18.314Z</time></trkpt><trkpt lat="51.3249967" lon="-0.2356783"><ele>104.6</ele><time>2026-03-25T16:47:19.314Z</time></trkpt><trkpt lat="51.32507" lon="-0.235575"><ele>103.80000000000001</ele><time>2026-03-25T16:47:20.313Z</time></trkpt><trkpt lat="51.32514" lon="-0.2354733"><ele>103.0</ele><time>2026-03-25T16:47:21.314Z</time></trkpt><trkpt lat="51.325205" lon="-0.2353733"><ele>103.00000000000001</ele><time>2026-03-25T16:47:22.313Z</time></trkpt><trkpt lat="51.325265" lon="-0.2352783"><ele>103.0</ele><time>2026-03-25T16:47:23.313Z</time></trkpt><trkpt lat="51.325325" lon="-0.23519"><ele>103.0</ele><time>2026-03-25T16:47:24.314Z</time></trkpt><trkpt lat="51.325385" lon="-0.235105"><ele>103.0</ele><time>2026-03-25T16:47:25.314Z</time></trkpt><trkpt lat="51.3254367" lon="-0.2350283"><ele>103.00000000000001</ele><time>2026-03-25T16:47:26.314Z</time></trkpt><trkpt lat="51.3255267" lon="-0.2348917"><ele>103.0</ele><time>2026-03-25T16:47:28.314Z</time></trkpt><trkpt lat="51.3255817" lon="-0.2348117"><ele>102.2</ele><time>2026-03-25T16:47:29.314Z</time></trkpt><trkpt lat="51.3256433" lon="-0.23472"><ele>101.4</ele><time>2026-03-25T16:47:30.314Z</time></trkpt><trkpt lat="51.3257133" lon="-0.2346117"><ele>100.60000000000001</ele><time>2026-03-25T16:47:31.317Z</time></trkpt><trkpt lat="51.3257817" lon="-0.2345033"><ele>99.80000000000001</ele><time>2026-03-25T16:47:32.314Z</time></trkpt><trkpt lat="51.32585" lon="-0.2343983"><ele>99.0</ele><time>2026-03-25T16:47:33.314Z</time></trkpt><trkpt lat="51.3259167" lon="-0.234295"><ele>99.0</ele><time>2026-03-25T16:47:34.314Z</time></trkpt><trkpt lat="51.3259867" lon="-0.2341883"><ele>99.0</ele><time>2026-03-25T16:47:35.318Z</time></trkpt><trkpt lat="51.326055" lon="-0.2340783"><ele>99.0</ele><time>2026-03-25T16:47:36.314Z</time></trkpt><trkpt lat="51.3261117" lon="-0.2339733"><ele>99.0</ele><time>2026-03-25T16:47:37.314Z</time></trkpt><trkpt lat="51.3261667" lon="-0.2338767"><ele>99.0</ele><time>2026-03-25T16:47:38.313Z</time></trkpt><trkpt lat="51.326215" lon="-0.233785"><ele>99.0</ele><time>2026-03-25T16:47:39.313Z</time></trkpt><trkpt lat="51.3262617" lon="-0.2337083"><ele>99.0</ele><time>2026-03-25T16:47:40.313Z</time></trkpt><trkpt lat="51.3263383" lon="-0.233565"><ele>99.0</ele><time>2026-03-25T16:47:42.317Z</time></trkpt><trkpt lat="51.3264" lon="-0.2334317"><ele>99.0</ele><time>2026-03-25T16:47:44.318Z</time></trkpt><trkpt lat="51.326445" lon="-0.2333317"><ele>99.0</ele><time>2026-03-25T16:47:46.316Z</time></trkpt><trkpt lat="51.3264567" lon="-0.2332067"><ele>99.0</ele><time>2026-03-25T16:47:57.314Z</time></trkpt><trkpt lat="51.3263967" lon="-0.2330983"><ele>98.6</ele><time>2026-03-25T16:47:59.315Z</time></trkpt><trkpt lat="51.3263217" lon="-0.2329933"><ele>98.2</ele><time>2026-03-25T16:48:01.315Z</time></trkpt><trkpt lat="51.3262333" lon="-0.2328917"><ele>97.8</ele><time>2026-03-25T16:48:03.317Z</time></trkpt><trkpt lat="51.3261517" lon="-0.232825"><ele>97.39999999999999</ele><time>2026-03-25T16:48:05.314Z</time></trkpt><trkpt lat="51.3260717" lon="-0.2327567"><ele>97.0</ele><time>2026-03-25T16:48:08.318Z</time></trkpt><trkpt lat="51.3260017" lon="-0.23265"><ele>97.0</ele><time>2026-03-25T16:48:20.314Z</time></trkpt><trkpt lat="51.3258733" lon="-0.2325417"><ele>97.0</ele><time>2026-03-25T16:48:22.315Z</time></trkpt><trkpt lat="51.32577" lon="-0.2324883"><ele>97.0</ele><time>2026-03-25T16:48:23.316Z</time></trkpt><trkpt lat="51.3256517" lon="-0.2324483"><ele>97.0</ele><time>2026-03-25T16:48:24.314Z</time></trkpt><trkpt lat="51.32553" lon="-0.2324183"><ele>97.39999999999999</ele><time>2026-03-25T16:48:25.315Z</time></trkpt><trkpt lat="51.3254167" lon="-0.2323867"><ele>97.8</ele><time>2026-03-25T16:48:26.314Z</time></trkpt><trkpt lat="51.3253033" lon="-0.2323633"><ele>98.2</ele><time>2026-03-25T16:48:27.314Z</time></trkpt><trkpt lat="51.3251933" lon="-0.232345"><ele>98.6</ele><time>2026-03-25T16:48:28.314Z</time></trkpt><trkpt lat="51.3250917" lon="-0.2323217"><ele>99.0</ele><time>2026-03-25T16:48:29.314Z</time></trkpt><trkpt lat="51.324995" lon="-0.2323017"><ele>99.0</ele><time>2026-03-25T16:48:30.314Z</time></trkpt><trkpt lat="51.3248983" lon="-0.232285"><ele>99.0</ele><time>2026-03-25T16:48:31.318Z</time></trkpt><trkpt lat="51.3248117" lon="-0.2322667"><ele>99.0</ele><time>2026-03-25T16:48:32.318Z</time></trkpt><trkpt lat="51.3247367" lon="-0.2322483"><ele>99.0</ele><time>2026-03-25T16:48:33.314Z</time></trkpt><trkpt lat="51.3246667" lon="-0.23224"><ele>99.0</ele><time>2026-03-25T16:48:34.314Z</time></trkpt><trkpt lat="51.3245767" lon="-0.2322217"><ele>99.0</ele><time>2026-03-25T16:48:36.318Z</time></trkpt><trkpt lat="51.3245183" lon="-0.232155"><ele>99.0</ele><time>2026-03-25T16:48:39.314Z</time></trkpt><trkpt lat="51.3244117" lon="-0.23205"><ele>99.0</ele><time>2026-03-25T16:49:04.313Z</time></trkpt><trkpt lat="51.3244817" lon="-0.2321333"><ele>99.0</ele><time>2026-03-25T16:49:11.315Z</time></trkpt><trkpt lat="51.3245583" lon="-0.2321817"><ele>99.0</ele><time>2026-03-25T16:49:13.315Z</time></trkpt><trkpt lat="51.3246667" lon="-0.2322233"><ele>99.0</ele><time>2026-03-25T16:49:15.315Z</time></trkpt><trkpt lat="51.3247317" lon="-0.232245"><ele>99.0</ele><time>2026-03-25T16:49:16.315Z</time></trkpt><trkpt lat="51.324805" lon="-0.2322667"><ele>99.0</ele><time>2026-03-25T16:49:17.315Z</time></trkpt><trkpt lat="51.3248783" lon="-0.2322833"><ele>99.0</ele><time>2026-03-25T16:49:18.315Z</time></trkpt><trkpt lat="51.3249467" lon="-0.2323017"><ele>99.0</ele><time>2026-03-25T16:49:19.315Z</time></trkpt><trkpt lat="51.3250267" lon="-0.2323183"><ele>99.0</ele><time>2026-03-25T16:49:20.317Z</time></trkpt><trkpt lat="51.3251" lon="-0.23233"><ele>99.0</ele><time>2026-03-25T16:49:21.314Z</time></trkpt><trkpt lat="51.3251683" lon="-0.2323433"><ele>99.0</ele><time>2026-03-25T16:49:22.314Z</time></trkpt><trkpt lat="51.325235" lon="-0.2323583"><ele>99.2</ele><time>2026-03-25T16:49:23.314Z</time></trkpt><trkpt lat="51.3253567" lon="-0.232385"><ele>99.4</ele><time>2026-03-25T16:49:25.314Z</time></trkpt><trkpt lat="51.3254583" lon="-0.2324133"><ele>99.6</ele><time>2026-03-25T16:49:27.315Z</time></trkpt><trkpt lat="51.325535" lon="-0.232435"><ele>99.8</ele><time>2026-03-25T16:49:29.315Z</time></trkpt><trkpt lat="51.3256017" lon="-0.2324633"><ele>100.0</ele><time>2026-03-25T16:49:32.314Z</time></trkpt><trkpt lat="51.3256867" lon="-0.23247"><ele>99.4</ele><time>2026-03-25T16:49:41.314Z</time></trkpt><trkpt lat="51.3257533" lon="-0.2325233"><ele>98.8</ele><time>2026-03-25T16:49:43.315Z</time></trkpt><trkpt lat="51.3258083" lon="-0.2325783"><ele>98.19999999999999</ele><time>2026-03-25T16:49:45.315Z</time></trkpt><trkpt lat="51.3259067" lon="-0.2325717"><ele>97.6</ele><time>2026-03-25T16:49:59.314Z</time></trkpt><trkpt lat="51.3260083" lon="-0.2325167"><ele>97.0</ele><time>2026-03-25T16:50:01.315Z</time></trkpt><trkpt lat="51.3261133" lon="-0.2324417"><ele>97.0</ele><time>2026-03-25T16:50:03.316Z</time></trkpt><trkpt lat="51.326195" lon="-0.2323733"><ele>97.0</ele><time>2026-03-25T16:50:05.315Z</time></trkpt><trkpt lat="51.326265" lon="-0.2323117"><ele>97.0</ele><time>2026-03-25T16:50:07.316Z</time></trkpt><trkpt lat="51.3265117" lon="-0.2320783"><ele>97.39999999999999</ele><time>2026-03-25T16:50:11.315Z</time></trkpt><trkpt lat="51.3265833" lon="-0.2320117"><ele>97.8</ele><time>2026-03-25T16:50:12.314Z</time></trkpt><trkpt lat="51.3266467" lon="-0.2319483"><ele>98.2</ele><time>2026-03-25T16:50:13.315Z</time></trkpt><trkpt lat="51.3267033" lon="-0.231885"><ele>98.6</ele><time>2026-03-25T16:50:14.314Z</time></trkpt><trkpt lat="51.3268183" lon="-0.2316633"><ele>99.0</ele><time>2026-03-25T16:50:17.313Z</time></trkpt><trkpt lat="51.326865" lon="-0.231375"><ele>100.66666666666666</ele><time>2026-03-25T16:50:20.315Z</time></trkpt><trkpt lat="51.32693" lon="-0.230925"><ele>102.33333333333333</ele><time>2026-03-25T16:50:24.315Z</time></trkpt><trkpt lat="51.326945" lon="-0.2307983"><ele>104.0</ele><time>2026-03-25T16:50:25.314Z</time></trkpt><trkpt lat="51.3269617" lon="-0.2306633"><ele>104.49999999999999</ele><time>2026-03-25T16:50:26.315Z</time></trkpt><trkpt lat="51.3269783" lon="-0.2305183"><ele>105.0</ele><time>2026-03-25T16:50:27.315Z</time></trkpt><trkpt lat="51.3269933" lon="-0.230375"><ele>105.5</ele><time>2026-03-25T16:50:28.315Z</time></trkpt><trkpt lat="51.327005" lon="-0.2302483"><ele>106.0</ele><time>2026-03-25T16:50:29.314Z</time></trkpt><trkpt lat="51.3270183" lon="-0.2301317"><ele>106.49999999999999</ele><time>2026-03-25T16:50:30.313Z</time></trkpt><trkpt lat="51.3270283" lon="-0.2300183"><ele>107.0</ele><time>2026-03-25T16:50:31.314Z</time></trkpt><trkpt lat="51.32704" lon="-0.2299183"><ele>107.39999999999999</ele><time>2026-03-25T16:50:32.314Z</time></trkpt><trkpt lat="51.3270517" lon="-0.2298017"><ele>107.79999999999998</ele><time>2026-03-25T16:50:33.315Z</time></trkpt><trkpt lat="51.3270667" lon="-0.2296633"><ele>108.2</ele><time>2026-03-25T16:50:34.313Z</time></trkpt><trkpt lat="51.3270817" lon="-0.2294967"><ele>108.6</ele><time>2026-03-25T16:50:35.316Z</time></trkpt><trkpt lat="51.3271033" lon="-0.2293033"><ele>109.0</ele><time>2026-03-25T16:50:36.314Z</time></trkpt><trkpt lat="51.3271267" lon="-0.229105"><ele>109.25</ele><time>2026-03-25T16:50:37.314Z</time></trkpt><trkpt lat="51.32715" lon="-0.2288883"><ele>109.5</ele><time>2026-03-25T16:50:38.315Z</time></trkpt><trkpt lat="51.3271717" lon="-0.2286717"><ele>109.75</ele><time>2026-03-25T16:50:39.314Z</time></trkpt><trkpt lat="51.3272" lon="-0.22847"><ele>110.0</ele><time>2026-03-25T16:50:40.313Z</time></trkpt><trkpt lat="51.327225" lon="-0.2282817"><ele>111.25</ele><time>2026-03-25T16:50:41.315Z</time></trkpt><trkpt lat="51.327245" lon="-0.2280883"><ele>112.5</ele><time>2026-03-25T16:50:42.315Z</time></trkpt><trkpt lat="51.327265" lon="-0.2278933"><ele>113.75</ele><time>2026-03-25T16:50:43.315Z</time></trkpt><trkpt lat="51.327285" lon="-0.2276967"><ele>115.0</ele><time>2026-03-25T16:50:44.315Z</time></trkpt><trkpt lat="51.3273067" lon="-0.2275033"><ele>115.75</ele><time>2026-03-25T16:50:45.315Z</time></trkpt><trkpt lat="51.3273317" lon="-0.227305"><ele>116.5</ele><time>2026-03-25T16:50:46.313Z</time></trkpt><trkpt lat="51.3273567" lon="-0.2270983"><ele>117.25</ele><time>2026-03-25T16:50:47.315Z</time></trkpt><trkpt lat="51.3273783" lon="-0.2269"><ele>118.0</ele><time>2026-03-25T16:50:48.315Z</time></trkpt><trkpt lat="51.3274017" lon="-0.2267017"><ele>118.0</ele><time>2026-03-25T16:50:49.315Z</time></trkpt><trkpt lat="51.327425" lon="-0.2264983"><ele>118.0</ele><time>2026-03-25T16:50:50.314Z</time></trkpt><trkpt lat="51.3274467" lon="-0.2263"><ele>118.0</ele><time>2026-03-25T16:50:51.315Z</time></trkpt><trkpt lat="51.3274683" lon="-0.2261033"><ele>118.0</ele><time>2026-03-25T16:50:52.313Z</time></trkpt><trkpt lat="51.32749" lon="-0.22591"><ele>118.5</ele><time>2026-03-25T16:50:53.314Z</time></trkpt><trkpt lat="51.3275083" lon="-0.2257183"><ele>119.0</ele><time>2026-03-25T16:50:54.314Z</time></trkpt><trkpt lat="51.3275233" lon="-0.2255383"><ele>119.5</ele><time>2026-03-25T16:50:55.314Z</time></trkpt><trkpt lat="51.327545" lon="-0.2253633"><ele>120.0</ele><time>2026-03-25T16:50:56.315Z</time></trkpt><trkpt lat="51.3275667" lon="-0.2251833"><ele>120.25</ele><time>2026-03-25T16:50:57.315Z</time></trkpt><trkpt lat="51.32759" lon="-0.224995"><ele>120.5</ele><time>2026-03-25T16:50:58.313Z</time></trkpt><trkpt lat="51.3276117" lon="-0.2248067"><ele>120.75</ele><time>2026-03-25T16:50:59.314Z</time></trkpt><trkpt lat="51.3276317" lon="-0.224625"><ele>121.0</ele><time>2026-03-25T16:51:00.315Z</time></trkpt><trkpt lat="51.3276483" lon="-0.2244467"><ele>121.19999999999999</ele><time>2026-03-25T16:51:01.315Z</time></trkpt><trkpt lat="51.3276667" lon="-0.2242733"><ele>121.39999999999999</ele><time>2026-03-25T16:51:02.315Z</time></trkpt><trkpt lat="51.3276867" lon="-0.2241067"><ele>121.6</ele><time>2026-03-25T16:51:03.315Z</time></trkpt><trkpt lat="51.3277017" lon="-0.223945"><ele>121.8</ele><time>2026-03-25T16:51:04.314Z</time></trkpt><trkpt lat="51.327715" lon="-0.2237967"><ele>122.0</ele><time>2026-03-25T16:51:05.315Z</time></trkpt><trkpt lat="51.3277283" lon="-0.2236583"><ele>122.16666666666666</ele><time>2026-03-25T16:51:06.315Z</time></trkpt><trkpt lat="51.327735" lon="-0.2235183"><ele>122.33333333333333</ele><time>2026-03-25T16:51:07.314Z</time></trkpt><trkpt lat="51.3277367" lon="-0.2233917"><ele>122.5</ele><time>2026-03-25T16:51:08.314Z</time></trkpt><trkpt lat="51.327735" lon="-0.2232767"><ele>122.66666666666666</ele><time>2026-03-25T16:51:09.314Z</time></trkpt><trkpt lat="51.3277267" lon="-0.223105"><ele>122.83333333333333</ele><time>2026-03-25T16:51:11.314Z</time></trkpt><trkpt lat="51.3277083" lon="-0.2229767"><ele>123.0</ele><time>2026-03-25T16:51:13.315Z</time></trkpt><trkpt lat="51.3276983" lon="-0.2228633"><ele>123.0</ele><time>2026-03-25T16:51:15.315Z</time></trkpt><trkpt lat="51.32768" lon="-0.2227317"><ele>123.00000000000001</ele><time>2026-03-25T16:51:17.314Z</time></trkpt><trkpt lat="51.3276767" lon="-0.22261"><ele>123.00000000000001</ele><time>2026-03-25T16:51:19.314Z</time></trkpt><trkpt lat="51.327675" lon="-0.22247"><ele>123.0</ele><time>2026-03-25T16:51:22.315Z</time></trkpt><trkpt lat="51.3276583" lon="-0.2223333"><ele>123.0</ele><time>2026-03-25T16:51:24.314Z</time></trkpt><trkpt lat="51.3276617" lon="-0.2221483"><ele>123.4</ele><time>2026-03-25T16:51:26.314Z</time></trkpt><trkpt lat="51.3276767" lon="-0.221985"><ele>123.80000000000001</ele><time>2026-03-25T16:51:28.314Z</time></trkpt><trkpt lat="51.327685" lon="-0.2218583"><ele>124.2</ele><time>2026-03-25T16:51:30.318Z</time></trkpt><trkpt lat="51.327695" lon="-0.2216917"><ele>124.6</ele><time>2026-03-25T16:51:32.317Z</time></trkpt><trkpt lat="51.327715" lon="-0.221545"><ele>125.0</ele><time>2026-03-25T16:51:34.315Z</time></trkpt><trkpt lat="51.3277167" lon="-0.2213717"><ele>125.2</ele><time>2026-03-25T16:51:36.316Z</time></trkpt><trkpt lat="51.3277183" lon="-0.2211967"><ele>125.4</ele><time>2026-03-25T16:51:38.318Z</time></trkpt><trkpt lat="51.3277317" lon="-0.2210467"><ele>125.6</ele><time>2026-03-25T16:51:40.318Z</time></trkpt><trkpt lat="51.3277317" lon="-0.2209383"><ele>125.8</ele><time>2026-03-25T16:51:42.315Z</time></trkpt><trkpt lat="51.3277417" lon="-0.2207983"><ele>126.0</ele><time>2026-03-25T16:51:44.317Z</time></trkpt><trkpt lat="51.3277617" lon="-0.2206"><ele>126.0</ele><time>2026-03-25T16:51:46.315Z</time></trkpt><trkpt lat="51.32778" lon="-0.2204283"><ele>126.0</ele><time>2026-03-25T16:51:48.318Z</time></trkpt><trkpt lat="51.3277883" lon="-0.2202817"><ele>126.0</ele><time>2026-03-25T16:51:50.314Z</time></trkpt><trkpt lat="51.3278017" lon="-0.2201633"><ele>126.0</ele><time>2026-03-25T16:51:52.313Z</time></trkpt><trkpt lat="51.327815" lon="-0.2200567"><ele>126.0</ele><time>2026-03-25T16:51:54.313Z</time></trkpt><trkpt lat="51.3278233" lon="-0.2199533"><ele>126.0</ele><time>2026-03-25T16:51:57.313Z</time></trkpt><trkpt lat="51.3278217" lon="-0.2197967"><ele>126.5</ele><time>2026-03-25T16:52:01.316Z</time></trkpt><trkpt lat="51.327835" lon="-0.2195883"><ele>127.0</ele><time>2026-03-25T16:52:03.317Z</time></trkpt><trkpt lat="51.3278433" lon="-0.2194517"><ele>127.5</ele><time>2026-03-25T16:52:04.317Z</time></trkpt><trkpt lat="51.327865" lon="-0.2192917"><ele>128.0</ele><time>2026-03-25T16:52:05.314Z</time></trkpt><trkpt lat="51.3279033" lon="-0.2190733"><ele>128.5</ele><time>2026-03-25T16:52:06.314Z</time></trkpt><trkpt lat="51.3279367" lon="-0.2188533"><ele>129.0</ele><time>2026-03-25T16:52:07.315Z</time></trkpt><trkpt lat="51.3279717" lon="-0.2186333"><ele>129.5</ele><time>2026-03-25T16:52:08.313Z</time></trkpt><trkpt lat="51.328" lon="-0.2184467"><ele>130.0</ele><time>2026-03-25T16:52:09.315Z</time></trkpt><trkpt lat="51.3280233" lon="-0.2182917"><ele>130.0</ele><time>2026-03-25T16:52:10.313Z</time></trkpt><trkpt lat="51.3280383" lon="-0.2181667"><ele>130.0</ele><time>2026-03-25T16:52:11.314Z</time></trkpt><trkpt lat="51.328055" lon="-0.2180583"><ele>130.0</ele><time>2026-03-25T16:52:12.314Z</time></trkpt><trkpt lat="51.3280667" lon="-0.2179433"><ele>130.0</ele><time>2026-03-25T16:52:13.314Z</time></trkpt><trkpt lat="51.3280783" lon="-0.217825"><ele>130.0</ele><time>2026-03-25T16:52:14.314Z</time></trkpt><trkpt lat="51.3280883" lon="-0.2177"><ele>130.0</ele><time>2026-03-25T16:52:15.314Z</time></trkpt><trkpt lat="51.3281033" lon="-0.2175733"><ele>130.0</ele><time>2026-03-25T16:52:16.314Z</time></trkpt><trkpt lat="51.32812" lon="-0.2174533"><ele>130.0</ele><time>2026-03-25T16:52:17.313Z</time></trkpt><trkpt lat="51.3281383" lon="-0.2173317"><ele>130.0</ele><time>2026-03-25T16:52:18.313Z</time></trkpt><trkpt lat="51.328155" lon="-0.2172117"><ele>130.0</ele><time>2026-03-25T16:52:19.313Z</time></trkpt><trkpt lat="51.328175" lon="-0.2170983"><ele>130.0</ele><time>2026-03-25T16:52:20.314Z</time></trkpt><trkpt lat="51.3281933" lon="-0.2170017"><ele>130.0</ele><time>2026-03-25T16:52:21.314Z</time></trkpt><trkpt lat="51.32822" lon="-0.216855"><ele>130.0</ele><time>2026-03-25T16:52:23.315Z</time></trkpt><trkpt lat="51.3282467" lon="-0.2167133"><ele>130.0</ele><time>2026-03-25T16:52:25.313Z</time></trkpt><trkpt lat="51.3282667" lon="-0.2165667"><ele>130.0</ele><time>2026-03-25T16:52:27.313Z</time></trkpt><trkpt lat="51.32829" lon="-0.2164233"><ele>130.0</ele><time>2026-03-25T16:52:29.314Z</time></trkpt><trkpt lat="51.32832" lon="-0.2163217"><ele>130.0</ele><time>2026-03-25T16:52:31.313Z</time></trkpt><trkpt lat="51.3283417" lon="-0.2162233"><ele>130.0</ele><time>2026-03-25T16:52:44.314Z</time></trkpt><trkpt lat="51.328375" lon="-0.2160883"><ele>130.4</ele><time>2026-03-25T16:52:46.314Z</time></trkpt><trkpt lat="51.3284083" lon="-0.2159933"><ele>130.8</ele><time>2026-03-25T16:52:47.313Z</time></trkpt><trkpt lat="51.3284533" lon="-0.2158133"><ele>131.2</ele><time>2026-03-25T16:52:49.315Z</time></trkpt><trkpt lat="51.3284867" lon="-0.2156417"><ele>131.6</ele><time>2026-03-25T16:52:51.314Z</time></trkpt><trkpt lat="51.3285167" lon="-0.2154933"><ele>132.0</ele><time>2026-03-25T16:52:53.314Z</time></trkpt><trkpt lat="51.3285267" lon="-0.2153917"><ele>132.2</ele><time>2026-03-25T16:52:55.314Z</time></trkpt><trkpt lat="51.328555" lon="-0.21522"><ele>132.39999999999998</ele><time>2026-03-25T16:52:57.314Z</time></trkpt><trkpt lat="51.328565" lon="-0.2150633"><ele>132.60000000000002</ele><time>2026-03-25T16:52:59.315Z</time></trkpt><trkpt lat="51.3285667" lon="-0.21489"><ele>132.8</ele><time>2026-03-25T16:53:01.313Z</time></trkpt><trkpt lat="51.328555" lon="-0.2147333"><ele>133.0</ele><time>2026-03-25T16:53:03.315Z</time></trkpt><trkpt lat="51.3285433" lon="-0.21459"><ele>133.33333333333334</ele><time>2026-03-25T16:53:05.313Z</time></trkpt><trkpt lat="51.328525" lon="-0.2144483"><ele>133.66666666666669</ele><time>2026-03-25T16:53:07.313Z</time></trkpt><trkpt lat="51.3285133" lon="-0.2143133"><ele>134.0</ele><time>2026-03-25T16:53:09.314Z</time></trkpt><trkpt lat="51.3284933" lon="-0.214155"><ele>134.33333333333334</ele><time>2026-03-25T16:53:11.314Z</time></trkpt><trkpt lat="51.32848" lon="-0.2140483"><ele>134.66666666666666</ele><time>2026-03-25T16:53:12.315Z</time></trkpt><trkpt lat="51.328465" lon="-0.2139183"><ele>135.0</ele><time>2026-03-25T16:53:13.314Z</time></trkpt><trkpt lat="51.3284383" lon="-0.213755"><ele>135.8</ele><time>2026-03-25T16:53:14.314Z</time></trkpt><trkpt lat="51.3284017" lon="-0.21357"><ele>136.6</ele><time>2026-03-25T16:53:15.314Z</time></trkpt><trkpt lat="51.328375" lon="-0.213395"><ele>137.4</ele><time>2026-03-25T16:53:16.314Z</time></trkpt><trkpt lat="51.3283483" lon="-0.2132267"><ele>138.2</ele><time>2026-03-25T16:53:17.314Z</time></trkpt><trkpt lat="51.328325" lon="-0.2130633"><ele>139.0</ele><time>2026-03-25T16:53:18.314Z</time></trkpt><trkpt lat="51.3283017" lon="-0.2129083"><ele>139.0</ele><time>2026-03-25T16:53:19.314Z</time></trkpt><trkpt lat="51.32828" lon="-0.21277"><ele>139.0</ele><time>2026-03-25T16:53:20.314Z</time></trkpt><trkpt lat="51.328265" lon="-0.212635"><ele>139.0</ele><time>2026-03-25T16:53:21.313Z</time></trkpt><trkpt lat="51.3282467" lon="-0.21251"><ele>139.0</ele><time>2026-03-25T16:53:22.315Z</time></trkpt><trkpt lat="51.3282317" lon="-0.2123983"><ele>139.0</ele><time>2026-03-25T16:53:23.313Z</time></trkpt><trkpt lat="51.3282067" lon="-0.2122867"><ele>139.0</ele><time>2026-03-25T16:53:24.315Z</time></trkpt><trkpt lat="51.3281833" lon="-0.2121867"><ele>139.0</ele><time>2026-03-25T16:53:25.314Z</time></trkpt><trkpt lat="51.32816" lon="-0.2120917"><ele>139.0</ele><time>2026-03-25T16:53:26.315Z</time></trkpt><trkpt lat="51.32814" lon="-0.2119433"><ele>139.0</ele><time>2026-03-25T16:53:28.313Z</time></trkpt><trkpt lat="51.3281317" lon="-0.2118083"><ele>139.0</ele><time>2026-03-25T16:53:30.313Z</time></trkpt><trkpt lat="51.3281283" lon="-0.2117"><ele>139.0</ele><time>2026-03-25T16:53:32.313Z</time></trkpt><trkpt lat="51.3281383" lon="-0.2115533"><ele>139.0</ele><time>2026-03-25T16:53:36.313Z</time></trkpt><trkpt lat="51.3281117" lon="-0.2114017"><ele>139.0</ele><time>2026-03-25T16:53:38.314Z</time></trkpt><trkpt lat="51.32808" lon="-0.2112133"><ele>139.0</ele><time>2026-03-25T16:53:40.315Z</time></trkpt><trkpt lat="51.3280667" lon="-0.21111"><ele>139.0</ele><time>2026-03-25T16:53:41.314Z</time></trkpt><trkpt lat="51.328055" lon="-0.210995"><ele>139.0</ele><time>2026-03-25T16:53:42.314Z</time></trkpt><trkpt lat="51.3280417" lon="-0.2108817"><ele>139.0</ele><time>2026-03-25T16:53:43.314Z</time></trkpt><trkpt lat="51.3280267" lon="-0.2107683"><ele>139.0</ele><time>2026-03-25T16:53:44.314Z</time></trkpt><trkpt lat="51.3280067" lon="-0.210655"><ele>139.0</ele><time>2026-03-25T16:53:45.315Z</time></trkpt><trkpt lat="51.32799" lon="-0.2105417"><ele>139.0</ele><time>2026-03-25T16:53:46.315Z</time></trkpt><trkpt lat="51.327975" lon="-0.21043"><ele>139.0</ele><time>2026-03-25T16:53:47.314Z</time></trkpt><trkpt lat="51.32796" lon="-0.2103183"><ele>139.0</ele><time>2026-03-25T16:53:48.314Z</time></trkpt><trkpt lat="51.3279483" lon="-0.2102117"><ele>139.0</ele><time>2026-03-25T16:53:49.315Z</time></trkpt><trkpt lat="51.327935" lon="-0.2101083"><ele>139.0</ele><time>2026-03-25T16:53:50.314Z</time></trkpt><trkpt lat="51.32791" lon="-0.209925"><ele>138.83333333333334</ele><time>2026-03-25T16:53:52.313Z</time></trkpt><trkpt lat="51.327895" lon="-0.209785"><ele>138.66666666666669</ele><time>2026-03-25T16:53:54.313Z</time></trkpt><trkpt lat="51.3278783" lon="-0.2096817"><ele>138.5</ele><time>2026-03-25T16:53:56.314Z</time></trkpt><trkpt lat="51.32786" lon="-0.209585"><ele>138.33333333333334</ele><time>2026-03-25T16:53:58.314Z</time></trkpt><trkpt lat="51.3278333" lon="-0.2093583"><ele>138.16666666666666</ele><time>2026-03-25T16:54:06.315Z</time></trkpt><trkpt lat="51.32783" lon="-0.2092317"><ele>138.0</ele><time>2026-03-25T16:54:08.315Z</time></trkpt><trkpt lat="51.3278017" lon="-0.2089367"><ele>137.75</ele><time>2026-03-25T16:54:11.314Z</time></trkpt><trkpt lat="51.3277867" lon="-0.2086867"><ele>137.5</ele><time>2026-03-25T16:54:14.314Z</time></trkpt><trkpt lat="51.3277933" lon="-0.2084367"><ele>137.25</ele><time>2026-03-25T16:54:17.314Z</time></trkpt><trkpt lat="51.32779" lon="-0.2082617"><ele>137.0</ele><time>2026-03-25T16:54:19.317Z</time></trkpt><trkpt lat="51.3278033" lon="-0.207995"><ele>136.66666666666666</ele><time>2026-03-25T16:54:22.313Z</time></trkpt><trkpt lat="51.3278033" lon="-0.20765"><ele>136.33333333333334</ele><time>2026-03-25T16:54:25.313Z</time></trkpt><trkpt lat="51.32781" lon="-0.2073817"><ele>136.0</ele><time>2026-03-25T16:54:27.314Z</time></trkpt><trkpt lat="51.3278167" lon="-0.2072617"><ele>135.33333333333334</ele><time>2026-03-25T16:54:28.314Z</time></trkpt><trkpt lat="51.3278633" lon="-0.20678"><ele>134.66666666666666</ele><time>2026-03-25T16:54:32.314Z</time></trkpt><trkpt lat="51.3278817" lon="-0.2066317"><ele>134.0</ele><time>2026-03-25T16:54:33.313Z</time></trkpt><trkpt lat="51.3279" lon="-0.2064817"><ele>133.5</ele><time>2026-03-25T16:54:34.314Z</time></trkpt><trkpt lat="51.3279117" lon="-0.2063417"><ele>133.0</ele><time>2026-03-25T16:54:35.314Z</time></trkpt><trkpt lat="51.32793" lon="-0.206205"><ele>132.5</ele><time>2026-03-25T16:54:36.314Z</time></trkpt><trkpt lat="51.3279417" lon="-0.20606"><ele>132.0</ele><time>2026-03-25T16:54:37.313Z</time></trkpt><trkpt lat="51.3279483" lon="-0.20593"><ele>131.5</ele><time>2026-03-25T16:54:38.314Z</time></trkpt><trkpt lat="51.3279617" lon="-0.2057967"><ele>131.0</ele><time>2026-03-25T16:54:39.314Z</time></trkpt><trkpt lat="51.32797" lon="-0.2056617"><ele>131.0</ele><time>2026-03-25T16:54:40.316Z</time></trkpt><trkpt lat="51.3279767" lon="-0.2055333"><ele>131.0</ele><time>2026-03-25T16:54:41.314Z</time></trkpt><trkpt lat="51.32799" lon="-0.2054017"><ele>131.0</ele><time>2026-03-25T16:54:42.314Z</time></trkpt><trkpt lat="51.3280033" lon="-0.205275"><ele>131.0</ele><time>2026-03-25T16:54:43.313Z</time></trkpt><trkpt lat="51.328015" lon="-0.205155"><ele>131.0</ele><time>2026-03-25T16:54:44.314Z</time></trkpt><trkpt lat="51.3280233" lon="-0.2050367"><ele>131.0</ele><time>2026-03-25T16:54:45.313Z</time></trkpt><trkpt lat="51.328035" lon="-0.20492"><ele>131.0</ele><time>2026-03-25T16:54:46.314Z</time></trkpt><trkpt lat="51.3280467" lon="-0.2047883"><ele>131.0</ele><time>2026-03-25T16:54:47.316Z</time></trkpt><trkpt lat="51.3280583" lon="-0.2046533"><ele>131.0</ele><time>2026-03-25T16:54:48.313Z</time></trkpt><trkpt lat="51.32807" lon="-0.20451"><ele>131.0</ele><time>2026-03-25T16:54:49.313Z</time></trkpt><trkpt lat="51.3280833" lon="-0.2043683"><ele>131.0</ele><time>2026-03-25T16:54:50.314Z</time></trkpt><trkpt lat="51.3280967" lon="-0.204235"><ele>131.0</ele><time>2026-03-25T16:54:51.316Z</time></trkpt><trkpt lat="51.328105" lon="-0.2041133"><ele>131.0</ele><time>2026-03-25T16:54:52.314Z</time></trkpt><trkpt lat="51.328115" lon="-0.2039967"><ele>131.0</ele><time>2026-03-25T16:54:53.314Z</time></trkpt><trkpt lat="51.32813" lon="-0.2038833"><ele>131.0</ele><time>2026-03-25T16:54:54.313Z</time></trkpt><trkpt lat="51.3281467" lon="-0.2037717"><ele>131.0</ele><time>2026-03-25T16:54:55.314Z</time></trkpt><trkpt lat="51.3281617" lon="-0.2036533"><ele>131.0</ele><time>2026-03-25T16:54:56.314Z</time></trkpt><trkpt lat="51.3282" lon="-0.2031683"><ele>130.5</ele><time>2026-03-25T16:55:00.314Z</time></trkpt><trkpt lat="51.32821" lon="-0.20293"><ele>130.0</ele><time>2026-03-25T16:55:02.313Z</time></trkpt><trkpt lat="51.3282083" lon="-0.2026567"><ele>129.5</ele><time>2026-03-25T16:55:04.314Z</time></trkpt><trkpt lat="51.3282033" lon="-0.2025067"><ele>129.0</ele><time>2026-03-25T16:55:05.314Z</time></trkpt><trkpt lat="51.3282017" lon="-0.20236"><ele>129.0</ele><time>2026-03-25T16:55:06.316Z</time></trkpt><trkpt lat="51.3281967" lon="-0.2022183"><ele>129.0</ele><time>2026-03-25T16:55:07.314Z</time></trkpt><trkpt lat="51.3281933" lon="-0.202075"><ele>129.0</ele><time>2026-03-25T16:55:08.314Z</time></trkpt><trkpt lat="51.3281767" lon="-0.2016483"><ele>129.0</ele><time>2026-03-25T16:55:11.313Z</time></trkpt><trkpt lat="51.3281767" lon="-0.2014683"><ele>129.0</ele><time>2026-03-25T16:55:12.315Z</time></trkpt><trkpt lat="51.3281667" lon="-0.2012667"><ele>129.0</ele><time>2026-03-25T16:55:13.313Z</time></trkpt><trkpt lat="51.3281583" lon="-0.2010433"><ele>129.0</ele><time>2026-03-25T16:55:14.313Z</time></trkpt><trkpt lat="51.32815" lon="-0.20082"><ele>129.0</ele><time>2026-03-25T16:55:15.314Z</time></trkpt><trkpt lat="51.3281333" lon="-0.2006017"><ele>129.25</ele><time>2026-03-25T16:55:16.313Z</time></trkpt><trkpt lat="51.328115" lon="-0.200385"><ele>129.5</ele><time>2026-03-25T16:55:17.313Z</time></trkpt><trkpt lat="51.328095" lon="-0.2001683"><ele>129.75</ele><time>2026-03-25T16:55:18.314Z</time></trkpt><trkpt lat="51.32807" lon="-0.1999583"><ele>130.0</ele><time>2026-03-25T16:55:19.313Z</time></trkpt><trkpt lat="51.3280433" lon="-0.19975"><ele>131.5</ele><time>2026-03-25T16:55:20.313Z</time></trkpt><trkpt lat="51.3280183" lon="-0.1995383"><ele>133.0</ele><time>2026-03-25T16:55:21.314Z</time></trkpt><trkpt lat="51.3279883" lon="-0.1993367"><ele>134.5</ele><time>2026-03-25T16:55:22.315Z</time></trkpt><trkpt lat="51.3279567" lon="-0.1991417"><ele>136.0</ele><time>2026-03-25T16:55:23.313Z</time></trkpt><trkpt lat="51.32792" lon="-0.1989483"><ele>136.5</ele><time>2026-03-25T16:55:24.314Z</time></trkpt><trkpt lat="51.3278883" lon="-0.1987583"><ele>137.0</ele><time>2026-03-25T16:55:25.314Z</time></trkpt><trkpt lat="51.32785" lon="-0.1985667"><ele>137.5</ele><time>2026-03-25T16:55:26.314Z</time></trkpt><trkpt lat="51.3278133" lon="-0.19838"><ele>138.0</ele><time>2026-03-25T16:55:27.317Z</time></trkpt><trkpt lat="51.3277783" lon="-0.1981833"><ele>138.5</ele><time>2026-03-25T16:55:28.314Z</time></trkpt><trkpt lat="51.3277367" lon="-0.1979767"><ele>139.0</ele><time>2026-03-25T16:55:29.313Z</time></trkpt><trkpt lat="51.327685" lon="-0.197765"><ele>139.5</ele><time>2026-03-25T16:55:30.314Z</time></trkpt><trkpt lat="51.3276383" lon="-0.19755"><ele>140.0</ele><time>2026-03-25T16:55:31.313Z</time></trkpt><trkpt lat="51.3275983" lon="-0.197355"><ele>140.75</ele><time>2026-03-25T16:55:32.314Z</time></trkpt><trkpt lat="51.32756" lon="-0.1971733"><ele>141.5</ele><time>2026-03-25T16:55:33.317Z</time></trkpt><trkpt lat="51.3275283" lon="-0.1970067"><ele>142.25</ele><time>2026-03-25T16:55:34.316Z</time></trkpt><trkpt lat="51.327495" lon="-0.1968383"><ele>143.0</ele><time>2026-03-25T16:55:35.315Z</time></trkpt><trkpt lat="51.3274617" lon="-0.1966683"><ele>143.75</ele><time>2026-03-25T16:55:36.317Z</time></trkpt><trkpt lat="51.3274283" lon="-0.1965"><ele>144.5</ele><time>2026-03-25T16:55:37.317Z</time></trkpt><trkpt lat="51.327395" lon="-0.1963217"><ele>145.25</ele><time>2026-03-25T16:55:38.317Z</time></trkpt><trkpt lat="51.3273617" lon="-0.1961367"><ele>146.0</ele><time>2026-03-25T16:55:39.313Z</time></trkpt><trkpt lat="51.3273283" lon="-0.1959517"><ele>146.0</ele><time>2026-03-25T16:55:40.314Z</time></trkpt><trkpt lat="51.3272967" lon="-0.19578"><ele>146.0</ele><time>2026-03-25T16:55:41.314Z</time></trkpt><trkpt lat="51.3272667" lon="-0.195625"><ele>146.0</ele><time>2026-03-25T16:55:42.313Z</time></trkpt><trkpt lat="51.32724" lon="-0.19549"><ele>146.0</ele><time>2026-03-25T16:55:43.315Z</time></trkpt><trkpt lat="51.3272167" lon="-0.1953717"><ele>146.0</ele><time>2026-03-25T16:55:44.314Z</time></trkpt><trkpt lat="51.3272" lon="-0.19527"><ele>146.0</ele><time>2026-03-25T16:55:45.314Z</time></trkpt><trkpt lat="51.32717" lon="-0.1951017"><ele>147.0</ele><time>2026-03-25T16:55:47.314Z</time></trkpt><trkpt lat="51.327135" lon="-0.1949583"><ele>148.0</ele><time>2026-03-25T16:55:49.314Z</time></trkpt><trkpt lat="51.3271033" lon="-0.1948517"><ele>149.0</ele><time>2026-03-25T16:55:51.317Z</time></trkpt><trkpt lat="51.3270783" lon="-0.1947167"><ele>150.0</ele><time>2026-03-25T16:55:54.318Z</time></trkpt><trkpt lat="51.3270567" lon="-0.194595"><ele>151.0</ele><time>2026-03-25T16:55:57.314Z</time></trkpt><trkpt lat="51.3270433" lon="-0.1944767"><ele>152.0</ele><time>2026-03-25T16:55:59.313Z</time></trkpt><trkpt lat="51.3270433" lon="-0.1943667"><ele>152.4</ele><time>2026-03-25T16:56:01.314Z</time></trkpt><trkpt lat="51.3270583" lon="-0.1942433"><ele>152.79999999999998</ele><time>2026-03-25T16:56:04.317Z</time></trkpt><trkpt lat="51.32706" lon="-0.19408"><ele>153.2</ele><time>2026-03-25T16:56:13.313Z</time></trkpt><trkpt lat="51.3270533" lon="-0.1938817"><ele>153.6</ele><time>2026-03-25T16:56:15.313Z</time></trkpt><trkpt lat="51.3270317" lon="-0.193765"><ele>154.0</ele><time>2026-03-25T16:56:16.314Z</time></trkpt><trkpt lat="51.3270133" lon="-0.1936267"><ele>154.4</ele><time>2026-03-25T16:56:17.313Z</time></trkpt><trkpt lat="51.3270117" lon="-0.1934767"><ele>154.8</ele><time>2026-03-25T16:56:18.314Z</time></trkpt><trkpt lat="51.3270233" lon="-0.1933317"><ele>155.2</ele><time>2026-03-25T16:56:19.313Z</time></trkpt><trkpt lat="51.3270467" lon="-0.193205"><ele>155.6</ele><time>2026-03-25T16:56:20.314Z</time></trkpt><trkpt lat="51.3270717" lon="-0.1930917"><ele>156.0</ele><time>2026-03-25T16:56:21.313Z</time></trkpt><trkpt lat="51.327115" lon="-0.1929083"><ele>156.16666666666666</ele><time>2026-03-25T16:56:23.314Z</time></trkpt><trkpt lat="51.3271367" lon="-0.1928133"><ele>156.33333333333334</ele><time>2026-03-25T16:56:24.315Z</time></trkpt><trkpt lat="51.3271917" lon="-0.1926333"><ele>156.5</ele><time>2026-03-25T16:56:26.315Z</time></trkpt><trkpt lat="51.3272183" lon="-0.19254"><ele>156.66666666666669</ele><time>2026-03-25T16:56:27.316Z</time></trkpt><trkpt lat="51.327245" lon="-0.1924433"><ele>156.83333333333334</ele><time>2026-03-25T16:56:28.314Z</time></trkpt><trkpt lat="51.327275" lon="-0.1923383"><ele>157.0</ele><time>2026-03-25T16:56:29.315Z</time></trkpt><trkpt lat="51.3273117" lon="-0.1922267"><ele>156.66666666666669</ele><time>2026-03-25T16:56:30.316Z</time></trkpt><trkpt lat="51.3273583" lon="-0.1921017"><ele>156.33333333333334</ele><time>2026-03-25T16:56:31.314Z</time></trkpt><trkpt lat="51.3274033" lon="-0.1919767"><ele>156.0</ele><time>2026-03-25T16:56:32.315Z</time></trkpt><trkpt lat="51.3274467" lon="-0.19186"><ele>155.66666666666666</ele><time>2026-03-25T16:56:33.315Z</time></trkpt><trkpt lat="51.3274933" lon="-0.1917367"><ele>155.33333333333331</ele><time>2026-03-25T16:56:34.315Z</time></trkpt><trkpt lat="51.3275367" lon="-0.19162"><ele>155.0</ele><time>2026-03-25T16:56:35.315Z</time></trkpt><trkpt lat="51.3275867" lon="-0.1915067"><ele>155.0</ele><time>2026-03-25T16:56:36.314Z</time></trkpt><trkpt lat="51.3276417" lon="-0.1913967"><ele>155.0</ele><time>2026-03-25T16:56:37.315Z</time></trkpt><trkpt lat="51.3276983" lon="-0.1912867"><ele>155.0</ele><time>2026-03-25T16:56:38.315Z</time></trkpt><trkpt lat="51.3277617" lon="-0.1911783"><ele>155.0</ele><time>2026-03-25T16:56:39.314Z</time></trkpt><trkpt lat="51.3278183" lon="-0.1910617"><ele>155.0</ele><time>2026-03-25T16:56:40.315Z</time></trkpt><trkpt lat="51.32788" lon="-0.1909483"><ele>155.0</ele><time>2026-03-25T16:56:41.314Z</time></trkpt><trkpt lat="51.3279483" lon="-0.190825"><ele>155.0</ele><time>2026-03-25T16:56:42.314Z</time></trkpt><trkpt lat="51.3280117" lon="-0.1907133"><ele>155.0</ele><time>2026-03-25T16:56:43.315Z</time></trkpt><trkpt lat="51.32808" lon="-0.1906"><ele>155.0</ele><time>2026-03-25T16:56:44.315Z</time></trkpt><trkpt lat="51.328145" lon="-0.1905"><ele>155.0</ele><time>2026-03-25T16:56:45.315Z</time></trkpt><trkpt lat="51.328215" lon="-0.1904067"><ele>154.0</ele><time>2026-03-25T16:56:46.315Z</time></trkpt><trkpt lat="51.328285" lon="-0.190305"><ele>153.0</ele><time>2026-03-25T16:56:47.315Z</time></trkpt><trkpt lat="51.3283567" lon="-0.1901967"><ele>152.0</ele><time>2026-03-25T16:56:48.315Z</time></trkpt><trkpt lat="51.3284267" lon="-0.1900833"><ele>151.0</ele><time>2026-03-25T16:56:49.314Z</time></trkpt><trkpt lat="51.3284983" lon="-0.1899633"><ele>150.0</ele><time>2026-03-25T16:56:50.315Z</time></trkpt><trkpt lat="51.3285733" lon="-0.1898517"><ele>150.2</ele><time>2026-03-25T16:56:51.316Z</time></trkpt><trkpt lat="51.328655" lon="-0.1897433"><ele>150.4</ele><time>2026-03-25T16:56:52.314Z</time></trkpt><trkpt lat="51.3287383" lon="-0.1896417"><ele>150.6</ele><time>2026-03-25T16:56:53.318Z</time></trkpt><trkpt lat="51.3288267" lon="-0.18954"><ele>150.8</ele><time>2026-03-25T16:56:54.315Z</time></trkpt><trkpt lat="51.3289133" lon="-0.1894333"><ele>151.0</ele><time>2026-03-25T16:56:55.315Z</time></trkpt><trkpt lat="51.3289983" lon="-0.1893183"><ele>150.4</ele><time>2026-03-25T16:56:56.316Z</time></trkpt><trkpt lat="51.3290767" lon="-0.1892067"><ele>149.8</ele><time>2026-03-25T16:56:57.314Z</time></trkpt><trkpt lat="51.32915" lon="-0.1890983"><ele>149.20000000000002</ele><time>2026-03-25T16:56:58.313Z</time></trkpt><trkpt lat="51.329225" lon="-0.18899"><ele>148.6</ele><time>2026-03-25T16:56:59.315Z</time></trkpt><trkpt lat="51.3292983" lon="-0.188875"><ele>148.0</ele><time>2026-03-25T16:57:00.315Z</time></trkpt><trkpt lat="51.329375" lon="-0.1887567"><ele>147.8</ele><time>2026-03-25T16:57:01.315Z</time></trkpt><trkpt lat="51.3294433" lon="-0.1886267"><ele>147.60000000000002</ele><time>2026-03-25T16:57:02.315Z</time></trkpt><trkpt lat="51.3295167" lon="-0.188495"><ele>147.39999999999998</ele><time>2026-03-25T16:57:03.314Z</time></trkpt><trkpt lat="51.3295883" lon="-0.1883617"><ele>147.2</ele><time>2026-03-25T16:57:04.314Z</time></trkpt><trkpt lat="51.329655" lon="-0.1882233"><ele>147.0</ele><time>2026-03-25T16:57:05.315Z</time></trkpt><trkpt lat="51.3297183" lon="-0.18809"><ele>146.6</ele><time>2026-03-25T16:57:06.315Z</time></trkpt><trkpt lat="51.329785" lon="-0.18795"><ele>146.2</ele><time>2026-03-25T16:57:07.314Z</time></trkpt><trkpt lat="51.329855" lon="-0.1878133"><ele>145.8</ele><time>2026-03-25T16:57:08.315Z</time></trkpt><trkpt lat="51.329925" lon="-0.1876683"><ele>145.4</ele><time>2026-03-25T16:57:09.315Z</time></trkpt><trkpt lat="51.3299867" lon="-0.187535"><ele>145.0</ele><time>2026-03-25T16:57:10.314Z</time></trkpt><trkpt lat="51.330045" lon="-0.1873867"><ele>144.4</ele><time>2026-03-25T16:57:11.315Z</time></trkpt><trkpt lat="51.3301033" lon="-0.1872367"><ele>143.8</ele><time>2026-03-25T16:57:12.315Z</time></trkpt><trkpt lat="51.3301583" lon="-0.1870933"><ele>143.2</ele><time>2026-03-25T16:57:13.315Z</time></trkpt><trkpt lat="51.3302117" lon="-0.1869533"><ele>142.6</ele><time>2026-03-25T16:57:14.315Z</time></trkpt><trkpt lat="51.330265" lon="-0.1868133"><ele>142.0</ele><time>2026-03-25T16:57:15.315Z</time></trkpt><trkpt lat="51.3303183" lon="-0.1866733"><ele>142.0</ele><time>2026-03-25T16:57:16.314Z</time></trkpt><trkpt lat="51.3303717" lon="-0.1865233"><ele>142.0</ele><time>2026-03-25T16:57:17.313Z</time></trkpt><trkpt lat="51.3304283" lon="-0.1863717"><ele>142.0</ele><time>2026-03-25T16:57:18.315Z</time></trkpt><trkpt lat="51.3304933" lon="-0.1862183"><ele>142.0</ele><time>2026-03-25T16:57:19.314Z</time></trkpt><trkpt lat="51.3305567" lon="-0.18606"><ele>141.0</ele><time>2026-03-25T16:57:20.314Z</time></trkpt><trkpt lat="51.3306133" lon="-0.1859033"><ele>140.0</ele><time>2026-03-25T16:57:21.316Z</time></trkpt><trkpt lat="51.3306783" lon="-0.1857433"><ele>139.0</ele><time>2026-03-25T16:57:22.315Z</time></trkpt><trkpt lat="51.330745" lon="-0.1855767"><ele>138.0</ele><time>2026-03-25T16:57:23.315Z</time></trkpt><trkpt lat="51.33081" lon="-0.185415"><ele>138.0</ele><time>2026-03-25T16:57:24.314Z</time></trkpt><trkpt lat="51.3308717" lon="-0.18526"><ele>138.0</ele><time>2026-03-25T16:57:25.314Z</time></trkpt><trkpt lat="51.3309283" lon="-0.1851067"><ele>138.0</ele><time>2026-03-25T16:57:26.315Z</time></trkpt><trkpt lat="51.3309833" lon="-0.1849683"><ele>138.0</ele><time>2026-03-25T16:57:27.315Z</time></trkpt><trkpt lat="51.3310333" lon="-0.18483"><ele>138.0</ele><time>2026-03-25T16:57:28.315Z</time></trkpt><trkpt lat="51.3310833" lon="-0.1846967"><ele>137.6</ele><time>2026-03-25T16:57:29.317Z</time></trkpt><trkpt lat="51.3311367" lon="-0.184565"><ele>137.20000000000002</ele><time>2026-03-25T16:57:30.315Z</time></trkpt><trkpt lat="51.3311867" lon="-0.184435"><ele>136.8</ele><time>2026-03-25T16:57:31.314Z</time></trkpt><trkpt lat="51.331235" lon="-0.1843067"><ele>136.4</ele><time>2026-03-25T16:57:32.314Z</time></trkpt><trkpt lat="51.33128" lon="-0.1841833"><ele>136.0</ele><time>2026-03-25T16:57:33.315Z</time></trkpt><trkpt lat="51.331325" lon="-0.18406"><ele>135.5</ele><time>2026-03-25T16:57:34.313Z</time></trkpt><trkpt lat="51.33137" lon="-0.1839417"><ele>135.0</ele><time>2026-03-25T16:57:35.315Z</time></trkpt><trkpt lat="51.33141" lon="-0.1838267"><ele>134.5</ele><time>2026-03-25T16:57:36.318Z</time></trkpt><trkpt lat="51.3315483" lon="-0.1834517"><ele>134.0</ele><time>2026-03-25T16:57:39.314Z</time></trkpt><trkpt lat="51.3316017" lon="-0.1833017"><ele>133.33333333333331</ele><time>2026-03-25T16:57:40.314Z</time></trkpt><trkpt lat="51.3317133" lon="-0.1829833"><ele>132.66666666666666</ele><time>2026-03-25T16:57:42.315Z</time></trkpt><trkpt lat="51.3317683" lon="-0.182825"><ele>132.0</ele><time>2026-03-25T16:57:43.315Z</time></trkpt><trkpt lat="51.33191" lon="-0.182385"><ele>131.5</ele><time>2026-03-25T16:57:46.315Z</time></trkpt><trkpt lat="51.331955" lon="-0.1822483"><ele>131.0</ele><time>2026-03-25T16:57:47.315Z</time></trkpt><trkpt lat="51.3321433" lon="-0.181635"><ele>130.75</ele><time>2026-03-25T16:57:51.315Z</time></trkpt><trkpt lat="51.332195" lon="-0.181455"><ele>130.5</ele><time>2026-03-25T16:57:52.313Z</time></trkpt><trkpt lat="51.3322417" lon="-0.1812767"><ele>130.25</ele><time>2026-03-25T16:57:53.315Z</time></trkpt><trkpt lat="51.3322867" lon="-0.1811033"><ele>130.0</ele><time>2026-03-25T16:57:54.315Z</time></trkpt><trkpt lat="51.3323283" lon="-0.1809317"><ele>129.75</ele><time>2026-03-25T16:57:55.318Z</time></trkpt><trkpt lat="51.3323717" lon="-0.18076"><ele>129.5</ele><time>2026-03-25T16:57:56.318Z</time></trkpt><trkpt lat="51.3324133" lon="-0.1805867"><ele>129.25</ele><time>2026-03-25T16:57:57.315Z</time></trkpt><trkpt lat="51.33245" lon="-0.1804117"><ele>129.0</ele><time>2026-03-25T16:57:58.314Z</time></trkpt><trkpt lat="51.332485" lon="-0.18023"><ele>128.5</ele><time>2026-03-25T16:57:59.314Z</time></trkpt><trkpt lat="51.3325217" lon="-0.180045"><ele>128.0</ele><time>2026-03-25T16:58:00.315Z</time></trkpt><trkpt lat="51.3325633" lon="-0.1798517"><ele>127.5</ele><time>2026-03-25T16:58:01.318Z</time></trkpt><trkpt lat="51.33261" lon="-0.1796517"><ele>127.0</ele><time>2026-03-25T16:58:02.318Z</time></trkpt><trkpt lat="51.332655" lon="-0.1794467"><ele>126.5</ele><time>2026-03-25T16:58:03.314Z</time></trkpt><trkpt lat="51.332705" lon="-0.1792483"><ele>126.0</ele><time>2026-03-25T16:58:04.314Z</time></trkpt><trkpt lat="51.3327517" lon="-0.17905"><ele>125.5</ele><time>2026-03-25T16:58:05.315Z</time></trkpt><trkpt lat="51.3327883" lon="-0.1788617"><ele>125.0</ele><time>2026-03-25T16:58:06.314Z</time></trkpt><trkpt lat="51.3328217" lon="-0.1786883"><ele>124.4</ele><time>2026-03-25T16:58:07.315Z</time></trkpt><trkpt lat="51.3328567" lon="-0.1785217"><ele>123.8</ele><time>2026-03-25T16:58:08.315Z</time></trkpt><trkpt lat="51.3328933" lon="-0.1783533"><ele>123.19999999999999</ele><time>2026-03-25T16:58:09.314Z</time></trkpt><trkpt lat="51.33293" lon="-0.178195"><ele>122.6</ele><time>2026-03-25T16:58:10.314Z</time></trkpt><trkpt lat="51.3329583" lon="-0.178035"><ele>122.0</ele><time>2026-03-25T16:58:11.313Z</time></trkpt><trkpt lat="51.332995" lon="-0.1778817"><ele>122.19999999999999</ele><time>2026-03-25T16:58:12.317Z</time></trkpt><trkpt lat="51.3330267" lon="-0.17773"><ele>122.39999999999999</ele><time>2026-03-25T16:58:13.317Z</time></trkpt><trkpt lat="51.3330617" lon="-0.17758"><ele>122.60000000000001</ele><time>2026-03-25T16:58:14.317Z</time></trkpt><trkpt lat="51.3330967" lon="-0.1774333"><ele>122.80000000000001</ele><time>2026-03-25T16:58:15.314Z</time></trkpt><trkpt lat="51.3331317" lon="-0.1772917"><ele>123.0</ele><time>2026-03-25T16:58:16.409Z</time></trkpt><trkpt lat="51.3331683" lon="-0.1771483"><ele>122.0</ele><time>2026-03-25T16:58:17.314Z</time></trkpt><trkpt lat="51.3332083" lon="-0.1770067"><ele>121.00000000000001</ele><time>2026-03-25T16:58:18.315Z</time></trkpt><trkpt lat="51.33325" lon="-0.1768633"><ele>120.00000000000001</ele><time>2026-03-25T16:58:19.316Z</time></trkpt><trkpt lat="51.33329" lon="-0.1767133"><ele>119.0</ele><time>2026-03-25T16:58:20.315Z</time></trkpt><trkpt lat="51.3333267" lon="-0.17656"><ele>118.0</ele><time>2026-03-25T16:58:21.318Z</time></trkpt><trkpt lat="51.3333583" lon="-0.1764083"><ele>117.2</ele><time>2026-03-25T16:58:22.315Z</time></trkpt><trkpt lat="51.3333883" lon="-0.17625"><ele>116.4</ele><time>2026-03-25T16:58:23.315Z</time></trkpt><trkpt lat="51.33342" lon="-0.1760883"><ele>115.60000000000001</ele><time>2026-03-25T16:58:24.315Z</time></trkpt><trkpt lat="51.3334483" lon="-0.1759217"><ele>114.80000000000001</ele><time>2026-03-25T16:58:25.316Z</time></trkpt><trkpt lat="51.33348" lon="-0.1757533"><ele>114.0</ele><time>2026-03-25T16:58:26.317Z</time></trkpt><trkpt lat="51.33351" lon="-0.1755867"><ele>113.2</ele><time>2026-03-25T16:58:27.315Z</time></trkpt><trkpt lat="51.333535" lon="-0.1754183"><ele>112.4</ele><time>2026-03-25T16:58:28.315Z</time></trkpt><trkpt lat="51.3335583" lon="-0.1752617"><ele>111.6</ele><time>2026-03-25T16:58:29.313Z</time></trkpt><trkpt lat="51.3335833" lon="-0.1751267"><ele>110.8</ele><time>2026-03-25T16:58:30.318Z</time></trkpt><trkpt lat="51.33361" lon="-0.1750117"><ele>110.0</ele><time>2026-03-25T16:58:31.317Z</time></trkpt><trkpt lat="51.33365" lon="-0.1748617"><ele>109.99999999999999</ele><time>2026-03-25T16:58:33.315Z</time></trkpt><trkpt lat="51.3337133" lon="-0.174805"><ele>110.0</ele><time>2026-03-25T16:58:37.313Z</time></trkpt><trkpt lat="51.333775" lon="-0.1748467"><ele>110.0</ele><time>2026-03-25T16:58:40.317Z</time></trkpt><trkpt lat="51.3338333" lon="-0.1749633"><ele>110.0</ele><time>2026-03-25T16:58:43.313Z</time></trkpt><trkpt lat="51.3338783" lon="-0.17504"><ele>109.99999999999999</ele><time>2026-03-25T16:58:45.315Z</time></trkpt><trkpt lat="51.333925" lon="-0.1751317"><ele>110.0</ele><time>2026-03-25T16:58:47.316Z</time></trkpt><trkpt lat="51.33398" lon="-0.1752217"><ele>110.4</ele><time>2026-03-25T16:58:49.314Z</time></trkpt><trkpt lat="51.3340417" lon="-0.17532"><ele>110.8</ele><time>2026-03-25T16:58:51.314Z</time></trkpt><trkpt lat="51.3341017" lon="-0.17541"><ele>111.19999999999999</ele><time>2026-03-25T16:58:53.316Z</time></trkpt><trkpt lat="51.3341667" lon="-0.1755217"><ele>111.6</ele><time>2026-03-25T16:58:55.315Z</time></trkpt><trkpt lat="51.3342383" lon="-0.1756617"><ele>112.0</ele><time>2026-03-25T16:58:57.316Z</time></trkpt><trkpt lat="51.334315" lon="-0.17581"><ele>112.25</ele><time>2026-03-25T16:58:59.315Z</time></trkpt><trkpt lat="51.334395" lon="-0.1759517"><ele>112.5</ele><time>2026-03-25T16:59:01.315Z</time></trkpt><trkpt lat="51.33449" lon="-0.176095"><ele>112.75</ele><time>2026-03-25T16:59:03.315Z</time></trkpt><trkpt lat="51.3345667" lon="-0.1762533"><ele>113.0</ele><time>2026-03-25T16:59:05.315Z</time></trkpt><trkpt lat="51.33464" lon="-0.1764033"><ele>112.60000000000001</ele><time>2026-03-25T16:59:07.313Z</time></trkpt><trkpt lat="51.3347133" lon="-0.1765383"><ele>112.20000000000002</ele><time>2026-03-25T16:59:09.315Z</time></trkpt><trkpt lat="51.3347783" lon="-0.1766567"><ele>111.8</ele><time>2026-03-25T16:59:11.315Z</time></trkpt><trkpt lat="51.3348283" lon="-0.1767783"><ele>111.4</ele><time>2026-03-25T16:59:13.315Z</time></trkpt><trkpt lat="51.33488" lon="-0.1769017"><ele>111.0</ele><time>2026-03-25T16:59:15.314Z</time></trkpt><trkpt lat="51.3349433" lon="-0.1770233"><ele>111.0</ele><time>2026-03-25T16:59:17.314Z</time></trkpt><trkpt lat="51.3350033" lon="-0.1771383"><ele>111.0</ele><time>2026-03-25T16:59:19.315Z</time></trkpt><trkpt lat="51.3350833" lon="-0.1772633"><ele>111.0</ele><time>2026-03-25T16:59:21.314Z</time></trkpt><trkpt lat="51.33516" lon="-0.1774033"><ele>111.0</ele><time>2026-03-25T16:59:23.315Z</time></trkpt><trkpt lat="51.335205" lon="-0.1774967"><ele>111.0</ele><time>2026-03-25T16:59:24.315Z</time></trkpt><trkpt lat="51.33526" lon="-0.1775983"><ele>111.33333333333333</ele><time>2026-03-25T16:59:25.314Z</time></trkpt><trkpt lat="51.33531" lon="-0.1776867"><ele>111.66666666666666</ele><time>2026-03-25T16:59:26.314Z</time></trkpt><trkpt lat="51.3353583" lon="-0.1777583"><ele>112.0</ele><time>2026-03-25T16:59:27.316Z</time></trkpt><trkpt lat="51.3354233" lon="-0.17789"><ele>112.33333333333333</ele><time>2026-03-25T16:59:29.314Z</time></trkpt><trkpt lat="51.3354867" lon="-0.1780017"><ele>112.66666666666666</ele><time>2026-03-25T16:59:31.314Z</time></trkpt><trkpt lat="51.3355617" lon="-0.178115"><ele>113.0</ele><time>2026-03-25T16:59:33.315Z</time></trkpt><trkpt lat="51.3356183" lon="-0.1782317"><ele>113.33333333333333</ele><time>2026-03-25T16:59:35.313Z</time></trkpt><trkpt lat="51.33568" lon="-0.1783133"><ele>113.66666666666666</ele><time>2026-03-25T16:59:37.314Z</time></trkpt><trkpt lat="51.3357467" lon="-0.1784"><ele>114.0</ele><time>2026-03-25T16:59:40.315Z</time></trkpt><trkpt lat="51.33581" lon="-0.17847"><ele>114.33333333333334</ele><time>2026-03-25T16:59:44.314Z</time></trkpt><trkpt lat="51.3358583" lon="-0.178545"><ele>114.66666666666667</ele><time>2026-03-25T16:59:47.314Z</time></trkpt><trkpt lat="51.335915" lon="-0.1786583"><ele>115.0</ele><time>2026-03-25T16:59:50.315Z</time></trkpt><trkpt lat="51.335975" lon="-0.178775"><ele>115.00000000000001</ele><time>2026-03-25T16:59:53.314Z</time></trkpt><trkpt lat="51.3360183" lon="-0.1788617"><ele>115.0</ele><time>2026-03-25T16:59:55.314Z</time></trkpt><trkpt lat="51.33607" lon="-0.17895"><ele>115.0</ele><time>2026-03-25T16:59:57.315Z</time></trkpt><trkpt lat="51.3361267" lon="-0.1790617"><ele>115.0</ele><time>2026-03-25T16:59:59.315Z</time></trkpt><trkpt lat="51.3361767" lon="-0.1791467"><ele>115.00000000000001</ele><time>2026-03-25T17:00:00.314Z</time></trkpt><trkpt lat="51.336245" lon="-0.17927"><ele>115.0</ele><time>2026-03-25T17:00:02.313Z</time></trkpt><trkpt lat="51.3362867" lon="-0.17938"><ele>114.83333333333334</ele><time>2026-03-25T17:00:04.314Z</time></trkpt><trkpt lat="51.3363383" lon="-0.1795"><ele>114.66666666666667</ele><time>2026-03-25T17:00:06.314Z</time></trkpt><trkpt lat="51.3363817" lon="-0.1796067"><ele>114.5</ele><time>2026-03-25T17:00:08.314Z</time></trkpt><trkpt lat="51.3364417" lon="-0.1796967"><ele>114.33333333333334</ele><time>2026-03-25T17:00:10.315Z</time></trkpt><trkpt lat="51.3364967" lon="-0.1797717"><ele>114.16666666666667</ele><time>2026-03-25T17:00:12.314Z</time></trkpt><trkpt lat="51.3365533" lon="-0.1798467"><ele>114.0</ele><time>2026-03-25T17:00:14.314Z</time></trkpt><trkpt lat="51.3366117" lon="-0.179905"><ele>114.28571428571428</ele><time>2026-03-25T17:00:16.315Z</time></trkpt><trkpt lat="51.3366533" lon="-0.17999"><ele>114.57142857142856</ele><time>2026-03-25T17:00:18.314Z</time></trkpt><trkpt lat="51.3367133" lon="-0.180045"><ele>114.85714285714286</ele><time>2026-03-25T17:00:20.314Z</time></trkpt><trkpt lat="51.3367717" lon="-0.18011"><ele>115.14285714285714</ele><time>2026-03-25T17:00:22.313Z</time></trkpt><trkpt lat="51.3368417" lon="-0.1802167"><ele>115.42857142857143</ele><time>2026-03-25T17:00:25.315Z</time></trkpt><trkpt lat="51.336885" lon="-0.1803017"><ele>115.71428571428572</ele><time>2026-03-25T17:00:27.314Z</time></trkpt><trkpt lat="51.3369267" lon="-0.18038"><ele>116.00000000000001</ele><time>2026-03-25T17:00:29.314Z</time></trkpt><trkpt lat="51.3369683" lon="-0.1804583"><ele>115.99999999999999</ele><time>2026-03-25T17:00:31.313Z</time></trkpt><trkpt lat="51.3370267" lon="-0.180525"><ele>116.0</ele><time>2026-03-25T17:00:33.313Z</time></trkpt><trkpt lat="51.3370733" lon="-0.1806217"><ele>116.0</ele><time>2026-03-25T17:00:35.314Z</time></trkpt><trkpt lat="51.3371233" lon="-0.1806917"><ele>116.0</ele><time>2026-03-25T17:00:37.315Z</time></trkpt><trkpt lat="51.3372" lon="-0.18079"><ele>115.99999999999999</ele><time>2026-03-25T17:00:39.314Z</time></trkpt><trkpt lat="51.337265" lon="-0.1808883"><ele>116.0</ele><time>2026-03-25T17:00:41.313Z</time></trkpt><trkpt lat="51.3373417" lon="-0.18098"><ele>115.49999999999999</ele><time>2026-03-25T17:00:43.313Z</time></trkpt><trkpt lat="51.3374117" lon="-0.1810933"><ele>115.0</ele><time>2026-03-25T17:00:45.313Z</time></trkpt><trkpt lat="51.3374667" lon="-0.1812083"><ele>114.5</ele><time>2026-03-25T17:00:47.314Z</time></trkpt><trkpt lat="51.337535" lon="-0.181325"><ele>114.0</ele><time>2026-03-25T17:00:49.314Z</time></trkpt><trkpt lat="51.3375933" lon="-0.1814233"><ele>113.49999999999999</ele><time>2026-03-25T17:00:51.313Z</time></trkpt><trkpt lat="51.3376417" lon="-0.1815067"><ele>113.0</ele><time>2026-03-25T17:00:53.315Z</time></trkpt><trkpt lat="51.337685" lon="-0.1815917"><ele>112.66666666666666</ele><time>2026-03-25T17:00:55.314Z</time></trkpt><trkpt lat="51.3377233" lon="-0.1816917"><ele>112.33333333333333</ele><time>2026-03-25T17:00:57.314Z</time></trkpt><trkpt lat="51.3377683" lon="-0.1818033"><ele>112.0</ele><time>2026-03-25T17:00:59.315Z</time></trkpt><trkpt lat="51.33783" lon="-0.1818883"><ele>111.66666666666666</ele><time>2026-03-25T17:01:01.314Z</time></trkpt><trkpt lat="51.3378833" lon="-0.1819667"><ele>111.33333333333333</ele><time>2026-03-25T17:01:03.313Z</time></trkpt><trkpt lat="51.3379467" lon="-0.1820533"><ele>111.0</ele><time>2026-03-25T17:01:05.314Z</time></trkpt><trkpt lat="51.3379967" lon="-0.18215"><ele>111.0</ele><time>2026-03-25T17:01:07.314Z</time></trkpt><trkpt lat="51.338035" lon="-0.18224"><ele>111.0</ele><time>2026-03-25T17:01:09.314Z</time></trkpt><trkpt lat="51.3380867" lon="-0.18236"><ele>111.0</ele><time>2026-03-25T17:01:11.313Z</time></trkpt><trkpt lat="51.3381383" lon="-0.182475"><ele>111.0</ele><time>2026-03-25T17:01:13.314Z</time></trkpt><trkpt lat="51.3381917" lon="-0.1825567"><ele>111.0</ele><time>2026-03-25T17:01:15.314Z</time></trkpt><trkpt lat="51.3382483" lon="-0.1826617"><ele>111.0</ele><time>2026-03-25T17:01:18.314Z</time></trkpt><trkpt lat="51.33829" lon="-0.1827533"><ele>110.83333333333333</ele><time>2026-03-25T17:01:20.314Z</time></trkpt><trkpt lat="51.338355" lon="-0.182845"><ele>110.66666666666666</ele><time>2026-03-25T17:01:22.314Z</time></trkpt><trkpt lat="51.3384067" lon="-0.1829517"><ele>110.5</ele><time>2026-03-25T17:01:24.314Z</time></trkpt><trkpt lat="51.338455" lon="-0.183055"><ele>110.33333333333333</ele><time>2026-03-25T17:01:26.314Z</time></trkpt><trkpt lat="51.3384933" lon="-0.1831833"><ele>110.16666666666666</ele><time>2026-03-25T17:01:29.314Z</time></trkpt><trkpt lat="51.3385383" lon="-0.1832983"><ele>110.0</ele><time>2026-03-25T17:01:32.314Z</time></trkpt><trkpt lat="51.3385817" lon="-0.1833933"><ele>109.99999999999999</ele><time>2026-03-25T17:01:34.314Z</time></trkpt><trkpt lat="51.338625" lon="-0.1835167"><ele>110.0</ele><time>2026-03-25T17:01:36.314Z</time></trkpt><trkpt lat="51.3386617" lon="-0.1836333"><ele>110.0</ele><time>2026-03-25T17:01:38.314Z</time></trkpt><trkpt lat="51.3386933" lon="-0.1837433"><ele>110.0</ele><time>2026-03-25T17:01:40.314Z</time></trkpt><trkpt lat="51.3387517" lon="-0.1838883"><ele>109.99999999999999</ele><time>2026-03-25T17:01:42.314Z</time></trkpt><trkpt lat="51.3388167" lon="-0.18399"><ele>110.0</ele><time>2026-03-25T17:01:44.314Z</time></trkpt><trkpt lat="51.3388733" lon="-0.1840883"><ele>110.6</ele><time>2026-03-25T17:01:46.314Z</time></trkpt><trkpt lat="51.338935" lon="-0.1842"><ele>111.2</ele><time>2026-03-25T17:01:48.314Z</time></trkpt><trkpt lat="51.339015" lon="-0.1843133"><ele>111.80000000000001</ele><time>2026-03-25T17:01:50.314Z</time></trkpt><trkpt lat="51.3390633" lon="-0.1844117"><ele>112.4</ele><time>2026-03-25T17:01:52.314Z</time></trkpt><trkpt lat="51.33912" lon="-0.18453"><ele>113.0</ele><time>2026-03-25T17:01:54.313Z</time></trkpt><trkpt lat="51.339175" lon="-0.18465"><ele>112.99999999999999</ele><time>2026-03-25T17:01:56.314Z</time></trkpt><trkpt lat="51.339235" lon="-0.1847583"><ele>113.0</ele><time>2026-03-25T17:01:58.314Z</time></trkpt><trkpt lat="51.3392833" lon="-0.1848567"><ele>113.0</ele><time>2026-03-25T17:02:00.315Z</time></trkpt><trkpt lat="51.3393433" lon="-0.1849383"><ele>113.0</ele><time>2026-03-25T17:02:02.314Z</time></trkpt><trkpt lat="51.3394117" lon="-0.1850083"><ele>112.99999999999999</ele><time>2026-03-25T17:02:04.313Z</time></trkpt><trkpt lat="51.339495" lon="-0.1850533"><ele>113.0</ele><time>2026-03-25T17:02:06.314Z</time></trkpt><trkpt lat="51.3395917" lon="-0.185045"><ele>112.80000000000001</ele><time>2026-03-25T17:02:08.313Z</time></trkpt><trkpt lat="51.33969" lon="-0.1849683"><ele>112.60000000000001</ele><time>2026-03-25T17:02:10.313Z</time></trkpt><trkpt lat="51.339755" lon="-0.1849"><ele>112.39999999999999</ele><time>2026-03-25T17:02:11.315Z</time></trkpt><trkpt lat="51.33983" lon="-0.1848183"><ele>112.19999999999999</ele><time>2026-03-25T17:02:12.314Z</time></trkpt><trkpt lat="51.3399117" lon="-0.1847233"><ele>112.0</ele><time>2026-03-25T17:02:13.313Z</time></trkpt><trkpt lat="51.3399917" lon="-0.1846317"><ele>112.0</ele><time>2026-03-25T17:02:14.314Z</time></trkpt><trkpt lat="51.34007" lon="-0.1845433"><ele>111.99999999999999</ele><time>2026-03-25T17:02:15.315Z</time></trkpt><trkpt lat="51.3401533" lon="-0.1844433"><ele>111.99999999999999</ele><time>2026-03-25T17:02:16.314Z</time></trkpt><trkpt lat="51.3402383" lon="-0.18434"><ele>112.0</ele><time>2026-03-25T17:02:17.314Z</time></trkpt><trkpt lat="51.3403267" lon="-0.1842267"><ele>112.0</ele><time>2026-03-25T17:02:18.314Z</time></trkpt><trkpt lat="51.34042" lon="-0.184115"><ele>111.6</ele><time>2026-03-25T17:02:19.314Z</time></trkpt><trkpt lat="51.3405017" lon="-0.1840067"><ele>111.19999999999999</ele><time>2026-03-25T17:02:20.315Z</time></trkpt><trkpt lat="51.3405817" lon="-0.1839033"><ele>110.8</ele><time>2026-03-25T17:02:21.316Z</time></trkpt><trkpt lat="51.3406667" lon="-0.1837933"><ele>110.4</ele><time>2026-03-25T17:02:22.315Z</time></trkpt><trkpt lat="51.340745" lon="-0.1836917"><ele>110.0</ele><time>2026-03-25T17:02:23.314Z</time></trkpt><trkpt lat="51.3408183" lon="-0.1835983"><ele>109.99999999999999</ele><time>2026-03-25T17:02:24.314Z</time></trkpt><trkpt lat="51.3408833" lon="-0.1835083"><ele>110.0</ele><time>2026-03-25T17:02:25.314Z</time></trkpt><trkpt lat="51.34094" lon="-0.1834217"><ele>110.0</ele><time>2026-03-25T17:02:26.314Z</time></trkpt><trkpt lat="51.3409967" lon="-0.1833383"><ele>110.0</ele><time>2026-03-25T17:02:27.313Z</time></trkpt><trkpt lat="51.3410533" lon="-0.1832617"><ele>109.99999999999999</ele><time>2026-03-25T17:02:28.313Z</time></trkpt><trkpt lat="51.3411583" lon="-0.18316"><ele>110.0</ele><time>2026-03-25T17:02:30.314Z</time></trkpt><trkpt lat="51.3412817" lon="-0.1831633"><ele>109.99999999999999</ele><time>2026-03-25T17:02:32.314Z</time></trkpt><trkpt lat="51.341345" lon="-0.18323"><ele>110.0</ele><time>2026-03-25T17:02:33.315Z</time></trkpt><trkpt lat="51.3413933" lon="-0.1832983"><ele>110.0</ele><time>2026-03-25T17:02:34.313Z</time></trkpt><trkpt lat="51.3414467" lon="-0.1833817"><ele>110.0</ele><time>2026-03-25T17:02:35.316Z</time></trkpt><trkpt lat="51.3414983" lon="-0.1834717"><ele>109.99999999999999</ele><time>2026-03-25T17:02:36.313Z</time></trkpt><trkpt lat="51.3415533" lon="-0.1835817"><ele>110.0</ele><time>2026-03-25T17:02:37.313Z</time></trkpt><trkpt lat="51.34161" lon="-0.1837083"><ele>110.0</ele><time>2026-03-25T17:02:38.314Z</time></trkpt><trkpt lat="51.3416667" lon="-0.1838383"><ele>110.0</ele><time>2026-03-25T17:02:39.313Z</time></trkpt><trkpt lat="51.34172" lon="-0.183965"><ele>110.0</ele><time>2026-03-25T17:02:40.313Z</time></trkpt><trkpt lat="51.34177" lon="-0.1840917"><ele>110.0</ele><time>2026-03-25T17:02:41.314Z</time></trkpt><trkpt lat="51.3418217" lon="-0.1842117"><ele>110.0</ele><time>2026-03-25T17:02:42.314Z</time></trkpt><trkpt lat="51.3418733" lon="-0.184325"><ele>110.66666666666666</ele><time>2026-03-25T17:02:43.313Z</time></trkpt><trkpt lat="51.3419183" lon="-0.1844167"><ele>111.33333333333333</ele><time>2026-03-25T17:02:44.313Z</time></trkpt><trkpt lat="51.3419533" lon="-0.1845017"><ele>112.0</ele><time>2026-03-25T17:02:45.315Z</time></trkpt><trkpt lat="51.3420067" lon="-0.184645"><ele>112.66666666666666</ele><time>2026-03-25T17:02:47.315Z</time></trkpt><trkpt lat="51.34204" lon="-0.1847467"><ele>113.33333333333333</ele><time>2026-03-25T17:02:49.314Z</time></trkpt><trkpt lat="51.3421167" lon="-0.18478"><ele>114.0</ele><time>2026-03-25T17:02:52.313Z</time></trkpt><trkpt lat="51.3422017" lon="-0.18471"><ele>114.0</ele><time>2026-03-25T17:02:54.313Z</time></trkpt><trkpt lat="51.3422533" lon="-0.18465"><ele>114.0</ele><time>2026-03-25T17:02:55.313Z</time></trkpt><trkpt lat="51.3423233" lon="-0.1845733"><ele>114.0</ele><time>2026-03-25T17:02:56.313Z</time></trkpt><trkpt lat="51.3424067" lon="-0.1844817"><ele>114.0</ele><time>2026-03-25T17:02:57.314Z</time></trkpt><trkpt lat="51.3424967" lon="-0.18438"><ele>114.0</ele><time>2026-03-25T17:02:58.314Z</time></trkpt><trkpt lat="51.3425867" lon="-0.1842783"><ele>114.0</ele><time>2026-03-25T17:02:59.313Z</time></trkpt><trkpt lat="51.3426683" lon="-0.18418"><ele>114.0</ele><time>2026-03-25T17:03:00.314Z</time></trkpt><trkpt lat="51.3427483" lon="-0.184085"><ele>114.0</ele><time>2026-03-25T17:03:01.313Z</time></trkpt><trkpt lat="51.3428183" lon="-0.1840083"><ele>114.0</ele><time>2026-03-25T17:03:02.314Z</time></trkpt><trkpt lat="51.3428817" lon="-0.1839417"><ele>114.0</ele><time>2026-03-25T17:03:03.314Z</time></trkpt><trkpt lat="51.34294" lon="-0.1838983"><ele>114.0</ele><time>2026-03-25T17:03:04.314Z</time></trkpt><trkpt lat="51.3430583" lon="-0.1838333"><ele>114.0</ele><time>2026-03-25T17:03:06.313Z</time></trkpt><trkpt lat="51.343125" lon="-0.1837717"><ele>114.0</ele><time>2026-03-25T17:03:07.316Z</time></trkpt><trkpt lat="51.3432033" lon="-0.1836767"><ele>114.0</ele><time>2026-03-25T17:03:08.313Z</time></trkpt><trkpt lat="51.3432933" lon="-0.18355"><ele>114.0</ele><time>2026-03-25T17:03:09.315Z</time></trkpt><trkpt lat="51.3433883" lon="-0.1834133"><ele>114.0</ele><time>2026-03-25T17:03:10.314Z</time></trkpt><trkpt lat="51.3434817" lon="-0.1832733"><ele>113.75</ele><time>2026-03-25T17:03:11.314Z</time></trkpt><trkpt lat="51.343585" lon="-0.1831267"><ele>113.5</ele><time>2026-03-25T17:03:12.313Z</time></trkpt><trkpt lat="51.3436817" lon="-0.1829833"><ele>113.25</ele><time>2026-03-25T17:03:13.313Z</time></trkpt><trkpt lat="51.3437767" lon="-0.1828417"><ele>113.0</ele><time>2026-03-25T17:03:14.314Z</time></trkpt><trkpt lat="51.3438783" lon="-0.1826967"><ele>113.0</ele><time>2026-03-25T17:03:15.315Z</time></trkpt><trkpt lat="51.3439867" lon="-0.1825367"><ele>113.0</ele><time>2026-03-25T17:03:16.313Z</time></trkpt><trkpt lat="51.344085" lon="-0.18237"><ele>113.0</ele><time>2026-03-25T17:03:17.313Z</time></trkpt><trkpt lat="51.3441833" lon="-0.1822167"><ele>113.0</ele><time>2026-03-25T17:03:18.314Z</time></trkpt><trkpt lat="51.34428" lon="-0.1820583"><ele>113.0</ele><time>2026-03-25T17:03:19.314Z</time></trkpt><trkpt lat="51.3443783" lon="-0.181915"><ele>113.0</ele><time>2026-03-25T17:03:20.314Z</time></trkpt><trkpt lat="51.3444783" lon="-0.1817867"><ele>113.0</ele><time>2026-03-25T17:03:21.313Z</time></trkpt><trkpt lat="51.344575" lon="-0.1816667"><ele>113.0</ele><time>2026-03-25T17:03:22.313Z</time></trkpt><trkpt lat="51.3446783" lon="-0.1815517"><ele>111.75</ele><time>2026-03-25T17:03:23.314Z</time></trkpt><trkpt lat="51.3447833" lon="-0.181435"><ele>110.5</ele><time>2026-03-25T17:03:24.315Z</time></trkpt><trkpt lat="51.3448883" lon="-0.1813267"><ele>109.25</ele><time>2026-03-25T17:03:25.314Z</time></trkpt><trkpt lat="51.3449883" lon="-0.1812167"><ele>108.0</ele><time>2026-03-25T17:03:26.314Z</time></trkpt><trkpt lat="51.34509" lon="-0.1811083"><ele>108.0</ele><time>2026-03-25T17:03:27.314Z</time></trkpt><trkpt lat="51.3451883" lon="-0.1810017"><ele>108.00000000000001</ele><time>2026-03-25T17:03:28.312Z</time></trkpt><trkpt lat="51.345285" lon="-0.1809017"><ele>108.00000000000001</ele><time>2026-03-25T17:03:29.313Z</time></trkpt><trkpt lat="51.3453733" lon="-0.18081"><ele>108.0</ele><time>2026-03-25T17:03:30.314Z</time></trkpt><trkpt lat="51.345465" lon="-0.1807133"><ele>108.0</ele><time>2026-03-25T17:03:31.313Z</time></trkpt><trkpt lat="51.345555" lon="-0.1806217"><ele>107.60000000000001</ele><time>2026-03-25T17:03:32.313Z</time></trkpt><trkpt lat="51.34565" lon="-0.1805283"><ele>107.20000000000002</ele><time>2026-03-25T17:03:33.316Z</time></trkpt><trkpt lat="51.3457433" lon="-0.180435"><ele>106.8</ele><time>2026-03-25T17:03:34.313Z</time></trkpt><trkpt lat="51.3458383" lon="-0.1803417"><ele>106.4</ele><time>2026-03-25T17:03:35.313Z</time></trkpt><trkpt lat="51.3459283" lon="-0.1802617"><ele>106.0</ele><time>2026-03-25T17:03:36.313Z</time></trkpt><trkpt lat="51.3460167" lon="-0.1801867"><ele>106.00000000000001</ele><time>2026-03-25T17:03:37.313Z</time></trkpt><trkpt lat="51.346105" lon="-0.1801083"><ele>106.0</ele><time>2026-03-25T17:03:38.314Z</time></trkpt><trkpt lat="51.346185" lon="-0.18004"><ele>106.0</ele><time>2026-03-25T17:03:39.313Z</time></trkpt><trkpt lat="51.3462583" lon="-0.1799683"><ele>106.0</ele><time>2026-03-25T17:03:40.314Z</time></trkpt><trkpt lat="51.3463217" lon="-0.1799083"><ele>106.00000000000001</ele><time>2026-03-25T17:03:41.316Z</time></trkpt><trkpt lat="51.3463767" lon="-0.1798533"><ele>106.0</ele><time>2026-03-25T17:03:42.315Z</time></trkpt><trkpt lat="51.3464633" lon="-0.1797717"><ele>104.19999999999999</ele><time>2026-03-25T17:03:44.315Z</time></trkpt><trkpt lat="51.346555" lon="-0.1797183"><ele>102.39999999999999</ele><time>2026-03-25T17:03:47.314Z</time></trkpt><trkpt lat="51.3466367" lon="-0.17972"><ele>100.6</ele><time>2026-03-25T17:03:50.315Z</time></trkpt><trkpt lat="51.3467317" lon="-0.179725"><ele>98.8</ele><time>2026-03-25T17:03:52.314Z</time></trkpt><trkpt lat="51.3468483" lon="-0.1797067"><ele>97.0</ele><time>2026-03-25T17:03:54.315Z</time></trkpt><trkpt lat="51.34697" lon="-0.179755"><ele>97.0</ele><time>2026-03-25T17:03:56.315Z</time></trkpt><trkpt lat="51.3470283" lon="-0.179805"><ele>97.0</ele><time>2026-03-25T17:03:57.315Z</time></trkpt><trkpt lat="51.3470933" lon="-0.1799083"><ele>97.0</ele><time>2026-03-25T17:03:59.316Z</time></trkpt><trkpt lat="51.3471683" lon="-0.18015"><ele>97.0</ele><time>2026-03-25T17:04:02.314Z</time></trkpt><trkpt lat="51.3472" lon="-0.1802567"><ele>97.0</ele><time>2026-03-25T17:04:03.315Z</time></trkpt><trkpt lat="51.3472383" lon="-0.1803683"><ele>97.16666666666667</ele><time>2026-03-25T17:04:04.315Z</time></trkpt><trkpt lat="51.347275" lon="-0.1804783"><ele>97.33333333333334</ele><time>2026-03-25T17:04:05.315Z</time></trkpt><trkpt lat="51.3473117" lon="-0.1805867"><ele>97.5</ele><time>2026-03-25T17:04:06.318Z</time></trkpt><trkpt lat="51.3473517" lon="-0.1806883"><ele>97.66666666666666</ele><time>2026-03-25T17:04:07.314Z</time></trkpt><trkpt lat="51.3473867" lon="-0.1807767"><ele>97.83333333333333</ele><time>2026-03-25T17:04:08.314Z</time></trkpt><trkpt lat="51.3474533" lon="-0.18094"><ele>98.0</ele><time>2026-03-25T17:04:10.315Z</time></trkpt><trkpt lat="51.3475183" lon="-0.1811183"><ele>98.60000000000001</ele><time>2026-03-25T17:04:13.314Z</time></trkpt><trkpt lat="51.34755" lon="-0.1812533"><ele>99.2</ele><time>2026-03-25T17:04:19.314Z</time></trkpt><trkpt lat="51.3476867" lon="-0.1812367"><ele>99.8</ele><time>2026-03-25T17:04:35.315Z</time></trkpt><trkpt lat="51.3477483" lon="-0.1811833"><ele>100.4</ele><time>2026-03-25T17:04:36.315Z</time></trkpt><trkpt lat="51.347825" lon="-0.1811283"><ele>101.0</ele><time>2026-03-25T17:04:37.315Z</time></trkpt><trkpt lat="51.3479067" lon="-0.1810683"><ele>101.0</ele><time>2026-03-25T17:04:38.313Z</time></trkpt><trkpt lat="51.3479983" lon="-0.1810017"><ele>101.0</ele><time>2026-03-25T17:04:39.316Z</time></trkpt><trkpt lat="51.348095" lon="-0.18093"><ele>101.0</ele><time>2026-03-25T17:04:40.318Z</time></trkpt><trkpt lat="51.3481867" lon="-0.1808567"><ele>101.0</ele><time>2026-03-25T17:04:41.315Z</time></trkpt><trkpt lat="51.3482733" lon="-0.1807817"><ele>101.0</ele><time>2026-03-25T17:04:42.315Z</time></trkpt><trkpt lat="51.3484483" lon="-0.1806417"><ele>100.25</ele><time>2026-03-25T17:04:44.317Z</time></trkpt><trkpt lat="51.34863" lon="-0.1805"><ele>99.5</ele><time>2026-03-25T17:04:46.315Z</time></trkpt><trkpt lat="51.3487283" lon="-0.18042"><ele>98.75</ele><time>2026-03-25T17:04:47.315Z</time></trkpt><trkpt lat="51.3488233" lon="-0.1803483"><ele>98.0</ele><time>2026-03-25T17:04:48.315Z</time></trkpt><trkpt lat="51.3489217" lon="-0.1802717"><ele>97.33333333333333</ele><time>2026-03-25T17:04:49.314Z</time></trkpt><trkpt lat="51.349125" lon="-0.1801083"><ele>96.66666666666666</ele><time>2026-03-25T17:04:51.314Z</time></trkpt><trkpt lat="51.3492267" lon="-0.1800267"><ele>96.0</ele><time>2026-03-25T17:04:52.314Z</time></trkpt><trkpt lat="51.3494167" lon="-0.1799083"><ele>95.5</ele><time>2026-03-25T17:04:54.316Z</time></trkpt><trkpt lat="51.3495117" lon="-0.1798483"><ele>95.0</ele><time>2026-03-25T17:04:55.314Z</time></trkpt><trkpt lat="51.3496883" lon="-0.1797233"><ele>94.5</ele><time>2026-03-25T17:04:57.313Z</time></trkpt><trkpt lat="51.3497683" lon="-0.1796767"><ele>94.0</ele><time>2026-03-25T17:04:58.318Z</time></trkpt><trkpt lat="51.34985" lon="-0.179645"><ele>93.6</ele><time>2026-03-25T17:04:59.315Z</time></trkpt><trkpt lat="51.3499283" lon="-0.1796133"><ele>93.2</ele><time>2026-03-25T17:05:00.315Z</time></trkpt><trkpt lat="51.35001" lon="-0.1795717"><ele>92.8</ele><time>2026-03-25T17:05:01.314Z</time></trkpt><trkpt lat="51.3501717" lon="-0.1794767"><ele>92.39999999999999</ele><time>2026-03-25T17:05:03.314Z</time></trkpt><trkpt lat="51.35025" lon="-0.1794317"><ele>92.0</ele><time>2026-03-25T17:05:04.315Z</time></trkpt><trkpt lat="51.3503283" lon="-0.1793833"><ele>92.0</ele><time>2026-03-25T17:05:05.314Z</time></trkpt><trkpt lat="51.3504083" lon="-0.1793317"><ele>92.0</ele><time>2026-03-25T17:05:06.315Z</time></trkpt><trkpt lat="51.3505683" lon="-0.1792267"><ele>92.0</ele><time>2026-03-25T17:05:08.314Z</time></trkpt><trkpt lat="51.350725" lon="-0.179135"><ele>92.0</ele><time>2026-03-25T17:05:10.315Z</time></trkpt><trkpt lat="51.350795" lon="-0.1790967"><ele>91.8</ele><time>2026-03-25T17:05:11.314Z</time></trkpt><trkpt lat="51.350875" lon="-0.17905"><ele>91.6</ele><time>2026-03-25T17:05:12.314Z</time></trkpt><trkpt lat="51.3509567" lon="-0.1790033"><ele>91.39999999999999</ele><time>2026-03-25T17:05:13.314Z</time></trkpt><trkpt lat="51.3510417" lon="-0.1789517"><ele>91.19999999999999</ele><time>2026-03-25T17:05:14.318Z</time></trkpt><trkpt lat="51.3511333" lon="-0.1788883"><ele>91.0</ele><time>2026-03-25T17:05:15.315Z</time></trkpt><trkpt lat="51.351225" lon="-0.178825"><ele>89.5</ele><time>2026-03-25T17:05:16.316Z</time></trkpt><trkpt lat="51.3515" lon="-0.178635"><ele>88.0</ele><time>2026-03-25T17:05:19.314Z</time></trkpt><trkpt lat="51.35169" lon="-0.1784933"><ele>88.0</ele><time>2026-03-25T17:05:21.314Z</time></trkpt><trkpt lat="51.3518767" lon="-0.178325"><ele>88.0</ele><time>2026-03-25T17:05:23.318Z</time></trkpt><trkpt lat="51.3519617" lon="-0.1782383"><ele>88.0</ele><time>2026-03-25T17:05:24.315Z</time></trkpt><trkpt lat="51.3521267" lon="-0.1780583"><ele>86.66666666666666</ele><time>2026-03-25T17:05:26.317Z</time></trkpt><trkpt lat="51.3522883" lon="-0.177875"><ele>85.33333333333333</ele><time>2026-03-25T17:05:28.315Z</time></trkpt><trkpt lat="51.3524433" lon="-0.1777083"><ele>84.0</ele><time>2026-03-25T17:05:30.314Z</time></trkpt><trkpt lat="51.3526883" lon="-0.1774533"><ele>82.0</ele><time>2026-03-25T17:05:33.315Z</time></trkpt><trkpt lat="51.3528533" lon="-0.1772833"><ele>80.0</ele><time>2026-03-25T17:05:35.313Z</time></trkpt><trkpt lat="51.352935" lon="-0.177195"><ele>78.0</ele><time>2026-03-25T17:05:36.318Z</time></trkpt><trkpt lat="51.3531017" lon="-0.1770067"><ele>77.66666666666667</ele><time>2026-03-25T17:05:38.316Z</time></trkpt><trkpt lat="51.3533117" lon="-0.176775"><ele>77.33333333333334</ele><time>2026-03-25T17:05:41.315Z</time></trkpt><trkpt lat="51.3534333" lon="-0.1766517"><ele>77.0</ele><time>2026-03-25T17:05:43.315Z</time></trkpt><trkpt lat="51.35354" lon="-0.1765567"><ele>75.5</ele><time>2026-03-25T17:05:45.315Z</time></trkpt><trkpt lat="51.3536617" lon="-0.17645"><ele>74.0</ele><time>2026-03-25T17:05:48.315Z</time></trkpt><trkpt lat="51.353805" lon="-0.176315"><ele>72.5</ele><time>2026-03-25T17:05:51.316Z</time></trkpt><trkpt lat="51.353935" lon="-0.1762267"><ele>71.0</ele><time>2026-03-25T17:05:53.315Z</time></trkpt><trkpt lat="51.354" lon="-0.176175"><ele>71.0</ele><time>2026-03-25T17:05:54.316Z</time></trkpt><trkpt lat="51.3540667" lon="-0.176125"><ele>71.0</ele><time>2026-03-25T17:05:55.318Z</time></trkpt><trkpt lat="51.354135" lon="-0.176065"><ele>71.0</ele><time>2026-03-25T17:05:56.318Z</time></trkpt><trkpt lat="51.3542783" lon="-0.175945"><ele>71.0</ele><time>2026-03-25T17:05:58.317Z</time></trkpt><trkpt lat="51.3544983" lon="-0.1757717"><ele>71.0</ele><time>2026-03-25T17:06:01.313Z</time></trkpt><trkpt lat="51.3545733" lon="-0.1757133"><ele>71.0</ele><time>2026-03-25T17:06:02.315Z</time></trkpt><trkpt lat="51.3546483" lon="-0.1756483"><ele>71.0</ele><time>2026-03-25T17:06:03.315Z</time></trkpt><trkpt lat="51.3547217" lon="-0.17559"><ele>71.0</ele><time>2026-03-25T17:06:04.315Z</time></trkpt><trkpt lat="51.3547967" lon="-0.17553"><ele>71.0</ele><time>2026-03-25T17:06:05.314Z</time></trkpt><trkpt lat="51.354875" lon="-0.17546"><ele>71.0</ele><time>2026-03-25T17:06:06.315Z</time></trkpt><trkpt lat="51.3549533" lon="-0.1753983"><ele>69.2</ele><time>2026-03-25T17:06:07.316Z</time></trkpt><trkpt lat="51.3550317" lon="-0.1753333"><ele>67.39999999999999</ele><time>2026-03-25T17:06:08.315Z</time></trkpt><trkpt lat="51.3551117" lon="-0.1752667"><ele>65.6</ele><time>2026-03-25T17:06:09.315Z</time></trkpt><trkpt lat="51.355195" lon="-0.1751983"><ele>63.8</ele><time>2026-03-25T17:06:10.316Z</time></trkpt><trkpt lat="51.3552783" lon="-0.1751317"><ele>62.0</ele><time>2026-03-25T17:06:11.316Z</time></trkpt><trkpt lat="51.35536" lon="-0.1750667"><ele>62.0</ele><time>2026-03-25T17:06:12.314Z</time></trkpt><trkpt lat="51.355445" lon="-0.1749983"><ele>62.0</ele><time>2026-03-25T17:06:13.313Z</time></trkpt><trkpt lat="51.355525" lon="-0.1749283"><ele>62.0</ele><time>2026-03-25T17:06:14.315Z</time></trkpt><trkpt lat="51.3556067" lon="-0.1748583"><ele>62.0</ele><time>2026-03-25T17:06:15.316Z</time></trkpt><trkpt lat="51.3556883" lon="-0.1747917"><ele>62.0</ele><time>2026-03-25T17:06:16.315Z</time></trkpt><trkpt lat="51.355765" lon="-0.1747283"><ele>61.16666666666667</ele><time>2026-03-25T17:06:17.314Z</time></trkpt><trkpt lat="51.3558367" lon="-0.1746717"><ele>60.333333333333336</ele><time>2026-03-25T17:06:18.315Z</time></trkpt><trkpt lat="51.3559" lon="-0.1746183"><ele>59.5</ele><time>2026-03-25T17:06:19.316Z</time></trkpt><trkpt lat="51.3559617" lon="-0.1745717"><ele>58.66666666666667</ele><time>2026-03-25T17:06:20.318Z</time></trkpt><trkpt lat="51.356025" lon="-0.174525"><ele>57.833333333333336</ele><time>2026-03-25T17:06:21.314Z</time></trkpt><trkpt lat="51.3560967" lon="-0.1744767"><ele>57.0</ele><time>2026-03-25T17:06:22.317Z</time></trkpt><trkpt lat="51.3561733" lon="-0.174415"><ele>57.0</ele><time>2026-03-25T17:06:23.315Z</time></trkpt><trkpt lat="51.35625" lon="-0.1743517"><ele>57.0</ele><time>2026-03-25T17:06:24.314Z</time></trkpt><trkpt lat="51.3563233" lon="-0.1742867"><ele>57.0</ele><time>2026-03-25T17:06:25.315Z</time></trkpt><trkpt lat="51.3563967" lon="-0.1742233"><ele>57.0</ele><time>2026-03-25T17:06:26.314Z</time></trkpt><trkpt lat="51.3564717" lon="-0.1741633"><ele>57.0</ele><time>2026-03-25T17:06:27.315Z</time></trkpt><trkpt lat="51.3565433" lon="-0.1741117"><ele>57.0</ele><time>2026-03-25T17:06:28.317Z</time></trkpt><trkpt lat="51.3566167" lon="-0.174055"><ele>57.14285714285714</ele><time>2026-03-25T17:06:29.316Z</time></trkpt><trkpt lat="51.3566783" lon="-0.1740067"><ele>57.28571428571428</ele><time>2026-03-25T17:06:30.314Z</time></trkpt><trkpt lat="51.3567467" lon="-0.173955"><ele>57.42857142857143</ele><time>2026-03-25T17:06:31.314Z</time></trkpt><trkpt lat="51.3568167" lon="-0.1738983"><ele>57.57142857142857</ele><time>2026-03-25T17:06:32.314Z</time></trkpt><trkpt lat="51.3568833" lon="-0.1738467"><ele>57.714285714285715</ele><time>2026-03-25T17:06:33.314Z</time></trkpt><trkpt lat="51.35695" lon="-0.1738033"><ele>57.85714285714286</ele><time>2026-03-25T17:06:34.315Z</time></trkpt><trkpt lat="51.35701" lon="-0.1737633"><ele>58.00000000000001</ele><time>2026-03-25T17:06:35.314Z</time></trkpt><trkpt lat="51.3570983" lon="-0.1736967"><ele>58.0</ele><time>2026-03-25T17:06:37.315Z</time></trkpt><trkpt lat="51.357185" lon="-0.1736267"><ele>58.0</ele><time>2026-03-25T17:06:39.317Z</time></trkpt><trkpt lat="51.3572517" lon="-0.1735583"><ele>58.0</ele><time>2026-03-25T17:06:40.314Z</time></trkpt><trkpt lat="51.3573367" lon="-0.17348"><ele>58.0</ele><time>2026-03-25T17:06:41.314Z</time></trkpt><trkpt lat="51.3574333" lon="-0.1733983"><ele>58.0</ele><time>2026-03-25T17:06:42.316Z</time></trkpt><trkpt lat="51.35753" lon="-0.1733067"><ele>58.25</ele><time>2026-03-25T17:06:43.315Z</time></trkpt><trkpt lat="51.35763" lon="-0.1732217"><ele>58.5</ele><time>2026-03-25T17:06:44.318Z</time></trkpt><trkpt lat="51.3577333" lon="-0.1731417"><ele>58.75</ele><time>2026-03-25T17:06:45.314Z</time></trkpt><trkpt lat="51.3578333" lon="-0.1730583"><ele>59.0</ele><time>2026-03-25T17:06:46.318Z</time></trkpt><trkpt lat="51.3579383" lon="-0.1729783"><ele>58.800000000000004</ele><time>2026-03-25T17:06:47.315Z</time></trkpt><trkpt lat="51.3580433" lon="-0.1729117"><ele>58.60000000000001</ele><time>2026-03-25T17:06:48.314Z</time></trkpt><trkpt lat="51.3581467" lon="-0.1728483"><ele>58.4</ele><time>2026-03-25T17:06:49.315Z</time></trkpt><trkpt lat="51.3582333" lon="-0.1727883"><ele>58.2</ele><time>2026-03-25T17:06:50.313Z</time></trkpt><trkpt lat="51.3583067" lon="-0.1727433"><ele>58.0</ele><time>2026-03-25T17:06:51.313Z</time></trkpt><trkpt lat="51.358375" lon="-0.1726967"><ele>57.99999999999999</ele><time>2026-03-25T17:06:52.316Z</time></trkpt><trkpt lat="51.358435" lon="-0.1726633"><ele>58.0</ele><time>2026-03-25T17:06:53.314Z</time></trkpt><trkpt lat="51.3585033" lon="-0.1726183"><ele>58.0</ele><time>2026-03-25T17:06:54.314Z</time></trkpt><trkpt lat="51.3585717" lon="-0.1725683"><ele>58.0</ele><time>2026-03-25T17:06:55.317Z</time></trkpt><trkpt lat="51.3586517" lon="-0.1725133"><ele>57.99999999999999</ele><time>2026-03-25T17:06:56.314Z</time></trkpt><trkpt lat="51.3587367" lon="-0.1724583"><ele>58.0</ele><time>2026-03-25T17:06:57.318Z</time></trkpt><trkpt lat="51.3588267" lon="-0.1723983"><ele>58.49999999999999</ele><time>2026-03-25T17:06:58.313Z</time></trkpt><trkpt lat="51.3589133" lon="-0.172335"><ele>59.0</ele><time>2026-03-25T17:06:59.317Z</time></trkpt><trkpt lat="51.3589917" lon="-0.1722817"><ele>59.5</ele><time>2026-03-25T17:07:00.313Z</time></trkpt><trkpt lat="51.3590683" lon="-0.1722317"><ele>60.0</ele><time>2026-03-25T17:07:01.314Z</time></trkpt><trkpt lat="51.3591417" lon="-0.1721833"><ele>60.49999999999999</ele><time>2026-03-25T17:07:02.314Z</time></trkpt><trkpt lat="51.3592117" lon="-0.1721333"><ele>61.0</ele><time>2026-03-25T17:07:03.314Z</time></trkpt><trkpt lat="51.3592733" lon="-0.1721017"><ele>61.0</ele><time>2026-03-25T17:07:04.314Z</time></trkpt><trkpt lat="51.35938" lon="-0.172085"><ele>61.0</ele><time>2026-03-25T17:07:06.319Z</time></trkpt><trkpt lat="51.35949" lon="-0.1721317"><ele>61.0</ele><time>2026-03-25T17:07:08.313Z</time></trkpt><trkpt lat="51.3595933" lon="-0.17221"><ele>61.0</ele><time>2026-03-25T17:07:10.314Z</time></trkpt><trkpt lat="51.3597083" lon="-0.1722517"><ele>60.0</ele><time>2026-03-25T17:07:12.314Z</time></trkpt><trkpt lat="51.35978" lon="-0.17225"><ele>58.99999999999999</ele><time>2026-03-25T17:07:13.314Z</time></trkpt><trkpt lat="51.3598667" lon="-0.1722417"><ele>57.99999999999999</ele><time>2026-03-25T17:07:14.314Z</time></trkpt><trkpt lat="51.359965" lon="-0.1722317"><ele>57.0</ele><time>2026-03-25T17:07:15.315Z</time></trkpt><trkpt lat="51.36009" lon="-0.1722133"><ele>56.0</ele><time>2026-03-25T17:07:16.32Z</time></trkpt><trkpt lat="51.3602183" lon="-0.1721883"><ele>56.0</ele><time>2026-03-25T17:07:17.315Z</time></trkpt><trkpt lat="51.3603533" lon="-0.1721533"><ele>56.0</ele><time>2026-03-25T17:07:18.315Z</time></trkpt><trkpt lat="51.360485" lon="-0.1721233"><ele>56.0</ele><time>2026-03-25T17:07:19.314Z</time></trkpt><trkpt lat="51.3606133" lon="-0.17209"><ele>56.0</ele><time>2026-03-25T17:07:20.315Z</time></trkpt><trkpt lat="51.3607467" lon="-0.17206"><ele>55.5</ele><time>2026-03-25T17:07:21.314Z</time></trkpt><trkpt lat="51.3608767" lon="-0.1720317"><ele>55.0</ele><time>2026-03-25T17:07:22.317Z</time></trkpt><trkpt lat="51.3610033" lon="-0.1720067"><ele>54.5</ele><time>2026-03-25T17:07:23.317Z</time></trkpt><trkpt lat="51.3611167" lon="-0.17198"><ele>54.0</ele><time>2026-03-25T17:07:24.314Z</time></trkpt><trkpt lat="51.3612267" lon="-0.1719617"><ele>54.0</ele><time>2026-03-25T17:07:25.315Z</time></trkpt><trkpt lat="51.3613283" lon="-0.1719433"><ele>54.00000000000001</ele><time>2026-03-25T17:07:26.314Z</time></trkpt><trkpt lat="51.3614267" lon="-0.171925"><ele>54.00000000000001</ele><time>2026-03-25T17:07:27.315Z</time></trkpt><trkpt lat="51.3615217" lon="-0.1719117"><ele>54.0</ele><time>2026-03-25T17:07:28.313Z</time></trkpt><trkpt lat="51.3616133" lon="-0.1718917"><ele>54.0</ele><time>2026-03-25T17:07:29.314Z</time></trkpt><trkpt lat="51.3617117" lon="-0.1718683"><ele>53.6</ele><time>2026-03-25T17:07:30.314Z</time></trkpt><trkpt lat="51.36181" lon="-0.1718483"><ele>53.2</ele><time>2026-03-25T17:07:31.317Z</time></trkpt><trkpt lat="51.3619067" lon="-0.171825"><ele>52.800000000000004</ele><time>2026-03-25T17:07:32.315Z</time></trkpt><trkpt lat="51.362005" lon="-0.1718033"><ele>52.400000000000006</ele><time>2026-03-25T17:07:33.314Z</time></trkpt><trkpt lat="51.3621083" lon="-0.171785"><ele>52.0</ele><time>2026-03-25T17:07:34.317Z</time></trkpt><trkpt lat="51.3622133" lon="-0.1717667"><ele>51.2</ele><time>2026-03-25T17:07:35.318Z</time></trkpt><trkpt lat="51.362315" lon="-0.1717433"><ele>50.400000000000006</ele><time>2026-03-25T17:07:36.315Z</time></trkpt><trkpt lat="51.3624133" lon="-0.1717217"><ele>49.599999999999994</ele><time>2026-03-25T17:07:37.313Z</time></trkpt><trkpt lat="51.3625083" lon="-0.1717017"><ele>48.8</ele><time>2026-03-25T17:07:38.318Z</time></trkpt><trkpt lat="51.362595" lon="-0.171685"><ele>48.0</ele><time>2026-03-25T17:07:39.317Z</time></trkpt><trkpt lat="51.3626783" lon="-0.171675"><ele>48.0</ele><time>2026-03-25T17:07:40.315Z</time></trkpt><trkpt lat="51.362755" lon="-0.1716667"><ele>48.0</ele><time>2026-03-25T17:07:41.316Z</time></trkpt><trkpt lat="51.36282" lon="-0.1716617"><ele>48.0</ele><time>2026-03-25T17:07:42.318Z</time></trkpt><trkpt lat="51.362935" lon="-0.1716467"><ele>48.0</ele><time>2026-03-25T17:07:44.314Z</time></trkpt><trkpt lat="51.3630167" lon="-0.171635"><ele>48.0</ele><time>2026-03-25T17:07:46.318Z</time></trkpt><trkpt lat="51.36307" lon="-0.1715533"><ele>48.0</ele><time>2026-03-25T17:07:53.314Z</time></trkpt><trkpt lat="51.3630733" lon="-0.1714"><ele>48.0</ele><time>2026-03-25T17:07:55.315Z</time></trkpt><trkpt lat="51.3630717" lon="-0.1712833"><ele>48.0</ele><time>2026-03-25T17:07:56.316Z</time></trkpt><trkpt lat="51.3630683" lon="-0.171155"><ele>48.0</ele><time>2026-03-25T17:07:57.313Z</time></trkpt><trkpt lat="51.36307" lon="-0.1710183"><ele>48.0</ele><time>2026-03-25T17:07:58.314Z</time></trkpt><trkpt lat="51.3630717" lon="-0.17088"><ele>48.0</ele><time>2026-03-25T17:07:59.313Z</time></trkpt><trkpt lat="51.3630617" lon="-0.1707383"><ele>48.0</ele><time>2026-03-25T17:08:00.315Z</time></trkpt><trkpt lat="51.3630433" lon="-0.1705967"><ele>48.666666666666664</ele><time>2026-03-25T17:08:01.316Z</time></trkpt><trkpt lat="51.3630233" lon="-0.1704633"><ele>49.33333333333333</ele><time>2026-03-25T17:08:02.314Z</time></trkpt><trkpt lat="51.3630033" lon="-0.1703233"><ele>50.0</ele><time>2026-03-25T17:08:03.314Z</time></trkpt><trkpt lat="51.3629833" lon="-0.1701817"><ele>50.666666666666664</ele><time>2026-03-25T17:08:04.313Z</time></trkpt><trkpt lat="51.36296" lon="-0.1700467"><ele>51.33333333333333</ele><time>2026-03-25T17:08:05.313Z</time></trkpt><trkpt lat="51.36294" lon="-0.1699217"><ele>52.0</ele><time>2026-03-25T17:08:06.315Z</time></trkpt><trkpt lat="51.3629167" lon="-0.169805"><ele>52.0</ele><time>2026-03-25T17:08:07.314Z</time></trkpt><trkpt lat="51.3628883" lon="-0.1696933"><ele>52.0</ele><time>2026-03-25T17:08:08.313Z</time></trkpt><trkpt lat="51.362865" lon="-0.1695883"><ele>52.0</ele><time>2026-03-25T17:08:09.313Z</time></trkpt><trkpt lat="51.36284" lon="-0.1694767"><ele>52.0</ele><time>2026-03-25T17:08:10.314Z</time></trkpt><trkpt lat="51.36282" lon="-0.1693617"><ele>52.0</ele><time>2026-03-25T17:08:11.316Z</time></trkpt><trkpt lat="51.3628" lon="-0.16925"><ele>52.0</ele><time>2026-03-25T17:08:12.315Z</time></trkpt><trkpt lat="51.362785" lon="-0.1691367"><ele>52.0</ele><time>2026-03-25T17:08:13.314Z</time></trkpt><trkpt lat="51.362775" lon="-0.1690283"><ele>51.49999999999999</ele><time>2026-03-25T17:08:14.313Z</time></trkpt><trkpt lat="51.3627717" lon="-0.1689217"><ele>51.0</ele><time>2026-03-25T17:08:15.313Z</time></trkpt><trkpt lat="51.3627783" lon="-0.16882"><ele>50.5</ele><time>2026-03-25T17:08:16.313Z</time></trkpt><trkpt lat="51.36279" lon="-0.1686517"><ele>50.0</ele><time>2026-03-25T17:08:18.315Z</time></trkpt><trkpt lat="51.3628283" lon="-0.16851"><ele>49.49999999999999</ele><time>2026-03-25T17:08:20.314Z</time></trkpt><trkpt lat="51.3629283" lon="-0.1684183"><ele>49.0</ele><time>2026-03-25T17:08:22.314Z</time></trkpt><trkpt lat="51.3630017" lon="-0.1683933"><ele>48.714285714285715</ele><time>2026-03-25T17:08:23.314Z</time></trkpt><trkpt lat="51.3630783" lon="-0.168375"><ele>48.42857142857143</ele><time>2026-03-25T17:08:24.314Z</time></trkpt><trkpt lat="51.36315" lon="-0.1683617"><ele>48.14285714285714</ele><time>2026-03-25T17:08:25.314Z</time></trkpt><trkpt lat="51.363215" lon="-0.1683383"><ele>47.85714285714286</ele><time>2026-03-25T17:08:26.314Z</time></trkpt><trkpt lat="51.3632783" lon="-0.16829"><ele>47.57142857142857</ele><time>2026-03-25T17:08:27.315Z</time></trkpt><trkpt lat="51.363335" lon="-0.168215"><ele>47.285714285714285</ele><time>2026-03-25T17:08:28.315Z</time></trkpt><trkpt lat="51.3634" lon="-0.1681317"><ele>47.0</ele><time>2026-03-25T17:08:29.316Z</time></trkpt><trkpt lat="51.3634567" lon="-0.1680267"><ele>46.5</ele><time>2026-03-25T17:08:30.313Z</time></trkpt><trkpt lat="51.3635117" lon="-0.1678817"><ele>46.0</ele><time>2026-03-25T17:08:31.316Z</time></trkpt><trkpt lat="51.3635717" lon="-0.1677133"><ele>45.5</ele><time>2026-03-25T17:08:32.315Z</time></trkpt><trkpt lat="51.363625" lon="-0.16752"><ele>45.0</ele><time>2026-03-25T17:08:33.314Z</time></trkpt><trkpt lat="51.3636833" lon="-0.16736"><ele>45.0</ele><time>2026-03-25T17:08:34.313Z</time></trkpt><trkpt lat="51.3637483" lon="-0.16721"><ele>45.0</ele><time>2026-03-25T17:08:35.315Z</time></trkpt><trkpt lat="51.3638233" lon="-0.1670567"><ele>45.0</ele><time>2026-03-25T17:08:36.313Z</time></trkpt><trkpt lat="51.3638967" lon="-0.16691"><ele>45.0</ele><time>2026-03-25T17:08:37.314Z</time></trkpt><trkpt lat="51.3639683" lon="-0.1667717"><ele>44.4</ele><time>2026-03-25T17:08:38.314Z</time></trkpt><trkpt lat="51.364035" lon="-0.1666383"><ele>43.8</ele><time>2026-03-25T17:08:39.313Z</time></trkpt><trkpt lat="51.3640983" lon="-0.16651"><ele>43.2</ele><time>2026-03-25T17:08:40.313Z</time></trkpt><trkpt lat="51.3641583" lon="-0.166395"><ele>42.6</ele><time>2026-03-25T17:08:41.313Z</time></trkpt><trkpt lat="51.3642133" lon="-0.1662933"><ele>42.0</ele><time>2026-03-25T17:08:42.315Z</time></trkpt><trkpt lat="51.364285" lon="-0.1662033"><ele>42.0</ele><time>2026-03-25T17:08:43.314Z</time></trkpt><trkpt lat="51.3643383" lon="-0.1661417"><ele>42.0</ele><time>2026-03-25T17:08:44.315Z</time></trkpt><trkpt lat="51.364435" lon="-0.1660283"><ele>42.0</ele><time>2026-03-25T17:08:46.314Z</time></trkpt><trkpt lat="51.364505" lon="-0.1658817"><ele>42.0</ele><time>2026-03-25T17:08:48.315Z</time></trkpt><trkpt lat="51.364575" lon="-0.1657583"><ele>42.0</ele><time>2026-03-25T17:08:50.315Z</time></trkpt><trkpt lat="51.3646517" lon="-0.1656233"><ele>41.4</ele><time>2026-03-25T17:08:52.314Z</time></trkpt><trkpt lat="51.3647283" lon="-0.165495"><ele>40.800000000000004</ele><time>2026-03-25T17:08:54.314Z</time></trkpt><trkpt lat="51.3648067" lon="-0.1653733"><ele>40.2</ele><time>2026-03-25T17:08:56.316Z</time></trkpt><trkpt lat="51.36487" lon="-0.165265"><ele>39.6</ele><time>2026-03-25T17:08:58.314Z</time></trkpt><trkpt lat="51.364915" lon="-0.1651717"><ele>39.0</ele><time>2026-03-25T17:09:00.315Z</time></trkpt><trkpt lat="51.364955" lon="-0.16508"><ele>39.0</ele><time>2026-03-25T17:09:02.314Z</time></trkpt><trkpt lat="51.3650067" lon="-0.164975"><ele>39.0</ele><time>2026-03-25T17:09:04.313Z</time></trkpt><trkpt lat="51.365035" lon="-0.1648617"><ele>39.0</ele><time>2026-03-25T17:09:06.316Z</time></trkpt><trkpt lat="51.365075" lon="-0.1647683"><ele>39.0</ele><time>2026-03-25T17:09:08.314Z</time></trkpt><trkpt lat="51.3651267" lon="-0.1647"><ele>39.0</ele><time>2026-03-25T17:09:10.314Z</time></trkpt><trkpt lat="51.3651933" lon="-0.1645417"><ele>39.0</ele><time>2026-03-25T17:09:18.315Z</time></trkpt><trkpt lat="51.3652067" lon="-0.1644417"><ele>38.85714285714286</ele><time>2026-03-25T17:09:20.314Z</time></trkpt><trkpt lat="51.3652133" lon="-0.164335"><ele>38.71428571428571</ele><time>2026-03-25T17:09:22.315Z</time></trkpt><trkpt lat="51.36522" lon="-0.1642217"><ele>38.57142857142857</ele><time>2026-03-25T17:09:24.314Z</time></trkpt><trkpt lat="51.3652283" lon="-0.1641133"><ele>38.42857142857143</ele><time>2026-03-25T17:09:26.315Z</time></trkpt><trkpt lat="51.3652367" lon="-0.164"><ele>38.28571428571429</ele><time>2026-03-25T17:09:28.315Z</time></trkpt><trkpt lat="51.3652383" lon="-0.1638833"><ele>38.14285714285714</ele><time>2026-03-25T17:09:30.315Z</time></trkpt><trkpt lat="51.3652433" lon="-0.1637617"><ele>38.0</ele><time>2026-03-25T17:09:33.315Z</time></trkpt><trkpt lat="51.3652633" lon="-0.1636583"><ele>38.0</ele><time>2026-03-25T17:09:37.316Z</time></trkpt><trkpt lat="51.36526" lon="-0.1635383"><ele>38.0</ele><time>2026-03-25T17:09:40.318Z</time></trkpt><trkpt lat="51.3652417" lon="-0.163425"><ele>38.0</ele><time>2026-03-25T17:09:49.316Z</time></trkpt><trkpt lat="51.3652433" lon="-0.1633167"><ele>38.0</ele><time>2026-03-25T17:09:51.316Z</time></trkpt><trkpt lat="51.3652433" lon="-0.1631983"><ele>38.0</ele><time>2026-03-25T17:09:53.314Z</time></trkpt><trkpt lat="51.3652383" lon="-0.1630833"><ele>38.0</ele><time>2026-03-25T17:09:56.319Z</time></trkpt><trkpt lat="51.3652183" lon="-0.1628633"><ele>38.0</ele><time>2026-03-25T17:10:38.313Z</time></trkpt><trkpt lat="51.3651967" lon="-0.1627633"><ele>38.0</ele><time>2026-03-25T17:10:40.314Z</time></trkpt><trkpt lat="51.3651733" lon="-0.1626667"><ele>38.0</ele><time>2026-03-25T17:10:42.313Z</time></trkpt><trkpt lat="51.3651517" lon="-0.1625483"><ele>38.0</ele><time>2026-03-25T17:10:44.313Z</time></trkpt><trkpt lat="51.3651383" lon="-0.1624167"><ele>38.0</ele><time>2026-03-25T17:10:46.314Z</time></trkpt><trkpt lat="51.3651417" lon="-0.1622467"><ele>38.0</ele><time>2026-03-25T17:10:48.313Z</time></trkpt><trkpt lat="51.3651467" lon="-0.1620733"><ele>38.0</ele><time>2026-03-25T17:10:50.313Z</time></trkpt><trkpt lat="51.3651633" lon="-0.1618917"><ele>38.0</ele><time>2026-03-25T17:10:52.313Z</time></trkpt><trkpt lat="51.3651983" lon="-0.161715"><ele>38.0</ele><time>2026-03-25T17:10:54.314Z</time></trkpt><trkpt lat="51.36525" lon="-0.16155"><ele>38.0</ele><time>2026-03-25T17:10:56.314Z</time></trkpt><trkpt lat="51.3653017" lon="-0.1613833"><ele>38.199999999999996</ele><time>2026-03-25T17:10:58.313Z</time></trkpt><trkpt lat="51.3653467" lon="-0.1612783"><ele>38.4</ele><time>2026-03-25T17:10:59.314Z</time></trkpt><trkpt lat="51.3653667" lon="-0.16118"><ele>38.599999999999994</ele><time>2026-03-25T17:11:00.315Z</time></trkpt><trkpt lat="51.365405" lon="-0.1609967"><ele>38.8</ele><time>2026-03-25T17:11:02.313Z</time></trkpt><trkpt lat="51.3654417" lon="-0.1608083"><ele>39.0</ele><time>2026-03-25T17:11:04.313Z</time></trkpt><trkpt lat="51.3654633" lon="-0.1607017"><ele>39.2</ele><time>2026-03-25T17:11:05.314Z</time></trkpt><trkpt lat="51.3654867" lon="-0.16058"><ele>39.4</ele><time>2026-03-25T17:11:06.313Z</time></trkpt><trkpt lat="51.3655117" lon="-0.1604667"><ele>39.6</ele><time>2026-03-25T17:11:07.314Z</time></trkpt><trkpt lat="51.3655283" lon="-0.1603667"><ele>39.8</ele><time>2026-03-25T17:11:08.313Z</time></trkpt><trkpt lat="51.3655833" lon="-0.1602"><ele>40.0</ele><time>2026-03-25T17:11:10.314Z</time></trkpt><trkpt lat="51.365625" lon="-0.1600167"><ele>40.0</ele><time>2026-03-25T17:11:12.314Z</time></trkpt><trkpt lat="51.3656483" lon="-0.1599033"><ele>40.0</ele><time>2026-03-25T17:11:13.313Z</time></trkpt><trkpt lat="51.3656783" lon="-0.159775"><ele>40.0</ele><time>2026-03-25T17:11:14.313Z</time></trkpt><trkpt lat="51.3657033" lon="-0.1596467"><ele>40.0</ele><time>2026-03-25T17:11:15.313Z</time></trkpt><trkpt lat="51.3657283" lon="-0.1595267"><ele>40.0</ele><time>2026-03-25T17:11:16.315Z</time></trkpt><trkpt lat="51.3657517" lon="-0.15942"><ele>40.0</ele><time>2026-03-25T17:11:17.317Z</time></trkpt><trkpt lat="51.36578" lon="-0.1593233"><ele>39.833333333333336</ele><time>2026-03-25T17:11:18.314Z</time></trkpt><trkpt lat="51.3658183" lon="-0.15923"><ele>39.66666666666667</ele><time>2026-03-25T17:11:19.313Z</time></trkpt><trkpt lat="51.3658767" lon="-0.159085"><ele>39.5</ele><time>2026-03-25T17:11:21.314Z</time></trkpt><trkpt lat="51.3659317" lon="-0.1589767"><ele>39.333333333333336</ele><time>2026-03-25T17:11:23.313Z</time></trkpt><trkpt lat="51.3659783" lon="-0.1589033"><ele>39.166666666666664</ele><time>2026-03-25T17:11:25.315Z</time></trkpt><trkpt lat="51.366035" lon="-0.1588133"><ele>39.0</ele><time>2026-03-25T17:11:28.316Z</time></trkpt><trkpt lat="51.366085" lon="-0.15864"><ele>38.833333333333336</ele><time>2026-03-25T17:11:36.314Z</time></trkpt><trkpt lat="51.3661267" lon="-0.158525"><ele>38.666666666666664</ele><time>2026-03-25T17:11:38.314Z</time></trkpt><trkpt lat="51.3661767" lon="-0.158365"><ele>38.5</ele><time>2026-03-25T17:11:40.314Z</time></trkpt><trkpt lat="51.3662067" lon="-0.1582667"><ele>38.33333333333333</ele><time>2026-03-25T17:11:41.314Z</time></trkpt><trkpt lat="51.366235" lon="-0.1581633"><ele>38.166666666666664</ele><time>2026-03-25T17:11:42.316Z</time></trkpt><trkpt lat="51.3662617" lon="-0.1580583"><ele>38.0</ele><time>2026-03-25T17:11:43.315Z</time></trkpt><trkpt lat="51.366285" lon="-0.157945"><ele>38.0</ele><time>2026-03-25T17:11:44.315Z</time></trkpt><trkpt lat="51.366315" lon="-0.15782"><ele>38.0</ele><time>2026-03-25T17:11:45.317Z</time></trkpt><trkpt lat="51.36635" lon="-0.1576783"><ele>38.0</ele><time>2026-03-25T17:11:46.314Z</time></trkpt><trkpt lat="51.3663983" lon="-0.15751"><ele>38.0</ele><time>2026-03-25T17:11:47.315Z</time></trkpt><trkpt lat="51.366455" lon="-0.1573117"><ele>38.0</ele><time>2026-03-25T17:11:48.314Z</time></trkpt><trkpt lat="51.3665117" lon="-0.1571033"><ele>37.75</ele><time>2026-03-25T17:11:49.314Z</time></trkpt><trkpt lat="51.3665683" lon="-0.1569"><ele>37.5</ele><time>2026-03-25T17:11:50.314Z</time></trkpt><trkpt lat="51.3666217" lon="-0.1567083"><ele>37.25</ele><time>2026-03-25T17:11:51.314Z</time></trkpt><trkpt lat="51.3666767" lon="-0.1565267"><ele>37.0</ele><time>2026-03-25T17:11:52.314Z</time></trkpt><trkpt lat="51.3667283" lon="-0.15635"><ele>37.0</ele><time>2026-03-25T17:11:53.314Z</time></trkpt><trkpt lat="51.3667817" lon="-0.1561733"><ele>37.0</ele><time>2026-03-25T17:11:54.315Z</time></trkpt><trkpt lat="51.3668333" lon="-0.1560083"><ele>37.0</ele><time>2026-03-25T17:11:55.315Z</time></trkpt><trkpt lat="51.36688" lon="-0.1558567"><ele>37.0</ele><time>2026-03-25T17:11:56.315Z</time></trkpt><trkpt lat="51.36692" lon="-0.155715"><ele>37.0</ele><time>2026-03-25T17:11:57.314Z</time></trkpt><trkpt lat="51.3669567" lon="-0.1555833"><ele>37.16666666666667</ele><time>2026-03-25T17:11:58.314Z</time></trkpt><trkpt lat="51.366995" lon="-0.1554517"><ele>37.333333333333336</ele><time>2026-03-25T17:11:59.314Z</time></trkpt><trkpt lat="51.36703" lon="-0.155325"><ele>37.5</ele><time>2026-03-25T17:12:00.315Z</time></trkpt><trkpt lat="51.3670633" lon="-0.1552033"><ele>37.666666666666664</ele><time>2026-03-25T17:12:01.315Z</time></trkpt><trkpt lat="51.3670967" lon="-0.1550933"><ele>37.83333333333333</ele><time>2026-03-25T17:12:02.314Z</time></trkpt><trkpt lat="51.3671283" lon="-0.15499"><ele>38.0</ele><time>2026-03-25T17:12:03.314Z</time></trkpt><trkpt lat="51.367175" lon="-0.154885"><ele>37.166666666666664</ele><time>2026-03-25T17:12:04.314Z</time></trkpt><trkpt lat="51.3672083" lon="-0.154785"><ele>36.33333333333333</ele><time>2026-03-25T17:12:05.315Z</time></trkpt><trkpt lat="51.3672433" lon="-0.1546883"><ele>35.5</ele><time>2026-03-25T17:12:06.314Z</time></trkpt><trkpt lat="51.3672767" lon="-0.15459"><ele>34.666666666666664</ele><time>2026-03-25T17:12:07.318Z</time></trkpt><trkpt lat="51.367305" lon="-0.1544967"><ele>33.833333333333336</ele><time>2026-03-25T17:12:08.313Z</time></trkpt><trkpt lat="51.36735" lon="-0.15433"><ele>33.0</ele><time>2026-03-25T17:12:10.315Z</time></trkpt><trkpt lat="51.3673883" lon="-0.1542083"><ele>33.0</ele><time>2026-03-25T17:12:12.315Z</time></trkpt><trkpt lat="51.367415" lon="-0.1540617"><ele>33.0</ele><time>2026-03-25T17:12:45.315Z</time></trkpt><trkpt lat="51.36745" lon="-0.1539017"><ele>33.0</ele><time>2026-03-25T17:12:47.315Z</time></trkpt><trkpt lat="51.36748" lon="-0.1537033"><ele>33.0</ele><time>2026-03-25T17:12:49.315Z</time></trkpt><trkpt lat="51.3674933" lon="-0.15359"><ele>33.0</ele><time>2026-03-25T17:12:50.315Z</time></trkpt><trkpt lat="51.367505" lon="-0.1534733"><ele>33.166666666666664</ele><time>2026-03-25T17:12:51.315Z</time></trkpt><trkpt lat="51.3675167" lon="-0.1533633"><ele>33.333333333333336</ele><time>2026-03-25T17:12:52.314Z</time></trkpt><trkpt lat="51.3675317" lon="-0.153255"><ele>33.5</ele><time>2026-03-25T17:12:53.313Z</time></trkpt><trkpt lat="51.367545" lon="-0.1531533"><ele>33.66666666666667</ele><time>2026-03-25T17:12:54.315Z</time></trkpt><trkpt lat="51.3675617" lon="-0.1530517"><ele>33.833333333333336</ele><time>2026-03-25T17:12:55.314Z</time></trkpt><trkpt lat="51.367595" lon="-0.1528717"><ele>34.0</ele><time>2026-03-25T17:12:57.315Z</time></trkpt><trkpt lat="51.36762" lon="-0.15277"><ele>34.4</ele><time>2026-03-25T17:12:58.314Z</time></trkpt><trkpt lat="51.36765" lon="-0.1526467"><ele>34.8</ele><time>2026-03-25T17:12:59.314Z</time></trkpt><trkpt lat="51.3676817" lon="-0.1524933"><ele>35.2</ele><time>2026-03-25T17:13:00.315Z</time></trkpt><trkpt lat="51.3677233" lon="-0.15232"><ele>35.6</ele><time>2026-03-25T17:13:01.313Z</time></trkpt><trkpt lat="51.3677717" lon="-0.152155"><ele>36.0</ele><time>2026-03-25T17:13:02.315Z</time></trkpt><trkpt lat="51.3678183" lon="-0.1519933"><ele>36.25</ele><time>2026-03-25T17:13:03.314Z</time></trkpt><trkpt lat="51.36787" lon="-0.151835"><ele>36.5</ele><time>2026-03-25T17:13:04.314Z</time></trkpt><trkpt lat="51.3679267" lon="-0.151685"><ele>36.75</ele><time>2026-03-25T17:13:05.315Z</time></trkpt><trkpt lat="51.3679867" lon="-0.151535"><ele>37.0</ele><time>2026-03-25T17:13:06.315Z</time></trkpt><trkpt lat="51.36805" lon="-0.151375"><ele>37.0</ele><time>2026-03-25T17:13:07.314Z</time></trkpt><trkpt lat="51.3681133" lon="-0.1512033"><ele>37.0</ele><time>2026-03-25T17:13:08.313Z</time></trkpt><trkpt lat="51.3681733" lon="-0.15103"><ele>37.0</ele><time>2026-03-25T17:13:09.315Z</time></trkpt><trkpt lat="51.368235" lon="-0.1508617"><ele>37.0</ele><time>2026-03-25T17:13:10.314Z</time></trkpt><trkpt lat="51.368295" lon="-0.15069"><ele>37.0</ele><time>2026-03-25T17:13:11.314Z</time></trkpt><trkpt lat="51.368345" lon="-0.15052"><ele>37.0</ele><time>2026-03-25T17:13:12.315Z</time></trkpt><trkpt lat="51.368395" lon="-0.1503483"><ele>37.0</ele><time>2026-03-25T17:13:13.314Z</time></trkpt><trkpt lat="51.3684467" lon="-0.1501733"><ele>37.0</ele><time>2026-03-25T17:13:14.314Z</time></trkpt><trkpt lat="51.3684933" lon="-0.15"><ele>36.75</ele><time>2026-03-25T17:13:15.315Z</time></trkpt><trkpt lat="51.3685367" lon="-0.1498183"><ele>36.5</ele><time>2026-03-25T17:13:16.313Z</time></trkpt><trkpt lat="51.36858" lon="-0.1496367"><ele>36.25</ele><time>2026-03-25T17:13:17.314Z</time></trkpt><trkpt lat="51.3686233" lon="-0.1494633"><ele>36.0</ele><time>2026-03-25T17:13:18.315Z</time></trkpt><trkpt lat="51.3686617" lon="-0.1492967"><ele>36.0</ele><time>2026-03-25T17:13:19.314Z</time></trkpt><trkpt lat="51.368695" lon="-0.1491267"><ele>36.0</ele><time>2026-03-25T17:13:20.313Z</time></trkpt><trkpt lat="51.3687317" lon="-0.14896"><ele>36.0</ele><time>2026-03-25T17:13:21.314Z</time></trkpt><trkpt lat="51.36877" lon="-0.14879"><ele>36.0</ele><time>2026-03-25T17:13:22.314Z</time></trkpt><trkpt lat="51.368805" lon="-0.148615"><ele>36.0</ele><time>2026-03-25T17:13:23.313Z</time></trkpt><trkpt lat="51.36884" lon="-0.1484383"><ele>36.4</ele><time>2026-03-25T17:13:24.314Z</time></trkpt><trkpt lat="51.36887" lon="-0.148265"><ele>36.8</ele><time>2026-03-25T17:13:25.314Z</time></trkpt><trkpt lat="51.3689017" lon="-0.1480917"><ele>37.199999999999996</ele><time>2026-03-25T17:13:26.315Z</time></trkpt><trkpt lat="51.3689333" lon="-0.1479217"><ele>37.6</ele><time>2026-03-25T17:13:27.315Z</time></trkpt><trkpt lat="51.3689683" lon="-0.14775"><ele>38.0</ele><time>2026-03-25T17:13:28.314Z</time></trkpt><trkpt lat="51.369" lon="-0.1475817"><ele>38.0</ele><time>2026-03-25T17:13:29.314Z</time></trkpt><trkpt lat="51.36903" lon="-0.147415"><ele>38.0</ele><time>2026-03-25T17:13:30.313Z</time></trkpt><trkpt lat="51.36906" lon="-0.1472417"><ele>38.0</ele><time>2026-03-25T17:13:31.314Z</time></trkpt><trkpt lat="51.3690933" lon="-0.1470567"><ele>38.0</ele><time>2026-03-25T17:13:32.314Z</time></trkpt><trkpt lat="51.36913" lon="-0.146865"><ele>38.0</ele><time>2026-03-25T17:13:33.314Z</time></trkpt><trkpt lat="51.36917" lon="-0.1466633"><ele>38.0</ele><time>2026-03-25T17:13:34.313Z</time></trkpt><trkpt lat="51.36921" lon="-0.14646"><ele>38.0</ele><time>2026-03-25T17:13:35.313Z</time></trkpt><trkpt lat="51.3692483" lon="-0.14626"><ele>38.0</ele><time>2026-03-25T17:13:36.315Z</time></trkpt><trkpt lat="51.3692883" lon="-0.1460683"><ele>38.0</ele><time>2026-03-25T17:13:37.314Z</time></trkpt><trkpt lat="51.3693283" lon="-0.1458867"><ele>38.0</ele><time>2026-03-25T17:13:38.315Z</time></trkpt><trkpt lat="51.36936" lon="-0.1457017"><ele>38.0</ele><time>2026-03-25T17:13:39.314Z</time></trkpt><trkpt lat="51.369395" lon="-0.1455283"><ele>38.0</ele><time>2026-03-25T17:13:40.315Z</time></trkpt><trkpt lat="51.3694217" lon="-0.145355"><ele>38.0</ele><time>2026-03-25T17:13:41.315Z</time></trkpt><trkpt lat="51.369455" lon="-0.145175"><ele>38.0</ele><time>2026-03-25T17:13:42.314Z</time></trkpt><trkpt lat="51.3694817" lon="-0.14501"><ele>38.0</ele><time>2026-03-25T17:13:43.313Z</time></trkpt><trkpt lat="51.3695017" lon="-0.1448667"><ele>38.0</ele><time>2026-03-25T17:13:44.314Z</time></trkpt><trkpt lat="51.3695183" lon="-0.1447183"><ele>38.0</ele><time>2026-03-25T17:13:45.315Z</time></trkpt><trkpt lat="51.3695433" lon="-0.144565"><ele>38.14285714285714</ele><time>2026-03-25T17:13:46.313Z</time></trkpt><trkpt lat="51.3695617" lon="-0.1444317"><ele>38.28571428571429</ele><time>2026-03-25T17:13:47.314Z</time></trkpt><trkpt lat="51.36958" lon="-0.144305"><ele>38.42857142857143</ele><time>2026-03-25T17:13:48.313Z</time></trkpt><trkpt lat="51.3696" lon="-0.1441883"><ele>38.57142857142857</ele><time>2026-03-25T17:13:49.313Z</time></trkpt><trkpt lat="51.3696117" lon="-0.1440883"><ele>38.71428571428571</ele><time>2026-03-25T17:13:50.314Z</time></trkpt><trkpt lat="51.369625" lon="-0.1439833"><ele>38.85714285714286</ele><time>2026-03-25T17:13:51.316Z</time></trkpt><trkpt lat="51.3696417" lon="-0.1438717"><ele>39.0</ele><time>2026-03-25T17:13:52.314Z</time></trkpt><trkpt lat="51.369655" lon="-0.1437633"><ele>39.0</ele><time>2026-03-25T17:13:53.313Z</time></trkpt><trkpt lat="51.36967" lon="-0.143665"><ele>39.0</ele><time>2026-03-25T17:13:54.314Z</time></trkpt><trkpt lat="51.36969" lon="-0.143565"><ele>39.0</ele><time>2026-03-25T17:13:55.315Z</time></trkpt><trkpt lat="51.3697133" lon="-0.1434667"><ele>39.0</ele><time>2026-03-25T17:13:56.315Z</time></trkpt><trkpt lat="51.3697283" lon="-0.1433683"><ele>39.0</ele><time>2026-03-25T17:13:57.315Z</time></trkpt><trkpt lat="51.3697567" lon="-0.1431767"><ele>39.0</ele><time>2026-03-25T17:13:59.314Z</time></trkpt><trkpt lat="51.36979" lon="-0.1429817"><ele>39.0</ele><time>2026-03-25T17:14:01.314Z</time></trkpt><trkpt lat="51.369815" lon="-0.1428283"><ele>39.0</ele><time>2026-03-25T17:14:03.315Z</time></trkpt><trkpt lat="51.369825" lon="-0.1426883"><ele>39.0</ele><time>2026-03-25T17:14:05.314Z</time></trkpt><trkpt lat="51.369845" lon="-0.1425417"><ele>39.0</ele><time>2026-03-25T17:14:07.315Z</time></trkpt><trkpt lat="51.3698533" lon="-0.1423667"><ele>39.0</ele><time>2026-03-25T17:14:09.314Z</time></trkpt><trkpt lat="51.3698567" lon="-0.1422633"><ele>38.8</ele><time>2026-03-25T17:14:10.315Z</time></trkpt><trkpt lat="51.3698633" lon="-0.1421617"><ele>38.599999999999994</ele><time>2026-03-25T17:14:11.314Z</time></trkpt><trkpt lat="51.36987" lon="-0.1419733"><ele>38.4</ele><time>2026-03-25T17:14:13.314Z</time></trkpt><trkpt lat="51.3698783" lon="-0.1417833"><ele>38.199999999999996</ele><time>2026-03-25T17:14:15.315Z</time></trkpt><trkpt lat="51.3698817" lon="-0.1415933"><ele>38.0</ele><time>2026-03-25T17:14:17.314Z</time></trkpt><trkpt lat="51.369875" lon="-0.1413917"><ele>37.714285714285715</ele><time>2026-03-25T17:14:19.315Z</time></trkpt><trkpt lat="51.3698717" lon="-0.1412867"><ele>37.42857142857143</ele><time>2026-03-25T17:14:20.315Z</time></trkpt><trkpt lat="51.3698667" lon="-0.1411783"><ele>37.142857142857146</ele><time>2026-03-25T17:14:21.314Z</time></trkpt><trkpt lat="51.3698633" lon="-0.14106"><ele>36.85714285714286</ele><time>2026-03-25T17:14:22.313Z</time></trkpt><trkpt lat="51.3698633" lon="-0.1409417"><ele>36.57142857142857</ele><time>2026-03-25T17:14:23.313Z</time></trkpt><trkpt lat="51.3698633" lon="-0.140815"><ele>36.28571428571429</ele><time>2026-03-25T17:14:24.314Z</time></trkpt><trkpt lat="51.3698683" lon="-0.1406817"><ele>36.0</ele><time>2026-03-25T17:14:25.314Z</time></trkpt><trkpt lat="51.3698683" lon="-0.1405333"><ele>36.0</ele><time>2026-03-25T17:14:26.314Z</time></trkpt><trkpt lat="51.3698667" lon="-0.1403717"><ele>36.0</ele><time>2026-03-25T17:14:27.314Z</time></trkpt><trkpt lat="51.3698683" lon="-0.1401917"><ele>36.0</ele><time>2026-03-25T17:14:28.314Z</time></trkpt><trkpt lat="51.3698583" lon="-0.1399967"><ele>36.0</ele><time>2026-03-25T17:14:29.313Z</time></trkpt><trkpt lat="51.3698517" lon="-0.1398067"><ele>36.75</ele><time>2026-03-25T17:14:30.315Z</time></trkpt><trkpt lat="51.369845" lon="-0.1396283"><ele>37.5</ele><time>2026-03-25T17:14:31.316Z</time></trkpt><trkpt lat="51.3698367" lon="-0.13945"><ele>38.25</ele><time>2026-03-25T17:14:32.314Z</time></trkpt><trkpt lat="51.3698267" lon="-0.13926"><ele>39.0</ele><time>2026-03-25T17:14:33.313Z</time></trkpt><trkpt lat="51.3698133" lon="-0.1390667"><ele>39.75</ele><time>2026-03-25T17:14:34.314Z</time></trkpt><trkpt lat="51.3697883" lon="-0.1388717"><ele>40.5</ele><time>2026-03-25T17:14:35.314Z</time></trkpt><trkpt lat="51.369765" lon="-0.138655"><ele>41.25</ele><time>2026-03-25T17:14:36.315Z</time></trkpt><trkpt lat="51.3697433" lon="-0.1384267"><ele>42.0</ele><time>2026-03-25T17:14:37.313Z</time></trkpt><trkpt lat="51.369725" lon="-0.1381983"><ele>42.75</ele><time>2026-03-25T17:14:38.314Z</time></trkpt><trkpt lat="51.3696983" lon="-0.1379783"><ele>43.5</ele><time>2026-03-25T17:14:39.314Z</time></trkpt><trkpt lat="51.369675" lon="-0.1377733"><ele>44.25</ele><time>2026-03-25T17:14:40.315Z</time></trkpt><trkpt lat="51.3696283" lon="-0.13759"><ele>45.0</ele><time>2026-03-25T17:14:41.314Z</time></trkpt><trkpt lat="51.36958" lon="-0.1374117"><ele>46.5</ele><time>2026-03-25T17:14:42.314Z</time></trkpt><trkpt lat="51.3695267" lon="-0.1372267"><ele>48.0</ele><time>2026-03-25T17:14:43.314Z</time></trkpt><trkpt lat="51.3694767" lon="-0.1370367"><ele>49.5</ele><time>2026-03-25T17:14:44.314Z</time></trkpt><trkpt lat="51.369425" lon="-0.13685"><ele>51.0</ele><time>2026-03-25T17:14:45.314Z</time></trkpt><trkpt lat="51.3693733" lon="-0.1366667"><ele>50.8</ele><time>2026-03-25T17:14:46.314Z</time></trkpt><trkpt lat="51.3693417" lon="-0.13648"><ele>50.599999999999994</ele><time>2026-03-25T17:14:47.315Z</time></trkpt><trkpt lat="51.36931" lon="-0.1363083"><ele>50.4</ele><time>2026-03-25T17:14:48.313Z</time></trkpt><trkpt lat="51.3692883" lon="-0.136145"><ele>50.2</ele><time>2026-03-25T17:14:49.314Z</time></trkpt><trkpt lat="51.3692683" lon="-0.1359933"><ele>50.0</ele><time>2026-03-25T17:14:50.313Z</time></trkpt><trkpt lat="51.3692517" lon="-0.1358517"><ele>49.714285714285715</ele><time>2026-03-25T17:14:51.314Z</time></trkpt><trkpt lat="51.369235" lon="-0.1357167"><ele>49.42857142857143</ele><time>2026-03-25T17:14:52.314Z</time></trkpt><trkpt lat="51.36922" lon="-0.1355933"><ele>49.14285714285714</ele><time>2026-03-25T17:14:53.313Z</time></trkpt><trkpt lat="51.36921" lon="-0.1354733"><ele>48.85714285714286</ele><time>2026-03-25T17:14:54.314Z</time></trkpt><trkpt lat="51.3691967" lon="-0.1353583"><ele>48.57142857142857</ele><time>2026-03-25T17:14:55.314Z</time></trkpt><trkpt lat="51.3691883" lon="-0.1352483"><ele>48.285714285714285</ele><time>2026-03-25T17:14:56.313Z</time></trkpt><trkpt lat="51.3691783" lon="-0.1351467"><ele>48.0</ele><time>2026-03-25T17:14:57.314Z</time></trkpt><trkpt lat="51.3691683" lon="-0.1350417"><ele>47.99999999999999</ele><time>2026-03-25T17:14:58.314Z</time></trkpt><trkpt lat="51.3691567" lon="-0.134935"><ele>48.0</ele><time>2026-03-25T17:14:59.314Z</time></trkpt><trkpt lat="51.3691467" lon="-0.134825"><ele>48.0</ele><time>2026-03-25T17:15:00.314Z</time></trkpt><trkpt lat="51.3691383" lon="-0.134715"><ele>48.0</ele><time>2026-03-25T17:15:01.314Z</time></trkpt><trkpt lat="51.3691283" lon="-0.1346067"><ele>48.0</ele><time>2026-03-25T17:15:02.314Z</time></trkpt><trkpt lat="51.3691183" lon="-0.1345017"><ele>47.99999999999999</ele><time>2026-03-25T17:15:03.315Z</time></trkpt><trkpt lat="51.369105" lon="-0.1343917"><ele>48.0</ele><time>2026-03-25T17:15:04.313Z</time></trkpt><trkpt lat="51.3690817" lon="-0.1342683"><ele>47.5</ele><time>2026-03-25T17:15:05.314Z</time></trkpt><trkpt lat="51.3690567" lon="-0.1341417"><ele>47.0</ele><time>2026-03-25T17:15:06.317Z</time></trkpt><trkpt lat="51.3690317" lon="-0.1340217"><ele>46.5</ele><time>2026-03-25T17:15:07.314Z</time></trkpt><trkpt lat="51.3690167" lon="-0.1339117"><ele>46.0</ele><time>2026-03-25T17:15:08.314Z</time></trkpt><trkpt lat="51.36901" lon="-0.13381"><ele>45.5</ele><time>2026-03-25T17:15:09.314Z</time></trkpt><trkpt lat="51.36905" lon="-0.1336467"><ele>45.0</ele><time>2026-03-25T17:15:11.314Z</time></trkpt><trkpt lat="51.3691583" lon="-0.1335167"><ele>44.8</ele><time>2026-03-25T17:15:13.314Z</time></trkpt><trkpt lat="51.369235" lon="-0.1334583"><ele>44.6</ele><time>2026-03-25T17:15:14.314Z</time></trkpt><trkpt lat="51.3693167" lon="-0.13341"><ele>44.400000000000006</ele><time>2026-03-25T17:15:15.313Z</time></trkpt><trkpt lat="51.3694083" lon="-0.1333667"><ele>44.2</ele><time>2026-03-25T17:15:16.314Z</time></trkpt><trkpt lat="51.3695033" lon="-0.133325"><ele>44.0</ele><time>2026-03-25T17:15:17.313Z</time></trkpt><trkpt lat="51.3696067" lon="-0.1332733"><ele>43.6</ele><time>2026-03-25T17:15:18.313Z</time></trkpt><trkpt lat="51.3697117" lon="-0.1332183"><ele>43.2</ele><time>2026-03-25T17:15:19.314Z</time></trkpt><trkpt lat="51.3698117" lon="-0.1331617"><ele>42.800000000000004</ele><time>2026-03-25T17:15:20.313Z</time></trkpt><trkpt lat="51.3699117" lon="-0.1331033"><ele>42.400000000000006</ele><time>2026-03-25T17:15:21.313Z</time></trkpt><trkpt lat="51.3700083" lon="-0.1330433"><ele>42.0</ele><time>2026-03-25T17:15:22.313Z</time></trkpt><trkpt lat="51.3701083" lon="-0.132985"><ele>42.0</ele><time>2026-03-25T17:15:23.313Z</time></trkpt><trkpt lat="51.3702083" lon="-0.1329167"><ele>42.0</ele><time>2026-03-25T17:15:24.313Z</time></trkpt><trkpt lat="51.3703033" lon="-0.13284"><ele>42.0</ele><time>2026-03-25T17:15:25.313Z</time></trkpt><trkpt lat="51.3703983" lon="-0.1327617"><ele>42.0</ele><time>2026-03-25T17:15:26.314Z</time></trkpt><trkpt lat="51.3704883" lon="-0.1326767"><ele>42.0</ele><time>2026-03-25T17:15:27.314Z</time></trkpt><trkpt lat="51.3705733" lon="-0.1325883"><ele>41.2</ele><time>2026-03-25T17:15:28.313Z</time></trkpt><trkpt lat="51.370655" lon="-0.13249"><ele>40.400000000000006</ele><time>2026-03-25T17:15:29.314Z</time></trkpt><trkpt lat="51.3707333" lon="-0.1323917"><ele>39.599999999999994</ele><time>2026-03-25T17:15:30.314Z</time></trkpt><trkpt lat="51.3708117" lon="-0.1322983"><ele>38.8</ele><time>2026-03-25T17:15:31.314Z</time></trkpt><trkpt lat="51.37088" lon="-0.1322167"><ele>38.0</ele><time>2026-03-25T17:15:32.313Z</time></trkpt><trkpt lat="51.37094" lon="-0.1321517"><ele>37.714285714285715</ele><time>2026-03-25T17:15:33.313Z</time></trkpt><trkpt lat="51.3709917" lon="-0.1320867"><ele>37.42857142857143</ele><time>2026-03-25T17:15:34.314Z</time></trkpt><trkpt lat="51.3710417" lon="-0.1320217"><ele>37.142857142857146</ele><time>2026-03-25T17:15:35.314Z</time></trkpt><trkpt lat="51.3710983" lon="-0.13195"><ele>36.85714285714286</ele><time>2026-03-25T17:15:36.313Z</time></trkpt><trkpt lat="51.3711583" lon="-0.131885"><ele>36.57142857142857</ele><time>2026-03-25T17:15:37.313Z</time></trkpt><trkpt lat="51.3712167" lon="-0.1318283"><ele>36.28571428571429</ele><time>2026-03-25T17:15:38.314Z</time></trkpt><trkpt lat="51.37128" lon="-0.131785"><ele>36.0</ele><time>2026-03-25T17:15:39.314Z</time></trkpt><trkpt lat="51.371345" lon="-0.1317533"><ele>36.00000000000001</ele><time>2026-03-25T17:15:40.314Z</time></trkpt><trkpt lat="51.3714167" lon="-0.13171"><ele>36.0</ele><time>2026-03-25T17:15:41.314Z</time></trkpt><trkpt lat="51.3714883" lon="-0.1316733"><ele>36.0</ele><time>2026-03-25T17:15:42.317Z</time></trkpt><trkpt lat="51.3715567" lon="-0.1316467"><ele>36.0</ele><time>2026-03-25T17:15:43.313Z</time></trkpt><trkpt lat="51.3716267" lon="-0.1316217"><ele>36.0</ele><time>2026-03-25T17:15:44.315Z</time></trkpt><trkpt lat="51.371695" lon="-0.1315967"><ele>36.00000000000001</ele><time>2026-03-25T17:15:45.313Z</time></trkpt><trkpt lat="51.3717667" lon="-0.13157"><ele>36.0</ele><time>2026-03-25T17:15:46.313Z</time></trkpt><trkpt lat="51.37184" lon="-0.1315433"><ele>36.0</ele><time>2026-03-25T17:15:47.313Z</time></trkpt><trkpt lat="51.3719217" lon="-0.1315167"><ele>36.0</ele><time>2026-03-25T17:15:48.314Z</time></trkpt><trkpt lat="51.3720067" lon="-0.1315"><ele>36.0</ele><time>2026-03-25T17:15:49.314Z</time></trkpt><trkpt lat="51.372085" lon="-0.131485"><ele>36.0</ele><time>2026-03-25T17:15:50.314Z</time></trkpt><trkpt lat="51.3721583" lon="-0.1314783"><ele>36.0</ele><time>2026-03-25T17:15:51.314Z</time></trkpt><trkpt lat="51.3722317" lon="-0.131475"><ele>36.0</ele><time>2026-03-25T17:15:52.313Z</time></trkpt><trkpt lat="51.3723033" lon="-0.1314783"><ele>35.833333333333336</ele><time>2026-03-25T17:15:53.314Z</time></trkpt><trkpt lat="51.3723767" lon="-0.1314833"><ele>35.666666666666664</ele><time>2026-03-25T17:15:54.313Z</time></trkpt><trkpt lat="51.3724417" lon="-0.1314917"><ele>35.5</ele><time>2026-03-25T17:15:55.314Z</time></trkpt><trkpt lat="51.3725117" lon="-0.131505"><ele>35.33333333333333</ele><time>2026-03-25T17:15:56.314Z</time></trkpt><trkpt lat="51.3725767" lon="-0.1315233"><ele>35.166666666666664</ele><time>2026-03-25T17:15:57.314Z</time></trkpt><trkpt lat="51.372695" lon="-0.13156"><ele>35.0</ele><time>2026-03-25T17:15:59.315Z</time></trkpt><trkpt lat="51.3728083" lon="-0.1315883"><ele>34.83333333333333</ele><time>2026-03-25T17:16:01.314Z</time></trkpt><trkpt lat="51.37288" lon="-0.1316033"><ele>34.666666666666664</ele><time>2026-03-25T17:16:02.313Z</time></trkpt><trkpt lat="51.3729567" lon="-0.131625"><ele>34.5</ele><time>2026-03-25T17:16:03.313Z</time></trkpt><trkpt lat="51.3730433" lon="-0.1316433"><ele>34.333333333333336</ele><time>2026-03-25T17:16:04.313Z</time></trkpt><trkpt lat="51.373135" lon="-0.1316567"><ele>34.16666666666667</ele><time>2026-03-25T17:16:05.313Z</time></trkpt><trkpt lat="51.3732317" lon="-0.131675"><ele>34.0</ele><time>2026-03-25T17:16:06.315Z</time></trkpt><trkpt lat="51.3733367" lon="-0.131685"><ele>34.0</ele><time>2026-03-25T17:16:07.314Z</time></trkpt><trkpt lat="51.3734467" lon="-0.13169"><ele>34.0</ele><time>2026-03-25T17:16:08.314Z</time></trkpt><trkpt lat="51.3735583" lon="-0.131695"><ele>34.0</ele><time>2026-03-25T17:16:09.313Z</time></trkpt><trkpt lat="51.3736717" lon="-0.1317"><ele>34.0</ele><time>2026-03-25T17:16:10.313Z</time></trkpt><trkpt lat="51.373785" lon="-0.131705"><ele>34.0</ele><time>2026-03-25T17:16:11.313Z</time></trkpt><trkpt lat="51.3739017" lon="-0.1317133"><ele>34.5</ele><time>2026-03-25T17:16:12.313Z</time></trkpt><trkpt lat="51.374015" lon="-0.1317267"><ele>35.0</ele><time>2026-03-25T17:16:13.314Z</time></trkpt><trkpt lat="51.3741367" lon="-0.1317417"><ele>35.5</ele><time>2026-03-25T17:16:14.315Z</time></trkpt><trkpt lat="51.3742617" lon="-0.1317533"><ele>36.0</ele><time>2026-03-25T17:16:15.314Z</time></trkpt><trkpt lat="51.3743817" lon="-0.131755"><ele>36.0</ele><time>2026-03-25T17:16:16.315Z</time></trkpt><trkpt lat="51.3745017" lon="-0.1317533"><ele>36.0</ele><time>2026-03-25T17:16:17.313Z</time></trkpt><trkpt lat="51.374625" lon="-0.1317483"><ele>36.0</ele><time>2026-03-25T17:16:18.313Z</time></trkpt><trkpt lat="51.3747517" lon="-0.1317417"><ele>36.0</ele><time>2026-03-25T17:16:19.314Z</time></trkpt><trkpt lat="51.3748817" lon="-0.1317283"><ele>35.5</ele><time>2026-03-25T17:16:20.314Z</time></trkpt><trkpt lat="51.3750117" lon="-0.13171"><ele>35.0</ele><time>2026-03-25T17:16:21.315Z</time></trkpt><trkpt lat="51.3751433" lon="-0.1317017"><ele>34.5</ele><time>2026-03-25T17:16:22.314Z</time></trkpt><trkpt lat="51.37528" lon="-0.1317"><ele>34.0</ele><time>2026-03-25T17:16:23.314Z</time></trkpt><trkpt lat="51.3754217" lon="-0.1316967"><ele>34.0</ele><time>2026-03-25T17:16:24.314Z</time></trkpt><trkpt lat="51.37556" lon="-0.1316933"><ele>34.0</ele><time>2026-03-25T17:16:25.313Z</time></trkpt><trkpt lat="51.3756917" lon="-0.1316933"><ele>34.0</ele><time>2026-03-25T17:16:26.314Z</time></trkpt><trkpt lat="51.3758183" lon="-0.1316933"><ele>34.0</ele><time>2026-03-25T17:16:27.314Z</time></trkpt><trkpt lat="51.375945" lon="-0.1316933"><ele>34.0</ele><time>2026-03-25T17:16:28.314Z</time></trkpt><trkpt lat="51.3760667" lon="-0.1316933"><ele>34.0</ele><time>2026-03-25T17:16:29.314Z</time></trkpt><trkpt lat="51.3761783" lon="-0.13169"><ele>34.0</ele><time>2026-03-25T17:16:30.313Z</time></trkpt><trkpt lat="51.37629" lon="-0.1316817"><ele>34.0</ele><time>2026-03-25T17:16:31.314Z</time></trkpt><trkpt lat="51.3764033" lon="-0.131685"><ele>33.8</ele><time>2026-03-25T17:16:32.313Z</time></trkpt><trkpt lat="51.3765133" lon="-0.1316767"><ele>33.599999999999994</ele><time>2026-03-25T17:16:33.314Z</time></trkpt><trkpt lat="51.3766217" lon="-0.13168"><ele>33.4</ele><time>2026-03-25T17:16:34.313Z</time></trkpt><trkpt lat="51.376725" lon="-0.1316933"><ele>33.199999999999996</ele><time>2026-03-25T17:16:35.313Z</time></trkpt><trkpt lat="51.3768217" lon="-0.1316983"><ele>33.0</ele><time>2026-03-25T17:16:36.315Z</time></trkpt><trkpt lat="51.3769133" lon="-0.1317"><ele>33.0</ele><time>2026-03-25T17:16:37.314Z</time></trkpt><trkpt lat="51.377005" lon="-0.1317"><ele>33.0</ele><time>2026-03-25T17:16:38.313Z</time></trkpt><trkpt lat="51.3771" lon="-0.1317"><ele>33.0</ele><time>2026-03-25T17:16:39.313Z</time></trkpt><trkpt lat="51.3771983" lon="-0.1317083"><ele>33.0</ele><time>2026-03-25T17:16:40.314Z</time></trkpt><trkpt lat="51.3772967" lon="-0.131725"><ele>33.0</ele><time>2026-03-25T17:16:41.313Z</time></trkpt><trkpt lat="51.377395" lon="-0.1317433"><ele>33.4</ele><time>2026-03-25T17:16:42.314Z</time></trkpt><trkpt lat="51.3774917" lon="-0.1317567"><ele>33.8</ele><time>2026-03-25T17:16:43.314Z</time></trkpt><trkpt lat="51.3775883" lon="-0.13177"><ele>34.2</ele><time>2026-03-25T17:16:44.314Z</time></trkpt><trkpt lat="51.3776817" lon="-0.1317883"><ele>34.6</ele><time>2026-03-25T17:16:45.313Z</time></trkpt><trkpt lat="51.3777783" lon="-0.1318083"><ele>35.0</ele><time>2026-03-25T17:16:46.313Z</time></trkpt><trkpt lat="51.3778733" lon="-0.1318333"><ele>35.0</ele><time>2026-03-25T17:16:47.313Z</time></trkpt><trkpt lat="51.37797" lon="-0.1318633"><ele>35.0</ele><time>2026-03-25T17:16:48.314Z</time></trkpt><trkpt lat="51.378065" lon="-0.1318917"><ele>35.0</ele><time>2026-03-25T17:16:49.314Z</time></trkpt><trkpt lat="51.37816" lon="-0.1319233"><ele>35.0</ele><time>2026-03-25T17:16:50.314Z</time></trkpt><trkpt lat="51.3782533" lon="-0.1319667"><ele>35.0</ele><time>2026-03-25T17:16:51.314Z</time></trkpt><trkpt lat="51.3783483" lon="-0.1320167"><ele>35.0</ele><time>2026-03-25T17:16:52.314Z</time></trkpt><trkpt lat="51.3784367" lon="-0.1320767"><ele>35.0</ele><time>2026-03-25T17:16:53.314Z</time></trkpt><trkpt lat="51.378525" lon="-0.132135"><ele>35.0</ele><time>2026-03-25T17:16:54.313Z</time></trkpt><trkpt lat="51.378615" lon="-0.13219"><ele>35.0</ele><time>2026-03-25T17:16:55.314Z</time></trkpt><trkpt lat="51.378705" lon="-0.1322433"><ele>35.0</ele><time>2026-03-25T17:16:56.313Z</time></trkpt><trkpt lat="51.3788" lon="-0.1322917"><ele>35.0</ele><time>2026-03-25T17:16:57.313Z</time></trkpt><trkpt lat="51.3788917" lon="-0.1323367"><ele>35.0</ele><time>2026-03-25T17:16:58.313Z</time></trkpt><trkpt lat="51.3789867" lon="-0.13238"><ele>35.0</ele><time>2026-03-25T17:16:59.314Z</time></trkpt><trkpt lat="51.3790833" lon="-0.1324183"><ele>35.0</ele><time>2026-03-25T17:17:00.314Z</time></trkpt><trkpt lat="51.37918" lon="-0.132455"><ele>35.0</ele><time>2026-03-25T17:17:01.313Z</time></trkpt><trkpt lat="51.3792733" lon="-0.13249"><ele>35.0</ele><time>2026-03-25T17:17:02.315Z</time></trkpt><trkpt lat="51.3793667" lon="-0.1325183"><ele>35.0</ele><time>2026-03-25T17:17:03.315Z</time></trkpt><trkpt lat="51.379465" lon="-0.1325417"><ele>35.0</ele><time>2026-03-25T17:17:04.318Z</time></trkpt><trkpt lat="51.3795583" lon="-0.1325633"><ele>35.0</ele><time>2026-03-25T17:17:05.314Z</time></trkpt><trkpt lat="51.3796517" lon="-0.1325817"><ele>35.0</ele><time>2026-03-25T17:17:06.315Z</time></trkpt><trkpt lat="51.3797433" lon="-0.1326067"><ele>35.2</ele><time>2026-03-25T17:17:07.314Z</time></trkpt><trkpt lat="51.37983" lon="-0.1326483"><ele>35.4</ele><time>2026-03-25T17:17:08.314Z</time></trkpt><trkpt lat="51.3799167" lon="-0.132695"><ele>35.6</ele><time>2026-03-25T17:17:09.314Z</time></trkpt><trkpt lat="51.3799983" lon="-0.1327517"><ele>35.8</ele><time>2026-03-25T17:17:10.317Z</time></trkpt><trkpt lat="51.3800817" lon="-0.1328183"><ele>36.0</ele><time>2026-03-25T17:17:11.32Z</time></trkpt><trkpt lat="51.3801633" lon="-0.1328917"><ele>36.0</ele><time>2026-03-25T17:17:12.314Z</time></trkpt><trkpt lat="51.3802433" lon="-0.1329733"><ele>36.0</ele><time>2026-03-25T17:17:13.314Z</time></trkpt><trkpt lat="51.3803233" lon="-0.1330583"><ele>36.0</ele><time>2026-03-25T17:17:14.314Z</time></trkpt><trkpt lat="51.3804017" lon="-0.13314"><ele>36.0</ele><time>2026-03-25T17:17:15.313Z</time></trkpt><trkpt lat="51.38048" lon="-0.1332217"><ele>36.0</ele><time>2026-03-25T17:17:16.313Z</time></trkpt><trkpt lat="51.3805633" lon="-0.1333033"><ele>36.0</ele><time>2026-03-25T17:17:17.314Z</time></trkpt><trkpt lat="51.3806433" lon="-0.1333867"><ele>36.0</ele><time>2026-03-25T17:17:18.313Z</time></trkpt><trkpt lat="51.3807183" lon="-0.13347"><ele>36.0</ele><time>2026-03-25T17:17:19.315Z</time></trkpt><trkpt lat="51.380785" lon="-0.13355"><ele>36.0</ele><time>2026-03-25T17:17:20.315Z</time></trkpt><trkpt lat="51.380845" lon="-0.1336283"><ele>36.0</ele><time>2026-03-25T17:17:21.314Z</time></trkpt><trkpt lat="51.3809" lon="-0.1337"><ele>36.0</ele><time>2026-03-25T17:17:22.313Z</time></trkpt><trkpt lat="51.38095" lon="-0.1337783"><ele>36.0</ele><time>2026-03-25T17:17:23.314Z</time></trkpt><trkpt lat="51.3809933" lon="-0.1338633"><ele>36.0</ele><time>2026-03-25T17:17:24.314Z</time></trkpt><trkpt lat="51.38104" lon="-0.1339617"><ele>36.0</ele><time>2026-03-25T17:17:25.315Z</time></trkpt><trkpt lat="51.38108" lon="-0.1340783"><ele>36.0</ele><time>2026-03-25T17:17:26.314Z</time></trkpt><trkpt lat="51.3811233" lon="-0.1342033"><ele>36.0</ele><time>2026-03-25T17:17:27.313Z</time></trkpt><trkpt lat="51.3811717" lon="-0.1343367"><ele>36.0</ele><time>2026-03-25T17:17:28.314Z</time></trkpt><trkpt lat="51.3812217" lon="-0.1344767"><ele>35.8</ele><time>2026-03-25T17:17:29.314Z</time></trkpt><trkpt lat="51.3812733" lon="-0.134605"><ele>35.6</ele><time>2026-03-25T17:17:30.314Z</time></trkpt><trkpt lat="51.3813283" lon="-0.1347333"><ele>35.4</ele><time>2026-03-25T17:17:31.313Z</time></trkpt><trkpt lat="51.3813817" lon="-0.13486"><ele>35.2</ele><time>2026-03-25T17:17:32.319Z</time></trkpt><trkpt lat="51.38144" lon="-0.1349867"><ele>35.0</ele><time>2026-03-25T17:17:33.313Z</time></trkpt><trkpt lat="51.381505" lon="-0.1351067"><ele>35.0</ele><time>2026-03-25T17:17:34.313Z</time></trkpt><trkpt lat="51.3815683" lon="-0.1352333"><ele>35.0</ele><time>2026-03-25T17:17:35.313Z</time></trkpt><trkpt lat="51.3816417" lon="-0.1353567"><ele>35.0</ele><time>2026-03-25T17:17:36.314Z</time></trkpt><trkpt lat="51.3817183" lon="-0.13548"><ele>35.0</ele><time>2026-03-25T17:17:37.314Z</time></trkpt><trkpt lat="51.3818" lon="-0.1356067"><ele>35.0</ele><time>2026-03-25T17:17:38.314Z</time></trkpt><trkpt lat="51.3818833" lon="-0.1357333"><ele>34.8</ele><time>2026-03-25T17:17:39.314Z</time></trkpt><trkpt lat="51.381965" lon="-0.135855"><ele>34.6</ele><time>2026-03-25T17:17:40.314Z</time></trkpt><trkpt lat="51.38205" lon="-0.135975"><ele>34.4</ele><time>2026-03-25T17:17:41.314Z</time></trkpt><trkpt lat="51.3821367" lon="-0.136095"><ele>34.2</ele><time>2026-03-25T17:17:42.313Z</time></trkpt><trkpt lat="51.382215" lon="-0.1362183"><ele>34.0</ele><time>2026-03-25T17:17:43.314Z</time></trkpt><trkpt lat="51.3822917" lon="-0.13634"><ele>33.6</ele><time>2026-03-25T17:17:44.313Z</time></trkpt><trkpt lat="51.382365" lon="-0.1364583"><ele>33.2</ele><time>2026-03-25T17:17:45.313Z</time></trkpt><trkpt lat="51.3824383" lon="-0.1365717"><ele>32.800000000000004</ele><time>2026-03-25T17:17:46.314Z</time></trkpt><trkpt lat="51.382515" lon="-0.1366867"><ele>32.4</ele><time>2026-03-25T17:17:47.314Z</time></trkpt><trkpt lat="51.3825967" lon="-0.136805"><ele>32.0</ele><time>2026-03-25T17:17:48.313Z</time></trkpt><trkpt lat="51.382685" lon="-0.1369317"><ele>31.75</ele><time>2026-03-25T17:17:49.314Z</time></trkpt><trkpt lat="51.382785" lon="-0.13706"><ele>31.5</ele><time>2026-03-25T17:17:50.314Z</time></trkpt><trkpt lat="51.3828767" lon="-0.1371833"><ele>31.25</ele><time>2026-03-25T17:17:51.314Z</time></trkpt><trkpt lat="51.3829783" lon="-0.13729"><ele>31.0</ele><time>2026-03-25T17:17:52.313Z</time></trkpt><trkpt lat="51.3830783" lon="-0.137395"><ele>31.75</ele><time>2026-03-25T17:17:53.314Z</time></trkpt><trkpt lat="51.3831767" lon="-0.1374917"><ele>32.5</ele><time>2026-03-25T17:17:54.314Z</time></trkpt><trkpt lat="51.3832733" lon="-0.1375833"><ele>33.25</ele><time>2026-03-25T17:17:55.314Z</time></trkpt><trkpt lat="51.3833683" lon="-0.13768"><ele>34.0</ele><time>2026-03-25T17:17:56.314Z</time></trkpt><trkpt lat="51.38347" lon="-0.1377733"><ele>34.0</ele><time>2026-03-25T17:17:57.314Z</time></trkpt><trkpt lat="51.383575" lon="-0.137855"><ele>34.0</ele><time>2026-03-25T17:17:58.313Z</time></trkpt><trkpt lat="51.3836817" lon="-0.1379383"><ele>34.0</ele><time>2026-03-25T17:17:59.315Z</time></trkpt><trkpt lat="51.3837933" lon="-0.1380183"><ele>34.0</ele><time>2026-03-25T17:18:00.314Z</time></trkpt><trkpt lat="51.3838967" lon="-0.1381017"><ele>34.0</ele><time>2026-03-25T17:18:01.314Z</time></trkpt><trkpt lat="51.3839983" lon="-0.138185"><ele>34.0</ele><time>2026-03-25T17:18:02.314Z</time></trkpt><trkpt lat="51.3841083" lon="-0.1382533"><ele>34.0</ele><time>2026-03-25T17:18:03.313Z</time></trkpt><trkpt lat="51.3842183" lon="-0.1383183"><ele>34.0</ele><time>2026-03-25T17:18:04.314Z</time></trkpt><trkpt lat="51.3843283" lon="-0.13839"><ele>33.75</ele><time>2026-03-25T17:18:05.313Z</time></trkpt><trkpt lat="51.38444" lon="-0.1384667"><ele>33.5</ele><time>2026-03-25T17:18:06.313Z</time></trkpt><trkpt lat="51.3845483" lon="-0.1385483"><ele>33.25</ele><time>2026-03-25T17:18:07.314Z</time></trkpt><trkpt lat="51.38466" lon="-0.1386333"><ele>33.0</ele><time>2026-03-25T17:18:08.314Z</time></trkpt><trkpt lat="51.3847667" lon="-0.13872"><ele>32.8</ele><time>2026-03-25T17:18:09.313Z</time></trkpt><trkpt lat="51.384865" lon="-0.1388033"><ele>32.599999999999994</ele><time>2026-03-25T17:18:10.313Z</time></trkpt><trkpt lat="51.384965" lon="-0.1388917"><ele>32.400000000000006</ele><time>2026-03-25T17:18:11.313Z</time></trkpt><trkpt lat="51.3850617" lon="-0.13897"><ele>32.2</ele><time>2026-03-25T17:18:12.313Z</time></trkpt><trkpt lat="51.38515" lon="-0.1390417"><ele>32.0</ele><time>2026-03-25T17:18:13.313Z</time></trkpt><trkpt lat="51.3852383" lon="-0.13911"><ele>31.999999999999996</ele><time>2026-03-25T17:18:14.314Z</time></trkpt><trkpt lat="51.3853233" lon="-0.139175"><ele>32.0</ele><time>2026-03-25T17:18:15.314Z</time></trkpt><trkpt lat="51.3854017" lon="-0.1392417"><ele>32.0</ele><time>2026-03-25T17:18:16.313Z</time></trkpt><trkpt lat="51.385485" lon="-0.1393033"><ele>32.0</ele><time>2026-03-25T17:18:17.314Z</time></trkpt><trkpt lat="51.3855617" lon="-0.1393633"><ele>31.999999999999996</ele><time>2026-03-25T17:18:18.314Z</time></trkpt><trkpt lat="51.385635" lon="-0.1394083"><ele>32.0</ele><time>2026-03-25T17:18:19.313Z</time></trkpt><trkpt lat="51.3857017" lon="-0.1394467"><ele>32.0</ele><time>2026-03-25T17:18:20.314Z</time></trkpt><trkpt lat="51.3857633" lon="-0.139495"><ele>32.0</ele><time>2026-03-25T17:18:21.314Z</time></trkpt><trkpt lat="51.385865" lon="-0.1396117"><ele>32.0</ele><time>2026-03-25T17:18:23.313Z</time></trkpt><trkpt lat="51.3859417" lon="-0.13974"><ele>32.0</ele><time>2026-03-25T17:18:25.314Z</time></trkpt><trkpt lat="51.38598" lon="-0.1398467"><ele>32.0</ele><time>2026-03-25T17:18:27.313Z</time></trkpt><trkpt lat="51.38602" lon="-0.1399883"><ele>31.999999999999996</ele><time>2026-03-25T17:18:29.313Z</time></trkpt><trkpt lat="51.38609" lon="-0.140125"><ele>32.0</ele><time>2026-03-25T17:18:31.313Z</time></trkpt><trkpt lat="51.386185" lon="-0.1401767"><ele>32.0</ele><time>2026-03-25T17:18:33.313Z</time></trkpt><trkpt lat="51.38625" lon="-0.1401717"><ele>32.0</ele><time>2026-03-25T17:18:34.313Z</time></trkpt><trkpt lat="51.386315" lon="-0.1401583"><ele>31.999999999999996</ele><time>2026-03-25T17:18:35.313Z</time></trkpt><trkpt lat="51.3863783" lon="-0.14014"><ele>32.0</ele><time>2026-03-25T17:18:36.314Z</time></trkpt><trkpt lat="51.3864433" lon="-0.1401317"><ele>32.166666666666664</ele><time>2026-03-25T17:18:37.314Z</time></trkpt><trkpt lat="51.38651" lon="-0.1401283"><ele>32.33333333333333</ele><time>2026-03-25T17:18:38.313Z</time></trkpt><trkpt lat="51.3865817" lon="-0.1401467"><ele>32.5</ele><time>2026-03-25T17:18:39.314Z</time></trkpt><trkpt lat="51.386655" lon="-0.1401817"><ele>32.666666666666664</ele><time>2026-03-25T17:18:40.314Z</time></trkpt><trkpt lat="51.3867367" lon="-0.1402333"><ele>32.833333333333336</ele><time>2026-03-25T17:18:41.313Z</time></trkpt><trkpt lat="51.3868217" lon="-0.1402867"><ele>33.0</ele><time>2026-03-25T17:18:42.313Z</time></trkpt><trkpt lat="51.3869133" lon="-0.1403433"><ele>33.0</ele><time>2026-03-25T17:18:43.317Z</time></trkpt><trkpt lat="51.38701" lon="-0.1404017"><ele>33.0</ele><time>2026-03-25T17:18:44.313Z</time></trkpt><trkpt lat="51.3871183" lon="-0.1404633"><ele>33.0</ele><time>2026-03-25T17:18:45.317Z</time></trkpt><trkpt lat="51.3872433" lon="-0.1405317"><ele>33.0</ele><time>2026-03-25T17:18:46.313Z</time></trkpt><trkpt lat="51.3873833" lon="-0.140615"><ele>32.333333333333336</ele><time>2026-03-25T17:18:47.316Z</time></trkpt><trkpt lat="51.387545" lon="-0.1407033"><ele>31.666666666666668</ele><time>2026-03-25T17:18:48.317Z</time></trkpt><trkpt lat="51.387705" lon="-0.1408"><ele>31.0</ele><time>2026-03-25T17:18:49.313Z</time></trkpt><trkpt lat="51.3878517" lon="-0.1408933"><ele>30.75</ele><time>2026-03-25T17:18:50.314Z</time></trkpt><trkpt lat="51.387985" lon="-0.140975"><ele>30.5</ele><time>2026-03-25T17:18:51.314Z</time></trkpt><trkpt lat="51.3881067" lon="-0.1410467"><ele>30.25</ele><time>2026-03-25T17:18:52.313Z</time></trkpt><trkpt lat="51.3882167" lon="-0.1411133"><ele>30.0</ele><time>2026-03-25T17:18:53.313Z</time></trkpt><trkpt lat="51.3883183" lon="-0.1411733"><ele>30.0</ele><time>2026-03-25T17:18:54.314Z</time></trkpt><trkpt lat="51.3884083" lon="-0.1412283"><ele>30.0</ele><time>2026-03-25T17:18:55.314Z</time></trkpt><trkpt lat="51.3884933" lon="-0.1412783"><ele>30.0</ele><time>2026-03-25T17:18:56.314Z</time></trkpt><trkpt lat="51.3885717" lon="-0.1413267"><ele>30.0</ele><time>2026-03-25T17:18:57.314Z</time></trkpt><trkpt lat="51.38865" lon="-0.1413717"><ele>30.0</ele><time>2026-03-25T17:18:58.314Z</time></trkpt><trkpt lat="51.3887267" lon="-0.1414217"><ele>30.0</ele><time>2026-03-25T17:18:59.313Z</time></trkpt><trkpt lat="51.3888033" lon="-0.1414683"><ele>30.166666666666668</ele><time>2026-03-25T17:19:00.313Z</time></trkpt><trkpt lat="51.3888783" lon="-0.1415167"><ele>30.333333333333336</ele><time>2026-03-25T17:19:01.315Z</time></trkpt><trkpt lat="51.3889533" lon="-0.1415617"><ele>30.5</ele><time>2026-03-25T17:19:02.314Z</time></trkpt><trkpt lat="51.38903" lon="-0.14161"><ele>30.666666666666668</ele><time>2026-03-25T17:19:03.313Z</time></trkpt><trkpt lat="51.3891067" lon="-0.1416583"><ele>30.833333333333336</ele><time>2026-03-25T17:19:04.314Z</time></trkpt><trkpt lat="51.3891817" lon="-0.1417067"><ele>31.0</ele><time>2026-03-25T17:19:05.313Z</time></trkpt><trkpt lat="51.3892567" lon="-0.1417533"><ele>31.166666666666668</ele><time>2026-03-25T17:19:06.313Z</time></trkpt><trkpt lat="51.3893317" lon="-0.1417967"><ele>31.333333333333336</ele><time>2026-03-25T17:19:07.313Z</time></trkpt><trkpt lat="51.3894117" lon="-0.1418433"><ele>31.5</ele><time>2026-03-25T17:19:08.316Z</time></trkpt><trkpt lat="51.3894933" lon="-0.1418967"><ele>31.666666666666664</ele><time>2026-03-25T17:19:09.313Z</time></trkpt><trkpt lat="51.3895767" lon="-0.1419533"><ele>31.833333333333332</ele><time>2026-03-25T17:19:10.314Z</time></trkpt><trkpt lat="51.3896533" lon="-0.1420233"><ele>32.0</ele><time>2026-03-25T17:19:11.313Z</time></trkpt><trkpt lat="51.3897317" lon="-0.1421033"><ele>32.0</ele><time>2026-03-25T17:19:12.313Z</time></trkpt><trkpt lat="51.3898133" lon="-0.1421917"><ele>32.0</ele><time>2026-03-25T17:19:13.314Z</time></trkpt><trkpt lat="51.3898833" lon="-0.1422867"><ele>32.0</ele><time>2026-03-25T17:19:14.317Z</time></trkpt><trkpt lat="51.3899617" lon="-0.1423817"><ele>32.0</ele><time>2026-03-25T17:19:15.314Z</time></trkpt><trkpt lat="51.3900367" lon="-0.1424817"><ele>32.0</ele><time>2026-03-25T17:19:16.314Z</time></trkpt><trkpt lat="51.3901083" lon="-0.1425817"><ele>32.2</ele><time>2026-03-25T17:19:17.319Z</time></trkpt><trkpt lat="51.3901817" lon="-0.1426817"><ele>32.400000000000006</ele><time>2026-03-25T17:19:18.314Z</time></trkpt><trkpt lat="51.3902583" lon="-0.142785"><ele>32.599999999999994</ele><time>2026-03-25T17:19:19.314Z</time></trkpt><trkpt lat="51.3903283" lon="-0.142885"><ele>32.8</ele><time>2026-03-25T17:19:20.313Z</time></trkpt><trkpt lat="51.3903967" lon="-0.1429783"><ele>33.0</ele><time>2026-03-25T17:19:21.313Z</time></trkpt><trkpt lat="51.3904567" lon="-0.1430583"><ele>32.8</ele><time>2026-03-25T17:19:22.313Z</time></trkpt><trkpt lat="51.3905083" lon="-0.1431317"><ele>32.599999999999994</ele><time>2026-03-25T17:19:23.313Z</time></trkpt><trkpt lat="51.3905983" lon="-0.1432617"><ele>32.400000000000006</ele><time>2026-03-25T17:19:25.313Z</time></trkpt><trkpt lat="51.3906917" lon="-0.1433767"><ele>32.2</ele><time>2026-03-25T17:19:27.313Z</time></trkpt><trkpt lat="51.39076" lon="-0.1434783"><ele>32.0</ele><time>2026-03-25T17:19:29.313Z</time></trkpt><trkpt lat="51.3908017" lon="-0.1435567"><ele>31.999999999999996</ele><time>2026-03-25T17:19:31.315Z</time></trkpt><trkpt lat="51.39086" lon="-0.1436567"><ele>32.0</ele><time>2026-03-25T17:19:33.315Z</time></trkpt><trkpt lat="51.3909417" lon="-0.1437667"><ele>32.0</ele><time>2026-03-25T17:19:35.315Z</time></trkpt><trkpt lat="51.3909933" lon="-0.143835"><ele>32.0</ele><time>2026-03-25T17:19:37.315Z</time></trkpt><trkpt lat="51.39105" lon="-0.1438933"><ele>31.999999999999996</ele><time>2026-03-25T17:19:39.314Z</time></trkpt><trkpt lat="51.391135" lon="-0.1439817"><ele>32.0</ele><time>2026-03-25T17:19:41.314Z</time></trkpt><trkpt lat="51.3912433" lon="-0.14409"><ele>31.999999999999996</ele><time>2026-03-25T17:19:43.315Z</time></trkpt><trkpt lat="51.3913083" lon="-0.1441433"><ele>32.0</ele><time>2026-03-25T17:19:44.315Z</time></trkpt><trkpt lat="51.39138" lon="-0.1441933"><ele>32.0</ele><time>2026-03-25T17:19:45.314Z</time></trkpt><trkpt lat="51.39146" lon="-0.1442317"><ele>32.0</ele><time>2026-03-25T17:19:46.315Z</time></trkpt><trkpt lat="51.391535" lon="-0.14428"><ele>31.999999999999996</ele><time>2026-03-25T17:19:47.315Z</time></trkpt><trkpt lat="51.391615" lon="-0.1443267"><ele>32.0</ele><time>2026-03-25T17:19:48.314Z</time></trkpt><trkpt lat="51.391695" lon="-0.144375"><ele>31.999999999999996</ele><time>2026-03-25T17:19:49.315Z</time></trkpt><trkpt lat="51.39177" lon="-0.144425"><ele>32.0</ele><time>2026-03-25T17:19:50.321Z</time></trkpt><trkpt lat="51.3918417" lon="-0.144475"><ele>32.0</ele><time>2026-03-25T17:19:51.317Z</time></trkpt><trkpt lat="51.39191" lon="-0.14453"><ele>32.0</ele><time>2026-03-25T17:19:52.314Z</time></trkpt><trkpt lat="51.391975" lon="-0.1445883"><ele>31.999999999999996</ele><time>2026-03-25T17:19:53.315Z</time></trkpt><trkpt lat="51.3920433" lon="-0.14464"><ele>32.0</ele><time>2026-03-25T17:19:54.314Z</time></trkpt><trkpt lat="51.3921117" lon="-0.14469"><ele>32.0</ele><time>2026-03-25T17:19:55.315Z</time></trkpt><trkpt lat="51.3921767" lon="-0.1447317"><ele>31.999999999999996</ele><time>2026-03-25T17:19:56.314Z</time></trkpt><trkpt lat="51.392245" lon="-0.1447817"><ele>32.0</ele><time>2026-03-25T17:19:57.315Z</time></trkpt><trkpt lat="51.3923117" lon="-0.1448317"><ele>32.0</ele><time>2026-03-25T17:19:58.315Z</time></trkpt><trkpt lat="51.39238" lon="-0.1448833"><ele>31.999999999999996</ele><time>2026-03-25T17:19:59.315Z</time></trkpt><trkpt lat="51.3924417" lon="-0.14493"><ele>32.0</ele><time>2026-03-25T17:20:00.314Z</time></trkpt><trkpt lat="51.3925033" lon="-0.1449717"><ele>32.0</ele><time>2026-03-25T17:20:01.314Z</time></trkpt><trkpt lat="51.3925683" lon="-0.1450133"><ele>31.999999999999996</ele><time>2026-03-25T17:20:02.315Z</time></trkpt><trkpt lat="51.3926283" lon="-0.1450583"><ele>32.0</ele><time>2026-03-25T17:20:03.314Z</time></trkpt><trkpt lat="51.3926967" lon="-0.1451"><ele>32.0</ele><time>2026-03-25T17:20:04.314Z</time></trkpt><trkpt lat="51.3927683" lon="-0.14514"><ele>32.0</ele><time>2026-03-25T17:20:05.315Z</time></trkpt><trkpt lat="51.3928417" lon="-0.145185"><ele>31.999999999999996</ele><time>2026-03-25T17:20:06.314Z</time></trkpt><trkpt lat="51.3929183" lon="-0.1452433"><ele>32.0</ele><time>2026-03-25T17:20:07.315Z</time></trkpt><trkpt lat="51.3929917" lon="-0.1453017"><ele>31.666666666666664</ele><time>2026-03-25T17:20:08.315Z</time></trkpt><trkpt lat="51.3930683" lon="-0.145355"><ele>31.333333333333332</ele><time>2026-03-25T17:20:09.315Z</time></trkpt><trkpt lat="51.393145" lon="-0.1454083"><ele>31.0</ele><time>2026-03-25T17:20:10.314Z</time></trkpt><trkpt lat="51.3932167" lon="-0.1454583"><ele>30.666666666666664</ele><time>2026-03-25T17:20:11.314Z</time></trkpt><trkpt lat="51.3932883" lon="-0.1455017"><ele>30.333333333333332</ele><time>2026-03-25T17:20:12.314Z</time></trkpt><trkpt lat="51.39336" lon="-0.1455433"><ele>30.0</ele><time>2026-03-25T17:20:13.315Z</time></trkpt><trkpt lat="51.3934233" lon="-0.1455833"><ele>30.0</ele><time>2026-03-25T17:20:14.314Z</time></trkpt><trkpt lat="51.39353" lon="-0.1456517"><ele>30.0</ele><time>2026-03-25T17:20:16.319Z</time></trkpt><trkpt lat="51.3936217" lon="-0.1457033"><ele>30.0</ele><time>2026-03-25T17:20:18.315Z</time></trkpt><trkpt lat="51.3936833" lon="-0.1457433"><ele>30.0</ele><time>2026-03-25T17:20:20.314Z</time></trkpt><trkpt lat="51.3937433" lon="-0.1457833"><ele>30.0</ele><time>2026-03-25T17:20:22.315Z</time></trkpt><trkpt lat="51.3938167" lon="-0.14584"><ele>30.0</ele><time>2026-03-25T17:20:24.317Z</time></trkpt><trkpt lat="51.3939117" lon="-0.1458917"><ele>30.4</ele><time>2026-03-25T17:20:26.313Z</time></trkpt><trkpt lat="51.3940317" lon="-0.14596"><ele>30.8</ele><time>2026-03-25T17:20:28.314Z</time></trkpt><trkpt lat="51.3940983" lon="-0.1459883"><ele>31.200000000000003</ele><time>2026-03-25T17:20:29.318Z</time></trkpt><trkpt lat="51.3941683" lon="-0.1460083"><ele>31.6</ele><time>2026-03-25T17:20:30.315Z</time></trkpt><trkpt lat="51.394285" lon="-0.14602"><ele>32.0</ele><time>2026-03-25T17:20:32.314Z</time></trkpt><trkpt lat="51.3943883" lon="-0.146005"><ele>32.0</ele><time>2026-03-25T17:20:34.315Z</time></trkpt><trkpt lat="51.394505" lon="-0.1459817"><ele>32.0</ele><time>2026-03-25T17:20:36.317Z</time></trkpt><trkpt lat="51.3946183" lon="-0.1459433"><ele>32.0</ele><time>2026-03-25T17:20:38.315Z</time></trkpt><trkpt lat="51.3947167" lon="-0.1459083"><ele>32.0</ele><time>2026-03-25T17:20:40.315Z</time></trkpt><trkpt lat="51.3948117" lon="-0.1458683"><ele>32.0</ele><time>2026-03-25T17:20:42.316Z</time></trkpt><trkpt lat="51.3949083" lon="-0.145835"><ele>32.0</ele><time>2026-03-25T17:20:44.316Z</time></trkpt><trkpt lat="51.3950067" lon="-0.1457983"><ele>32.0</ele><time>2026-03-25T17:20:46.315Z</time></trkpt><trkpt lat="51.3951033" lon="-0.145755"><ele>32.0</ele><time>2026-03-25T17:20:48.314Z</time></trkpt><trkpt lat="51.3951983" lon="-0.14572"><ele>32.0</ele><time>2026-03-25T17:20:50.315Z</time></trkpt><trkpt lat="51.3952917" lon="-0.1456917"><ele>32.0</ele><time>2026-03-25T17:20:52.315Z</time></trkpt><trkpt lat="51.3953867" lon="-0.1456667"><ele>32.2</ele><time>2026-03-25T17:20:54.314Z</time></trkpt><trkpt lat="51.3954933" lon="-0.1456483"><ele>32.400000000000006</ele><time>2026-03-25T17:20:56.313Z</time></trkpt><trkpt lat="51.3956067" lon="-0.14564"><ele>32.599999999999994</ele><time>2026-03-25T17:20:58.315Z</time></trkpt><trkpt lat="51.3957033" lon="-0.1456417"><ele>32.8</ele><time>2026-03-25T17:21:00.315Z</time></trkpt><trkpt lat="51.3958283" lon="-0.145655"><ele>33.0</ele><time>2026-03-25T17:21:02.314Z</time></trkpt><trkpt lat="51.3959017" lon="-0.1456717"><ele>33.0</ele><time>2026-03-25T17:21:03.314Z</time></trkpt><trkpt lat="51.3959683" lon="-0.1456767"><ele>33.0</ele><time>2026-03-25T17:21:04.315Z</time></trkpt><trkpt lat="51.396035" lon="-0.145685"><ele>33.0</ele><time>2026-03-25T17:21:05.315Z</time></trkpt><trkpt lat="51.39617" lon="-0.1456883"><ele>33.0</ele><time>2026-03-25T17:21:07.314Z</time></trkpt><trkpt lat="51.3962717" lon="-0.1456883"><ele>33.0</ele><time>2026-03-25T17:21:09.314Z</time></trkpt><trkpt lat="51.396335" lon="-0.1456817"><ele>33.0</ele><time>2026-03-25T17:21:10.314Z</time></trkpt><trkpt lat="51.3964533" lon="-0.1456867"><ele>32.8</ele><time>2026-03-25T17:21:12.317Z</time></trkpt><trkpt lat="51.3965583" lon="-0.1457117"><ele>32.599999999999994</ele><time>2026-03-25T17:21:14.315Z</time></trkpt><trkpt lat="51.39665" lon="-0.14572"><ele>32.400000000000006</ele><time>2026-03-25T17:21:16.315Z</time></trkpt><trkpt lat="51.39676" lon="-0.1457317"><ele>32.2</ele><time>2026-03-25T17:21:18.314Z</time></trkpt><trkpt lat="51.39683" lon="-0.1457383"><ele>32.0</ele><time>2026-03-25T17:21:19.314Z</time></trkpt><trkpt lat="51.3969383" lon="-0.145755"><ele>32.0</ele><time>2026-03-25T17:21:21.315Z</time></trkpt><trkpt lat="51.39705" lon="-0.1457533"><ele>32.0</ele><time>2026-03-25T17:21:23.313Z</time></trkpt><trkpt lat="51.39716" lon="-0.1457533"><ele>32.0</ele><time>2026-03-25T17:21:25.314Z</time></trkpt><trkpt lat="51.3972683" lon="-0.1457617"><ele>32.0</ele><time>2026-03-25T17:21:27.315Z</time></trkpt><trkpt lat="51.3973917" lon="-0.14577"><ele>31.8</ele><time>2026-03-25T17:21:29.314Z</time></trkpt><trkpt lat="51.3974633" lon="-0.1457667"><ele>31.6</ele><time>2026-03-25T17:21:30.313Z</time></trkpt><trkpt lat="51.3975917" lon="-0.1457567"><ele>31.400000000000002</ele><time>2026-03-25T17:21:32.314Z</time></trkpt><trkpt lat="51.397715" lon="-0.1457167"><ele>31.200000000000003</ele><time>2026-03-25T17:21:34.314Z</time></trkpt><trkpt lat="51.3977783" lon="-0.1456683"><ele>31.0</ele><time>2026-03-25T17:21:35.316Z</time></trkpt><trkpt lat="51.3978883" lon="-0.145575"><ele>31.000000000000004</ele><time>2026-03-25T17:21:37.315Z</time></trkpt><trkpt lat="51.3979883" lon="-0.1454633"><ele>31.0</ele><time>2026-03-25T17:21:39.313Z</time></trkpt><trkpt lat="51.398045" lon="-0.1454017"><ele>31.0</ele><time>2026-03-25T17:21:40.315Z</time></trkpt><trkpt lat="51.3981067" lon="-0.14535"><ele>31.0</ele><time>2026-03-25T17:21:41.314Z</time></trkpt><trkpt lat="51.3981633" lon="-0.1452967"><ele>31.000000000000004</ele><time>2026-03-25T17:21:42.315Z</time></trkpt><trkpt lat="51.3982633" lon="-0.1452217"><ele>31.0</ele><time>2026-03-25T17:21:44.315Z</time></trkpt><trkpt lat="51.3983533" lon="-0.1451517"><ele>30.833333333333336</ele><time>2026-03-25T17:21:46.315Z</time></trkpt><trkpt lat="51.3984133" lon="-0.1450883"><ele>30.666666666666668</ele><time>2026-03-25T17:21:48.315Z</time></trkpt><trkpt lat="51.3985" lon="-0.1450117"><ele>30.5</ele><time>2026-03-25T17:22:01.315Z</time></trkpt><trkpt lat="51.398575" lon="-0.145025"><ele>30.333333333333336</ele><time>2026-03-25T17:22:05.313Z</time></trkpt><trkpt lat="51.3986333" lon="-0.14512"><ele>30.166666666666668</ele><time>2026-03-25T17:22:08.315Z</time></trkpt><trkpt lat="51.3986717" lon="-0.1452117"><ele>30.0</ele><time>2026-03-25T17:22:10.317Z</time></trkpt><trkpt lat="51.3987083" lon="-0.1453083"><ele>30.0</ele><time>2026-03-25T17:22:12.314Z</time></trkpt><trkpt lat="51.3987533" lon="-0.1454117"><ele>30.0</ele><time>2026-03-25T17:22:14.315Z</time></trkpt><trkpt lat="51.398795" lon="-0.1455217"><ele>30.0</ele><time>2026-03-25T17:22:16.313Z</time></trkpt><trkpt lat="51.39884" lon="-0.1456233"><ele>30.0</ele><time>2026-03-25T17:22:18.314Z</time></trkpt><trkpt lat="51.3988983" lon="-0.14571"><ele>30.0</ele><time>2026-03-25T17:22:21.313Z</time></trkpt><trkpt lat="51.3989517" lon="-0.1457783"><ele>30.0</ele><time>2026-03-25T17:22:27.315Z</time></trkpt><trkpt lat="51.3990083" lon="-0.14585"><ele>29.666666666666668</ele><time>2026-03-25T17:22:32.315Z</time></trkpt><trkpt lat="51.399075" lon="-0.14581"><ele>29.333333333333336</ele><time>2026-03-25T17:22:36.314Z</time></trkpt><trkpt lat="51.399125" lon="-0.1457483"><ele>29.0</ele><time>2026-03-25T17:22:45.314Z</time></trkpt><trkpt lat="51.3991833" lon="-0.145665"><ele>28.666666666666668</ele><time>2026-03-25T17:22:48.314Z</time></trkpt><trkpt lat="51.3992417" lon="-0.1455917"><ele>28.333333333333336</ele><time>2026-03-25T17:22:50.315Z</time></trkpt><trkpt lat="51.39932" lon="-0.1454967"><ele>28.0</ele><time>2026-03-25T17:22:52.315Z</time></trkpt><trkpt lat="51.3993917" lon="-0.1454183"><ele>27.833333333333336</ele><time>2026-03-25T17:22:54.313Z</time></trkpt><trkpt lat="51.39946" lon="-0.1453417"><ele>27.666666666666668</ele><time>2026-03-25T17:22:56.315Z</time></trkpt><trkpt lat="51.3995283" lon="-0.1452717"><ele>27.5</ele><time>2026-03-25T17:22:58.313Z</time></trkpt><trkpt lat="51.399595" lon="-0.1451933"><ele>27.333333333333336</ele><time>2026-03-25T17:23:00.314Z</time></trkpt><trkpt lat="51.3996717" lon="-0.1451117"><ele>27.166666666666668</ele><time>2026-03-25T17:23:02.314Z</time></trkpt><trkpt lat="51.3997417" lon="-0.1450217"><ele>27.0</ele><time>2026-03-25T17:23:04.317Z</time></trkpt><trkpt lat="51.3998083" lon="-0.1449367"><ele>27.0</ele><time>2026-03-25T17:23:06.316Z</time></trkpt><trkpt lat="51.3998733" lon="-0.1448483"><ele>27.000000000000004</ele><time>2026-03-25T17:23:08.315Z</time></trkpt><trkpt lat="51.3999467" lon="-0.1447567"><ele>27.000000000000004</ele><time>2026-03-25T17:23:10.314Z</time></trkpt><trkpt lat="51.4000217" lon="-0.144695"><ele>27.0</ele><time>2026-03-25T17:23:12.316Z</time></trkpt><trkpt lat="51.4000983" lon="-0.1446033"><ele>27.0</ele><time>2026-03-25T17:23:14.315Z</time></trkpt><trkpt lat="51.4001817" lon="-0.1444717"><ele>27.0</ele><time>2026-03-25T17:23:16.316Z</time></trkpt><trkpt lat="51.4002383" lon="-0.1443917"><ele>27.0</ele><time>2026-03-25T17:23:17.314Z</time></trkpt><trkpt lat="51.4002983" lon="-0.1443033"><ele>27.0</ele><time>2026-03-25T17:23:18.315Z</time></trkpt><trkpt lat="51.400365" lon="-0.1442033"><ele>27.0</ele><time>2026-03-25T17:23:19.314Z</time></trkpt><trkpt lat="51.4004333" lon="-0.1440967"><ele>27.0</ele><time>2026-03-25T17:23:20.318Z</time></trkpt><trkpt lat="51.400495" lon="-0.14399"><ele>27.0</ele><time>2026-03-25T17:23:21.315Z</time></trkpt><trkpt lat="51.4005517" lon="-0.1438867"><ele>27.333333333333332</ele><time>2026-03-25T17:23:22.314Z</time></trkpt><trkpt lat="51.4006067" lon="-0.1437883"><ele>27.666666666666664</ele><time>2026-03-25T17:23:23.314Z</time></trkpt><trkpt lat="51.40066" lon="-0.14369"><ele>28.0</ele><time>2026-03-25T17:23:24.315Z</time></trkpt><trkpt lat="51.4007117" lon="-0.14359"><ele>28.333333333333332</ele><time>2026-03-25T17:23:25.315Z</time></trkpt><trkpt lat="51.400755" lon="-0.1435"><ele>28.666666666666664</ele><time>2026-03-25T17:23:26.314Z</time></trkpt><trkpt lat="51.4008317" lon="-0.14336"><ele>29.0</ele><time>2026-03-25T17:23:28.315Z</time></trkpt><trkpt lat="51.4009033" lon="-0.14323"><ele>28.999999999999996</ele><time>2026-03-25T17:23:30.318Z</time></trkpt><trkpt lat="51.40098" lon="-0.1430683"><ele>29.0</ele><time>2026-03-25T17:23:32.315Z</time></trkpt><trkpt lat="51.4010267" lon="-0.142975"><ele>29.0</ele><time>2026-03-25T17:23:33.314Z</time></trkpt><trkpt lat="51.4010767" lon="-0.1428867"><ele>29.0</ele><time>2026-03-25T17:23:34.315Z</time></trkpt><trkpt lat="51.4011217" lon="-0.1427967"><ele>28.999999999999996</ele><time>2026-03-25T17:23:35.315Z</time></trkpt><trkpt lat="51.4011717" lon="-0.142705"><ele>29.0</ele><time>2026-03-25T17:23:36.316Z</time></trkpt><trkpt lat="51.40122" lon="-0.1426133"><ele>28.999999999999996</ele><time>2026-03-25T17:23:37.314Z</time></trkpt><trkpt lat="51.4012717" lon="-0.1425167"><ele>29.0</ele><time>2026-03-25T17:23:38.315Z</time></trkpt><trkpt lat="51.4013267" lon="-0.142415"><ele>29.0</ele><time>2026-03-25T17:23:39.315Z</time></trkpt><trkpt lat="51.4013817" lon="-0.1423167"><ele>29.0</ele><time>2026-03-25T17:23:40.314Z</time></trkpt><trkpt lat="51.4014367" lon="-0.1422133"><ele>28.999999999999996</ele><time>2026-03-25T17:23:41.314Z</time></trkpt><trkpt lat="51.4014883" lon="-0.1421117"><ele>29.0</ele><time>2026-03-25T17:23:42.316Z</time></trkpt><trkpt lat="51.401535" lon="-0.1420167"><ele>28.85714285714286</ele><time>2026-03-25T17:23:43.314Z</time></trkpt><trkpt lat="51.40158" lon="-0.1419317"><ele>28.714285714285715</ele><time>2026-03-25T17:23:44.315Z</time></trkpt><trkpt lat="51.4016217" lon="-0.1418483"><ele>28.571428571428573</ele><time>2026-03-25T17:23:45.315Z</time></trkpt><trkpt lat="51.4016733" lon="-0.1417683"><ele>28.42857142857143</ele><time>2026-03-25T17:23:46.315Z</time></trkpt><trkpt lat="51.40172" lon="-0.1416883"><ele>28.285714285714285</ele><time>2026-03-25T17:23:47.315Z</time></trkpt><trkpt lat="51.4017683" lon="-0.1416033"><ele>28.142857142857142</ele><time>2026-03-25T17:23:48.315Z</time></trkpt><trkpt lat="51.4018217" lon="-0.1414983"><ele>28.0</ele><time>2026-03-25T17:23:49.315Z</time></trkpt><trkpt lat="51.401875" lon="-0.1413867"><ele>28.000000000000004</ele><time>2026-03-25T17:23:50.316Z</time></trkpt><trkpt lat="51.40193" lon="-0.1412717"><ele>28.0</ele><time>2026-03-25T17:23:51.315Z</time></trkpt><trkpt lat="51.4019817" lon="-0.1411567"><ele>28.0</ele><time>2026-03-25T17:23:52.315Z</time></trkpt><trkpt lat="51.4020333" lon="-0.1410467"><ele>28.0</ele><time>2026-03-25T17:23:53.315Z</time></trkpt><trkpt lat="51.4020883" lon="-0.14094"><ele>28.000000000000004</ele><time>2026-03-25T17:23:54.314Z</time></trkpt><trkpt lat="51.40214" lon="-0.1408333"><ele>28.0</ele><time>2026-03-25T17:23:55.315Z</time></trkpt><trkpt lat="51.4021917" lon="-0.14073"><ele>28.0</ele><time>2026-03-25T17:23:56.314Z</time></trkpt><trkpt lat="51.40224" lon="-0.1406317"><ele>28.0</ele><time>2026-03-25T17:23:57.314Z</time></trkpt><trkpt lat="51.4022867" lon="-0.1405317"><ele>28.0</ele><time>2026-03-25T17:23:58.315Z</time></trkpt><trkpt lat="51.4023267" lon="-0.1404333"><ele>28.0</ele><time>2026-03-25T17:23:59.314Z</time></trkpt><trkpt lat="51.40237" lon="-0.1403367"><ele>28.0</ele><time>2026-03-25T17:24:00.315Z</time></trkpt><trkpt lat="51.4024117" lon="-0.140245"><ele>28.0</ele><time>2026-03-25T17:24:01.315Z</time></trkpt><trkpt lat="51.4024517" lon="-0.140155"><ele>28.0</ele><time>2026-03-25T17:24:02.315Z</time></trkpt><trkpt lat="51.4025167" lon="-0.1400017"><ele>28.2</ele><time>2026-03-25T17:24:04.315Z</time></trkpt><trkpt lat="51.4025567" lon="-0.1398733"><ele>28.4</ele><time>2026-03-25T17:24:13.315Z</time></trkpt><trkpt lat="51.4026017" lon="-0.1397483"><ele>28.599999999999998</ele><time>2026-03-25T17:24:15.315Z</time></trkpt><trkpt lat="51.4026883" lon="-0.1395817"><ele>28.799999999999997</ele><time>2026-03-25T17:24:17.315Z</time></trkpt><trkpt lat="51.402725" lon="-0.139495"><ele>29.0</ele><time>2026-03-25T17:24:18.321Z</time></trkpt><trkpt lat="51.4027717" lon="-0.1393983"><ele>28.999999999999996</ele><time>2026-03-25T17:24:19.314Z</time></trkpt><trkpt lat="51.4028167" lon="-0.1392983"><ele>29.0</ele><time>2026-03-25T17:24:20.314Z</time></trkpt><trkpt lat="51.4028617" lon="-0.1392033"><ele>29.0</ele><time>2026-03-25T17:24:21.315Z</time></trkpt><trkpt lat="51.4029033" lon="-0.1391183"><ele>29.0</ele><time>2026-03-25T17:24:22.315Z</time></trkpt><trkpt lat="51.4029783" lon="-0.1389633"><ele>28.999999999999996</ele><time>2026-03-25T17:24:24.314Z</time></trkpt><trkpt lat="51.4030167" lon="-0.1388817"><ele>29.0</ele><time>2026-03-25T17:24:25.315Z</time></trkpt><trkpt lat="51.4030583" lon="-0.1387967"><ele>29.000000000000004</ele><time>2026-03-25T17:24:26.315Z</time></trkpt><trkpt lat="51.4031017" lon="-0.1387033"><ele>29.0</ele><time>2026-03-25T17:24:27.314Z</time></trkpt><trkpt lat="51.4031483" lon="-0.1386083"><ele>29.000000000000004</ele><time>2026-03-25T17:24:28.315Z</time></trkpt><trkpt lat="51.4031917" lon="-0.1385067"><ele>29.000000000000004</ele><time>2026-03-25T17:24:29.315Z</time></trkpt><trkpt lat="51.4032317" lon="-0.1384133"><ele>29.0</ele><time>2026-03-25T17:24:30.314Z</time></trkpt><trkpt lat="51.40327" lon="-0.1383233"><ele>29.000000000000004</ele><time>2026-03-25T17:24:31.314Z</time></trkpt><trkpt lat="51.4033067" lon="-0.1382367"><ele>29.000000000000004</ele><time>2026-03-25T17:24:32.315Z</time></trkpt><trkpt lat="51.4033767" lon="-0.13807"><ele>29.5</ele><time>2026-03-25T17:24:34.315Z</time></trkpt><trkpt lat="51.4034233" lon="-0.13796"><ele>30.0</ele><time>2026-03-25T17:24:36.315Z</time></trkpt><trkpt lat="51.4039017" lon="-0.136785"><ele>30.2</ele><time>2026-03-25T17:25:19.313Z</time></trkpt><trkpt lat="51.40395" lon="-0.1366333"><ele>30.4</ele><time>2026-03-25T17:25:21.313Z</time></trkpt><trkpt lat="51.4039967" lon="-0.1364933"><ele>30.6</ele><time>2026-03-25T17:25:23.313Z</time></trkpt><trkpt lat="51.4040383" lon="-0.1363667"><ele>30.8</ele><time>2026-03-25T17:25:25.313Z</time></trkpt><trkpt lat="51.4040817" lon="-0.1362233"><ele>31.0</ele><time>2026-03-25T17:25:27.315Z</time></trkpt><trkpt lat="51.4041317" lon="-0.13608"><ele>31.4</ele><time>2026-03-25T17:25:29.313Z</time></trkpt><trkpt lat="51.4041783" lon="-0.1359317"><ele>31.8</ele><time>2026-03-25T17:25:31.313Z</time></trkpt><trkpt lat="51.4042283" lon="-0.13577"><ele>32.199999999999996</ele><time>2026-03-25T17:25:33.318Z</time></trkpt><trkpt lat="51.404275" lon="-0.1356067"><ele>32.6</ele><time>2026-03-25T17:25:35.313Z</time></trkpt><trkpt lat="51.4043183" lon="-0.1354767"><ele>33.0</ele><time>2026-03-25T17:25:37.314Z</time></trkpt><trkpt lat="51.404365" lon="-0.1353433"><ele>33.666666666666664</ele><time>2026-03-25T17:25:39.313Z</time></trkpt><trkpt lat="51.4044017" lon="-0.1352183"><ele>34.33333333333333</ele><time>2026-03-25T17:25:41.314Z</time></trkpt><trkpt lat="51.4045017" lon="-0.134815"><ele>35.0</ele><time>2026-03-25T17:25:47.314Z</time></trkpt><trkpt lat="51.4045567" lon="-0.134585"><ele>35.166666666666664</ele><time>2026-03-25T17:25:50.315Z</time></trkpt><trkpt lat="51.4046033" lon="-0.1344017"><ele>35.33333333333333</ele><time>2026-03-25T17:25:52.314Z</time></trkpt><trkpt lat="51.4046283" lon="-0.1342933"><ele>35.5</ele><time>2026-03-25T17:25:53.314Z</time></trkpt><trkpt lat="51.40466" lon="-0.1341683"><ele>35.666666666666664</ele><time>2026-03-25T17:25:54.313Z</time></trkpt><trkpt lat="51.4046933" lon="-0.1340467"><ele>35.833333333333336</ele><time>2026-03-25T17:25:55.314Z</time></trkpt><trkpt lat="51.40472" lon="-0.13394"><ele>36.0</ele><time>2026-03-25T17:25:56.313Z</time></trkpt><trkpt lat="51.404745" lon="-0.133845"><ele>36.2</ele><time>2026-03-25T17:25:57.314Z</time></trkpt><trkpt lat="51.40479" lon="-0.13367"><ele>36.400000000000006</ele><time>2026-03-25T17:25:59.313Z</time></trkpt><trkpt lat="51.404835" lon="-0.1335"><ele>36.6</ele><time>2026-03-25T17:26:01.313Z</time></trkpt><trkpt lat="51.4048667" lon="-0.133365"><ele>36.800000000000004</ele><time>2026-03-25T17:26:03.314Z</time></trkpt><trkpt lat="51.404905" lon="-0.13322"><ele>37.0</ele><time>2026-03-25T17:26:05.313Z</time></trkpt><trkpt lat="51.4049533" lon="-0.1330217"><ele>37.5</ele><time>2026-03-25T17:26:07.313Z</time></trkpt><trkpt lat="51.404985" lon="-0.132875"><ele>38.0</ele><time>2026-03-25T17:26:08.314Z</time></trkpt><trkpt lat="51.4050317" lon="-0.1326933"><ele>38.5</ele><time>2026-03-25T17:26:09.315Z</time></trkpt><trkpt lat="51.4050767" lon="-0.1325083"><ele>39.0</ele><time>2026-03-25T17:26:10.314Z</time></trkpt><trkpt lat="51.4051183" lon="-0.13233"><ele>39.6</ele><time>2026-03-25T17:26:11.314Z</time></trkpt><trkpt lat="51.4051567" lon="-0.1321667"><ele>40.2</ele><time>2026-03-25T17:26:12.313Z</time></trkpt><trkpt lat="51.4051917" lon="-0.13201"><ele>40.800000000000004</ele><time>2026-03-25T17:26:13.313Z</time></trkpt><trkpt lat="51.4052267" lon="-0.1318583"><ele>41.4</ele><time>2026-03-25T17:26:14.313Z</time></trkpt><trkpt lat="51.405255" lon="-0.1317217"><ele>42.0</ele><time>2026-03-25T17:26:15.314Z</time></trkpt><trkpt lat="51.4052867" lon="-0.1315983"><ele>42.166666666666664</ele><time>2026-03-25T17:26:16.313Z</time></trkpt><trkpt lat="51.4053167" lon="-0.1314733"><ele>42.333333333333336</ele><time>2026-03-25T17:26:17.316Z</time></trkpt><trkpt lat="51.4053383" lon="-0.1313517"><ele>42.5</ele><time>2026-03-25T17:26:18.314Z</time></trkpt><trkpt lat="51.405365" lon="-0.1312233"><ele>42.66666666666667</ele><time>2026-03-25T17:26:19.314Z</time></trkpt><trkpt lat="51.405395" lon="-0.1310917"><ele>42.833333333333336</ele><time>2026-03-25T17:26:20.313Z</time></trkpt><trkpt lat="51.4054233" lon="-0.130965"><ele>43.0</ele><time>2026-03-25T17:26:21.314Z</time></trkpt><trkpt lat="51.4054517" lon="-0.1308433"><ele>43.0</ele><time>2026-03-25T17:26:22.314Z</time></trkpt><trkpt lat="51.4054767" lon="-0.1307267"><ele>43.0</ele><time>2026-03-25T17:26:23.314Z</time></trkpt><trkpt lat="51.405505" lon="-0.130605"><ele>43.0</ele><time>2026-03-25T17:26:24.313Z</time></trkpt><trkpt lat="51.405525" lon="-0.1304783"><ele>43.0</ele><time>2026-03-25T17:26:25.313Z</time></trkpt><trkpt lat="51.4055483" lon="-0.1303633"><ele>43.0</ele><time>2026-03-25T17:26:26.313Z</time></trkpt><trkpt lat="51.4055767" lon="-0.1302433"><ele>43.0</ele><time>2026-03-25T17:26:27.314Z</time></trkpt><trkpt lat="51.4056033" lon="-0.13013"><ele>43.599999999999994</ele><time>2026-03-25T17:26:28.313Z</time></trkpt><trkpt lat="51.4056283" lon="-0.130015"><ele>44.199999999999996</ele><time>2026-03-25T17:26:29.313Z</time></trkpt><trkpt lat="51.405655" lon="-0.1299133"><ele>44.8</ele><time>2026-03-25T17:26:30.314Z</time></trkpt><trkpt lat="51.4057" lon="-0.129735"><ele>45.4</ele><time>2026-03-25T17:26:32.314Z</time></trkpt><trkpt lat="51.4057267" lon="-0.1295683"><ele>46.0</ele><time>2026-03-25T17:26:34.314Z</time></trkpt><trkpt lat="51.405755" lon="-0.1293717"><ele>46.833333333333336</ele><time>2026-03-25T17:26:36.313Z</time></trkpt><trkpt lat="51.405775" lon="-0.129275"><ele>47.66666666666667</ele><time>2026-03-25T17:26:37.313Z</time></trkpt><trkpt lat="51.40581" lon="-0.1291167"><ele>48.5</ele><time>2026-03-25T17:26:39.313Z</time></trkpt><trkpt lat="51.40583" lon="-0.128985"><ele>49.333333333333336</ele><time>2026-03-25T17:26:41.314Z</time></trkpt><trkpt lat="51.4058567" lon="-0.12882"><ele>50.166666666666664</ele><time>2026-03-25T17:26:43.314Z</time></trkpt><trkpt lat="51.40587" lon="-0.1287183"><ele>51.0</ele><time>2026-03-25T17:26:44.315Z</time></trkpt><trkpt lat="51.4058883" lon="-0.1286083"><ele>51.199999999999996</ele><time>2026-03-25T17:26:45.315Z</time></trkpt><trkpt lat="51.4059033" lon="-0.1285033"><ele>51.4</ele><time>2026-03-25T17:26:46.313Z</time></trkpt><trkpt lat="51.4059383" lon="-0.1283183"><ele>51.6</ele><time>2026-03-25T17:26:48.314Z</time></trkpt><trkpt lat="51.4059717" lon="-0.1281567"><ele>51.8</ele><time>2026-03-25T17:26:50.315Z</time></trkpt><trkpt lat="51.4059967" lon="-0.1280133"><ele>52.0</ele><time>2026-03-25T17:26:52.314Z</time></trkpt><trkpt lat="51.4060217" lon="-0.1278617"><ele>51.99999999999999</ele><time>2026-03-25T17:26:54.314Z</time></trkpt><trkpt lat="51.4060533" lon="-0.1276883"><ele>52.0</ele><time>2026-03-25T17:26:56.314Z</time></trkpt><trkpt lat="51.406085" lon="-0.1275283"><ele>52.0</ele><time>2026-03-25T17:26:58.314Z</time></trkpt><trkpt lat="51.4061033" lon="-0.1274233"><ele>52.0</ele><time>2026-03-25T17:27:00.313Z</time></trkpt><trkpt lat="51.4061267" lon="-0.1273117"><ele>51.99999999999999</ele><time>2026-03-25T17:27:02.314Z</time></trkpt><trkpt lat="51.4061583" lon="-0.1272017"><ele>52.0</ele><time>2026-03-25T17:27:04.314Z</time></trkpt><trkpt lat="51.4061933" lon="-0.1270833"><ele>51.49999999999999</ele><time>2026-03-25T17:27:06.314Z</time></trkpt><trkpt lat="51.4062133" lon="-0.1269583"><ele>51.0</ele><time>2026-03-25T17:27:09.314Z</time></trkpt><trkpt lat="51.4062233" lon="-0.1268467"><ele>50.5</ele><time>2026-03-25T17:27:12.314Z</time></trkpt><trkpt lat="51.4062417" lon="-0.1267433"><ele>50.0</ele><time>2026-03-25T17:27:14.314Z</time></trkpt><trkpt lat="51.4062667" lon="-0.126615"><ele>49.49999999999999</ele><time>2026-03-25T17:27:16.314Z</time></trkpt><trkpt lat="51.4062867" lon="-0.126475"><ele>49.0</ele><time>2026-03-25T17:27:18.314Z</time></trkpt><trkpt lat="51.40632" lon="-0.1263417"><ele>48.49999999999999</ele><time>2026-03-25T17:27:20.315Z</time></trkpt><trkpt lat="51.40635" lon="-0.1262517"><ele>48.0</ele><time>2026-03-25T17:27:22.315Z</time></trkpt><trkpt lat="51.4063833" lon="-0.12616"><ele>47.5</ele><time>2026-03-25T17:27:25.314Z</time></trkpt><trkpt lat="51.406455" lon="-0.1261483"><ele>47.0</ele><time>2026-03-25T17:27:27.314Z</time></trkpt><trkpt lat="51.40657" lon="-0.12619"><ele>46.5</ele><time>2026-03-25T17:27:29.315Z</time></trkpt><trkpt lat="51.4066333" lon="-0.126215"><ele>46.0</ele><time>2026-03-25T17:27:30.315Z</time></trkpt><trkpt lat="51.4067267" lon="-0.12628"><ele>46.0</ele><time>2026-03-25T17:27:32.314Z</time></trkpt><trkpt lat="51.4067917" lon="-0.1263217"><ele>46.0</ele><time>2026-03-25T17:27:34.314Z</time></trkpt><trkpt lat="51.4068667" lon="-0.126325"><ele>46.0</ele><time>2026-03-25T17:27:37.315Z</time></trkpt><trkpt lat="51.4069717" lon="-0.12637"><ele>46.0</ele><time>2026-03-25T17:27:39.316Z</time></trkpt><trkpt lat="51.4070433" lon="-0.126405"><ele>46.0</ele><time>2026-03-25T17:27:40.315Z</time></trkpt><trkpt lat="51.407115" lon="-0.1264483"><ele>46.0</ele><time>2026-03-25T17:27:41.315Z</time></trkpt><trkpt lat="51.4071833" lon="-0.1264833"><ele>45.8</ele><time>2026-03-25T17:27:42.314Z</time></trkpt><trkpt lat="51.4072917" lon="-0.1265467"><ele>45.599999999999994</ele><time>2026-03-25T17:27:44.315Z</time></trkpt><trkpt lat="51.4073633" lon="-0.1265867"><ele>45.4</ele><time>2026-03-25T17:27:46.315Z</time></trkpt><trkpt lat="51.4074283" lon="-0.1264783"><ele>45.2</ele><time>2026-03-25T17:27:51.314Z</time></trkpt><trkpt lat="51.4074533" lon="-0.1262767"><ele>45.0</ele><time>2026-03-25T17:27:53.314Z</time></trkpt><trkpt lat="51.4074617" lon="-0.12615"><ele>44.5</ele><time>2026-03-25T17:27:54.315Z</time></trkpt><trkpt lat="51.4074767" lon="-0.1260167"><ele>44.0</ele><time>2026-03-25T17:27:55.316Z</time></trkpt><trkpt lat="51.407485" lon="-0.125885"><ele>43.5</ele><time>2026-03-25T17:27:56.318Z</time></trkpt><trkpt lat="51.4075" lon="-0.1257483"><ele>43.0</ele><time>2026-03-25T17:27:57.315Z</time></trkpt><trkpt lat="51.4075183" lon="-0.1256"><ele>42.5</ele><time>2026-03-25T17:27:58.314Z</time></trkpt><trkpt lat="51.4075367" lon="-0.12545"><ele>42.0</ele><time>2026-03-25T17:27:59.315Z</time></trkpt><trkpt lat="51.4075533" lon="-0.125305"><ele>42.0</ele><time>2026-03-25T17:28:00.315Z</time></trkpt><trkpt lat="51.40757" lon="-0.1251633"><ele>42.0</ele><time>2026-03-25T17:28:01.314Z</time></trkpt><trkpt lat="51.4075867" lon="-0.125025"><ele>42.0</ele><time>2026-03-25T17:28:02.315Z</time></trkpt><trkpt lat="51.4076067" lon="-0.12489"><ele>42.0</ele><time>2026-03-25T17:28:03.314Z</time></trkpt><trkpt lat="51.40762" lon="-0.1247583"><ele>42.0</ele><time>2026-03-25T17:28:04.315Z</time></trkpt><trkpt lat="51.4076383" lon="-0.124625"><ele>42.0</ele><time>2026-03-25T17:28:05.314Z</time></trkpt><trkpt lat="51.4076667" lon="-0.1244867"><ele>42.0</ele><time>2026-03-25T17:28:06.316Z</time></trkpt><trkpt lat="51.4076933" lon="-0.12434"><ele>42.0</ele><time>2026-03-25T17:28:07.313Z</time></trkpt><trkpt lat="51.4077267" lon="-0.1241933"><ele>42.0</ele><time>2026-03-25T17:28:08.315Z</time></trkpt><trkpt lat="51.407755" lon="-0.1240617"><ele>42.0</ele><time>2026-03-25T17:28:09.315Z</time></trkpt><trkpt lat="51.4077833" lon="-0.1239367"><ele>42.0</ele><time>2026-03-25T17:28:10.315Z</time></trkpt><trkpt lat="51.40781" lon="-0.12382"><ele>42.0</ele><time>2026-03-25T17:28:11.314Z</time></trkpt><trkpt lat="51.4078333" lon="-0.1236983"><ele>41.833333333333336</ele><time>2026-03-25T17:28:12.315Z</time></trkpt><trkpt lat="51.4078583" lon="-0.12357"><ele>41.666666666666664</ele><time>2026-03-25T17:28:13.314Z</time></trkpt><trkpt lat="51.4078783" lon="-0.1234367"><ele>41.5</ele><time>2026-03-25T17:28:14.314Z</time></trkpt><trkpt lat="51.4079083" lon="-0.1233017"><ele>41.33333333333333</ele><time>2026-03-25T17:28:15.316Z</time></trkpt><trkpt lat="51.407935" lon="-0.1231717"><ele>41.166666666666664</ele><time>2026-03-25T17:28:16.315Z</time></trkpt><trkpt lat="51.4079417" lon="-0.1230517"><ele>41.0</ele><time>2026-03-25T17:28:17.315Z</time></trkpt><trkpt lat="51.4079683" lon="-0.1229217"><ele>41.0</ele><time>2026-03-25T17:28:18.315Z</time></trkpt><trkpt lat="51.407995" lon="-0.1227983"><ele>41.0</ele><time>2026-03-25T17:28:19.313Z</time></trkpt><trkpt lat="51.4080167" lon="-0.1226767"><ele>41.0</ele><time>2026-03-25T17:28:20.315Z</time></trkpt><trkpt lat="51.4080333" lon="-0.122565"><ele>41.0</ele><time>2026-03-25T17:28:21.314Z</time></trkpt><trkpt lat="51.4080683" lon="-0.122375"><ele>41.0</ele><time>2026-03-25T17:28:23.315Z</time></trkpt><trkpt lat="51.4081117" lon="-0.1222"><ele>41.57142857142857</ele><time>2026-03-25T17:28:25.313Z</time></trkpt><trkpt lat="51.4081417" lon="-0.1220867"><ele>42.14285714285714</ele><time>2026-03-25T17:28:27.315Z</time></trkpt><trkpt lat="51.40815" lon="-0.121985"><ele>42.71428571428571</ele><time>2026-03-25T17:28:35.315Z</time></trkpt><trkpt lat="51.4081833" lon="-0.1218783"><ele>43.285714285714285</ele><time>2026-03-25T17:28:45.313Z</time></trkpt><trkpt lat="51.4082417" lon="-0.12183"><ele>43.85714285714286</ele><time>2026-03-25T17:28:48.314Z</time></trkpt><trkpt lat="51.4083317" lon="-0.12187"><ele>44.42857142857142</ele><time>2026-03-25T17:28:51.315Z</time></trkpt><trkpt lat="51.4084033" lon="-0.1219067"><ele>45.0</ele><time>2026-03-25T17:28:53.314Z</time></trkpt><trkpt lat="51.4084833" lon="-0.1219267"><ele>45.0</ele><time>2026-03-25T17:28:55.315Z</time></trkpt><trkpt lat="51.408555" lon="-0.121875"><ele>45.0</ele><time>2026-03-25T17:28:58.315Z</time></trkpt><trkpt lat="51.4085717" lon="-0.12177"><ele>45.0</ele><time>2026-03-25T17:29:00.313Z</time></trkpt><trkpt lat="51.4085783" lon="-0.1216267"><ele>45.0</ele><time>2026-03-25T17:29:02.315Z</time></trkpt><trkpt lat="51.408595" lon="-0.121425"><ele>45.0</ele><time>2026-03-25T17:29:04.314Z</time></trkpt><trkpt lat="51.4086033" lon="-0.1212867"><ele>45.0</ele><time>2026-03-25T17:29:05.314Z</time></trkpt><trkpt lat="51.4086033" lon="-0.121135"><ele>44.666666666666664</ele><time>2026-03-25T17:29:06.314Z</time></trkpt><trkpt lat="51.4086033" lon="-0.1209883"><ele>44.333333333333336</ele><time>2026-03-25T17:29:07.315Z</time></trkpt><trkpt lat="51.4086033" lon="-0.12085"><ele>44.0</ele><time>2026-03-25T17:29:08.315Z</time></trkpt><trkpt lat="51.4086033" lon="-0.120735"><ele>43.66666666666667</ele><time>2026-03-25T17:29:09.314Z</time></trkpt><trkpt lat="51.408595" lon="-0.120575"><ele>43.333333333333336</ele><time>2026-03-25T17:29:11.313Z</time></trkpt><trkpt lat="51.4085783" lon="-0.1204333"><ele>43.0</ele><time>2026-03-25T17:29:13.314Z</time></trkpt><trkpt lat="51.4085683" lon="-0.1202583"><ele>42.8</ele><time>2026-03-25T17:29:15.317Z</time></trkpt><trkpt lat="51.408545" lon="-0.1200983"><ele>42.599999999999994</ele><time>2026-03-25T17:29:17.314Z</time></trkpt><trkpt lat="51.4085433" lon="-0.11999"><ele>42.400000000000006</ele><time>2026-03-25T17:29:20.313Z</time></trkpt><trkpt lat="51.4085317" lon="-0.1198417"><ele>42.2</ele><time>2026-03-25T17:29:24.315Z</time></trkpt><trkpt lat="51.40849" lon="-0.1196433"><ele>42.0</ele><time>2026-03-25T17:29:26.314Z</time></trkpt><trkpt lat="51.408465" lon="-0.1194717"><ele>41.8</ele><time>2026-03-25T17:29:27.315Z</time></trkpt><trkpt lat="51.408435" lon="-0.1192767"><ele>41.6</ele><time>2026-03-25T17:29:28.315Z</time></trkpt><trkpt lat="51.4084033" lon="-0.1191183"><ele>41.4</ele><time>2026-03-25T17:29:29.315Z</time></trkpt><trkpt lat="51.4083733" lon="-0.1189783"><ele>41.199999999999996</ele><time>2026-03-25T17:29:30.315Z</time></trkpt><trkpt lat="51.4083383" lon="-0.1188367"><ele>41.0</ele><time>2026-03-25T17:29:31.315Z</time></trkpt><trkpt lat="51.4082983" lon="-0.1186917"><ele>40.8</ele><time>2026-03-25T17:29:32.315Z</time></trkpt><trkpt lat="51.4082567" lon="-0.1185483"><ele>40.599999999999994</ele><time>2026-03-25T17:29:33.315Z</time></trkpt><trkpt lat="51.4082117" lon="-0.1184"><ele>40.4</ele><time>2026-03-25T17:29:34.314Z</time></trkpt><trkpt lat="51.408165" lon="-0.11826"><ele>40.2</ele><time>2026-03-25T17:29:35.314Z</time></trkpt><trkpt lat="51.4081183" lon="-0.11812"><ele>40.0</ele><time>2026-03-25T17:29:36.32Z</time></trkpt><trkpt lat="51.4080733" lon="-0.11799"><ele>40.0</ele><time>2026-03-25T17:29:37.314Z</time></trkpt><trkpt lat="51.4080317" lon="-0.11787"><ele>40.0</ele><time>2026-03-25T17:29:38.315Z</time></trkpt><trkpt lat="51.407985" lon="-0.1177533"><ele>40.0</ele><time>2026-03-25T17:29:39.315Z</time></trkpt><trkpt lat="51.4079433" lon="-0.1176383"><ele>40.0</ele><time>2026-03-25T17:29:40.315Z</time></trkpt><trkpt lat="51.4079067" lon="-0.1175317"><ele>40.0</ele><time>2026-03-25T17:29:41.314Z</time></trkpt><trkpt lat="51.40787" lon="-0.1174233"><ele>40.0</ele><time>2026-03-25T17:29:42.315Z</time></trkpt><trkpt lat="51.4078367" lon="-0.1173067"><ele>40.0</ele><time>2026-03-25T17:29:43.314Z</time></trkpt><trkpt lat="51.4077967" lon="-0.1171967"><ele>40.0</ele><time>2026-03-25T17:29:44.315Z</time></trkpt><trkpt lat="51.40776" lon="-0.117085"><ele>40.0</ele><time>2026-03-25T17:29:45.314Z</time></trkpt><trkpt lat="51.40772" lon="-0.11698"><ele>40.0</ele><time>2026-03-25T17:29:46.314Z</time></trkpt><trkpt lat="51.4076867" lon="-0.1168833"><ele>40.0</ele><time>2026-03-25T17:29:47.317Z</time></trkpt><trkpt lat="51.4076433" lon="-0.116795"><ele>40.0</ele><time>2026-03-25T17:29:48.314Z</time></trkpt><trkpt lat="51.4076" lon="-0.11671"><ele>40.0</ele><time>2026-03-25T17:29:49.315Z</time></trkpt><trkpt lat="51.4075583" lon="-0.11663"><ele>39.6</ele><time>2026-03-25T17:29:50.316Z</time></trkpt><trkpt lat="51.407485" lon="-0.1165033"><ele>39.2</ele><time>2026-03-25T17:29:52.314Z</time></trkpt><trkpt lat="51.4074167" lon="-0.1163833"><ele>38.8</ele><time>2026-03-25T17:29:54.315Z</time></trkpt><trkpt lat="51.4073433" lon="-0.1162733"><ele>38.4</ele><time>2026-03-25T17:29:56.314Z</time></trkpt><trkpt lat="51.407275" lon="-0.1161633"><ele>38.0</ele><time>2026-03-25T17:29:58.313Z</time></trkpt><trkpt lat="51.4072217" lon="-0.1160717"><ele>38.0</ele><time>2026-03-25T17:30:00.315Z</time></trkpt><trkpt lat="51.4072267" lon="-0.1159483"><ele>38.0</ele><time>2026-03-25T17:30:03.315Z</time></trkpt><trkpt lat="51.4072767" lon="-0.1158733"><ele>38.0</ele><time>2026-03-25T17:30:05.313Z</time></trkpt><trkpt lat="51.407365" lon="-0.1157883"><ele>38.0</ele><time>2026-03-25T17:30:07.314Z</time></trkpt><trkpt lat="51.4074567" lon="-0.1157"><ele>38.0</ele><time>2026-03-25T17:30:09.315Z</time></trkpt><trkpt lat="51.4075333" lon="-0.11562"><ele>38.0</ele><time>2026-03-25T17:30:11.314Z</time></trkpt><trkpt lat="51.4076017" lon="-0.1155417"><ele>38.166666666666664</ele><time>2026-03-25T17:30:13.314Z</time></trkpt><trkpt lat="51.4076733" lon="-0.1154817"><ele>38.33333333333333</ele><time>2026-03-25T17:30:15.315Z</time></trkpt><trkpt lat="51.4077383" lon="-0.1154167"><ele>38.5</ele><time>2026-03-25T17:30:17.314Z</time></trkpt><trkpt lat="51.407805" lon="-0.11536"><ele>38.666666666666664</ele><time>2026-03-25T17:30:19.315Z</time></trkpt><trkpt lat="51.407865" lon="-0.1153233"><ele>38.833333333333336</ele><time>2026-03-25T17:30:21.315Z</time></trkpt><trkpt lat="51.4079467" lon="-0.1153467"><ele>39.0</ele><time>2026-03-25T17:30:26.313Z</time></trkpt><trkpt lat="51.4080083" lon="-0.1154667"><ele>39.0</ele><time>2026-03-25T17:30:28.314Z</time></trkpt><trkpt lat="51.408075" lon="-0.1156033"><ele>39.0</ele><time>2026-03-25T17:30:30.314Z</time></trkpt><trkpt lat="51.4081233" lon="-0.11573"><ele>39.0</ele><time>2026-03-25T17:30:32.313Z</time></trkpt><trkpt lat="51.408155" lon="-0.1158467"><ele>39.0</ele><time>2026-03-25T17:30:34.314Z</time></trkpt><trkpt lat="51.4082033" lon="-0.1159583"><ele>39.0</ele><time>2026-03-25T17:30:37.313Z</time></trkpt><trkpt lat="51.40828" lon="-0.11601"><ele>39.0</ele><time>2026-03-25T17:30:45.315Z</time></trkpt><trkpt lat="51.408345" lon="-0.1159417"><ele>39.0</ele><time>2026-03-25T17:30:48.313Z</time></trkpt><trkpt lat="51.40841" lon="-0.1158817"><ele>39.0</ele><time>2026-03-25T17:30:51.315Z</time></trkpt><trkpt lat="51.408475" lon="-0.1158417"><ele>39.0</ele><time>2026-03-25T17:30:54.315Z</time></trkpt><trkpt lat="51.4085283" lon="-0.1157867"><ele>39.0</ele><time>2026-03-25T17:30:56.314Z</time></trkpt><trkpt lat="51.4086" lon="-0.11571"><ele>39.0</ele><time>2026-03-25T17:30:58.313Z</time></trkpt><trkpt lat="51.408655" lon="-0.1156333"><ele>39.0</ele><time>2026-03-25T17:31:00.315Z</time></trkpt><trkpt lat="51.40872" lon="-0.1155433"><ele>39.0</ele><time>2026-03-25T17:31:02.314Z</time></trkpt><trkpt lat="51.408815" lon="-0.1154383"><ele>39.0</ele><time>2026-03-25T17:31:04.313Z</time></trkpt><trkpt lat="51.4089217" lon="-0.1153433"><ele>39.0</ele><time>2026-03-25T17:31:06.314Z</time></trkpt><trkpt lat="51.409005" lon="-0.115255"><ele>39.0</ele><time>2026-03-25T17:31:08.314Z</time></trkpt><trkpt lat="51.40906" lon="-0.115195"><ele>39.0</ele><time>2026-03-25T17:31:10.315Z</time></trkpt><trkpt lat="51.4091233" lon="-0.11511"><ele>39.0</ele><time>2026-03-25T17:31:13.313Z</time></trkpt><trkpt lat="51.40919" lon="-0.1150033"><ele>39.0</ele><time>2026-03-25T17:31:16.314Z</time></trkpt><trkpt lat="51.40926" lon="-0.114935"><ele>39.0</ele><time>2026-03-25T17:31:19.315Z</time></trkpt><trkpt lat="51.4093283" lon="-0.1149467"><ele>39.0</ele><time>2026-03-25T17:31:22.313Z</time></trkpt><trkpt lat="51.4093933" lon="-0.1150483"><ele>39.0</ele><time>2026-03-25T17:31:24.314Z</time></trkpt><trkpt lat="51.409465" lon="-0.11516"><ele>39.0</ele><time>2026-03-25T17:31:26.314Z</time></trkpt><trkpt lat="51.40954" lon="-0.11527"><ele>39.0</ele><time>2026-03-25T17:31:28.313Z</time></trkpt><trkpt lat="51.4096133" lon="-0.1153367"><ele>39.0</ele><time>2026-03-25T17:31:30.314Z</time></trkpt><trkpt lat="51.4096783" lon="-0.11541"><ele>39.0</ele><time>2026-03-25T17:31:33.314Z</time></trkpt><trkpt lat="51.4096417" lon="-0.1152983"><ele>39.0</ele><time>2026-03-25T17:31:54.314Z</time></trkpt><trkpt lat="51.40957" lon="-0.1151983"><ele>39.0</ele><time>2026-03-25T17:31:56.314Z</time></trkpt><trkpt lat="51.409505" lon="-0.1151233"><ele>39.0</ele><time>2026-03-25T17:31:57.315Z</time></trkpt><trkpt lat="51.4094483" lon="-0.1150433"><ele>39.0</ele><time>2026-03-25T17:31:58.314Z</time></trkpt><trkpt lat="51.4093967" lon="-0.1149617"><ele>39.0</ele><time>2026-03-25T17:31:59.314Z</time></trkpt><trkpt lat="51.4093567" lon="-0.1148783"><ele>39.0</ele><time>2026-03-25T17:32:00.314Z</time></trkpt><trkpt lat="51.4093" lon="-0.1147883"><ele>39.0</ele><time>2026-03-25T17:32:01.314Z</time></trkpt><trkpt lat="51.4092467" lon="-0.114695"><ele>39.0</ele><time>2026-03-25T17:32:02.313Z</time></trkpt><trkpt lat="51.4091933" lon="-0.114605"><ele>39.0</ele><time>2026-03-25T17:32:03.313Z</time></trkpt><trkpt lat="51.40914" lon="-0.114525"><ele>39.0</ele><time>2026-03-25T17:32:04.314Z</time></trkpt><trkpt lat="51.4090917" lon="-0.1144483"><ele>39.0</ele><time>2026-03-25T17:32:05.313Z</time></trkpt><trkpt lat="51.4090433" lon="-0.11438"><ele>39.0</ele><time>2026-03-25T17:32:06.314Z</time></trkpt><trkpt lat="51.4089683" lon="-0.1142517"><ele>39.0</ele><time>2026-03-25T17:32:08.314Z</time></trkpt><trkpt lat="51.4089067" lon="-0.1141367"><ele>39.0</ele><time>2026-03-25T17:32:10.315Z</time></trkpt><trkpt lat="51.4088483" lon="-0.11403"><ele>39.0</ele><time>2026-03-25T17:32:12.314Z</time></trkpt><trkpt lat="51.408765" lon="-0.1138683"><ele>39.0</ele><time>2026-03-25T17:32:14.315Z</time></trkpt><trkpt lat="51.4087167" lon="-0.1137767"><ele>39.0</ele><time>2026-03-25T17:32:15.313Z</time></trkpt><trkpt lat="51.40866" lon="-0.1136883"><ele>39.0</ele><time>2026-03-25T17:32:16.314Z</time></trkpt><trkpt lat="51.4086083" lon="-0.1136033"><ele>39.0</ele><time>2026-03-25T17:32:17.314Z</time></trkpt><trkpt lat="51.4085583" lon="-0.113525"><ele>39.0</ele><time>2026-03-25T17:32:18.314Z</time></trkpt><trkpt lat="51.4085167" lon="-0.1134483"><ele>39.0</ele><time>2026-03-25T17:32:19.314Z</time></trkpt><trkpt lat="51.40844" lon="-0.1133117"><ele>38.8</ele><time>2026-03-25T17:32:21.313Z</time></trkpt><trkpt lat="51.4083667" lon="-0.1131833"><ele>38.599999999999994</ele><time>2026-03-25T17:32:23.314Z</time></trkpt><trkpt lat="51.4082817" lon="-0.1130433"><ele>38.4</ele><time>2026-03-25T17:32:25.314Z</time></trkpt><trkpt lat="51.4082033" lon="-0.1129067"><ele>38.199999999999996</ele><time>2026-03-25T17:32:27.314Z</time></trkpt><trkpt lat="51.40816" lon="-0.1128333"><ele>38.0</ele><time>2026-03-25T17:32:28.314Z</time></trkpt><trkpt lat="51.4080683" lon="-0.112675"><ele>38.0</ele><time>2026-03-25T17:32:30.314Z</time></trkpt><trkpt lat="51.4080217" lon="-0.112585"><ele>38.0</ele><time>2026-03-25T17:32:31.314Z</time></trkpt><trkpt lat="51.40797" lon="-0.1125017"><ele>38.0</ele><time>2026-03-25T17:32:32.315Z</time></trkpt><trkpt lat="51.407915" lon="-0.1124217"><ele>38.0</ele><time>2026-03-25T17:32:33.314Z</time></trkpt><trkpt lat="51.407865" lon="-0.1123433"><ele>38.0</ele><time>2026-03-25T17:32:34.314Z</time></trkpt><trkpt lat="51.4077883" lon="-0.1122133"><ele>38.0</ele><time>2026-03-25T17:32:36.314Z</time></trkpt><trkpt lat="51.407705" lon="-0.1121033"><ele>38.8</ele><time>2026-03-25T17:32:38.313Z</time></trkpt><trkpt lat="51.4076483" lon="-0.11203"><ele>39.599999999999994</ele><time>2026-03-25T17:32:39.315Z</time></trkpt><trkpt lat="51.4075783" lon="-0.111925"><ele>40.400000000000006</ele><time>2026-03-25T17:32:40.314Z</time></trkpt><trkpt lat="51.40749" lon="-0.1118067"><ele>41.2</ele><time>2026-03-25T17:32:41.315Z</time></trkpt><trkpt lat="51.4074133" lon="-0.1116933"><ele>42.0</ele><time>2026-03-25T17:32:42.314Z</time></trkpt><trkpt lat="51.40734" lon="-0.1115883"><ele>42.2</ele><time>2026-03-25T17:32:43.314Z</time></trkpt><trkpt lat="51.407275" lon="-0.111485"><ele>42.400000000000006</ele><time>2026-03-25T17:32:44.314Z</time></trkpt><trkpt lat="51.40721" lon="-0.11138"><ele>42.599999999999994</ele><time>2026-03-25T17:32:45.313Z</time></trkpt><trkpt lat="51.407145" lon="-0.1112733"><ele>42.8</ele><time>2026-03-25T17:32:46.314Z</time></trkpt><trkpt lat="51.4070833" lon="-0.11117"><ele>43.0</ele><time>2026-03-25T17:32:47.313Z</time></trkpt><trkpt lat="51.40702" lon="-0.1110733"><ele>43.16666666666667</ele><time>2026-03-25T17:32:48.313Z</time></trkpt><trkpt lat="51.40696" lon="-0.110975"><ele>43.333333333333336</ele><time>2026-03-25T17:32:49.314Z</time></trkpt><trkpt lat="51.4069017" lon="-0.1108817"><ele>43.5</ele><time>2026-03-25T17:32:50.313Z</time></trkpt><trkpt lat="51.4068467" lon="-0.1107967"><ele>43.666666666666664</ele><time>2026-03-25T17:32:51.314Z</time></trkpt><trkpt lat="51.4067967" lon="-0.1107083"><ele>43.83333333333333</ele><time>2026-03-25T17:32:52.313Z</time></trkpt><trkpt lat="51.4067517" lon="-0.1106267"><ele>44.0</ele><time>2026-03-25T17:32:53.314Z</time></trkpt><trkpt lat="51.4067017" lon="-0.11055"><ele>44.0</ele><time>2026-03-25T17:32:54.314Z</time></trkpt><trkpt lat="51.40665" lon="-0.1104717"><ele>44.0</ele><time>2026-03-25T17:32:55.314Z</time></trkpt><trkpt lat="51.4065933" lon="-0.1103817"><ele>44.0</ele><time>2026-03-25T17:32:56.313Z</time></trkpt><trkpt lat="51.4065267" lon="-0.1102867"><ele>44.0</ele><time>2026-03-25T17:32:57.313Z</time></trkpt><trkpt lat="51.4064617" lon="-0.1101817"><ele>44.0</ele><time>2026-03-25T17:32:58.314Z</time></trkpt><trkpt lat="51.4064" lon="-0.1100883"><ele>44.0</ele><time>2026-03-25T17:32:59.314Z</time></trkpt><trkpt lat="51.40634" lon="-0.1099983"><ele>43.6</ele><time>2026-03-25T17:33:00.314Z</time></trkpt><trkpt lat="51.4062717" lon="-0.109905"><ele>43.2</ele><time>2026-03-25T17:33:01.314Z</time></trkpt><trkpt lat="51.4062067" lon="-0.10981"><ele>42.800000000000004</ele><time>2026-03-25T17:33:02.314Z</time></trkpt><trkpt lat="51.4061383" lon="-0.109705"><ele>42.400000000000006</ele><time>2026-03-25T17:33:03.315Z</time></trkpt><trkpt lat="51.4060683" lon="-0.1095933"><ele>42.0</ele><time>2026-03-25T17:33:04.314Z</time></trkpt><trkpt lat="51.4059917" lon="-0.1094717"><ele>42.0</ele><time>2026-03-25T17:33:05.314Z</time></trkpt><trkpt lat="51.4059233" lon="-0.1093667"><ele>42.0</ele><time>2026-03-25T17:33:06.314Z</time></trkpt><trkpt lat="51.4058583" lon="-0.109275"><ele>42.0</ele><time>2026-03-25T17:33:07.314Z</time></trkpt><trkpt lat="51.4058017" lon="-0.109195"><ele>42.0</ele><time>2026-03-25T17:33:08.314Z</time></trkpt><trkpt lat="51.4057283" lon="-0.1090617"><ele>42.0</ele><time>2026-03-25T17:33:10.314Z</time></trkpt><trkpt lat="51.4057033" lon="-0.1089367"><ele>42.2</ele><time>2026-03-25T17:33:12.314Z</time></trkpt><trkpt lat="51.4057483" lon="-0.108795"><ele>42.400000000000006</ele><time>2026-03-25T17:33:14.313Z</time></trkpt><trkpt lat="51.4058033" lon="-0.1086833"><ele>42.599999999999994</ele><time>2026-03-25T17:33:15.314Z</time></trkpt><trkpt lat="51.4058667" lon="-0.1085583"><ele>42.8</ele><time>2026-03-25T17:33:16.314Z</time></trkpt><trkpt lat="51.405945" lon="-0.108405"><ele>43.0</ele><time>2026-03-25T17:33:17.313Z</time></trkpt><trkpt lat="51.4060233" lon="-0.108255"><ele>43.0</ele><time>2026-03-25T17:33:18.314Z</time></trkpt><trkpt lat="51.4060967" lon="-0.108115"><ele>43.0</ele><time>2026-03-25T17:33:19.314Z</time></trkpt><trkpt lat="51.4061583" lon="-0.1079917"><ele>43.0</ele><time>2026-03-25T17:33:20.314Z</time></trkpt><trkpt lat="51.406205" lon="-0.1078917"><ele>43.0</ele><time>2026-03-25T17:33:21.314Z</time></trkpt><trkpt lat="51.40625" lon="-0.1078117"><ele>43.0</ele><time>2026-03-25T17:33:22.314Z</time></trkpt><trkpt lat="51.4062967" lon="-0.1077183"><ele>43.0</ele><time>2026-03-25T17:33:24.314Z</time></trkpt><trkpt lat="51.4063483" lon="-0.107595"><ele>43.0</ele><time>2026-03-25T17:33:28.313Z</time></trkpt><trkpt lat="51.4064083" lon="-0.1074183"><ele>43.0</ele><time>2026-03-25T17:33:30.314Z</time></trkpt><trkpt lat="51.4064667" lon="-0.1072867"><ele>43.0</ele><time>2026-03-25T17:33:31.315Z</time></trkpt><trkpt lat="51.406535" lon="-0.107145"><ele>43.0</ele><time>2026-03-25T17:33:32.314Z</time></trkpt><trkpt lat="51.4065983" lon="-0.107025"><ele>43.0</ele><time>2026-03-25T17:33:33.314Z</time></trkpt><trkpt lat="51.4066517" lon="-0.10691"><ele>43.333333333333336</ele><time>2026-03-25T17:33:34.313Z</time></trkpt><trkpt lat="51.406705" lon="-0.106795"><ele>43.66666666666667</ele><time>2026-03-25T17:33:35.313Z</time></trkpt><trkpt lat="51.40676" lon="-0.1066867"><ele>44.0</ele><time>2026-03-25T17:33:36.314Z</time></trkpt><trkpt lat="51.406815" lon="-0.1065767"><ele>44.333333333333336</ele><time>2026-03-25T17:33:37.314Z</time></trkpt><trkpt lat="51.4068667" lon="-0.10647"><ele>44.666666666666664</ele><time>2026-03-25T17:33:38.314Z</time></trkpt><trkpt lat="51.4069133" lon="-0.1063717"><ele>45.0</ele><time>2026-03-25T17:33:39.315Z</time></trkpt><trkpt lat="51.406975" lon="-0.10623"><ele>45.0</ele><time>2026-03-25T17:33:41.314Z</time></trkpt><trkpt lat="51.40702" lon="-0.1061417"><ele>45.0</ele><time>2026-03-25T17:33:43.313Z</time></trkpt><trkpt lat="51.4070617" lon="-0.106045"><ele>45.0</ele><time>2026-03-25T17:33:45.314Z</time></trkpt><trkpt lat="51.4071067" lon="-0.1059483"><ele>45.0</ele><time>2026-03-25T17:33:47.314Z</time></trkpt><trkpt lat="51.40715" lon="-0.1058667"><ele>45.0</ele><time>2026-03-25T17:33:49.314Z</time></trkpt><trkpt lat="51.4071917" lon="-0.10578"><ele>45.0</ele><time>2026-03-25T17:33:51.314Z</time></trkpt><trkpt lat="51.407245" lon="-0.1056717"><ele>45.0</ele><time>2026-03-25T17:33:54.313Z</time></trkpt><trkpt lat="51.407305" lon="-0.1055683"><ele>45.4</ele><time>2026-03-25T17:34:18.315Z</time></trkpt><trkpt lat="51.4073583" lon="-0.10547"><ele>45.8</ele><time>2026-03-25T17:34:21.314Z</time></trkpt><trkpt lat="51.4074133" lon="-0.1053717"><ele>46.2</ele><time>2026-03-25T17:34:23.313Z</time></trkpt><trkpt lat="51.40747" lon="-0.10523"><ele>46.6</ele><time>2026-03-25T17:34:25.316Z</time></trkpt><trkpt lat="51.40751" lon="-0.1050467"><ele>47.0</ele><time>2026-03-25T17:34:27.313Z</time></trkpt><trkpt lat="51.4075333" lon="-0.104855"><ele>47.6</ele><time>2026-03-25T17:34:29.314Z</time></trkpt><trkpt lat="51.4075633" lon="-0.1046617"><ele>48.2</ele><time>2026-03-25T17:34:31.314Z</time></trkpt><trkpt lat="51.4075983" lon="-0.1044583"><ele>48.8</ele><time>2026-03-25T17:34:33.314Z</time></trkpt><trkpt lat="51.407615" lon="-0.104355"><ele>49.4</ele><time>2026-03-25T17:34:34.313Z</time></trkpt><trkpt lat="51.4076367" lon="-0.1041683"><ele>50.0</ele><time>2026-03-25T17:34:36.314Z</time></trkpt><trkpt lat="51.4076683" lon="-0.10397"><ele>50.2</ele><time>2026-03-25T17:34:38.313Z</time></trkpt><trkpt lat="51.40768" lon="-0.1038567"><ele>50.4</ele><time>2026-03-25T17:34:39.313Z</time></trkpt><trkpt lat="51.4076933" lon="-0.103745"><ele>50.599999999999994</ele><time>2026-03-25T17:34:40.314Z</time></trkpt><trkpt lat="51.4077117" lon="-0.1035517"><ele>50.8</ele><time>2026-03-25T17:34:42.313Z</time></trkpt><trkpt lat="51.4077367" lon="-0.1033417"><ele>51.0</ele><time>2026-03-25T17:34:44.314Z</time></trkpt><trkpt lat="51.40775" lon="-0.1032233"><ele>51.166666666666664</ele><time>2026-03-25T17:34:45.314Z</time></trkpt><trkpt lat="51.4077583" lon="-0.1031133"><ele>51.33333333333333</ele><time>2026-03-25T17:34:46.314Z</time></trkpt><trkpt lat="51.4077733" lon="-0.1030033"><ele>51.5</ele><time>2026-03-25T17:34:47.314Z</time></trkpt><trkpt lat="51.4077833" lon="-0.1028867"><ele>51.666666666666664</ele><time>2026-03-25T17:34:48.314Z</time></trkpt><trkpt lat="51.4078033" lon="-0.1027767"><ele>51.83333333333333</ele><time>2026-03-25T17:34:49.314Z</time></trkpt><trkpt lat="51.4078167" lon="-0.10267"><ele>52.0</ele><time>2026-03-25T17:34:50.313Z</time></trkpt><trkpt lat="51.407835" lon="-0.10248"><ele>52.0</ele><time>2026-03-25T17:34:52.313Z</time></trkpt><trkpt lat="51.40785" lon="-0.102375"><ele>52.0</ele><time>2026-03-25T17:34:53.315Z</time></trkpt><trkpt lat="51.4078683" lon="-0.1022717"><ele>52.0</ele><time>2026-03-25T17:34:54.313Z</time></trkpt><trkpt lat="51.4078983" lon="-0.102085"><ele>52.0</ele><time>2026-03-25T17:34:56.314Z</time></trkpt><trkpt lat="51.4079283" lon="-0.1018983"><ele>52.0</ele><time>2026-03-25T17:34:58.316Z</time></trkpt><trkpt lat="51.4079483" lon="-0.1016933"><ele>52.0</ele><time>2026-03-25T17:35:00.314Z</time></trkpt><trkpt lat="51.4079667" lon="-0.10158"><ele>52.0</ele><time>2026-03-25T17:35:01.313Z</time></trkpt><trkpt lat="51.4079783" lon="-0.101465"><ele>52.0</ele><time>2026-03-25T17:35:02.313Z</time></trkpt><trkpt lat="51.407995" lon="-0.101345"><ele>52.0</ele><time>2026-03-25T17:35:03.314Z</time></trkpt><trkpt lat="51.4080083" lon="-0.1012317"><ele>52.0</ele><time>2026-03-25T17:35:04.314Z</time></trkpt><trkpt lat="51.4080233" lon="-0.1011133"><ele>52.0</ele><time>2026-03-25T17:35:05.314Z</time></trkpt><trkpt lat="51.408035" lon="-0.101"><ele>52.0</ele><time>2026-03-25T17:35:06.314Z</time></trkpt><trkpt lat="51.408055" lon="-0.1008817"><ele>52.0</ele><time>2026-03-25T17:35:07.313Z</time></trkpt><trkpt lat="51.4080633" lon="-0.10076"><ele>52.0</ele><time>2026-03-25T17:35:08.313Z</time></trkpt><trkpt lat="51.4080783" lon="-0.100635"><ele>52.0</ele><time>2026-03-25T17:35:09.315Z</time></trkpt><trkpt lat="51.4080917" lon="-0.1005117"><ele>52.0</ele><time>2026-03-25T17:35:10.315Z</time></trkpt><trkpt lat="51.408105" lon="-0.1004"><ele>52.0</ele><time>2026-03-25T17:35:11.314Z</time></trkpt><trkpt lat="51.4081167" lon="-0.1002983"><ele>52.0</ele><time>2026-03-25T17:35:12.315Z</time></trkpt><trkpt lat="51.408125" lon="-0.100195"><ele>52.0</ele><time>2026-03-25T17:35:13.313Z</time></trkpt><trkpt lat="51.4081333" lon="-0.1000883"><ele>52.49999999999999</ele><time>2026-03-25T17:35:14.313Z</time></trkpt><trkpt lat="51.40814" lon="-0.099985"><ele>53.0</ele><time>2026-03-25T17:35:15.313Z</time></trkpt><trkpt lat="51.40816" lon="-0.0997917"><ele>53.5</ele><time>2026-03-25T17:35:17.314Z</time></trkpt><trkpt lat="51.408175" lon="-0.0996867"><ele>54.0</ele><time>2026-03-25T17:35:18.314Z</time></trkpt><trkpt lat="51.40819" lon="-0.0995717"><ele>54.49999999999999</ele><time>2026-03-25T17:35:19.313Z</time></trkpt><trkpt lat="51.40821" lon="-0.09945"><ele>55.0</ele><time>2026-03-25T17:35:20.313Z</time></trkpt><trkpt lat="51.4082317" lon="-0.099325"><ele>55.33333333333333</ele><time>2026-03-25T17:35:21.313Z</time></trkpt><trkpt lat="51.40826" lon="-0.0992017"><ele>55.66666666666667</ele><time>2026-03-25T17:35:22.314Z</time></trkpt><trkpt lat="51.4082883" lon="-0.0990883"><ele>56.0</ele><time>2026-03-25T17:35:23.313Z</time></trkpt><trkpt lat="51.4085383" lon="-0.0984233"><ele>56.00000000000001</ele><time>2026-03-25T17:35:30.314Z</time></trkpt><trkpt lat="51.4086067" lon="-0.0982567"><ele>56.0</ele><time>2026-03-25T17:35:32.314Z</time></trkpt><trkpt lat="51.4086467" lon="-0.09816"><ele>56.0</ele><time>2026-03-25T17:35:33.314Z</time></trkpt><trkpt lat="51.408685" lon="-0.0980717"><ele>56.0</ele><time>2026-03-25T17:35:34.314Z</time></trkpt><trkpt lat="51.4087217" lon="-0.0979717"><ele>56.00000000000001</ele><time>2026-03-25T17:35:35.315Z</time></trkpt><trkpt lat="51.4087617" lon="-0.0978633"><ele>56.0</ele><time>2026-03-25T17:35:36.314Z</time></trkpt><trkpt lat="51.408805" lon="-0.0977567"><ele>56.16666666666667</ele><time>2026-03-25T17:35:37.314Z</time></trkpt><trkpt lat="51.4088533" lon="-0.0976467"><ele>56.333333333333336</ele><time>2026-03-25T17:35:38.315Z</time></trkpt><trkpt lat="51.408905" lon="-0.09753"><ele>56.5</ele><time>2026-03-25T17:35:39.315Z</time></trkpt><trkpt lat="51.4089533" lon="-0.097415"><ele>56.66666666666667</ele><time>2026-03-25T17:35:40.315Z</time></trkpt><trkpt lat="51.409" lon="-0.0973083"><ele>56.833333333333336</ele><time>2026-03-25T17:35:41.314Z</time></trkpt><trkpt lat="51.4090433" lon="-0.097215"><ele>57.0</ele><time>2026-03-25T17:35:42.315Z</time></trkpt><trkpt lat="51.4090883" lon="-0.09712"><ele>57.333333333333336</ele><time>2026-03-25T17:35:43.315Z</time></trkpt><trkpt lat="51.4091317" lon="-0.0970183"><ele>57.66666666666667</ele><time>2026-03-25T17:35:44.315Z</time></trkpt><trkpt lat="51.409175" lon="-0.096915"><ele>58.0</ele><time>2026-03-25T17:35:45.314Z</time></trkpt><trkpt lat="51.4092167" lon="-0.09681"><ele>58.333333333333336</ele><time>2026-03-25T17:35:46.315Z</time></trkpt><trkpt lat="51.4092617" lon="-0.0967017"><ele>58.66666666666667</ele><time>2026-03-25T17:35:47.315Z</time></trkpt><trkpt lat="51.409305" lon="-0.096605"><ele>59.0</ele><time>2026-03-25T17:35:48.315Z</time></trkpt><trkpt lat="51.4093467" lon="-0.09651"><ele>59.6</ele><time>2026-03-25T17:35:49.314Z</time></trkpt><trkpt lat="51.4093917" lon="-0.0964217"><ele>60.2</ele><time>2026-03-25T17:35:50.314Z</time></trkpt><trkpt lat="51.4094667" lon="-0.0962667"><ele>60.800000000000004</ele><time>2026-03-25T17:35:52.315Z</time></trkpt><trkpt lat="51.4095483" lon="-0.0961217"><ele>61.400000000000006</ele><time>2026-03-25T17:35:54.318Z</time></trkpt><trkpt lat="51.4096" lon="-0.0960417"><ele>62.0</ele><time>2026-03-25T17:35:55.315Z</time></trkpt><trkpt lat="51.4096483" lon="-0.0959583"><ele>62.142857142857146</ele><time>2026-03-25T17:35:56.315Z</time></trkpt><trkpt lat="51.409695" lon="-0.09587"><ele>62.28571428571429</ele><time>2026-03-25T17:35:57.315Z</time></trkpt><trkpt lat="51.4097417" lon="-0.09579"><ele>62.42857142857143</ele><time>2026-03-25T17:35:58.314Z</time></trkpt><trkpt lat="51.40979" lon="-0.09571"><ele>62.57142857142857</ele><time>2026-03-25T17:35:59.315Z</time></trkpt><trkpt lat="51.40984" lon="-0.0956283"><ele>62.714285714285715</ele><time>2026-03-25T17:36:00.314Z</time></trkpt><trkpt lat="51.40989" lon="-0.0955533"><ele>62.85714285714286</ele><time>2026-03-25T17:36:01.316Z</time></trkpt><trkpt lat="51.409935" lon="-0.0954817"><ele>63.0</ele><time>2026-03-25T17:36:02.314Z</time></trkpt><trkpt lat="51.4100283" lon="-0.095345"><ele>63.5</ele><time>2026-03-25T17:36:04.315Z</time></trkpt><trkpt lat="51.4100767" lon="-0.09527"><ele>64.0</ele><time>2026-03-25T17:36:05.315Z</time></trkpt><trkpt lat="51.410125" lon="-0.0951933"><ele>64.5</ele><time>2026-03-25T17:36:06.315Z</time></trkpt><trkpt lat="51.4101717" lon="-0.0951183"><ele>65.0</ele><time>2026-03-25T17:36:07.314Z</time></trkpt><trkpt lat="51.41025" lon="-0.0949967"><ele>65.5</ele><time>2026-03-25T17:36:09.315Z</time></trkpt><trkpt lat="51.4103167" lon="-0.0949017"><ele>66.0</ele><time>2026-03-25T17:36:11.315Z</time></trkpt><trkpt lat="51.4103683" lon="-0.0948183"><ele>66.14285714285714</ele><time>2026-03-25T17:36:13.315Z</time></trkpt><trkpt lat="51.4104333" lon="-0.09469"><ele>66.28571428571429</ele><time>2026-03-25T17:36:15.315Z</time></trkpt><trkpt lat="51.410475" lon="-0.0946133"><ele>66.42857142857143</ele><time>2026-03-25T17:36:16.313Z</time></trkpt><trkpt lat="51.4105167" lon="-0.094535"><ele>66.57142857142857</ele><time>2026-03-25T17:36:17.315Z</time></trkpt><trkpt lat="51.4105633" lon="-0.0944533"><ele>66.71428571428571</ele><time>2026-03-25T17:36:18.315Z</time></trkpt><trkpt lat="51.4106183" lon="-0.0943767"><ele>66.85714285714286</ele><time>2026-03-25T17:36:19.316Z</time></trkpt><trkpt lat="51.410675" lon="-0.0943033"><ele>67.0</ele><time>2026-03-25T17:36:20.313Z</time></trkpt><trkpt lat="51.41072" lon="-0.0942317"><ele>67.28571428571429</ele><time>2026-03-25T17:36:21.315Z</time></trkpt><trkpt lat="51.4107667" lon="-0.0941583"><ele>67.57142857142857</ele><time>2026-03-25T17:36:22.314Z</time></trkpt><trkpt lat="51.4108117" lon="-0.0940833"><ele>67.85714285714286</ele><time>2026-03-25T17:36:23.315Z</time></trkpt><trkpt lat="51.4108567" lon="-0.0940067"><ele>68.14285714285714</ele><time>2026-03-25T17:36:24.314Z</time></trkpt><trkpt lat="51.4109017" lon="-0.09393"><ele>68.42857142857143</ele><time>2026-03-25T17:36:25.314Z</time></trkpt><trkpt lat="51.41095" lon="-0.0938417"><ele>68.71428571428572</ele><time>2026-03-25T17:36:26.313Z</time></trkpt><trkpt lat="51.4109983" lon="-0.0937667"><ele>69.0</ele><time>2026-03-25T17:36:27.315Z</time></trkpt><trkpt lat="51.4110517" lon="-0.0936983"><ele>69.66666666666667</ele><time>2026-03-25T17:36:28.314Z</time></trkpt><trkpt lat="51.4111033" lon="-0.0936317"><ele>70.33333333333333</ele><time>2026-03-25T17:36:29.314Z</time></trkpt><trkpt lat="51.4111583" lon="-0.0935767"><ele>71.0</ele><time>2026-03-25T17:36:30.315Z</time></trkpt><trkpt lat="51.4112717" lon="-0.0934933"><ele>71.66666666666666</ele><time>2026-03-25T17:36:32.315Z</time></trkpt><trkpt lat="51.4113333" lon="-0.0934483"><ele>72.33333333333333</ele><time>2026-03-25T17:36:33.315Z</time></trkpt><trkpt lat="51.4113933" lon="-0.0934133"><ele>73.0</ele><time>2026-03-25T17:36:34.313Z</time></trkpt><trkpt lat="51.41149" lon="-0.0933517"><ele>73.16666666666666</ele><time>2026-03-25T17:36:36.315Z</time></trkpt><trkpt lat="51.4115933" lon="-0.0932867"><ele>73.33333333333333</ele><time>2026-03-25T17:36:38.315Z</time></trkpt><trkpt lat="51.4116617" lon="-0.0932467"><ele>73.5</ele><time>2026-03-25T17:36:39.314Z</time></trkpt><trkpt lat="51.41173" lon="-0.0932083"><ele>73.66666666666667</ele><time>2026-03-25T17:36:40.314Z</time></trkpt><trkpt lat="51.4117917" lon="-0.09317"><ele>73.83333333333334</ele><time>2026-03-25T17:36:41.315Z</time></trkpt><trkpt lat="51.4119067" lon="-0.0930967"><ele>74.0</ele><time>2026-03-25T17:36:43.317Z</time></trkpt><trkpt lat="51.41198" lon="-0.09306"><ele>74.33333333333334</ele><time>2026-03-25T17:36:44.319Z</time></trkpt><trkpt lat="51.4120583" lon="-0.093015"><ele>74.66666666666667</ele><time>2026-03-25T17:36:45.315Z</time></trkpt><trkpt lat="51.41214" lon="-0.0929667"><ele>75.0</ele><time>2026-03-25T17:36:46.314Z</time></trkpt><trkpt lat="51.4122167" lon="-0.0929233"><ele>75.33333333333333</ele><time>2026-03-25T17:36:47.315Z</time></trkpt><trkpt lat="51.4122883" lon="-0.0928833"><ele>75.66666666666666</ele><time>2026-03-25T17:36:48.314Z</time></trkpt><trkpt lat="51.412365" lon="-0.0928333"><ele>76.0</ele><time>2026-03-25T17:36:49.314Z</time></trkpt><trkpt lat="51.41245" lon="-0.09278"><ele>78.19999999999999</ele><time>2026-03-25T17:36:50.314Z</time></trkpt><trkpt lat="51.4125433" lon="-0.092725"><ele>80.39999999999999</ele><time>2026-03-25T17:36:51.315Z</time></trkpt><trkpt lat="51.4126283" lon="-0.0926767"><ele>82.6</ele><time>2026-03-25T17:36:52.314Z</time></trkpt><trkpt lat="51.412705" lon="-0.0926317"><ele>84.8</ele><time>2026-03-25T17:36:53.317Z</time></trkpt><trkpt lat="51.4127683" lon="-0.0925967"><ele>87.0</ele><time>2026-03-25T17:36:54.315Z</time></trkpt><trkpt lat="51.412875" lon="-0.0925383"><ele>87.0</ele><time>2026-03-25T17:36:56.314Z</time></trkpt><trkpt lat="51.4129517" lon="-0.092495"><ele>87.0</ele><time>2026-03-25T17:36:58.315Z</time></trkpt><trkpt lat="51.4130283" lon="-0.0924417"><ele>87.0</ele><time>2026-03-25T17:37:00.314Z</time></trkpt><trkpt lat="51.4131217" lon="-0.0923817"><ele>87.0</ele><time>2026-03-25T17:37:02.315Z</time></trkpt><trkpt lat="51.4132083" lon="-0.0923383"><ele>87.0</ele><time>2026-03-25T17:37:04.313Z</time></trkpt><trkpt lat="51.41329" lon="-0.0922883"><ele>87.0</ele><time>2026-03-25T17:37:06.314Z</time></trkpt><trkpt lat="51.41337" lon="-0.09224"><ele>88.57142857142857</ele><time>2026-03-25T17:37:08.315Z</time></trkpt><trkpt lat="51.4134467" lon="-0.0922017"><ele>90.14285714285714</ele><time>2026-03-25T17:37:10.314Z</time></trkpt><trkpt lat="51.4135117" lon="-0.092165"><ele>91.71428571428572</ele><time>2026-03-25T17:37:12.315Z</time></trkpt><trkpt lat="51.4135733" lon="-0.0921333"><ele>93.28571428571428</ele><time>2026-03-25T17:37:14.315Z</time></trkpt><trkpt lat="51.4136367" lon="-0.092105"><ele>94.85714285714286</ele><time>2026-03-25T17:37:17.317Z</time></trkpt><trkpt lat="51.4137167" lon="-0.09208"><ele>96.42857142857143</ele><time>2026-03-25T17:37:26.315Z</time></trkpt><trkpt lat="51.4137783" lon="-0.0920467"><ele>98.0</ele><time>2026-03-25T17:37:27.316Z</time></trkpt><trkpt lat="51.4138383" lon="-0.0919817"><ele>97.99999999999999</ele><time>2026-03-25T17:37:28.315Z</time></trkpt><trkpt lat="51.4139" lon="-0.09192"><ele>98.0</ele><time>2026-03-25T17:37:29.315Z</time></trkpt><trkpt lat="51.413965" lon="-0.0918283"><ele>98.0</ele><time>2026-03-25T17:37:30.315Z</time></trkpt><trkpt lat="51.414035" lon="-0.0917483"><ele>98.0</ele><time>2026-03-25T17:37:31.314Z</time></trkpt><trkpt lat="51.41411" lon="-0.0916583"><ele>97.99999999999999</ele><time>2026-03-25T17:37:32.314Z</time></trkpt><trkpt lat="51.414175" lon="-0.0915767"><ele>98.0</ele><time>2026-03-25T17:37:33.314Z</time></trkpt><trkpt lat="51.414245" lon="-0.09149"><ele>97.60000000000001</ele><time>2026-03-25T17:37:34.313Z</time></trkpt><trkpt lat="51.4143183" lon="-0.0913967"><ele>97.2</ele><time>2026-03-25T17:37:35.315Z</time></trkpt><trkpt lat="51.4143933" lon="-0.0913033"><ele>96.8</ele><time>2026-03-25T17:37:36.314Z</time></trkpt><trkpt lat="51.414475" lon="-0.091205"><ele>96.4</ele><time>2026-03-25T17:37:37.316Z</time></trkpt><trkpt lat="51.41456" lon="-0.091105"><ele>96.0</ele><time>2026-03-25T17:37:38.314Z</time></trkpt><trkpt lat="51.414645" lon="-0.0909967"><ele>95.6</ele><time>2026-03-25T17:37:39.314Z</time></trkpt><trkpt lat="51.4147267" lon="-0.090905"><ele>95.19999999999999</ele><time>2026-03-25T17:37:40.314Z</time></trkpt><trkpt lat="51.4148033" lon="-0.0908117"><ele>94.80000000000001</ele><time>2026-03-25T17:37:41.314Z</time></trkpt><trkpt lat="51.4148783" lon="-0.0907217"><ele>94.4</ele><time>2026-03-25T17:37:42.314Z</time></trkpt><trkpt lat="51.4149467" lon="-0.0906333"><ele>94.0</ele><time>2026-03-25T17:37:43.313Z</time></trkpt><trkpt lat="51.415015" lon="-0.09055"><ele>93.83333333333333</ele><time>2026-03-25T17:37:44.316Z</time></trkpt><trkpt lat="51.4150867" lon="-0.0904717"><ele>93.66666666666666</ele><time>2026-03-25T17:37:45.315Z</time></trkpt><trkpt lat="51.4151533" lon="-0.0904067"><ele>93.5</ele><time>2026-03-25T17:37:46.314Z</time></trkpt><trkpt lat="51.4152117" lon="-0.0903483"><ele>93.33333333333333</ele><time>2026-03-25T17:37:47.313Z</time></trkpt><trkpt lat="51.4152667" lon="-0.09029"><ele>93.16666666666667</ele><time>2026-03-25T17:37:48.313Z</time></trkpt><trkpt lat="51.4153433" lon="-0.0901983"><ele>93.0</ele><time>2026-03-25T17:37:50.315Z</time></trkpt><trkpt lat="51.4154133" lon="-0.0901183"><ele>93.0</ele><time>2026-03-25T17:37:52.313Z</time></trkpt><trkpt lat="51.4154633" lon="-0.090055"><ele>93.0</ele><time>2026-03-25T17:37:53.316Z</time></trkpt><trkpt lat="51.41552" lon="-0.089985"><ele>93.0</ele><time>2026-03-25T17:37:54.313Z</time></trkpt><trkpt lat="51.4155817" lon="-0.0899067"><ele>93.0</ele><time>2026-03-25T17:37:55.314Z</time></trkpt><trkpt lat="51.415655" lon="-0.0898117"><ele>93.0</ele><time>2026-03-25T17:37:56.313Z</time></trkpt><trkpt lat="51.4157267" lon="-0.089715"><ele>93.0</ele><time>2026-03-25T17:37:57.315Z</time></trkpt><trkpt lat="51.4158067" lon="-0.08961"><ele>92.60000000000001</ele><time>2026-03-25T17:37:58.313Z</time></trkpt><trkpt lat="51.4158867" lon="-0.089505"><ele>92.2</ele><time>2026-03-25T17:37:59.316Z</time></trkpt><trkpt lat="51.4159617" lon="-0.0894017"><ele>91.8</ele><time>2026-03-25T17:38:00.314Z</time></trkpt><trkpt lat="51.4160283" lon="-0.08931"><ele>91.4</ele><time>2026-03-25T17:38:01.315Z</time></trkpt><trkpt lat="51.4160933" lon="-0.0892217"><ele>91.0</ele><time>2026-03-25T17:38:02.314Z</time></trkpt><trkpt lat="51.4161583" lon="-0.0891167"><ele>91.6</ele><time>2026-03-25T17:38:03.314Z</time></trkpt><trkpt lat="51.4162317" lon="-0.089005"><ele>92.19999999999999</ele><time>2026-03-25T17:38:04.313Z</time></trkpt><trkpt lat="51.416305" lon="-0.0888917"><ele>92.80000000000001</ele><time>2026-03-25T17:38:05.313Z</time></trkpt><trkpt lat="51.4163667" lon="-0.0887817"><ele>93.4</ele><time>2026-03-25T17:38:06.314Z</time></trkpt><trkpt lat="51.4164233" lon="-0.0886733"><ele>94.0</ele><time>2026-03-25T17:38:07.314Z</time></trkpt><trkpt lat="51.416475" lon="-0.088565"><ele>93.33333333333333</ele><time>2026-03-25T17:38:08.314Z</time></trkpt><trkpt lat="51.416525" lon="-0.0884533"><ele>92.66666666666666</ele><time>2026-03-25T17:38:09.314Z</time></trkpt><trkpt lat="51.4165733" lon="-0.0883383"><ele>92.0</ele><time>2026-03-25T17:38:10.314Z</time></trkpt><trkpt lat="51.4166217" lon="-0.0882283"><ele>91.33333333333333</ele><time>2026-03-25T17:38:11.313Z</time></trkpt><trkpt lat="51.4166733" lon="-0.0881133"><ele>90.66666666666667</ele><time>2026-03-25T17:38:12.314Z</time></trkpt><trkpt lat="51.4167283" lon="-0.0879867"><ele>90.0</ele><time>2026-03-25T17:38:13.314Z</time></trkpt><trkpt lat="51.4167833" lon="-0.0878517"><ele>90.0</ele><time>2026-03-25T17:38:14.315Z</time></trkpt><trkpt lat="51.4168383" lon="-0.0877183"><ele>90.0</ele><time>2026-03-25T17:38:15.315Z</time></trkpt><trkpt lat="51.4168883" lon="-0.08759"><ele>90.0</ele><time>2026-03-25T17:38:16.315Z</time></trkpt><trkpt lat="51.4169317" lon="-0.08746"><ele>90.0</ele><time>2026-03-25T17:38:17.314Z</time></trkpt><trkpt lat="51.41698" lon="-0.0873317"><ele>90.0</ele><time>2026-03-25T17:38:18.314Z</time></trkpt><trkpt lat="51.4170317" lon="-0.0872183"><ele>90.2</ele><time>2026-03-25T17:38:19.313Z</time></trkpt><trkpt lat="51.417095" lon="-0.0871133"><ele>90.4</ele><time>2026-03-25T17:38:20.315Z</time></trkpt><trkpt lat="51.4171633" lon="-0.08703"><ele>90.6</ele><time>2026-03-25T17:38:21.314Z</time></trkpt><trkpt lat="51.4172467" lon="-0.086965"><ele>90.8</ele><time>2026-03-25T17:38:22.313Z</time></trkpt><trkpt lat="51.4173383" lon="-0.0869183"><ele>91.0</ele><time>2026-03-25T17:38:23.313Z</time></trkpt><trkpt lat="51.4174283" lon="-0.0868983"><ele>91.0</ele><time>2026-03-25T17:38:24.313Z</time></trkpt><trkpt lat="51.417525" lon="-0.0869267"><ele>91.0</ele><time>2026-03-25T17:38:25.315Z</time></trkpt><trkpt lat="51.4176233" lon="-0.086975"><ele>91.0</ele><time>2026-03-25T17:38:26.314Z</time></trkpt><trkpt lat="51.4177017" lon="-0.08704"><ele>91.0</ele><time>2026-03-25T17:38:27.313Z</time></trkpt><trkpt lat="51.4177717" lon="-0.08709"><ele>91.0</ele><time>2026-03-25T17:38:28.313Z</time></trkpt><trkpt lat="51.4178533" lon="-0.087185"><ele>91.0</ele><time>2026-03-25T17:38:30.314Z</time></trkpt><trkpt lat="51.4177483" lon="-0.08726"><ele>91.0</ele><time>2026-03-25T17:38:32.982Z</time></trkpt><trkpt lat="51.4178367" lon="-0.0872883"><ele>91.0</ele><time>2026-03-25T17:38:35.314Z</time></trkpt><trkpt lat="51.4179167" lon="-0.08736"><ele>91.0</ele><time>2026-03-25T17:38:36.313Z</time></trkpt></trkseg></trk></gpx>